<?xml version="1.0" encoding="UTF-8" standalone="no" ?>
<gpx xmlns="http://www.topografix.com/GPX/1/1" xmlns:xsi="http://www.w3.org/2001/XMLSchema-instance" xsi:schemaLocation="http://www.topografix.com/GPX/1/1 http://www.topografix.com/GPX/1/1/gpx.xsd" version="1.1" creator="VisuGPX - https://www.visugpx.com">
  <metadata>
    <name>dimanche 2025</name>
  </metadata>
  <wpt lat="45.34815" lon="0.53968">
    <ele>150.1</ele>
    <name><![CDATA[Ravitaillement]]></name>
  </wpt>
  <wpt lat="45.34811" lon="0.54003">
    <ele>149.1</ele>
    <name><![CDATA[Ravitaillement]]></name>
  </wpt>
  <wpt lat="45.34814" lon="0.5397">
    <ele>150</ele>
    <name><![CDATA[Ravitaillement]]></name>
  </wpt>
  <trk>
    <name><![CDATA[dimanche 67km]]></name>
    <extensions>
      <line xmlns="http://www.topografix.com/GPX/gpx_style/0/2">
        <color>00b3ff</color>
        <width>6</width>
          <extensions>
            <sens>1</sens>
          </extensions>
      </line>
    </extensions>
    <trkseg>
      <trkpt lat="45.24965" lon="0.33704">
        <ele>72</ele>
        <time>2025-04-16T07:01:51Z</time>
      </trkpt>
      <trkpt lat="45.24984" lon="0.337">
        <ele>72</ele>
        <time>2025-04-16T07:01:54Z</time>
      </trkpt>
      <trkpt lat="45.25077" lon="0.33681">
        <ele>70</ele>
        <time>2025-04-16T07:02:11Z</time>
      </trkpt>
      <trkpt lat="45.25073" lon="0.33623">
        <ele>71</ele>
        <time>2025-04-16T07:02:18Z</time>
      </trkpt>
      <trkpt lat="45.25076" lon="0.33593">
        <ele>72</ele>
        <time>2025-04-16T07:02:22Z</time>
      </trkpt>
      <trkpt lat="45.25437" lon="0.3365">
        <ele>69</ele>
        <time>2025-04-16T07:03:27Z</time>
      </trkpt>
      <trkpt lat="45.25452" lon="0.33655">
        <ele>70</ele>
        <time>2025-04-16T07:03:30Z</time>
      </trkpt>
      <trkpt lat="45.2553" lon="0.33667">
        <ele>70</ele>
        <time>2025-04-16T07:03:44Z</time>
      </trkpt>
      <trkpt lat="45.25536" lon="0.33672">
        <ele>70</ele>
        <time>2025-04-16T07:03:45Z</time>
      </trkpt>
      <trkpt lat="45.25539" lon="0.33679">
        <ele>69</ele>
        <time>2025-04-16T07:03:46Z</time>
      </trkpt>
      <trkpt lat="45.25541" lon="0.33708">
        <ele>69</ele>
        <time>2025-04-16T07:03:49Z</time>
      </trkpt>
      <trkpt lat="45.2555" lon="0.33766">
        <ele>68</ele>
        <time>2025-04-16T07:03:57Z</time>
      </trkpt>
      <trkpt lat="45.25549" lon="0.33787">
        <ele>67</ele>
        <time>2025-04-16T07:04:00Z</time>
      </trkpt>
      <trkpt lat="45.25547" lon="0.33806">
        <ele>67</ele>
        <time>2025-04-16T07:04:02Z</time>
      </trkpt>
      <trkpt lat="45.25522" lon="0.33933">
        <ele>65</ele>
        <time>2025-04-16T07:04:18Z</time>
      </trkpt>
      <trkpt lat="45.25514" lon="0.33974">
        <ele>64</ele>
        <time>2025-04-16T07:04:24Z</time>
      </trkpt>
      <trkpt lat="45.25513" lon="0.33978">
        <ele>64</ele>
        <time>2025-04-16T07:04:24Z</time>
      </trkpt>
      <trkpt lat="45.255" lon="0.34039">
        <ele>64</ele>
        <time>2025-04-16T07:04:32Z</time>
      </trkpt>
      <trkpt lat="45.25494" lon="0.34054">
        <ele>65</ele>
        <time>2025-04-16T07:04:34Z</time>
      </trkpt>
      <trkpt lat="45.25484" lon="0.34069">
        <ele>66</ele>
        <time>2025-04-16T07:04:37Z</time>
      </trkpt>
      <trkpt lat="45.25469" lon="0.34083">
        <ele>66</ele>
        <time>2025-04-16T07:04:40Z</time>
      </trkpt>
      <trkpt lat="45.25455" lon="0.34092">
        <ele>67</ele>
        <time>2025-04-16T07:04:43Z</time>
      </trkpt>
      <trkpt lat="45.25452" lon="0.34092">
        <ele>67</ele>
        <time>2025-04-16T07:04:44Z</time>
      </trkpt>
      <trkpt lat="45.25446" lon="0.34095">
        <ele>68</ele>
        <time>2025-04-16T07:04:45Z</time>
      </trkpt>
      <trkpt lat="45.25443" lon="0.34102">
        <ele>68</ele>
        <time>2025-04-16T07:04:46Z</time>
      </trkpt>
      <trkpt lat="45.25442" lon="0.34109">
        <ele>68</ele>
        <time>2025-04-16T07:04:47Z</time>
      </trkpt>
      <trkpt lat="45.25444" lon="0.34115">
        <ele>68</ele>
        <time>2025-04-16T07:04:47Z</time>
      </trkpt>
      <trkpt lat="45.2545" lon="0.34121">
        <ele>68</ele>
        <time>2025-04-16T07:04:49Z</time>
      </trkpt>
      <trkpt lat="45.25456" lon="0.34121">
        <ele>67</ele>
        <time>2025-04-16T07:04:50Z</time>
      </trkpt>
      <trkpt lat="45.25505" lon="0.34162">
        <ele>65</ele>
        <time>2025-04-16T07:05:00Z</time>
      </trkpt>
      <trkpt lat="45.25619" lon="0.34246">
        <ele>63</ele>
        <time>2025-04-16T07:05:23Z</time>
      </trkpt>
      <trkpt lat="45.2566" lon="0.34276">
        <ele>61</ele>
        <time>2025-04-16T07:05:31Z</time>
      </trkpt>
      <trkpt lat="45.25678" lon="0.34286">
        <ele>61</ele>
        <time>2025-04-16T07:05:34Z</time>
      </trkpt>
      <trkpt lat="45.25693" lon="0.3429">
        <ele>61</ele>
        <time>2025-04-16T07:05:37Z</time>
      </trkpt>
      <trkpt lat="45.25715" lon="0.34292">
        <ele>62</ele>
        <time>2025-04-16T07:05:41Z</time>
      </trkpt>
      <trkpt lat="45.25768" lon="0.34291">
        <ele>62</ele>
        <time>2025-04-16T07:05:50Z</time>
      </trkpt>
      <trkpt lat="45.25797" lon="0.3429">
        <ele>63</ele>
        <time>2025-04-16T07:05:56Z</time>
      </trkpt>
      <trkpt lat="45.25925" lon="0.34288">
        <ele>61</ele>
        <time>2025-04-16T07:06:18Z</time>
      </trkpt>
      <trkpt lat="45.25963" lon="0.34288">
        <ele>61</ele>
        <time>2025-04-16T07:06:25Z</time>
      </trkpt>
      <trkpt lat="45.26056" lon="0.34284">
        <ele>61</ele>
        <time>2025-04-16T07:06:42Z</time>
      </trkpt>
      <trkpt lat="45.26101" lon="0.34287">
        <ele>61</ele>
        <time>2025-04-16T07:06:50Z</time>
      </trkpt>
      <trkpt lat="45.26115" lon="0.34294">
        <ele>61</ele>
        <time>2025-04-16T07:06:52Z</time>
      </trkpt>
      <trkpt lat="45.26117" lon="0.343">
        <ele>61</ele>
        <time>2025-04-16T07:06:53Z</time>
      </trkpt>
      <trkpt lat="45.26125" lon="0.34303">
        <ele>61</ele>
        <time>2025-04-16T07:06:55Z</time>
      </trkpt>
      <trkpt lat="45.26135" lon="0.34322">
        <ele>61</ele>
        <time>2025-04-16T07:06:58Z</time>
      </trkpt>
      <trkpt lat="45.26249" lon="0.34681">
        <ele>63</ele>
        <time>2025-04-16T07:07:47Z</time>
      </trkpt>
      <trkpt lat="45.26254" lon="0.34713">
        <ele>64</ele>
        <time>2025-04-16T07:07:51Z</time>
      </trkpt>
      <trkpt lat="45.26254" lon="0.34733">
        <ele>64</ele>
        <time>2025-04-16T07:07:54Z</time>
      </trkpt>
      <trkpt lat="45.2625" lon="0.3476">
        <ele>64</ele>
        <time>2025-04-16T07:07:57Z</time>
      </trkpt>
      <trkpt lat="45.2618" lon="0.35175">
        <ele>64</ele>
        <time>2025-04-16T07:08:50Z</time>
      </trkpt>
      <trkpt lat="45.26154" lon="0.35333">
        <ele>65</ele>
        <time>2025-04-16T07:09:11Z</time>
      </trkpt>
      <trkpt lat="45.26148" lon="0.35373">
        <ele>65</ele>
        <time>2025-04-16T07:09:16Z</time>
      </trkpt>
      <trkpt lat="45.26146" lon="0.35406">
        <ele>65</ele>
        <time>2025-04-16T07:09:20Z</time>
      </trkpt>
      <trkpt lat="45.26148" lon="0.35455">
        <ele>65</ele>
        <time>2025-04-16T07:09:26Z</time>
      </trkpt>
      <trkpt lat="45.26186" lon="0.35739">
        <ele>66</ele>
        <time>2025-04-16T07:10:02Z</time>
      </trkpt>
      <trkpt lat="45.26191" lon="0.35837">
        <ele>64</ele>
        <time>2025-04-16T07:10:15Z</time>
      </trkpt>
      <trkpt lat="45.26194" lon="0.35955">
        <ele>65</ele>
        <time>2025-04-16T07:10:30Z</time>
      </trkpt>
      <trkpt lat="45.26199" lon="0.36014">
        <ele>66</ele>
        <time>2025-04-16T07:10:37Z</time>
      </trkpt>
      <trkpt lat="45.26214" lon="0.36082">
        <ele>67</ele>
        <time>2025-04-16T07:10:46Z</time>
      </trkpt>
      <trkpt lat="45.26216" lon="0.36088">
        <ele>67</ele>
        <time>2025-04-16T07:10:47Z</time>
      </trkpt>
      <trkpt lat="45.26225" lon="0.36143">
        <ele>68</ele>
        <time>2025-04-16T07:10:54Z</time>
      </trkpt>
      <trkpt lat="45.26225" lon="0.36273">
        <ele>69</ele>
        <time>2025-04-16T07:11:10Z</time>
      </trkpt>
      <trkpt lat="45.26227" lon="0.36312">
        <ele>69</ele>
        <time>2025-04-16T07:11:15Z</time>
      </trkpt>
      <trkpt lat="45.2623" lon="0.36336">
        <ele>69</ele>
        <time>2025-04-16T07:11:18Z</time>
      </trkpt>
      <trkpt lat="45.26238" lon="0.36376">
        <ele>69</ele>
        <time>2025-04-16T07:11:23Z</time>
      </trkpt>
      <trkpt lat="45.2626" lon="0.36454">
        <ele>71</ele>
        <time>2025-04-16T07:11:34Z</time>
      </trkpt>
      <trkpt lat="45.26264" lon="0.36545">
        <ele>71</ele>
        <time>2025-04-16T07:11:45Z</time>
      </trkpt>
      <trkpt lat="45.26299" lon="0.37017">
        <ele>67</ele>
        <time>2025-04-16T07:12:45Z</time>
      </trkpt>
      <trkpt lat="45.26295" lon="0.37217">
        <ele>67</ele>
        <time>2025-04-16T07:13:10Z</time>
      </trkpt>
      <trkpt lat="45.26295" lon="0.37219">
        <ele>67</ele>
        <time>2025-04-16T07:13:10Z</time>
      </trkpt>
      <trkpt lat="45.26295" lon="0.37243">
        <ele>68</ele>
        <time>2025-04-16T07:13:13Z</time>
      </trkpt>
      <trkpt lat="45.2629" lon="0.37407">
        <ele>74</ele>
        <time>2025-04-16T07:13:33Z</time>
      </trkpt>
      <trkpt lat="45.26291" lon="0.37435">
        <ele>74</ele>
        <time>2025-04-16T07:13:37Z</time>
      </trkpt>
      <trkpt lat="45.26294" lon="0.37473">
        <ele>74</ele>
        <time>2025-04-16T07:13:42Z</time>
      </trkpt>
      <trkpt lat="45.26304" lon="0.37557">
        <ele>75</ele>
        <time>2025-04-16T07:13:52Z</time>
      </trkpt>
      <trkpt lat="45.26307" lon="0.37659">
        <ele>77</ele>
        <time>2025-04-16T07:14:05Z</time>
      </trkpt>
      <trkpt lat="45.26312" lon="0.3771">
        <ele>78</ele>
        <time>2025-04-16T07:14:12Z</time>
      </trkpt>
      <trkpt lat="45.2632" lon="0.37749">
        <ele>78</ele>
        <time>2025-04-16T07:14:17Z</time>
      </trkpt>
      <trkpt lat="45.26335" lon="0.37798">
        <ele>79</ele>
        <time>2025-04-16T07:14:23Z</time>
      </trkpt>
      <trkpt lat="45.2634" lon="0.37826">
        <ele>79</ele>
        <time>2025-04-16T07:14:27Z</time>
      </trkpt>
      <trkpt lat="45.26342" lon="0.37856">
        <ele>78</ele>
        <time>2025-04-16T07:14:31Z</time>
      </trkpt>
      <trkpt lat="45.26341" lon="0.37884">
        <ele>78</ele>
        <time>2025-04-16T07:14:34Z</time>
      </trkpt>
      <trkpt lat="45.26335" lon="0.37922">
        <ele>77</ele>
        <time>2025-04-16T07:14:39Z</time>
      </trkpt>
      <trkpt lat="45.2631" lon="0.3799">
        <ele>77</ele>
        <time>2025-04-16T07:14:49Z</time>
      </trkpt>
      <trkpt lat="45.26297" lon="0.38032">
        <ele>77</ele>
        <time>2025-04-16T07:14:55Z</time>
      </trkpt>
      <trkpt lat="45.26293" lon="0.38053">
        <ele>77</ele>
        <time>2025-04-16T07:14:57Z</time>
      </trkpt>
      <trkpt lat="45.26288" lon="0.38084">
        <ele>78</ele>
        <time>2025-04-16T07:15:01Z</time>
      </trkpt>
      <trkpt lat="45.26284" lon="0.38172">
        <ele>78</ele>
        <time>2025-04-16T07:15:12Z</time>
      </trkpt>
      <trkpt lat="45.26285" lon="0.38233">
        <ele>78</ele>
        <time>2025-04-16T07:15:20Z</time>
      </trkpt>
      <trkpt lat="45.2629" lon="0.38307">
        <ele>78</ele>
        <time>2025-04-16T07:15:29Z</time>
      </trkpt>
      <trkpt lat="45.26305" lon="0.38475">
        <ele>78</ele>
        <time>2025-04-16T07:15:51Z</time>
      </trkpt>
      <trkpt lat="45.26307" lon="0.38519">
        <ele>78</ele>
        <time>2025-04-16T07:15:56Z</time>
      </trkpt>
      <trkpt lat="45.26304" lon="0.38759">
        <ele>72</ele>
        <time>2025-04-16T07:16:26Z</time>
      </trkpt>
      <trkpt lat="45.26306" lon="0.38785">
        <ele>71</ele>
        <time>2025-04-16T07:16:29Z</time>
      </trkpt>
      <trkpt lat="45.26312" lon="0.38807">
        <ele>71</ele>
        <time>2025-04-16T07:16:32Z</time>
      </trkpt>
      <trkpt lat="45.26329" lon="0.38843">
        <ele>70</ele>
        <time>2025-04-16T07:16:38Z</time>
      </trkpt>
      <trkpt lat="45.26357" lon="0.38898">
        <ele>70</ele>
        <time>2025-04-16T07:16:46Z</time>
      </trkpt>
      <trkpt lat="45.26366" lon="0.38926">
        <ele>69</ele>
        <time>2025-04-16T07:16:50Z</time>
      </trkpt>
      <trkpt lat="45.26368" lon="0.3894">
        <ele>69</ele>
        <time>2025-04-16T07:16:52Z</time>
      </trkpt>
      <trkpt lat="45.26366" lon="0.38959">
        <ele>69</ele>
        <time>2025-04-16T07:16:54Z</time>
      </trkpt>
      <trkpt lat="45.26355" lon="0.39054">
        <ele>68</ele>
        <time>2025-04-16T07:17:06Z</time>
      </trkpt>
      <trkpt lat="45.26355" lon="0.39069">
        <ele>67</ele>
        <time>2025-04-16T07:17:08Z</time>
      </trkpt>
      <trkpt lat="45.26357" lon="0.39081">
        <ele>67</ele>
        <time>2025-04-16T07:17:10Z</time>
      </trkpt>
      <trkpt lat="45.26365" lon="0.3909">
        <ele>67</ele>
        <time>2025-04-16T07:17:12Z</time>
      </trkpt>
      <trkpt lat="45.26373" lon="0.39095">
        <ele>67</ele>
        <time>2025-04-16T07:17:13Z</time>
      </trkpt>
      <trkpt lat="45.26384" lon="0.39096">
        <ele>68</ele>
        <time>2025-04-16T07:17:15Z</time>
      </trkpt>
      <trkpt lat="45.26497" lon="0.39077">
        <ele>68</ele>
        <time>2025-04-16T07:17:35Z</time>
      </trkpt>
      <trkpt lat="45.26536" lon="0.39076">
        <ele>70</ele>
        <time>2025-04-16T07:17:42Z</time>
      </trkpt>
      <trkpt lat="45.26637" lon="0.39091">
        <ele>71</ele>
        <time>2025-04-16T07:18:00Z</time>
      </trkpt>
      <trkpt lat="45.26673" lon="0.39101">
        <ele>72</ele>
        <time>2025-04-16T07:18:07Z</time>
      </trkpt>
      <trkpt lat="45.26691" lon="0.39108">
        <ele>72</ele>
        <time>2025-04-16T07:18:10Z</time>
      </trkpt>
      <trkpt lat="45.26715" lon="0.3913">
        <ele>72</ele>
        <time>2025-04-16T07:18:15Z</time>
      </trkpt>
      <trkpt lat="45.26803" lon="0.39249">
        <ele>71</ele>
        <time>2025-04-16T07:18:37Z</time>
      </trkpt>
      <trkpt lat="45.26813" lon="0.39264">
        <ele>71</ele>
        <time>2025-04-16T07:18:40Z</time>
      </trkpt>
      <trkpt lat="45.26839" lon="0.39304">
        <ele>71</ele>
        <time>2025-04-16T07:18:46Z</time>
      </trkpt>
      <trkpt lat="45.27049" lon="0.39595">
        <ele>84</ele>
        <time>2025-04-16T07:19:39Z</time>
      </trkpt>
      <trkpt lat="45.27067" lon="0.39623">
        <ele>85</ele>
        <time>2025-04-16T07:19:43Z</time>
      </trkpt>
      <trkpt lat="45.27183" lon="0.3986">
        <ele>83</ele>
        <time>2025-04-16T07:20:19Z</time>
      </trkpt>
      <trkpt lat="45.27211" lon="0.39897">
        <ele>84</ele>
        <time>2025-04-16T07:20:26Z</time>
      </trkpt>
      <trkpt lat="45.27242" lon="0.39936">
        <ele>84</ele>
        <time>2025-04-16T07:20:34Z</time>
      </trkpt>
      <trkpt lat="45.27268" lon="0.39962">
        <ele>85</ele>
        <time>2025-04-16T07:20:39Z</time>
      </trkpt>
      <trkpt lat="45.27294" lon="0.39986">
        <ele>86</ele>
        <time>2025-04-16T07:20:45Z</time>
      </trkpt>
      <trkpt lat="45.27382" lon="0.40043">
        <ele>88</ele>
        <time>2025-04-16T07:21:02Z</time>
      </trkpt>
      <trkpt lat="45.27437" lon="0.40061">
        <ele>87</ele>
        <time>2025-04-16T07:21:12Z</time>
      </trkpt>
      <trkpt lat="45.27511" lon="0.40071">
        <ele>88</ele>
        <time>2025-04-16T07:21:25Z</time>
      </trkpt>
      <trkpt lat="45.27536" lon="0.40079">
        <ele>89</ele>
        <time>2025-04-16T07:21:30Z</time>
      </trkpt>
      <trkpt lat="45.27596" lon="0.40107">
        <ele>90</ele>
        <time>2025-04-16T07:21:41Z</time>
      </trkpt>
      <trkpt lat="45.2772" lon="0.40151">
        <ele>88</ele>
        <time>2025-04-16T07:22:04Z</time>
      </trkpt>
      <trkpt lat="45.27789" lon="0.40157">
        <ele>89</ele>
        <time>2025-04-16T07:22:16Z</time>
      </trkpt>
      <trkpt lat="45.28123" lon="0.40288">
        <ele>93</ele>
        <time>2025-04-16T07:23:18Z</time>
      </trkpt>
      <trkpt lat="45.28147" lon="0.40294">
        <ele>93</ele>
        <time>2025-04-16T07:23:22Z</time>
      </trkpt>
      <trkpt lat="45.28359" lon="0.40327">
        <ele>94</ele>
        <time>2025-04-16T07:24:00Z</time>
      </trkpt>
      <trkpt lat="45.28396" lon="0.40327">
        <ele>95</ele>
        <time>2025-04-16T07:24:07Z</time>
      </trkpt>
      <trkpt lat="45.28502" lon="0.40322">
        <ele>99</ele>
        <time>2025-04-16T07:24:25Z</time>
      </trkpt>
      <trkpt lat="45.28624" lon="0.40306">
        <ele>103</ele>
        <time>2025-04-16T07:24:47Z</time>
      </trkpt>
      <trkpt lat="45.28647" lon="0.40308">
        <ele>103</ele>
        <time>2025-04-16T07:24:51Z</time>
      </trkpt>
      <trkpt lat="45.28816" lon="0.40385">
        <ele>98</ele>
        <time>2025-04-16T07:25:23Z</time>
      </trkpt>
      <trkpt lat="45.28836" lon="0.40392">
        <ele>98</ele>
        <time>2025-04-16T07:25:27Z</time>
      </trkpt>
      <trkpt lat="45.28867" lon="0.40397">
        <ele>100</ele>
        <time>2025-04-16T07:25:32Z</time>
      </trkpt>
      <trkpt lat="45.2889" lon="0.40405">
        <ele>101</ele>
        <time>2025-04-16T07:25:36Z</time>
      </trkpt>
      <trkpt lat="45.28904" lon="0.40415">
        <ele>101</ele>
        <time>2025-04-16T07:25:39Z</time>
      </trkpt>
      <trkpt lat="45.28933" lon="0.40442">
        <ele>102</ele>
        <time>2025-04-16T07:25:45Z</time>
      </trkpt>
      <trkpt lat="45.28946" lon="0.40452">
        <ele>102</ele>
        <time>2025-04-16T07:25:48Z</time>
      </trkpt>
      <trkpt lat="45.29194" lon="0.4055">
        <ele>105</ele>
        <time>2025-04-16T07:26:34Z</time>
      </trkpt>
      <trkpt lat="45.29216" lon="0.40554">
        <ele>105</ele>
        <time>2025-04-16T07:26:38Z</time>
      </trkpt>
      <trkpt lat="45.29258" lon="0.40555">
        <ele>107</ele>
        <time>2025-04-16T07:26:45Z</time>
      </trkpt>
      <trkpt lat="45.29273" lon="0.40557">
        <ele>109</ele>
        <time>2025-04-16T07:26:48Z</time>
      </trkpt>
      <trkpt lat="45.29288" lon="0.40564">
        <ele>109</ele>
        <time>2025-04-16T07:26:51Z</time>
      </trkpt>
      <trkpt lat="45.293" lon="0.40573">
        <ele>109</ele>
        <time>2025-04-16T07:26:53Z</time>
      </trkpt>
      <trkpt lat="45.2931" lon="0.40585">
        <ele>109</ele>
        <time>2025-04-16T07:26:55Z</time>
      </trkpt>
      <trkpt lat="45.29388" lon="0.40687">
        <ele>109</ele>
        <time>2025-04-16T07:27:14Z</time>
      </trkpt>
      <trkpt lat="45.294" lon="0.40707">
        <ele>109</ele>
        <time>2025-04-16T07:27:18Z</time>
      </trkpt>
      <trkpt lat="45.2941" lon="0.40727">
        <ele>109</ele>
        <time>2025-04-16T07:27:21Z</time>
      </trkpt>
      <trkpt lat="45.29521" lon="0.4101">
        <ele>107</ele>
        <time>2025-04-16T07:28:01Z</time>
      </trkpt>
      <trkpt lat="45.29536" lon="0.41032">
        <ele>107</ele>
        <time>2025-04-16T07:28:05Z</time>
      </trkpt>
      <trkpt lat="45.29589" lon="0.41097">
        <ele>106</ele>
        <time>2025-04-16T07:28:17Z</time>
      </trkpt>
      <trkpt lat="45.29695" lon="0.4126">
        <ele>106</ele>
        <time>2025-04-16T07:28:45Z</time>
      </trkpt>
      <trkpt lat="45.29702" lon="0.4127">
        <ele>106</ele>
        <time>2025-04-16T07:28:47Z</time>
      </trkpt>
      <trkpt lat="45.29715" lon="0.41276">
        <ele>107</ele>
        <time>2025-04-16T07:28:49Z</time>
      </trkpt>
      <trkpt lat="45.29741" lon="0.41322">
        <ele>105</ele>
        <time>2025-04-16T07:28:57Z</time>
      </trkpt>
      <trkpt lat="45.29762" lon="0.41364">
        <ele>105</ele>
        <time>2025-04-16T07:29:03Z</time>
      </trkpt>
      <trkpt lat="45.29766" lon="0.41367">
        <ele>105</ele>
        <time>2025-04-16T07:29:04Z</time>
      </trkpt>
      <trkpt lat="45.29777" lon="0.41368">
        <ele>106</ele>
        <time>2025-04-16T07:29:06Z</time>
      </trkpt>
      <trkpt lat="45.29782" lon="0.41364">
        <ele>106</ele>
        <time>2025-04-16T07:29:07Z</time>
      </trkpt>
      <trkpt lat="45.29792" lon="0.4135">
        <ele>107</ele>
        <time>2025-04-16T07:29:10Z</time>
      </trkpt>
      <trkpt lat="45.29802" lon="0.41346">
        <ele>108</ele>
        <time>2025-04-16T07:29:11Z</time>
      </trkpt>
      <trkpt lat="45.29834" lon="0.41375">
        <ele>109</ele>
        <time>2025-04-16T07:29:18Z</time>
      </trkpt>
      <trkpt lat="45.29916" lon="0.41415">
        <ele>112</ele>
        <time>2025-04-16T07:29:34Z</time>
      </trkpt>
      <trkpt lat="45.29942" lon="0.41442">
        <ele>113</ele>
        <time>2025-04-16T07:29:39Z</time>
      </trkpt>
      <trkpt lat="45.29973" lon="0.4148">
        <ele>113</ele>
        <time>2025-04-16T07:29:47Z</time>
      </trkpt>
      <trkpt lat="45.29992" lon="0.41499">
        <ele>113</ele>
        <time>2025-04-16T07:29:51Z</time>
      </trkpt>
      <trkpt lat="45.30009" lon="0.41507">
        <ele>114</ele>
        <time>2025-04-16T07:29:54Z</time>
      </trkpt>
      <trkpt lat="45.30031" lon="0.41512">
        <ele>115</ele>
        <time>2025-04-16T07:29:58Z</time>
      </trkpt>
      <trkpt lat="45.30075" lon="0.4151">
        <ele>118</ele>
        <time>2025-04-16T07:30:06Z</time>
      </trkpt>
      <trkpt lat="45.30121" lon="0.41494">
        <ele>119</ele>
        <time>2025-04-16T07:30:14Z</time>
      </trkpt>
      <trkpt lat="45.30192" lon="0.41467">
        <ele>121</ele>
        <time>2025-04-16T07:30:27Z</time>
      </trkpt>
      <trkpt lat="45.30208" lon="0.41465">
        <ele>120</ele>
        <time>2025-04-16T07:30:30Z</time>
      </trkpt>
      <trkpt lat="45.30225" lon="0.41468">
        <ele>120</ele>
        <time>2025-04-16T07:30:33Z</time>
      </trkpt>
      <trkpt lat="45.30247" lon="0.41476">
        <ele>119</ele>
        <time>2025-04-16T07:30:37Z</time>
      </trkpt>
      <trkpt lat="45.30314" lon="0.41509">
        <ele>119</ele>
        <time>2025-04-16T07:30:50Z</time>
      </trkpt>
      <trkpt lat="45.3035" lon="0.41539">
        <ele>120</ele>
        <time>2025-04-16T07:30:57Z</time>
      </trkpt>
      <trkpt lat="45.30408" lon="0.41594">
        <ele>120</ele>
        <time>2025-04-16T07:31:10Z</time>
      </trkpt>
      <trkpt lat="45.30434" lon="0.41607">
        <ele>119</ele>
        <time>2025-04-16T07:31:15Z</time>
      </trkpt>
      <trkpt lat="45.30442" lon="0.41608">
        <ele>119</ele>
        <time>2025-04-16T07:31:16Z</time>
      </trkpt>
      <trkpt lat="45.30628" lon="0.41565">
        <ele>122</ele>
        <time>2025-04-16T07:31:49Z</time>
      </trkpt>
      <trkpt lat="45.30655" lon="0.41555">
        <ele>121</ele>
        <time>2025-04-16T07:31:54Z</time>
      </trkpt>
      <trkpt lat="45.30674" lon="0.41542">
        <ele>121</ele>
        <time>2025-04-16T07:31:58Z</time>
      </trkpt>
      <trkpt lat="45.30694" lon="0.4152">
        <ele>123</ele>
        <time>2025-04-16T07:32:03Z</time>
      </trkpt>
      <trkpt lat="45.30872" lon="0.41279">
        <ele>130</ele>
        <time>2025-04-16T07:32:46Z</time>
      </trkpt>
      <trkpt lat="45.309" lon="0.41246">
        <ele>132</ele>
        <time>2025-04-16T07:32:53Z</time>
      </trkpt>
      <trkpt lat="45.30927" lon="0.41225">
        <ele>133</ele>
        <time>2025-04-16T07:32:58Z</time>
      </trkpt>
      <trkpt lat="45.30947" lon="0.41217">
        <ele>133</ele>
        <time>2025-04-16T07:33:02Z</time>
      </trkpt>
      <trkpt lat="45.30994" lon="0.41207">
        <ele>135</ele>
        <time>2025-04-16T07:33:11Z</time>
      </trkpt>
      <trkpt lat="45.31013" lon="0.41196">
        <ele>135</ele>
        <time>2025-04-16T07:33:14Z</time>
      </trkpt>
      <trkpt lat="45.31044" lon="0.41168">
        <ele>135</ele>
        <time>2025-04-16T07:33:21Z</time>
      </trkpt>
      <trkpt lat="45.31072" lon="0.41146">
        <ele>138</ele>
        <time>2025-04-16T07:33:26Z</time>
      </trkpt>
      <trkpt lat="45.31089" lon="0.4114">
        <ele>138</ele>
        <time>2025-04-16T07:33:30Z</time>
      </trkpt>
      <trkpt lat="45.31107" lon="0.41142">
        <ele>139</ele>
        <time>2025-04-16T07:33:33Z</time>
      </trkpt>
      <trkpt lat="45.31128" lon="0.41154">
        <ele>140</ele>
        <time>2025-04-16T07:33:37Z</time>
      </trkpt>
      <trkpt lat="45.31145" lon="0.41169">
        <ele>141</ele>
        <time>2025-04-16T07:33:40Z</time>
      </trkpt>
      <trkpt lat="45.31193" lon="0.41227">
        <ele>146</ele>
        <time>2025-04-16T07:33:52Z</time>
      </trkpt>
      <trkpt lat="45.31208" lon="0.41237">
        <ele>147</ele>
        <time>2025-04-16T07:33:54Z</time>
      </trkpt>
      <trkpt lat="45.31236" lon="0.41249">
        <ele>148</ele>
        <time>2025-04-16T07:34:00Z</time>
      </trkpt>
      <trkpt lat="45.3139" lon="0.41307">
        <ele>157</ele>
        <time>2025-04-16T07:34:28Z</time>
      </trkpt>
      <trkpt lat="45.31432" lon="0.41313">
        <ele>159</ele>
        <time>2025-04-16T07:34:36Z</time>
      </trkpt>
      <trkpt lat="45.31494" lon="0.41318">
        <ele>164</ele>
        <time>2025-04-16T07:34:47Z</time>
      </trkpt>
      <trkpt lat="45.31516" lon="0.41322">
        <ele>165</ele>
        <time>2025-04-16T07:34:51Z</time>
      </trkpt>
      <trkpt lat="45.31655" lon="0.41373">
        <ele>173</ele>
        <time>2025-04-16T07:35:16Z</time>
      </trkpt>
      <trkpt lat="45.31676" lon="0.41378">
        <ele>174</ele>
        <time>2025-04-16T07:35:20Z</time>
      </trkpt>
      <trkpt lat="45.31717" lon="0.41381">
        <ele>177</ele>
        <time>2025-04-16T07:35:27Z</time>
      </trkpt>
      <trkpt lat="45.31824" lon="0.41373">
        <ele>183</ele>
        <time>2025-04-16T07:35:46Z</time>
      </trkpt>
      <trkpt lat="45.31875" lon="0.41375">
        <ele>186</ele>
        <time>2025-04-16T07:35:55Z</time>
      </trkpt>
      <trkpt lat="45.31896" lon="0.41378">
        <ele>187</ele>
        <time>2025-04-16T07:35:59Z</time>
      </trkpt>
      <trkpt lat="45.31914" lon="0.41384">
        <ele>187</ele>
        <time>2025-04-16T07:36:02Z</time>
      </trkpt>
      <trkpt lat="45.31958" lon="0.41398">
        <ele>189</ele>
        <time>2025-04-16T07:36:10Z</time>
      </trkpt>
      <trkpt lat="45.31978" lon="0.41399">
        <ele>190</ele>
        <time>2025-04-16T07:36:14Z</time>
      </trkpt>
      <trkpt lat="45.32025" lon="0.41392">
        <ele>193</ele>
        <time>2025-04-16T07:36:22Z</time>
      </trkpt>
      <trkpt lat="45.3204" lon="0.41394">
        <ele>193</ele>
        <time>2025-04-16T07:36:25Z</time>
      </trkpt>
      <trkpt lat="45.32054" lon="0.41399">
        <ele>193</ele>
        <time>2025-04-16T07:36:28Z</time>
      </trkpt>
      <trkpt lat="45.32071" lon="0.41411">
        <ele>193</ele>
        <time>2025-04-16T07:36:31Z</time>
      </trkpt>
      <trkpt lat="45.32083" lon="0.41427">
        <ele>192</ele>
        <time>2025-04-16T07:36:34Z</time>
      </trkpt>
      <trkpt lat="45.32141" lon="0.41525">
        <ele>193</ele>
        <time>2025-04-16T07:36:50Z</time>
      </trkpt>
      <trkpt lat="45.32183" lon="0.4159">
        <ele>195</ele>
        <time>2025-04-16T07:37:01Z</time>
      </trkpt>
      <trkpt lat="45.32233" lon="0.41673">
        <ele>198</ele>
        <time>2025-04-16T07:37:15Z</time>
      </trkpt>
      <trkpt lat="45.32245" lon="0.41709">
        <ele>201</ele>
        <time>2025-04-16T07:37:20Z</time>
      </trkpt>
      <trkpt lat="45.32247" lon="0.41733">
        <ele>202</ele>
        <time>2025-04-16T07:37:23Z</time>
      </trkpt>
      <trkpt lat="45.32245" lon="0.41765">
        <ele>204</ele>
        <time>2025-04-16T07:37:27Z</time>
      </trkpt>
      <trkpt lat="45.32231" lon="0.41937">
        <ele>213</ele>
        <time>2025-04-16T07:37:48Z</time>
      </trkpt>
      <trkpt lat="45.32231" lon="0.41962">
        <ele>213</ele>
        <time>2025-04-16T07:37:51Z</time>
      </trkpt>
      <trkpt lat="45.32236" lon="0.41984">
        <ele>213</ele>
        <time>2025-04-16T07:37:54Z</time>
      </trkpt>
      <trkpt lat="45.32243" lon="0.41998">
        <ele>214</ele>
        <time>2025-04-16T07:37:56Z</time>
      </trkpt>
      <trkpt lat="45.32254" lon="0.42015">
        <ele>213</ele>
        <time>2025-04-16T07:37:59Z</time>
      </trkpt>
      <trkpt lat="45.32523" lon="0.42344">
        <ele>197</ele>
        <time>2025-04-16T07:39:03Z</time>
      </trkpt>
      <trkpt lat="45.32609" lon="0.42436">
        <ele>201</ele>
        <time>2025-04-16T07:39:22Z</time>
      </trkpt>
      <trkpt lat="45.32628" lon="0.42463">
        <ele>201</ele>
        <time>2025-04-16T07:39:26Z</time>
      </trkpt>
      <trkpt lat="45.32693" lon="0.42635">
        <ele>205</ele>
        <time>2025-04-16T07:39:51Z</time>
      </trkpt>
      <trkpt lat="45.32721" lon="0.42699">
        <ele>204</ele>
        <time>2025-04-16T07:40:00Z</time>
      </trkpt>
      <trkpt lat="45.32743" lon="0.42723">
        <ele>203</ele>
        <time>2025-04-16T07:40:05Z</time>
      </trkpt>
      <trkpt lat="45.32888" lon="0.42819">
        <ele>199</ele>
        <time>2025-04-16T07:40:34Z</time>
      </trkpt>
      <trkpt lat="45.32909" lon="0.42828">
        <ele>199</ele>
        <time>2025-04-16T07:40:38Z</time>
      </trkpt>
      <trkpt lat="45.33024" lon="0.42859">
        <ele>195</ele>
        <time>2025-04-16T07:40:58Z</time>
      </trkpt>
      <trkpt lat="45.33045" lon="0.42866">
        <ele>194</ele>
        <time>2025-04-16T07:41:02Z</time>
      </trkpt>
      <trkpt lat="45.3307" lon="0.42878">
        <ele>194</ele>
        <time>2025-04-16T07:41:07Z</time>
      </trkpt>
      <trkpt lat="45.33107" lon="0.42906">
        <ele>192</ele>
        <time>2025-04-16T07:41:14Z</time>
      </trkpt>
      <trkpt lat="45.33132" lon="0.42916">
        <ele>190</ele>
        <time>2025-04-16T07:41:19Z</time>
      </trkpt>
      <trkpt lat="45.33177" lon="0.42925">
        <ele>186</ele>
        <time>2025-04-16T07:41:27Z</time>
      </trkpt>
      <trkpt lat="45.33226" lon="0.4293">
        <ele>184</ele>
        <time>2025-04-16T07:41:36Z</time>
      </trkpt>
      <trkpt lat="45.33243" lon="0.42935">
        <ele>183</ele>
        <time>2025-04-16T07:41:39Z</time>
      </trkpt>
      <trkpt lat="45.33272" lon="0.4295">
        <ele>182</ele>
        <time>2025-04-16T07:41:44Z</time>
      </trkpt>
      <trkpt lat="45.33373" lon="0.4303">
        <ele>176</ele>
        <time>2025-04-16T07:42:05Z</time>
      </trkpt>
      <trkpt lat="45.3339" lon="0.43047">
        <ele>175</ele>
        <time>2025-04-16T07:42:09Z</time>
      </trkpt>
      <trkpt lat="45.33401" lon="0.43065">
        <ele>175</ele>
        <time>2025-04-16T07:42:12Z</time>
      </trkpt>
      <trkpt lat="45.33408" lon="0.43085">
        <ele>174</ele>
        <time>2025-04-16T07:42:14Z</time>
      </trkpt>
      <trkpt lat="45.33414" lon="0.43114">
        <ele>173</ele>
        <time>2025-04-16T07:42:18Z</time>
      </trkpt>
      <trkpt lat="45.3343" lon="0.43227">
        <ele>169</ele>
        <time>2025-04-16T07:42:33Z</time>
      </trkpt>
      <trkpt lat="45.33441" lon="0.43251">
        <ele>168</ele>
        <time>2025-04-16T07:42:36Z</time>
      </trkpt>
      <trkpt lat="45.33448" lon="0.43265">
        <ele>167</ele>
        <time>2025-04-16T07:42:38Z</time>
      </trkpt>
      <trkpt lat="45.33459" lon="0.43277">
        <ele>166</ele>
        <time>2025-04-16T07:42:41Z</time>
      </trkpt>
      <trkpt lat="45.33471" lon="0.43285">
        <ele>166</ele>
        <time>2025-04-16T07:42:43Z</time>
      </trkpt>
      <trkpt lat="45.33482" lon="0.43291">
        <ele>165</ele>
        <time>2025-04-16T07:42:45Z</time>
      </trkpt>
      <trkpt lat="45.335" lon="0.43292">
        <ele>165</ele>
        <time>2025-04-16T07:42:49Z</time>
      </trkpt>
      <trkpt lat="45.33654" lon="0.43288">
        <ele>164</ele>
        <time>2025-04-16T07:43:16Z</time>
      </trkpt>
      <trkpt lat="45.33691" lon="0.4329">
        <ele>164</ele>
        <time>2025-04-16T07:43:23Z</time>
      </trkpt>
      <trkpt lat="45.33709" lon="0.43295">
        <ele>164</ele>
        <time>2025-04-16T07:43:26Z</time>
      </trkpt>
      <trkpt lat="45.3381" lon="0.43343">
        <ele>160</ele>
        <time>2025-04-16T07:43:45Z</time>
      </trkpt>
      <trkpt lat="45.33832" lon="0.43351">
        <ele>160</ele>
        <time>2025-04-16T07:43:49Z</time>
      </trkpt>
      <trkpt lat="45.33917" lon="0.43363">
        <ele>157</ele>
        <time>2025-04-16T07:44:04Z</time>
      </trkpt>
      <trkpt lat="45.33935" lon="0.43371">
        <ele>157</ele>
        <time>2025-04-16T07:44:07Z</time>
      </trkpt>
      <trkpt lat="45.33949" lon="0.43383">
        <ele>156</ele>
        <time>2025-04-16T07:44:10Z</time>
      </trkpt>
      <trkpt lat="45.33961" lon="0.43396">
        <ele>155</ele>
        <time>2025-04-16T07:44:13Z</time>
      </trkpt>
      <trkpt lat="45.33981" lon="0.43425">
        <ele>153</ele>
        <time>2025-04-16T07:44:18Z</time>
      </trkpt>
      <trkpt lat="45.34061" lon="0.43571">
        <ele>151</ele>
        <time>2025-04-16T07:44:41Z</time>
      </trkpt>
      <trkpt lat="45.34084" lon="0.43622">
        <ele>148</ele>
        <time>2025-04-16T07:44:49Z</time>
      </trkpt>
      <trkpt lat="45.3409" lon="0.43643">
        <ele>147</ele>
        <time>2025-04-16T07:44:52Z</time>
      </trkpt>
      <trkpt lat="45.34106" lon="0.43712">
        <ele>145</ele>
        <time>2025-04-16T07:45:01Z</time>
      </trkpt>
      <trkpt lat="45.34115" lon="0.43743">
        <ele>145</ele>
        <time>2025-04-16T07:45:05Z</time>
      </trkpt>
      <trkpt lat="45.34131" lon="0.43774">
        <ele>145</ele>
        <time>2025-04-16T07:45:10Z</time>
      </trkpt>
      <trkpt lat="45.34153" lon="0.43801">
        <ele>145</ele>
        <time>2025-04-16T07:45:15Z</time>
      </trkpt>
      <trkpt lat="45.34163" lon="0.43809">
        <ele>144</ele>
        <time>2025-04-16T07:45:17Z</time>
      </trkpt>
      <trkpt lat="45.34181" lon="0.43811">
        <ele>144</ele>
        <time>2025-04-16T07:45:20Z</time>
      </trkpt>
      <trkpt lat="45.34197" lon="0.43809">
        <ele>144</ele>
        <time>2025-04-16T07:45:23Z</time>
      </trkpt>
      <trkpt lat="45.34228" lon="0.438">
        <ele>145</ele>
        <time>2025-04-16T07:45:29Z</time>
      </trkpt>
      <trkpt lat="45.34264" lon="0.43797">
        <ele>146</ele>
        <time>2025-04-16T07:45:35Z</time>
      </trkpt>
      <trkpt lat="45.34287" lon="0.43806">
        <ele>146</ele>
        <time>2025-04-16T07:45:39Z</time>
      </trkpt>
      <trkpt lat="45.34338" lon="0.43832">
        <ele>146</ele>
        <time>2025-04-16T07:45:49Z</time>
      </trkpt>
      <trkpt lat="45.3436" lon="0.43841">
        <ele>146</ele>
        <time>2025-04-16T07:45:53Z</time>
      </trkpt>
      <trkpt lat="45.34375" lon="0.43843">
        <ele>146</ele>
        <time>2025-04-16T07:45:56Z</time>
      </trkpt>
      <trkpt lat="45.34392" lon="0.43842">
        <ele>147</ele>
        <time>2025-04-16T07:45:59Z</time>
      </trkpt>
      <trkpt lat="45.34457" lon="0.43831">
        <ele>147</ele>
        <time>2025-04-16T07:46:10Z</time>
      </trkpt>
      <trkpt lat="45.34475" lon="0.43831">
        <ele>146</ele>
        <time>2025-04-16T07:46:13Z</time>
      </trkpt>
      <trkpt lat="45.34492" lon="0.43835">
        <ele>145</ele>
        <time>2025-04-16T07:46:17Z</time>
      </trkpt>
      <trkpt lat="45.34508" lon="0.43842">
        <ele>144</ele>
        <time>2025-04-16T07:46:20Z</time>
      </trkpt>
      <trkpt lat="45.34538" lon="0.43859">
        <ele>143</ele>
        <time>2025-04-16T07:46:25Z</time>
      </trkpt>
      <trkpt lat="45.34561" lon="0.43877">
        <ele>141</ele>
        <time>2025-04-16T07:46:30Z</time>
      </trkpt>
      <trkpt lat="45.34501" lon="0.44109">
        <ele>143</ele>
        <time>2025-04-16T07:47:01Z</time>
      </trkpt>
      <trkpt lat="45.34457" lon="0.44264">
        <ele>143</ele>
        <time>2025-04-16T07:47:22Z</time>
      </trkpt>
      <trkpt lat="45.34425" lon="0.44346">
        <ele>140</ele>
        <time>2025-04-16T07:47:34Z</time>
      </trkpt>
      <trkpt lat="45.34318" lon="0.44543">
        <ele>137</ele>
        <time>2025-04-16T07:48:05Z</time>
      </trkpt>
      <trkpt lat="45.34256" lon="0.44668">
        <ele>141</ele>
        <time>2025-04-16T07:48:24Z</time>
      </trkpt>
      <trkpt lat="45.34232" lon="0.44764">
        <ele>140</ele>
        <time>2025-04-16T07:48:37Z</time>
      </trkpt>
      <trkpt lat="45.34227" lon="0.44821">
        <ele>138</ele>
        <time>2025-04-16T07:48:44Z</time>
      </trkpt>
      <trkpt lat="45.34226" lon="0.44892">
        <ele>136</ele>
        <time>2025-04-16T07:48:53Z</time>
      </trkpt>
      <trkpt lat="45.34231" lon="0.44965">
        <ele>136</ele>
        <time>2025-04-16T07:49:02Z</time>
      </trkpt>
      <trkpt lat="45.34231" lon="0.45004">
        <ele>137</ele>
        <time>2025-04-16T07:49:07Z</time>
      </trkpt>
      <trkpt lat="45.34225" lon="0.4506">
        <ele>138</ele>
        <time>2025-04-16T07:49:14Z</time>
      </trkpt>
      <trkpt lat="45.34203" lon="0.45142">
        <ele>138</ele>
        <time>2025-04-16T07:49:25Z</time>
      </trkpt>
      <trkpt lat="45.3418" lon="0.45218">
        <ele>140</ele>
        <time>2025-04-16T07:49:35Z</time>
      </trkpt>
      <trkpt lat="45.34178" lon="0.45251">
        <ele>141</ele>
        <time>2025-04-16T07:49:39Z</time>
      </trkpt>
      <trkpt lat="45.34179" lon="0.45301">
        <ele>141</ele>
        <time>2025-04-16T07:49:45Z</time>
      </trkpt>
      <trkpt lat="45.34189" lon="0.45427">
        <ele>139</ele>
        <time>2025-04-16T07:50:01Z</time>
      </trkpt>
      <trkpt lat="45.34185" lon="0.45469">
        <ele>139</ele>
        <time>2025-04-16T07:50:07Z</time>
      </trkpt>
      <trkpt lat="45.34168" lon="0.45546">
        <ele>136</ele>
        <time>2025-04-16T07:50:17Z</time>
      </trkpt>
      <trkpt lat="45.34162" lon="0.45589">
        <ele>135</ele>
        <time>2025-04-16T07:50:22Z</time>
      </trkpt>
      <trkpt lat="45.3416" lon="0.45636">
        <ele>135</ele>
        <time>2025-04-16T07:50:28Z</time>
      </trkpt>
      <trkpt lat="45.3416" lon="0.45701">
        <ele>135</ele>
        <time>2025-04-16T07:50:36Z</time>
      </trkpt>
      <trkpt lat="45.3418" lon="0.45852">
        <ele>136</ele>
        <time>2025-04-16T07:50:55Z</time>
      </trkpt>
      <trkpt lat="45.34182" lon="0.45875">
        <ele>136</ele>
        <time>2025-04-16T07:50:58Z</time>
      </trkpt>
      <trkpt lat="45.3418" lon="0.45896">
        <ele>136</ele>
        <time>2025-04-16T07:51:01Z</time>
      </trkpt>
      <trkpt lat="45.34153" lon="0.46">
        <ele>135</ele>
        <time>2025-04-16T07:51:15Z</time>
      </trkpt>
      <trkpt lat="45.34144" lon="0.46044">
        <ele>136</ele>
        <time>2025-04-16T07:51:21Z</time>
      </trkpt>
      <trkpt lat="45.34136" lon="0.4619">
        <ele>138</ele>
        <time>2025-04-16T07:51:39Z</time>
      </trkpt>
      <trkpt lat="45.34149" lon="0.46303">
        <ele>135</ele>
        <time>2025-04-16T07:51:53Z</time>
      </trkpt>
      <trkpt lat="45.3415" lon="0.46326">
        <ele>135</ele>
        <time>2025-04-16T07:51:56Z</time>
      </trkpt>
      <trkpt lat="45.34148" lon="0.46402">
        <ele>134</ele>
        <time>2025-04-16T07:52:06Z</time>
      </trkpt>
      <trkpt lat="45.34151" lon="0.4649">
        <ele>133</ele>
        <time>2025-04-16T07:52:17Z</time>
      </trkpt>
      <trkpt lat="45.34154" lon="0.46516">
        <ele>132</ele>
        <time>2025-04-16T07:52:20Z</time>
      </trkpt>
      <trkpt lat="45.34162" lon="0.46541">
        <ele>131</ele>
        <time>2025-04-16T07:52:23Z</time>
      </trkpt>
      <trkpt lat="45.34178" lon="0.46563">
        <ele>130</ele>
        <time>2025-04-16T07:52:27Z</time>
      </trkpt>
      <trkpt lat="45.34206" lon="0.46616">
        <ele>128</ele>
        <time>2025-04-16T07:52:36Z</time>
      </trkpt>
      <trkpt lat="45.34211" lon="0.46635">
        <ele>128</ele>
        <time>2025-04-16T07:52:38Z</time>
      </trkpt>
      <trkpt lat="45.3422" lon="0.46731">
        <ele>127</ele>
        <time>2025-04-16T07:52:50Z</time>
      </trkpt>
      <trkpt lat="45.34226" lon="0.46771">
        <ele>127</ele>
        <time>2025-04-16T07:52:55Z</time>
      </trkpt>
      <trkpt lat="45.34236" lon="0.46807">
        <ele>126</ele>
        <time>2025-04-16T07:53:00Z</time>
      </trkpt>
      <trkpt lat="45.34238" lon="0.4682">
        <ele>126</ele>
        <time>2025-04-16T07:53:02Z</time>
      </trkpt>
      <trkpt lat="45.34239" lon="0.46833">
        <ele>126</ele>
        <time>2025-04-16T07:53:03Z</time>
      </trkpt>
      <trkpt lat="45.34213" lon="0.46965">
        <ele>127</ele>
        <time>2025-04-16T07:53:21Z</time>
      </trkpt>
      <trkpt lat="45.342" lon="0.47045">
        <ele>127</ele>
        <time>2025-04-16T07:53:31Z</time>
      </trkpt>
      <trkpt lat="45.3421" lon="0.47183">
        <ele>127</ele>
        <time>2025-04-16T07:53:48Z</time>
      </trkpt>
      <trkpt lat="45.34196" lon="0.47238">
        <ele>129</ele>
        <time>2025-04-16T07:53:56Z</time>
      </trkpt>
      <trkpt lat="45.34191" lon="0.47284">
        <ele>129</ele>
        <time>2025-04-16T07:54:01Z</time>
      </trkpt>
      <trkpt lat="45.34193" lon="0.47322">
        <ele>129</ele>
        <time>2025-04-16T07:54:06Z</time>
      </trkpt>
      <trkpt lat="45.34201" lon="0.474">
        <ele>128</ele>
        <time>2025-04-16T07:54:16Z</time>
      </trkpt>
      <trkpt lat="45.34205" lon="0.47604">
        <ele>126</ele>
        <time>2025-04-16T07:54:42Z</time>
      </trkpt>
      <trkpt lat="45.34211" lon="0.47627">
        <ele>125</ele>
        <time>2025-04-16T07:54:45Z</time>
      </trkpt>
      <trkpt lat="45.34269" lon="0.47762">
        <ele>124</ele>
        <time>2025-04-16T07:55:04Z</time>
      </trkpt>
      <trkpt lat="45.34274" lon="0.47773">
        <ele>124</ele>
        <time>2025-04-16T07:55:06Z</time>
      </trkpt>
      <trkpt lat="45.3428" lon="0.47792">
        <ele>124</ele>
        <time>2025-04-16T07:55:09Z</time>
      </trkpt>
      <trkpt lat="45.34284" lon="0.47814">
        <ele>124</ele>
        <time>2025-04-16T07:55:11Z</time>
      </trkpt>
      <trkpt lat="45.34286" lon="0.47843">
        <ele>124</ele>
        <time>2025-04-16T07:55:15Z</time>
      </trkpt>
      <trkpt lat="45.34282" lon="0.47965">
        <ele>122</ele>
        <time>2025-04-16T07:55:30Z</time>
      </trkpt>
      <trkpt lat="45.34269" lon="0.48189">
        <ele>119</ele>
        <time>2025-04-16T07:55:58Z</time>
      </trkpt>
      <trkpt lat="45.34265" lon="0.48229">
        <ele>119</ele>
        <time>2025-04-16T07:56:04Z</time>
      </trkpt>
      <trkpt lat="45.3425" lon="0.48264">
        <ele>120</ele>
        <time>2025-04-16T07:56:09Z</time>
      </trkpt>
      <trkpt lat="45.34215" lon="0.4831">
        <ele>121</ele>
        <time>2025-04-16T07:56:17Z</time>
      </trkpt>
      <trkpt lat="45.34184" lon="0.48342">
        <ele>120</ele>
        <time>2025-04-16T07:56:24Z</time>
      </trkpt>
      <trkpt lat="45.34158" lon="0.48362">
        <ele>120</ele>
        <time>2025-04-16T07:56:29Z</time>
      </trkpt>
      <trkpt lat="45.34146" lon="0.48367">
        <ele>120</ele>
        <time>2025-04-16T07:56:31Z</time>
      </trkpt>
      <trkpt lat="45.341" lon="0.48402">
        <ele>120</ele>
        <time>2025-04-16T07:56:41Z</time>
      </trkpt>
      <trkpt lat="45.3408" lon="0.48432">
        <ele>119</ele>
        <time>2025-04-16T07:56:46Z</time>
      </trkpt>
      <trkpt lat="45.34065" lon="0.48464">
        <ele>118</ele>
        <time>2025-04-16T07:56:51Z</time>
      </trkpt>
      <trkpt lat="45.34056" lon="0.485">
        <ele>118</ele>
        <time>2025-04-16T07:56:55Z</time>
      </trkpt>
      <trkpt lat="45.34003" lon="0.48787">
        <ele>116</ele>
        <time>2025-04-16T07:57:33Z</time>
      </trkpt>
      <trkpt lat="45.33989" lon="0.48849">
        <ele>116</ele>
        <time>2025-04-16T07:57:41Z</time>
      </trkpt>
      <trkpt lat="45.33951" lon="0.48954">
        <ele>117</ele>
        <time>2025-04-16T07:57:56Z</time>
      </trkpt>
      <trkpt lat="45.33937" lon="0.49006">
        <ele>116</ele>
        <time>2025-04-16T07:58:02Z</time>
      </trkpt>
      <trkpt lat="45.33912" lon="0.49113">
        <ele>112</ele>
        <time>2025-04-16T07:58:17Z</time>
      </trkpt>
      <trkpt lat="45.33852" lon="0.49349">
        <ele>114</ele>
        <time>2025-04-16T07:58:48Z</time>
      </trkpt>
      <trkpt lat="45.33768" lon="0.496">
        <ele>112</ele>
        <time>2025-04-16T07:59:23Z</time>
      </trkpt>
      <trkpt lat="45.33742" lon="0.49658">
        <ele>112</ele>
        <time>2025-04-16T07:59:31Z</time>
      </trkpt>
      <trkpt lat="45.33729" lon="0.49679">
        <ele>112</ele>
        <time>2025-04-16T07:59:35Z</time>
      </trkpt>
      <trkpt lat="45.33713" lon="0.49703">
        <ele>112</ele>
        <time>2025-04-16T07:59:39Z</time>
      </trkpt>
      <trkpt lat="45.33628" lon="0.49804">
        <ele>109</ele>
        <time>2025-04-16T07:59:59Z</time>
      </trkpt>
      <trkpt lat="45.33497" lon="0.49991">
        <ele>107</ele>
        <time>2025-04-16T08:00:32Z</time>
      </trkpt>
      <trkpt lat="45.33474" lon="0.50037">
        <ele>107</ele>
        <time>2025-04-16T08:00:39Z</time>
      </trkpt>
      <trkpt lat="45.33453" lon="0.501">
        <ele>106</ele>
        <time>2025-04-16T08:00:47Z</time>
      </trkpt>
      <trkpt lat="45.3344" lon="0.50148">
        <ele>105</ele>
        <time>2025-04-16T08:00:54Z</time>
      </trkpt>
      <trkpt lat="45.33436" lon="0.50201">
        <ele>104</ele>
        <time>2025-04-16T08:01:01Z</time>
      </trkpt>
      <trkpt lat="45.33436" lon="0.50248">
        <ele>103</ele>
        <time>2025-04-16T08:01:06Z</time>
      </trkpt>
      <trkpt lat="45.33432" lon="0.50305">
        <ele>101</ele>
        <time>2025-04-16T08:01:14Z</time>
      </trkpt>
      <trkpt lat="45.33428" lon="0.50329">
        <ele>100</ele>
        <time>2025-04-16T08:01:17Z</time>
      </trkpt>
      <trkpt lat="45.33435" lon="0.5035">
        <ele>101</ele>
        <time>2025-04-16T08:01:20Z</time>
      </trkpt>
      <trkpt lat="45.33501" lon="0.50499">
        <ele>104</ele>
        <time>2025-04-16T08:01:42Z</time>
      </trkpt>
      <trkpt lat="45.33505" lon="0.50503">
        <ele>104</ele>
        <time>2025-04-16T08:01:43Z</time>
      </trkpt>
      <trkpt lat="45.33495" lon="0.50532">
        <ele>105</ele>
        <time>2025-04-16T08:01:47Z</time>
      </trkpt>
      <trkpt lat="45.33472" lon="0.50619">
        <ele>106</ele>
        <time>2025-04-16T08:01:58Z</time>
      </trkpt>
      <trkpt lat="45.33469" lon="0.50631">
        <ele>106</ele>
        <time>2025-04-16T08:02:00Z</time>
      </trkpt>
      <trkpt lat="45.33448" lon="0.50715">
        <ele>106</ele>
        <time>2025-04-16T08:02:11Z</time>
      </trkpt>
      <trkpt lat="45.33435" lon="0.50739">
        <ele>106</ele>
        <time>2025-04-16T08:02:15Z</time>
      </trkpt>
      <trkpt lat="45.33427" lon="0.50749">
        <ele>106</ele>
        <time>2025-04-16T08:02:17Z</time>
      </trkpt>
      <trkpt lat="45.33412" lon="0.50759">
        <ele>106</ele>
        <time>2025-04-16T08:02:20Z</time>
      </trkpt>
      <trkpt lat="45.33396" lon="0.50765">
        <ele>106</ele>
        <time>2025-04-16T08:02:23Z</time>
      </trkpt>
      <trkpt lat="45.33269" lon="0.50797">
        <ele>105</ele>
        <time>2025-04-16T08:02:45Z</time>
      </trkpt>
      <trkpt lat="45.33245" lon="0.50807">
        <ele>104</ele>
        <time>2025-04-16T08:02:50Z</time>
      </trkpt>
      <trkpt lat="45.33219" lon="0.5083">
        <ele>103</ele>
        <time>2025-04-16T08:02:55Z</time>
      </trkpt>
      <trkpt lat="45.33195" lon="0.50861">
        <ele>104</ele>
        <time>2025-04-16T08:03:01Z</time>
      </trkpt>
      <trkpt lat="45.33122" lon="0.50969">
        <ele>105</ele>
        <time>2025-04-16T08:03:20Z</time>
      </trkpt>
      <trkpt lat="45.33039" lon="0.51074">
        <ele>103</ele>
        <time>2025-04-16T08:03:40Z</time>
      </trkpt>
      <trkpt lat="45.33004" lon="0.51111">
        <ele>104</ele>
        <time>2025-04-16T08:03:47Z</time>
      </trkpt>
      <trkpt lat="45.32983" lon="0.51126">
        <ele>104</ele>
        <time>2025-04-16T08:03:52Z</time>
      </trkpt>
      <trkpt lat="45.32919" lon="0.51158">
        <ele>106</ele>
        <time>2025-04-16T08:04:04Z</time>
      </trkpt>
      <trkpt lat="45.3289" lon="0.51169">
        <ele>106</ele>
        <time>2025-04-16T08:04:09Z</time>
      </trkpt>
      <trkpt lat="45.32865" lon="0.51177">
        <ele>106</ele>
        <time>2025-04-16T08:04:14Z</time>
      </trkpt>
      <trkpt lat="45.32778" lon="0.51186">
        <ele>104</ele>
        <time>2025-04-16T08:04:29Z</time>
      </trkpt>
      <trkpt lat="45.32766" lon="0.5119">
        <ele>104</ele>
        <time>2025-04-16T08:04:31Z</time>
      </trkpt>
      <trkpt lat="45.32742" lon="0.51204">
        <ele>104</ele>
        <time>2025-04-16T08:04:36Z</time>
      </trkpt>
      <trkpt lat="45.32729" lon="0.51217">
        <ele>105</ele>
        <time>2025-04-16T08:04:39Z</time>
      </trkpt>
      <trkpt lat="45.32719" lon="0.51231">
        <ele>105</ele>
        <time>2025-04-16T08:04:41Z</time>
      </trkpt>
      <trkpt lat="45.32702" lon="0.51261">
        <ele>105</ele>
        <time>2025-04-16T08:04:46Z</time>
      </trkpt>
      <trkpt lat="45.32689" lon="0.51288">
        <ele>105</ele>
        <time>2025-04-16T08:04:50Z</time>
      </trkpt>
      <trkpt lat="45.3267" lon="0.51344">
        <ele>104</ele>
        <time>2025-04-16T08:04:58Z</time>
      </trkpt>
      <trkpt lat="45.32661" lon="0.5138">
        <ele>105</ele>
        <time>2025-04-16T08:05:03Z</time>
      </trkpt>
      <trkpt lat="45.32654" lon="0.51418">
        <ele>105</ele>
        <time>2025-04-16T08:05:08Z</time>
      </trkpt>
      <trkpt lat="45.32652" lon="0.51457">
        <ele>104</ele>
        <time>2025-04-16T08:05:12Z</time>
      </trkpt>
      <trkpt lat="45.32655" lon="0.51535">
        <ele>102</ele>
        <time>2025-04-16T08:05:22Z</time>
      </trkpt>
      <trkpt lat="45.32662" lon="0.51611">
        <ele>102</ele>
        <time>2025-04-16T08:05:32Z</time>
      </trkpt>
      <trkpt lat="45.32662" lon="0.51662">
        <ele>102</ele>
        <time>2025-04-16T08:05:38Z</time>
      </trkpt>
      <trkpt lat="45.32645" lon="0.51789">
        <ele>102</ele>
        <time>2025-04-16T08:05:54Z</time>
      </trkpt>
      <trkpt lat="45.32637" lon="0.51833">
        <ele>101</ele>
        <time>2025-04-16T08:06:00Z</time>
      </trkpt>
      <trkpt lat="45.32629" lon="0.51859">
        <ele>100</ele>
        <time>2025-04-16T08:06:04Z</time>
      </trkpt>
      <trkpt lat="45.32618" lon="0.51888">
        <ele>99</ele>
        <time>2025-04-16T08:06:08Z</time>
      </trkpt>
      <trkpt lat="45.32606" lon="0.5191">
        <ele>98</ele>
        <time>2025-04-16T08:06:11Z</time>
      </trkpt>
      <trkpt lat="45.32596" lon="0.51924">
        <ele>98</ele>
        <time>2025-04-16T08:06:14Z</time>
      </trkpt>
      <trkpt lat="45.32562" lon="0.5196">
        <ele>100</ele>
        <time>2025-04-16T08:06:21Z</time>
      </trkpt>
      <trkpt lat="45.32511" lon="0.52022">
        <ele>102</ele>
        <time>2025-04-16T08:06:33Z</time>
      </trkpt>
      <trkpt lat="45.32463" lon="0.52093">
        <ele>103</ele>
        <time>2025-04-16T08:06:46Z</time>
      </trkpt>
      <trkpt lat="45.32431" lon="0.5216">
        <ele>102</ele>
        <time>2025-04-16T08:06:56Z</time>
      </trkpt>
      <trkpt lat="45.32414" lon="0.52188">
        <ele>102</ele>
        <time>2025-04-16T08:07:00Z</time>
      </trkpt>
      <trkpt lat="45.32392" lon="0.52216">
        <ele>102</ele>
        <time>2025-04-16T08:07:06Z</time>
      </trkpt>
      <trkpt lat="45.32421" lon="0.5224">
        <ele>104</ele>
        <time>2025-04-16T08:07:12Z</time>
      </trkpt>
      <trkpt lat="45.32421" lon="0.5225">
        <ele>104</ele>
        <time>2025-04-16T08:07:13Z</time>
      </trkpt>
      <trkpt lat="45.32412" lon="0.52275">
        <ele>105</ele>
        <time>2025-04-16T08:07:16Z</time>
      </trkpt>
      <trkpt lat="45.32411" lon="0.52291">
        <ele>106</ele>
        <time>2025-04-16T08:07:18Z</time>
      </trkpt>
      <trkpt lat="45.32412" lon="0.52308">
        <ele>106</ele>
        <time>2025-04-16T08:07:20Z</time>
      </trkpt>
      <trkpt lat="45.32407" lon="0.52331">
        <ele>107</ele>
        <time>2025-04-16T08:07:23Z</time>
      </trkpt>
      <trkpt lat="45.32407" lon="0.52341">
        <ele>108</ele>
        <time>2025-04-16T08:07:25Z</time>
      </trkpt>
      <trkpt lat="45.32419" lon="0.52361">
        <ele>109</ele>
        <time>2025-04-16T08:07:28Z</time>
      </trkpt>
      <trkpt lat="45.3243" lon="0.52373">
        <ele>110</ele>
        <time>2025-04-16T08:07:30Z</time>
      </trkpt>
      <trkpt lat="45.32442" lon="0.52374">
        <ele>111</ele>
        <time>2025-04-16T08:07:33Z</time>
      </trkpt>
      <trkpt lat="45.32452" lon="0.52366">
        <ele>111</ele>
        <time>2025-04-16T08:07:35Z</time>
      </trkpt>
      <trkpt lat="45.32461" lon="0.52346">
        <ele>111</ele>
        <time>2025-04-16T08:07:38Z</time>
      </trkpt>
      <trkpt lat="45.32475" lon="0.52329">
        <ele>111</ele>
        <time>2025-04-16T08:07:41Z</time>
      </trkpt>
      <trkpt lat="45.32482" lon="0.52327">
        <ele>111</ele>
        <time>2025-04-16T08:07:42Z</time>
      </trkpt>
      <trkpt lat="45.32497" lon="0.52363">
        <ele>113</ele>
        <time>2025-04-16T08:07:47Z</time>
      </trkpt>
      <trkpt lat="45.32496" lon="0.52379">
        <ele>113</ele>
        <time>2025-04-16T08:07:49Z</time>
      </trkpt>
      <trkpt lat="45.32508" lon="0.52402">
        <ele>114</ele>
        <time>2025-04-16T08:07:53Z</time>
      </trkpt>
      <trkpt lat="45.32568" lon="0.52484">
        <ele>120</ele>
        <time>2025-04-16T08:08:08Z</time>
      </trkpt>
      <trkpt lat="45.32586" lon="0.52537">
        <ele>123</ele>
        <time>2025-04-16T08:08:15Z</time>
      </trkpt>
      <trkpt lat="45.3261" lon="0.52596">
        <ele>124</ele>
        <time>2025-04-16T08:08:24Z</time>
      </trkpt>
      <trkpt lat="45.32608" lon="0.52639">
        <ele>126</ele>
        <time>2025-04-16T08:08:29Z</time>
      </trkpt>
      <trkpt lat="45.32698" lon="0.5269">
        <ele>127</ele>
        <time>2025-04-16T08:08:46Z</time>
      </trkpt>
      <trkpt lat="45.32715" lon="0.52704">
        <ele>128</ele>
        <time>2025-04-16T08:08:50Z</time>
      </trkpt>
      <trkpt lat="45.32729" lon="0.52719">
        <ele>128</ele>
        <time>2025-04-16T08:08:53Z</time>
      </trkpt>
      <trkpt lat="45.32744" lon="0.52741">
        <ele>128</ele>
        <time>2025-04-16T08:08:57Z</time>
      </trkpt>
      <trkpt lat="45.32774" lon="0.52796">
        <ele>129</ele>
        <time>2025-04-16T08:09:05Z</time>
      </trkpt>
      <trkpt lat="45.3279" lon="0.52823">
        <ele>130</ele>
        <time>2025-04-16T08:09:10Z</time>
      </trkpt>
      <trkpt lat="45.32805" lon="0.52842">
        <ele>130</ele>
        <time>2025-04-16T08:09:13Z</time>
      </trkpt>
      <trkpt lat="45.32821" lon="0.52857">
        <ele>131</ele>
        <time>2025-04-16T08:09:17Z</time>
      </trkpt>
      <trkpt lat="45.32842" lon="0.52872">
        <ele>133</ele>
        <time>2025-04-16T08:09:21Z</time>
      </trkpt>
      <trkpt lat="45.32889" lon="0.52897">
        <ele>136</ele>
        <time>2025-04-16T08:09:30Z</time>
      </trkpt>
      <trkpt lat="45.32914" lon="0.52918">
        <ele>137</ele>
        <time>2025-04-16T08:09:35Z</time>
      </trkpt>
      <trkpt lat="45.32934" lon="0.5294">
        <ele>139</ele>
        <time>2025-04-16T08:09:40Z</time>
      </trkpt>
      <trkpt lat="45.32964" lon="0.52987">
        <ele>140</ele>
        <time>2025-04-16T08:09:48Z</time>
      </trkpt>
      <trkpt lat="45.32982" lon="0.5302">
        <ele>140</ele>
        <time>2025-04-16T08:09:53Z</time>
      </trkpt>
      <trkpt lat="45.33002" lon="0.53069">
        <ele>140</ele>
        <time>2025-04-16T08:10:00Z</time>
      </trkpt>
      <trkpt lat="45.33029" lon="0.53135">
        <ele>141</ele>
        <time>2025-04-16T08:10:09Z</time>
      </trkpt>
      <trkpt lat="45.33039" lon="0.53158">
        <ele>141</ele>
        <time>2025-04-16T08:10:13Z</time>
      </trkpt>
      <trkpt lat="45.33073" lon="0.53217">
        <ele>140</ele>
        <time>2025-04-16T08:10:22Z</time>
      </trkpt>
      <trkpt lat="45.33116" lon="0.53285">
        <ele>138</ele>
        <time>2025-04-16T08:10:34Z</time>
      </trkpt>
      <trkpt lat="45.33135" lon="0.53311">
        <ele>137</ele>
        <time>2025-04-16T08:10:38Z</time>
      </trkpt>
      <trkpt lat="45.33246" lon="0.53438">
        <ele>137</ele>
        <time>2025-04-16T08:11:04Z</time>
      </trkpt>
      <trkpt lat="45.3327" lon="0.53464">
        <ele>138</ele>
        <time>2025-04-16T08:11:09Z</time>
      </trkpt>
      <trkpt lat="45.33296" lon="0.53485">
        <ele>138</ele>
        <time>2025-04-16T08:11:15Z</time>
      </trkpt>
      <trkpt lat="45.33387" lon="0.53506">
        <ele>139</ele>
        <time>2025-04-16T08:11:31Z</time>
      </trkpt>
      <trkpt lat="45.33407" lon="0.53513">
        <ele>139</ele>
        <time>2025-04-16T08:11:35Z</time>
      </trkpt>
      <trkpt lat="45.33465" lon="0.53544">
        <ele>138</ele>
        <time>2025-04-16T08:11:46Z</time>
      </trkpt>
      <trkpt lat="45.33478" lon="0.53548">
        <ele>138</ele>
        <time>2025-04-16T08:11:48Z</time>
      </trkpt>
      <trkpt lat="45.33572" lon="0.5356">
        <ele>136</ele>
        <time>2025-04-16T08:12:05Z</time>
      </trkpt>
      <trkpt lat="45.33738" lon="0.5361">
        <ele>132</ele>
        <time>2025-04-16T08:12:35Z</time>
      </trkpt>
      <trkpt lat="45.33786" lon="0.53619">
        <ele>132</ele>
        <time>2025-04-16T08:12:44Z</time>
      </trkpt>
      <trkpt lat="45.33931" lon="0.5361">
        <ele>133</ele>
        <time>2025-04-16T08:13:09Z</time>
      </trkpt>
      <trkpt lat="45.33952" lon="0.53612">
        <ele>133</ele>
        <time>2025-04-16T08:13:13Z</time>
      </trkpt>
      <trkpt lat="45.34037" lon="0.53627">
        <ele>132</ele>
        <time>2025-04-16T08:13:28Z</time>
      </trkpt>
      <trkpt lat="45.34055" lon="0.53635">
        <ele>132</ele>
        <time>2025-04-16T08:13:32Z</time>
      </trkpt>
      <trkpt lat="45.34148" lon="0.53704">
        <ele>134</ele>
        <time>2025-04-16T08:13:50Z</time>
      </trkpt>
      <trkpt lat="45.34215" lon="0.53737">
        <ele>137</ele>
        <time>2025-04-16T08:14:03Z</time>
      </trkpt>
      <trkpt lat="45.34232" lon="0.53747">
        <ele>138</ele>
        <time>2025-04-16T08:14:06Z</time>
      </trkpt>
      <trkpt lat="45.34288" lon="0.53792">
        <ele>140</ele>
        <time>2025-04-16T08:14:18Z</time>
      </trkpt>
      <trkpt lat="45.34307" lon="0.53804">
        <ele>141</ele>
        <time>2025-04-16T08:14:21Z</time>
      </trkpt>
      <trkpt lat="45.34405" lon="0.53831">
        <ele>145</ele>
        <time>2025-04-16T08:14:39Z</time>
      </trkpt>
      <trkpt lat="45.34416" lon="0.53827">
        <ele>145</ele>
        <time>2025-04-16T08:14:41Z</time>
      </trkpt>
      <trkpt lat="45.34475" lon="0.53802">
        <ele>144</ele>
        <time>2025-04-16T08:14:52Z</time>
      </trkpt>
      <trkpt lat="45.345" lon="0.53796">
        <ele>144</ele>
        <time>2025-04-16T08:14:57Z</time>
      </trkpt>
      <trkpt lat="45.34518" lon="0.53796">
        <ele>144</ele>
        <time>2025-04-16T08:15:00Z</time>
      </trkpt>
      <trkpt lat="45.34551" lon="0.53802">
        <ele>144</ele>
        <time>2025-04-16T08:15:06Z</time>
      </trkpt>
      <trkpt lat="45.34585" lon="0.53804">
        <ele>143</ele>
        <time>2025-04-16T08:15:12Z</time>
      </trkpt>
      <trkpt lat="45.34638" lon="0.53792">
        <ele>146</ele>
        <time>2025-04-16T08:15:21Z</time>
      </trkpt>
      <trkpt lat="45.34645" lon="0.53794">
        <ele>146</ele>
        <time>2025-04-16T08:15:23Z</time>
      </trkpt>
      <trkpt lat="45.3466" lon="0.53805">
        <ele>147</ele>
        <time>2025-04-16T08:15:26Z</time>
      </trkpt>
      <trkpt lat="45.34692" lon="0.53859">
        <ele>147</ele>
        <time>2025-04-16T08:15:34Z</time>
      </trkpt>
      <trkpt lat="45.34709" lon="0.53884">
        <ele>148</ele>
        <time>2025-04-16T08:15:39Z</time>
      </trkpt>
      <trkpt lat="45.34815" lon="0.53966">
        <ele>150</ele>
        <time>2025-04-16T08:16:00Z</time>
      </trkpt>
      <trkpt lat="45.34812" lon="0.53981">
        <ele>150</ele>
        <time>2025-04-16T08:16:02Z</time>
      </trkpt>
      <trkpt lat="45.34811" lon="0.54001">
        <ele>150</ele>
        <time>2025-04-16T08:16:05Z</time>
      </trkpt>
      <trkpt lat="45.34815" lon="0.54196">
        <ele>151</ele>
        <time>2025-04-16T08:16:29Z</time>
      </trkpt>
      <trkpt lat="45.34817" lon="0.54226">
        <ele>152</ele>
        <time>2025-04-16T08:16:33Z</time>
      </trkpt>
      <trkpt lat="45.34822" lon="0.54248">
        <ele>152</ele>
        <time>2025-04-16T08:16:36Z</time>
      </trkpt>
      <trkpt lat="45.34829" lon="0.5427">
        <ele>153</ele>
        <time>2025-04-16T08:16:39Z</time>
      </trkpt>
      <trkpt lat="45.34892" lon="0.54401">
        <ele>161</ele>
        <time>2025-04-16T08:16:59Z</time>
      </trkpt>
      <trkpt lat="45.34909" lon="0.54458">
        <ele>158</ele>
        <time>2025-04-16T08:17:06Z</time>
      </trkpt>
      <trkpt lat="45.34918" lon="0.54482">
        <ele>157</ele>
        <time>2025-04-16T08:17:10Z</time>
      </trkpt>
      <trkpt lat="45.34943" lon="0.54517">
        <ele>154</ele>
        <time>2025-04-16T08:17:16Z</time>
      </trkpt>
      <trkpt lat="45.3496" lon="0.54534">
        <ele>152</ele>
        <time>2025-04-16T08:17:20Z</time>
      </trkpt>
      <trkpt lat="45.34976" lon="0.54544">
        <ele>151</ele>
        <time>2025-04-16T08:17:23Z</time>
      </trkpt>
      <trkpt lat="45.35013" lon="0.54557">
        <ele>149</ele>
        <time>2025-04-16T08:17:30Z</time>
      </trkpt>
      <trkpt lat="45.35034" lon="0.54566">
        <ele>146</ele>
        <time>2025-04-16T08:17:34Z</time>
      </trkpt>
      <trkpt lat="45.3506" lon="0.54585">
        <ele>143</ele>
        <time>2025-04-16T08:17:39Z</time>
      </trkpt>
      <trkpt lat="45.35079" lon="0.54604">
        <ele>141</ele>
        <time>2025-04-16T08:17:43Z</time>
      </trkpt>
      <trkpt lat="45.35102" lon="0.54633">
        <ele>139</ele>
        <time>2025-04-16T08:17:48Z</time>
      </trkpt>
      <trkpt lat="45.35111" lon="0.5465">
        <ele>138</ele>
        <time>2025-04-16T08:17:51Z</time>
      </trkpt>
      <trkpt lat="45.35118" lon="0.54666">
        <ele>137</ele>
        <time>2025-04-16T08:17:53Z</time>
      </trkpt>
      <trkpt lat="45.35121" lon="0.54686">
        <ele>136</ele>
        <time>2025-04-16T08:17:56Z</time>
      </trkpt>
      <trkpt lat="45.35129" lon="0.54779">
        <ele>133</ele>
        <time>2025-04-16T08:18:08Z</time>
      </trkpt>
      <trkpt lat="45.35149" lon="0.54847">
        <ele>130</ele>
        <time>2025-04-16T08:18:17Z</time>
      </trkpt>
      <trkpt lat="45.35155" lon="0.5488">
        <ele>129</ele>
        <time>2025-04-16T08:18:21Z</time>
      </trkpt>
      <trkpt lat="45.35163" lon="0.55024">
        <ele>124</ele>
        <time>2025-04-16T08:18:39Z</time>
      </trkpt>
      <trkpt lat="45.35176" lon="0.55198">
        <ele>117</ele>
        <time>2025-04-16T08:19:01Z</time>
      </trkpt>
      <trkpt lat="45.35197" lon="0.55211">
        <ele>117</ele>
        <time>2025-04-16T08:19:05Z</time>
      </trkpt>
      <trkpt lat="45.35213" lon="0.55224">
        <ele>117</ele>
        <time>2025-04-16T08:19:08Z</time>
      </trkpt>
      <trkpt lat="45.35233" lon="0.55236">
        <ele>117</ele>
        <time>2025-04-16T08:19:12Z</time>
      </trkpt>
      <trkpt lat="45.35243" lon="0.55246">
        <ele>116</ele>
        <time>2025-04-16T08:19:14Z</time>
      </trkpt>
      <trkpt lat="45.35244" lon="0.55269">
        <ele>115</ele>
        <time>2025-04-16T08:19:17Z</time>
      </trkpt>
      <trkpt lat="45.35257" lon="0.55273">
        <ele>115</ele>
        <time>2025-04-16T08:19:20Z</time>
      </trkpt>
      <trkpt lat="45.35274" lon="0.55291">
        <ele>113</ele>
        <time>2025-04-16T08:19:23Z</time>
      </trkpt>
      <trkpt lat="45.35281" lon="0.55306">
        <ele>112</ele>
        <time>2025-04-16T08:19:26Z</time>
      </trkpt>
      <trkpt lat="45.35267" lon="0.55355">
        <ele>109</ele>
        <time>2025-04-16T08:19:32Z</time>
      </trkpt>
      <trkpt lat="45.35263" lon="0.55387">
        <ele>107</ele>
        <time>2025-04-16T08:19:36Z</time>
      </trkpt>
      <trkpt lat="45.35346" lon="0.55528">
        <ele>104</ele>
        <time>2025-04-16T08:19:59Z</time>
      </trkpt>
      <trkpt lat="45.3537" lon="0.55572">
        <ele>105</ele>
        <time>2025-04-16T08:20:06Z</time>
      </trkpt>
      <trkpt lat="45.35392" lon="0.55605">
        <ele>106</ele>
        <time>2025-04-16T08:20:12Z</time>
      </trkpt>
      <trkpt lat="45.35405" lon="0.55619">
        <ele>106</ele>
        <time>2025-04-16T08:20:15Z</time>
      </trkpt>
      <trkpt lat="45.35609" lon="0.55795">
        <ele>109</ele>
        <time>2025-04-16T08:20:57Z</time>
      </trkpt>
      <trkpt lat="45.35661" lon="0.55831">
        <ele>107</ele>
        <time>2025-04-16T08:21:08Z</time>
      </trkpt>
      <trkpt lat="45.35767" lon="0.55879">
        <ele>113</ele>
        <time>2025-04-16T08:21:27Z</time>
      </trkpt>
      <trkpt lat="45.35782" lon="0.5589">
        <ele>111</ele>
        <time>2025-04-16T08:21:31Z</time>
      </trkpt>
      <trkpt lat="45.35796" lon="0.55923">
        <ele>107</ele>
        <time>2025-04-16T08:21:35Z</time>
      </trkpt>
      <trkpt lat="45.35798" lon="0.55941">
        <ele>106</ele>
        <time>2025-04-16T08:21:38Z</time>
      </trkpt>
      <trkpt lat="45.35807" lon="0.56016">
        <ele>105</ele>
        <time>2025-04-16T08:21:47Z</time>
      </trkpt>
      <trkpt lat="45.35837" lon="0.56234">
        <ele>115</ele>
        <time>2025-04-16T08:22:15Z</time>
      </trkpt>
      <trkpt lat="45.3584" lon="0.5631">
        <ele>121</ele>
        <time>2025-04-16T08:22:24Z</time>
      </trkpt>
      <trkpt lat="45.35827" lon="0.56414">
        <ele>126</ele>
        <time>2025-04-16T08:22:38Z</time>
      </trkpt>
      <trkpt lat="45.35827" lon="0.56469">
        <ele>126</ele>
        <time>2025-04-16T08:22:44Z</time>
      </trkpt>
      <trkpt lat="45.35835" lon="0.5652">
        <ele>125</ele>
        <time>2025-04-16T08:22:51Z</time>
      </trkpt>
      <trkpt lat="45.35835" lon="0.56562">
        <ele>123</ele>
        <time>2025-04-16T08:22:56Z</time>
      </trkpt>
      <trkpt lat="45.35824" lon="0.56617">
        <ele>124</ele>
        <time>2025-04-16T08:23:03Z</time>
      </trkpt>
      <trkpt lat="45.35796" lon="0.56701">
        <ele>129</ele>
        <time>2025-04-16T08:23:15Z</time>
      </trkpt>
      <trkpt lat="45.3576" lon="0.5676">
        <ele>131</ele>
        <time>2025-04-16T08:23:25Z</time>
      </trkpt>
      <trkpt lat="45.35739" lon="0.56817">
        <ele>131</ele>
        <time>2025-04-16T08:23:33Z</time>
      </trkpt>
      <trkpt lat="45.35744" lon="0.56873">
        <ele>131</ele>
        <time>2025-04-16T08:23:40Z</time>
      </trkpt>
      <trkpt lat="45.35745" lon="0.56936">
        <ele>133</ele>
        <time>2025-04-16T08:23:48Z</time>
      </trkpt>
      <trkpt lat="45.35737" lon="0.5701">
        <ele>138</ele>
        <time>2025-04-16T08:23:57Z</time>
      </trkpt>
      <trkpt lat="45.35735" lon="0.57048">
        <ele>139</ele>
        <time>2025-04-16T08:24:02Z</time>
      </trkpt>
      <trkpt lat="45.35746" lon="0.57142">
        <ele>138</ele>
        <time>2025-04-16T08:24:14Z</time>
      </trkpt>
      <trkpt lat="45.35736" lon="0.57223">
        <ele>140</ele>
        <time>2025-04-16T08:24:24Z</time>
      </trkpt>
      <trkpt lat="45.35745" lon="0.5728">
        <ele>140</ele>
        <time>2025-04-16T08:24:31Z</time>
      </trkpt>
      <trkpt lat="45.35751" lon="0.57335">
        <ele>142</ele>
        <time>2025-04-16T08:24:38Z</time>
      </trkpt>
      <trkpt lat="45.35743" lon="0.57407">
        <ele>144</ele>
        <time>2025-04-16T08:24:47Z</time>
      </trkpt>
      <trkpt lat="45.35751" lon="0.57473">
        <ele>143</ele>
        <time>2025-04-16T08:24:56Z</time>
      </trkpt>
      <trkpt lat="45.35769" lon="0.5753">
        <ele>144</ele>
        <time>2025-04-16T08:25:04Z</time>
      </trkpt>
      <trkpt lat="45.35801" lon="0.57546">
        <ele>146</ele>
        <time>2025-04-16T08:25:10Z</time>
      </trkpt>
      <trkpt lat="45.35834" lon="0.57553">
        <ele>147</ele>
        <time>2025-04-16T08:25:16Z</time>
      </trkpt>
      <trkpt lat="45.35858" lon="0.57579">
        <ele>147</ele>
        <time>2025-04-16T08:25:21Z</time>
      </trkpt>
      <trkpt lat="45.35917" lon="0.57505">
        <ele>155</ele>
        <time>2025-04-16T08:25:35Z</time>
      </trkpt>
      <trkpt lat="45.35858" lon="0.57579">
        <ele>147</ele>
        <time>2025-04-16T08:25:49Z</time>
      </trkpt>
      <trkpt lat="45.35862" lon="0.57583">
        <ele>147</ele>
        <time>2025-04-16T08:25:50Z</time>
      </trkpt>
      <trkpt lat="45.35882" lon="0.57634">
        <ele>150</ele>
        <time>2025-04-16T08:25:57Z</time>
      </trkpt>
      <trkpt lat="45.35968" lon="0.57667">
        <ele>152</ele>
        <time>2025-04-16T08:26:13Z</time>
      </trkpt>
      <trkpt lat="45.35999" lon="0.57697">
        <ele>153</ele>
        <time>2025-04-16T08:26:20Z</time>
      </trkpt>
      <trkpt lat="45.36019" lon="0.57732">
        <ele>155</ele>
        <time>2025-04-16T08:26:25Z</time>
      </trkpt>
      <trkpt lat="45.36043" lon="0.57793">
        <ele>157</ele>
        <time>2025-04-16T08:26:34Z</time>
      </trkpt>
      <trkpt lat="45.36103" lon="0.58004">
        <ele>159</ele>
        <time>2025-04-16T08:27:03Z</time>
      </trkpt>
      <trkpt lat="45.36128" lon="0.58107">
        <ele>161</ele>
        <time>2025-04-16T08:27:16Z</time>
      </trkpt>
      <trkpt lat="45.3613" lon="0.58156">
        <ele>163</ele>
        <time>2025-04-16T08:27:22Z</time>
      </trkpt>
      <trkpt lat="45.36081" lon="0.58561">
        <ele>169</ele>
        <time>2025-04-16T08:28:14Z</time>
      </trkpt>
      <trkpt lat="45.36011" lon="0.58873">
        <ele>177</ele>
        <time>2025-04-16T08:28:55Z</time>
      </trkpt>
      <trkpt lat="45.3601" lon="0.58894">
        <ele>178</ele>
        <time>2025-04-16T08:28:57Z</time>
      </trkpt>
      <trkpt lat="45.36002" lon="0.58899">
        <ele>178</ele>
        <time>2025-04-16T08:28:59Z</time>
      </trkpt>
      <trkpt lat="45.3597" lon="0.58907">
        <ele>177</ele>
        <time>2025-04-16T08:29:05Z</time>
      </trkpt>
      <trkpt lat="45.35962" lon="0.58913">
        <ele>177</ele>
        <time>2025-04-16T08:29:06Z</time>
      </trkpt>
      <trkpt lat="45.35957" lon="0.58919">
        <ele>177</ele>
        <time>2025-04-16T08:29:07Z</time>
      </trkpt>
      <trkpt lat="45.35955" lon="0.58927">
        <ele>177</ele>
        <time>2025-04-16T08:29:08Z</time>
      </trkpt>
      <trkpt lat="45.35944" lon="0.59016">
        <ele>177</ele>
        <time>2025-04-16T08:29:20Z</time>
      </trkpt>
      <trkpt lat="45.3594" lon="0.59038">
        <ele>177</ele>
        <time>2025-04-16T08:29:23Z</time>
      </trkpt>
      <trkpt lat="45.35934" lon="0.59057">
        <ele>177</ele>
        <time>2025-04-16T08:29:25Z</time>
      </trkpt>
      <trkpt lat="45.3592" lon="0.59086">
        <ele>177</ele>
        <time>2025-04-16T08:29:30Z</time>
      </trkpt>
      <trkpt lat="45.35843" lon="0.59219">
        <ele>175</ele>
        <time>2025-04-16T08:29:51Z</time>
      </trkpt>
      <trkpt lat="45.35774" lon="0.59289">
        <ele>177</ele>
        <time>2025-04-16T08:30:06Z</time>
      </trkpt>
      <trkpt lat="45.35711" lon="0.59391">
        <ele>178</ele>
        <time>2025-04-16T08:30:23Z</time>
      </trkpt>
      <trkpt lat="45.35681" lon="0.59438">
        <ele>178</ele>
        <time>2025-04-16T08:30:31Z</time>
      </trkpt>
      <trkpt lat="45.35659" lon="0.5946">
        <ele>178</ele>
        <time>2025-04-16T08:30:36Z</time>
      </trkpt>
      <trkpt lat="45.3563" lon="0.59484">
        <ele>178</ele>
        <time>2025-04-16T08:30:42Z</time>
      </trkpt>
      <trkpt lat="45.35606" lon="0.59514">
        <ele>179</ele>
        <time>2025-04-16T08:30:48Z</time>
      </trkpt>
      <trkpt lat="45.35522" lon="0.59652">
        <ele>177</ele>
        <time>2025-04-16T08:31:10Z</time>
      </trkpt>
      <trkpt lat="45.35497" lon="0.59678">
        <ele>177</ele>
        <time>2025-04-16T08:31:16Z</time>
      </trkpt>
      <trkpt lat="45.35438" lon="0.59721">
        <ele>176</ele>
        <time>2025-04-16T08:31:28Z</time>
      </trkpt>
      <trkpt lat="45.35242" lon="0.59864">
        <ele>177</ele>
        <time>2025-04-16T08:32:07Z</time>
      </trkpt>
      <trkpt lat="45.35192" lon="0.59891">
        <ele>176</ele>
        <time>2025-04-16T08:32:16Z</time>
      </trkpt>
      <trkpt lat="45.35144" lon="0.59909">
        <ele>176</ele>
        <time>2025-04-16T08:32:25Z</time>
      </trkpt>
      <trkpt lat="45.3511" lon="0.59907">
        <ele>177</ele>
        <time>2025-04-16T08:32:31Z</time>
      </trkpt>
      <trkpt lat="45.348" lon="0.59722">
        <ele>177</ele>
        <time>2025-04-16T08:33:31Z</time>
      </trkpt>
      <trkpt lat="45.34772" lon="0.59711">
        <ele>177</ele>
        <time>2025-04-16T08:33:36Z</time>
      </trkpt>
      <trkpt lat="45.34677" lon="0.59716">
        <ele>175</ele>
        <time>2025-04-16T08:33:53Z</time>
      </trkpt>
      <trkpt lat="45.34671" lon="0.59716">
        <ele>175</ele>
        <time>2025-04-16T08:33:54Z</time>
      </trkpt>
      <trkpt lat="45.34641" lon="0.59717">
        <ele>174</ele>
        <time>2025-04-16T08:34:00Z</time>
      </trkpt>
      <trkpt lat="45.34564" lon="0.59725">
        <ele>172</ele>
        <time>2025-04-16T08:34:13Z</time>
      </trkpt>
      <trkpt lat="45.34549" lon="0.59728">
        <ele>172</ele>
        <time>2025-04-16T08:34:16Z</time>
      </trkpt>
      <trkpt lat="45.34528" lon="0.59757">
        <ele>170</ele>
        <time>2025-04-16T08:34:21Z</time>
      </trkpt>
      <trkpt lat="45.34514" lon="0.59785">
        <ele>168</ele>
        <time>2025-04-16T08:34:26Z</time>
      </trkpt>
      <trkpt lat="45.34503" lon="0.59821">
        <ele>167</ele>
        <time>2025-04-16T08:34:30Z</time>
      </trkpt>
      <trkpt lat="45.34496" lon="0.59852">
        <ele>166</ele>
        <time>2025-04-16T08:34:34Z</time>
      </trkpt>
      <trkpt lat="45.34484" lon="0.59879">
        <ele>165</ele>
        <time>2025-04-16T08:34:38Z</time>
      </trkpt>
      <trkpt lat="45.34466" lon="0.59893">
        <ele>164</ele>
        <time>2025-04-16T08:34:42Z</time>
      </trkpt>
      <trkpt lat="45.34451" lon="0.59898">
        <ele>164</ele>
        <time>2025-04-16T08:34:45Z</time>
      </trkpt>
      <trkpt lat="45.34429" lon="0.59902">
        <ele>163</ele>
        <time>2025-04-16T08:34:49Z</time>
      </trkpt>
      <trkpt lat="45.34337" lon="0.59867">
        <ele>159</ele>
        <time>2025-04-16T08:35:06Z</time>
      </trkpt>
      <trkpt lat="45.34257" lon="0.59833">
        <ele>158</ele>
        <time>2025-04-16T08:35:21Z</time>
      </trkpt>
      <trkpt lat="45.34239" lon="0.59815">
        <ele>158</ele>
        <time>2025-04-16T08:35:25Z</time>
      </trkpt>
      <trkpt lat="45.34219" lon="0.59784">
        <ele>158</ele>
        <time>2025-04-16T08:35:30Z</time>
      </trkpt>
      <trkpt lat="45.34176" lon="0.59659">
        <ele>152</ele>
        <time>2025-04-16T08:35:47Z</time>
      </trkpt>
      <trkpt lat="45.34144" lon="0.59614">
        <ele>150</ele>
        <time>2025-04-16T08:35:55Z</time>
      </trkpt>
      <trkpt lat="45.34087" lon="0.59556">
        <ele>148</ele>
        <time>2025-04-16T08:36:08Z</time>
      </trkpt>
      <trkpt lat="45.34059" lon="0.59537">
        <ele>147</ele>
        <time>2025-04-16T08:36:13Z</time>
      </trkpt>
      <trkpt lat="45.34012" lon="0.5951">
        <ele>143</ele>
        <time>2025-04-16T08:36:22Z</time>
      </trkpt>
      <trkpt lat="45.33985" lon="0.59505">
        <ele>141</ele>
        <time>2025-04-16T08:36:27Z</time>
      </trkpt>
      <trkpt lat="45.33862" lon="0.59515">
        <ele>137</ele>
        <time>2025-04-16T08:36:49Z</time>
      </trkpt>
      <trkpt lat="45.33832" lon="0.59509">
        <ele>135</ele>
        <time>2025-04-16T08:36:54Z</time>
      </trkpt>
      <trkpt lat="45.33813" lon="0.59497">
        <ele>134</ele>
        <time>2025-04-16T08:36:58Z</time>
      </trkpt>
      <trkpt lat="45.33788" lon="0.59486">
        <ele>134</ele>
        <time>2025-04-16T08:37:03Z</time>
      </trkpt>
      <trkpt lat="45.33745" lon="0.59458">
        <ele>133</ele>
        <time>2025-04-16T08:37:11Z</time>
      </trkpt>
      <trkpt lat="45.33713" lon="0.59416">
        <ele>129</ele>
        <time>2025-04-16T08:37:19Z</time>
      </trkpt>
      <trkpt lat="45.337" lon="0.59403">
        <ele>130</ele>
        <time>2025-04-16T08:37:22Z</time>
      </trkpt>
      <trkpt lat="45.33684" lon="0.59392">
        <ele>129</ele>
        <time>2025-04-16T08:37:25Z</time>
      </trkpt>
      <trkpt lat="45.33664" lon="0.59386">
        <ele>128</ele>
        <time>2025-04-16T08:37:29Z</time>
      </trkpt>
      <trkpt lat="45.33535" lon="0.59379">
        <ele>120</ele>
        <time>2025-04-16T08:37:51Z</time>
      </trkpt>
      <trkpt lat="45.33497" lon="0.59375">
        <ele>116</ele>
        <time>2025-04-16T08:37:58Z</time>
      </trkpt>
      <trkpt lat="45.33475" lon="0.59364">
        <ele>112</ele>
        <time>2025-04-16T08:38:02Z</time>
      </trkpt>
      <trkpt lat="45.33443" lon="0.59339">
        <ele>106</ele>
        <time>2025-04-16T08:38:09Z</time>
      </trkpt>
      <trkpt lat="45.33438" lon="0.59307">
        <ele>109</ele>
        <time>2025-04-16T08:38:13Z</time>
      </trkpt>
      <trkpt lat="45.33427" lon="0.59275">
        <ele>112</ele>
        <time>2025-04-16T08:38:17Z</time>
      </trkpt>
      <trkpt lat="45.33385" lon="0.59196">
        <ele>121</ele>
        <time>2025-04-16T08:38:30Z</time>
      </trkpt>
      <trkpt lat="45.3332" lon="0.59144">
        <ele>121</ele>
        <time>2025-04-16T08:38:43Z</time>
      </trkpt>
      <trkpt lat="45.33268" lon="0.59124">
        <ele>119</ele>
        <time>2025-04-16T08:38:53Z</time>
      </trkpt>
      <trkpt lat="45.33238" lon="0.5912">
        <ele>117</ele>
        <time>2025-04-16T08:38:58Z</time>
      </trkpt>
      <trkpt lat="45.33107" lon="0.59127">
        <ele>106</ele>
        <time>2025-04-16T08:39:21Z</time>
      </trkpt>
      <trkpt lat="45.33081" lon="0.59121">
        <ele>106</ele>
        <time>2025-04-16T08:39:26Z</time>
      </trkpt>
      <trkpt lat="45.33056" lon="0.59102">
        <ele>107</ele>
        <time>2025-04-16T08:39:31Z</time>
      </trkpt>
      <trkpt lat="45.33023" lon="0.59064">
        <ele>109</ele>
        <time>2025-04-16T08:39:39Z</time>
      </trkpt>
      <trkpt lat="45.32991" lon="0.59041">
        <ele>110</ele>
        <time>2025-04-16T08:39:45Z</time>
      </trkpt>
      <trkpt lat="45.32895" lon="0.58992">
        <ele>104</ele>
        <time>2025-04-16T08:40:03Z</time>
      </trkpt>
      <trkpt lat="45.32863" lon="0.58966">
        <ele>101</ele>
        <time>2025-04-16T08:40:10Z</time>
      </trkpt>
      <trkpt lat="45.3284" lon="0.58958">
        <ele>98</ele>
        <time>2025-04-16T08:40:14Z</time>
      </trkpt>
      <trkpt lat="45.32809" lon="0.58962">
        <ele>98</ele>
        <time>2025-04-16T08:40:20Z</time>
      </trkpt>
      <trkpt lat="45.3278" lon="0.58969">
        <ele>98</ele>
        <time>2025-04-16T08:40:25Z</time>
      </trkpt>
      <trkpt lat="45.32751" lon="0.58968">
        <ele>98</ele>
        <time>2025-04-16T08:40:30Z</time>
      </trkpt>
      <trkpt lat="45.32712" lon="0.58961">
        <ele>98</ele>
        <time>2025-04-16T08:40:37Z</time>
      </trkpt>
      <trkpt lat="45.32674" lon="0.58964">
        <ele>97</ele>
        <time>2025-04-16T08:40:44Z</time>
      </trkpt>
      <trkpt lat="45.32636" lon="0.58973">
        <ele>96</ele>
        <time>2025-04-16T08:40:51Z</time>
      </trkpt>
      <trkpt lat="45.32566" lon="0.58977">
        <ele>93</ele>
        <time>2025-04-16T08:41:03Z</time>
      </trkpt>
      <trkpt lat="45.3253" lon="0.5897">
        <ele>93</ele>
        <time>2025-04-16T08:41:09Z</time>
      </trkpt>
      <trkpt lat="45.32504" lon="0.58951">
        <ele>93</ele>
        <time>2025-04-16T08:41:15Z</time>
      </trkpt>
      <trkpt lat="45.32479" lon="0.58913">
        <ele>92</ele>
        <time>2025-04-16T08:41:21Z</time>
      </trkpt>
      <trkpt lat="45.3246" lon="0.58871">
        <ele>92</ele>
        <time>2025-04-16T08:41:27Z</time>
      </trkpt>
      <trkpt lat="45.32441" lon="0.58806">
        <ele>92</ele>
        <time>2025-04-16T08:41:36Z</time>
      </trkpt>
      <trkpt lat="45.32432" lon="0.58753">
        <ele>94</ele>
        <time>2025-04-16T08:41:43Z</time>
      </trkpt>
      <trkpt lat="45.32424" lon="0.58626">
        <ele>95</ele>
        <time>2025-04-16T08:41:59Z</time>
      </trkpt>
      <trkpt lat="45.32434" lon="0.58503">
        <ele>94</ele>
        <time>2025-04-16T08:42:14Z</time>
      </trkpt>
      <trkpt lat="45.32435" lon="0.5845">
        <ele>94</ele>
        <time>2025-04-16T08:42:21Z</time>
      </trkpt>
      <trkpt lat="45.32416" lon="0.58292">
        <ele>94</ele>
        <time>2025-04-16T08:42:41Z</time>
      </trkpt>
      <trkpt lat="45.32421" lon="0.58219">
        <ele>96</ele>
        <time>2025-04-16T08:42:50Z</time>
      </trkpt>
      <trkpt lat="45.32431" lon="0.5818">
        <ele>98</ele>
        <time>2025-04-16T08:42:56Z</time>
      </trkpt>
      <trkpt lat="45.32443" lon="0.58158">
        <ele>99</ele>
        <time>2025-04-16T08:42:59Z</time>
      </trkpt>
      <trkpt lat="45.32448" lon="0.58145">
        <ele>99</ele>
        <time>2025-04-16T08:43:01Z</time>
      </trkpt>
      <trkpt lat="45.32452" lon="0.58119">
        <ele>100</ele>
        <time>2025-04-16T08:43:04Z</time>
      </trkpt>
      <trkpt lat="45.32459" lon="0.57884">
        <ele>96</ele>
        <time>2025-04-16T08:43:34Z</time>
      </trkpt>
      <trkpt lat="45.32458" lon="0.57807">
        <ele>95</ele>
        <time>2025-04-16T08:43:43Z</time>
      </trkpt>
      <trkpt lat="45.3246" lon="0.5777">
        <ele>94</ele>
        <time>2025-04-16T08:43:48Z</time>
      </trkpt>
      <trkpt lat="45.32464" lon="0.57732">
        <ele>94</ele>
        <time>2025-04-16T08:43:53Z</time>
      </trkpt>
      <trkpt lat="45.32494" lon="0.57579">
        <ele>97</ele>
        <time>2025-04-16T08:44:13Z</time>
      </trkpt>
      <trkpt lat="45.32498" lon="0.57548">
        <ele>97</ele>
        <time>2025-04-16T08:44:17Z</time>
      </trkpt>
      <trkpt lat="45.325" lon="0.57499">
        <ele>98</ele>
        <time>2025-04-16T08:44:23Z</time>
      </trkpt>
      <trkpt lat="45.32494" lon="0.57324">
        <ele>99</ele>
        <time>2025-04-16T08:44:45Z</time>
      </trkpt>
      <trkpt lat="45.32487" lon="0.57247">
        <ele>99</ele>
        <time>2025-04-16T08:44:54Z</time>
      </trkpt>
      <trkpt lat="45.3247" lon="0.57056">
        <ele>100</ele>
        <time>2025-04-16T08:45:18Z</time>
      </trkpt>
      <trkpt lat="45.32462" lon="0.5701">
        <ele>100</ele>
        <time>2025-04-16T08:45:24Z</time>
      </trkpt>
      <trkpt lat="45.32444" lon="0.56948">
        <ele>102</ele>
        <time>2025-04-16T08:45:33Z</time>
      </trkpt>
      <trkpt lat="45.32421" lon="0.56883">
        <ele>103</ele>
        <time>2025-04-16T08:45:42Z</time>
      </trkpt>
      <trkpt lat="45.32352" lon="0.56705">
        <ele>106</ele>
        <time>2025-04-16T08:46:07Z</time>
      </trkpt>
      <trkpt lat="45.3231" lon="0.56646">
        <ele>108</ele>
        <time>2025-04-16T08:46:18Z</time>
      </trkpt>
      <trkpt lat="45.3216" lon="0.56482">
        <ele>108</ele>
        <time>2025-04-16T08:46:51Z</time>
      </trkpt>
      <trkpt lat="45.32064" lon="0.56336">
        <ele>105</ele>
        <time>2025-04-16T08:47:16Z</time>
      </trkpt>
      <trkpt lat="45.32048" lon="0.56287">
        <ele>102</ele>
        <time>2025-04-16T08:47:23Z</time>
      </trkpt>
      <trkpt lat="45.32044" lon="0.56259">
        <ele>101</ele>
        <time>2025-04-16T08:47:27Z</time>
      </trkpt>
      <trkpt lat="45.32052" lon="0.56239">
        <ele>101</ele>
        <time>2025-04-16T08:47:30Z</time>
      </trkpt>
      <trkpt lat="45.32095" lon="0.56174">
        <ele>105</ele>
        <time>2025-04-16T08:47:41Z</time>
      </trkpt>
      <trkpt lat="45.32111" lon="0.56141">
        <ele>105</ele>
        <time>2025-04-16T08:47:46Z</time>
      </trkpt>
      <trkpt lat="45.32113" lon="0.56105">
        <ele>102</ele>
        <time>2025-04-16T08:47:50Z</time>
      </trkpt>
      <trkpt lat="45.32103" lon="0.56074">
        <ele>98</ele>
        <time>2025-04-16T08:47:55Z</time>
      </trkpt>
      <trkpt lat="45.32086" lon="0.56065">
        <ele>96</ele>
        <time>2025-04-16T08:47:58Z</time>
      </trkpt>
      <trkpt lat="45.32049" lon="0.5607">
        <ele>98</ele>
        <time>2025-04-16T08:48:04Z</time>
      </trkpt>
      <trkpt lat="45.3203" lon="0.56069">
        <ele>99</ele>
        <time>2025-04-16T08:48:08Z</time>
      </trkpt>
      <trkpt lat="45.32008" lon="0.56065">
        <ele>100</ele>
        <time>2025-04-16T08:48:12Z</time>
      </trkpt>
      <trkpt lat="45.31976" lon="0.5605">
        <ele>104</ele>
        <time>2025-04-16T08:48:18Z</time>
      </trkpt>
      <trkpt lat="45.31934" lon="0.56003">
        <ele>110</ele>
        <time>2025-04-16T08:48:27Z</time>
      </trkpt>
      <trkpt lat="45.3189" lon="0.55915">
        <ele>117</ele>
        <time>2025-04-16T08:48:41Z</time>
      </trkpt>
      <trkpt lat="45.31883" lon="0.55892">
        <ele>118</ele>
        <time>2025-04-16T08:48:44Z</time>
      </trkpt>
      <trkpt lat="45.31878" lon="0.55895">
        <ele>118</ele>
        <time>2025-04-16T08:48:45Z</time>
      </trkpt>
      <trkpt lat="45.31864" lon="0.55895">
        <ele>118</ele>
        <time>2025-04-16T08:48:47Z</time>
      </trkpt>
      <trkpt lat="45.31849" lon="0.55901">
        <ele>118</ele>
        <time>2025-04-16T08:48:50Z</time>
      </trkpt>
      <trkpt lat="45.31841" lon="0.55912">
        <ele>118</ele>
        <time>2025-04-16T08:48:52Z</time>
      </trkpt>
      <trkpt lat="45.31822" lon="0.55946">
        <ele>118</ele>
        <time>2025-04-16T08:48:58Z</time>
      </trkpt>
      <trkpt lat="45.31816" lon="0.55955">
        <ele>118</ele>
        <time>2025-04-16T08:48:59Z</time>
      </trkpt>
      <trkpt lat="45.31805" lon="0.55964">
        <ele>119</ele>
        <time>2025-04-16T08:49:01Z</time>
      </trkpt>
      <trkpt lat="45.3179" lon="0.5597">
        <ele>120</ele>
        <time>2025-04-16T08:49:04Z</time>
      </trkpt>
      <trkpt lat="45.31757" lon="0.55967">
        <ele>123</ele>
        <time>2025-04-16T08:49:10Z</time>
      </trkpt>
      <trkpt lat="45.31718" lon="0.55946">
        <ele>125</ele>
        <time>2025-04-16T08:49:17Z</time>
      </trkpt>
      <trkpt lat="45.31633" lon="0.55857">
        <ele>132</ele>
        <time>2025-04-16T08:49:36Z</time>
      </trkpt>
      <trkpt lat="45.3157" lon="0.55848">
        <ele>131</ele>
        <time>2025-04-16T08:49:47Z</time>
      </trkpt>
      <trkpt lat="45.31512" lon="0.55846">
        <ele>131</ele>
        <time>2025-04-16T08:49:58Z</time>
      </trkpt>
      <trkpt lat="45.31457" lon="0.55854">
        <ele>129</ele>
        <time>2025-04-16T08:50:08Z</time>
      </trkpt>
      <trkpt lat="45.31365" lon="0.55889">
        <ele>127</ele>
        <time>2025-04-16T08:50:25Z</time>
      </trkpt>
      <trkpt lat="45.31325" lon="0.55903">
        <ele>126</ele>
        <time>2025-04-16T08:50:32Z</time>
      </trkpt>
      <trkpt lat="45.31284" lon="0.55902">
        <ele>124</ele>
        <time>2025-04-16T08:50:39Z</time>
      </trkpt>
      <trkpt lat="45.31217" lon="0.55859">
        <ele>121</ele>
        <time>2025-04-16T08:50:52Z</time>
      </trkpt>
      <trkpt lat="45.3119" lon="0.5583">
        <ele>121</ele>
        <time>2025-04-16T08:50:58Z</time>
      </trkpt>
      <trkpt lat="45.31137" lon="0.55688">
        <ele>115</ele>
        <time>2025-04-16T08:51:18Z</time>
      </trkpt>
      <trkpt lat="45.31108" lon="0.55642">
        <ele>115</ele>
        <time>2025-04-16T08:51:26Z</time>
      </trkpt>
      <trkpt lat="45.31078" lon="0.55607">
        <ele>116</ele>
        <time>2025-04-16T08:51:33Z</time>
      </trkpt>
      <trkpt lat="45.31051" lon="0.55561">
        <ele>113</ele>
        <time>2025-04-16T08:51:41Z</time>
      </trkpt>
      <trkpt lat="45.31031" lon="0.55508">
        <ele>108</ele>
        <time>2025-04-16T08:51:48Z</time>
      </trkpt>
      <trkpt lat="45.31002" lon="0.55442">
        <ele>105</ele>
        <time>2025-04-16T08:51:58Z</time>
      </trkpt>
      <trkpt lat="45.30961" lon="0.55389">
        <ele>104</ele>
        <time>2025-04-16T08:52:08Z</time>
      </trkpt>
      <trkpt lat="45.30911" lon="0.55328">
        <ele>96</ele>
        <time>2025-04-16T08:52:19Z</time>
      </trkpt>
      <trkpt lat="45.30837" lon="0.55264">
        <ele>91</ele>
        <time>2025-04-16T08:52:35Z</time>
      </trkpt>
      <trkpt lat="45.30814" lon="0.55253">
        <ele>90</ele>
        <time>2025-04-16T08:52:39Z</time>
      </trkpt>
      <trkpt lat="45.30786" lon="0.55245">
        <ele>91</ele>
        <time>2025-04-16T08:52:44Z</time>
      </trkpt>
      <trkpt lat="45.30761" lon="0.55233">
        <ele>91</ele>
        <time>2025-04-16T08:52:49Z</time>
      </trkpt>
      <trkpt lat="45.30745" lon="0.55219">
        <ele>91</ele>
        <time>2025-04-16T08:52:52Z</time>
      </trkpt>
      <trkpt lat="45.30741" lon="0.55206">
        <ele>91</ele>
        <time>2025-04-16T08:52:54Z</time>
      </trkpt>
      <trkpt lat="45.3074" lon="0.55193">
        <ele>91</ele>
        <time>2025-04-16T08:52:56Z</time>
      </trkpt>
      <trkpt lat="45.30767" lon="0.55119">
        <ele>91</ele>
        <time>2025-04-16T08:53:06Z</time>
      </trkpt>
      <trkpt lat="45.30769" lon="0.55107">
        <ele>91</ele>
        <time>2025-04-16T08:53:08Z</time>
      </trkpt>
      <trkpt lat="45.30764" lon="0.55084">
        <ele>91</ele>
        <time>2025-04-16T08:53:11Z</time>
      </trkpt>
      <trkpt lat="45.30745" lon="0.55028">
        <ele>91</ele>
        <time>2025-04-16T08:53:18Z</time>
      </trkpt>
      <trkpt lat="45.30738" lon="0.54993">
        <ele>91</ele>
        <time>2025-04-16T08:53:23Z</time>
      </trkpt>
      <trkpt lat="45.30732" lon="0.54919">
        <ele>92</ele>
        <time>2025-04-16T08:53:32Z</time>
      </trkpt>
      <trkpt lat="45.30731" lon="0.54914">
        <ele>92</ele>
        <time>2025-04-16T08:53:33Z</time>
      </trkpt>
      <trkpt lat="45.3073" lon="0.54859">
        <ele>91</ele>
        <time>2025-04-16T08:53:40Z</time>
      </trkpt>
      <trkpt lat="45.30751" lon="0.54646">
        <ele>95</ele>
        <time>2025-04-16T08:54:07Z</time>
      </trkpt>
      <trkpt lat="45.30751" lon="0.54628">
        <ele>97</ele>
        <time>2025-04-16T08:54:09Z</time>
      </trkpt>
      <trkpt lat="45.30746" lon="0.54604">
        <ele>99</ele>
        <time>2025-04-16T08:54:12Z</time>
      </trkpt>
      <trkpt lat="45.30741" lon="0.54593">
        <ele>100</ele>
        <time>2025-04-16T08:54:14Z</time>
      </trkpt>
      <trkpt lat="45.30732" lon="0.5458">
        <ele>100</ele>
        <time>2025-04-16T08:54:16Z</time>
      </trkpt>
      <trkpt lat="45.30718" lon="0.54566">
        <ele>100</ele>
        <time>2025-04-16T08:54:19Z</time>
      </trkpt>
      <trkpt lat="45.30693" lon="0.54545">
        <ele>100</ele>
        <time>2025-04-16T08:54:24Z</time>
      </trkpt>
      <trkpt lat="45.30582" lon="0.54464">
        <ele>103</ele>
        <time>2025-04-16T08:54:46Z</time>
      </trkpt>
      <trkpt lat="45.30574" lon="0.54456">
        <ele>103</ele>
        <time>2025-04-16T08:54:48Z</time>
      </trkpt>
      <trkpt lat="45.30571" lon="0.54451">
        <ele>103</ele>
        <time>2025-04-16T08:54:49Z</time>
      </trkpt>
      <trkpt lat="45.30519" lon="0.54454">
        <ele>101</ele>
        <time>2025-04-16T08:54:58Z</time>
      </trkpt>
      <trkpt lat="45.30379" lon="0.54461">
        <ele>98</ele>
        <time>2025-04-16T08:55:23Z</time>
      </trkpt>
      <trkpt lat="45.30346" lon="0.54452">
        <ele>98</ele>
        <time>2025-04-16T08:55:29Z</time>
      </trkpt>
      <trkpt lat="45.30261" lon="0.54398">
        <ele>95</ele>
        <time>2025-04-16T08:55:46Z</time>
      </trkpt>
      <trkpt lat="45.30243" lon="0.54376">
        <ele>95</ele>
        <time>2025-04-16T08:55:50Z</time>
      </trkpt>
      <trkpt lat="45.30238" lon="0.54344">
        <ele>95</ele>
        <time>2025-04-16T08:55:54Z</time>
      </trkpt>
      <trkpt lat="45.30217" lon="0.54038">
        <ele>92</ele>
        <time>2025-04-16T08:56:33Z</time>
      </trkpt>
      <trkpt lat="45.3021" lon="0.53893">
        <ele>89</ele>
        <time>2025-04-16T08:56:51Z</time>
      </trkpt>
      <trkpt lat="45.30211" lon="0.53885">
        <ele>89</ele>
        <time>2025-04-16T08:56:52Z</time>
      </trkpt>
      <trkpt lat="45.30256" lon="0.53898">
        <ele>90</ele>
        <time>2025-04-16T08:57:00Z</time>
      </trkpt>
      <trkpt lat="45.30258" lon="0.53893">
        <ele>90</ele>
        <time>2025-04-16T08:57:01Z</time>
      </trkpt>
      <trkpt lat="45.30279" lon="0.53873">
        <ele>89</ele>
        <time>2025-04-16T08:57:05Z</time>
      </trkpt>
      <trkpt lat="45.30281" lon="0.5386">
        <ele>89</ele>
        <time>2025-04-16T08:57:07Z</time>
      </trkpt>
      <trkpt lat="45.30278" lon="0.53851">
        <ele>88</ele>
        <time>2025-04-16T08:57:08Z</time>
      </trkpt>
      <trkpt lat="45.30251" lon="0.53801">
        <ele>87</ele>
        <time>2025-04-16T08:57:16Z</time>
      </trkpt>
      <trkpt lat="45.30241" lon="0.5378">
        <ele>87</ele>
        <time>2025-04-16T08:57:19Z</time>
      </trkpt>
      <trkpt lat="45.30236" lon="0.53761">
        <ele>87</ele>
        <time>2025-04-16T08:57:22Z</time>
      </trkpt>
      <trkpt lat="45.30235" lon="0.5375">
        <ele>87</ele>
        <time>2025-04-16T08:57:23Z</time>
      </trkpt>
      <trkpt lat="45.30236" lon="0.53742">
        <ele>88</ele>
        <time>2025-04-16T08:57:24Z</time>
      </trkpt>
      <trkpt lat="45.30242" lon="0.53706">
        <ele>90</ele>
        <time>2025-04-16T08:57:29Z</time>
      </trkpt>
      <trkpt lat="45.30243" lon="0.53702">
        <ele>91</ele>
        <time>2025-04-16T08:57:29Z</time>
      </trkpt>
      <trkpt lat="45.30244" lon="0.53698">
        <ele>91</ele>
        <time>2025-04-16T08:57:30Z</time>
      </trkpt>
      <trkpt lat="45.30243" lon="0.53688">
        <ele>92</ele>
        <time>2025-04-16T08:57:31Z</time>
      </trkpt>
      <trkpt lat="45.30216" lon="0.53613">
        <ele>96</ele>
        <time>2025-04-16T08:57:42Z</time>
      </trkpt>
      <trkpt lat="45.30195" lon="0.5353">
        <ele>96</ele>
        <time>2025-04-16T08:57:53Z</time>
      </trkpt>
      <trkpt lat="45.30171" lon="0.53465">
        <ele>97</ele>
        <time>2025-04-16T08:58:02Z</time>
      </trkpt>
      <trkpt lat="45.30133" lon="0.53385">
        <ele>98</ele>
        <time>2025-04-16T08:58:14Z</time>
      </trkpt>
      <trkpt lat="45.30096" lon="0.53293">
        <ele>96</ele>
        <time>2025-04-16T08:58:27Z</time>
      </trkpt>
      <trkpt lat="45.30083" lon="0.53253">
        <ele>95</ele>
        <time>2025-04-16T08:58:33Z</time>
      </trkpt>
      <trkpt lat="45.30077" lon="0.53215">
        <ele>97</ele>
        <time>2025-04-16T08:58:38Z</time>
      </trkpt>
      <trkpt lat="45.30066" lon="0.53183">
        <ele>98</ele>
        <time>2025-04-16T08:58:42Z</time>
      </trkpt>
      <trkpt lat="45.30037" lon="0.53116">
        <ele>99</ele>
        <time>2025-04-16T08:58:52Z</time>
      </trkpt>
      <trkpt lat="45.29983" lon="0.53011">
        <ele>95</ele>
        <time>2025-04-16T08:59:08Z</time>
      </trkpt>
      <trkpt lat="45.29958" lon="0.52926">
        <ele>97</ele>
        <time>2025-04-16T08:59:20Z</time>
      </trkpt>
      <trkpt lat="45.2995" lon="0.52911">
        <ele>97</ele>
        <time>2025-04-16T08:59:22Z</time>
      </trkpt>
      <trkpt lat="45.29936" lon="0.529">
        <ele>96</ele>
        <time>2025-04-16T08:59:25Z</time>
      </trkpt>
      <trkpt lat="45.29896" lon="0.52875">
        <ele>95</ele>
        <time>2025-04-16T08:59:33Z</time>
      </trkpt>
      <trkpt lat="45.29853" lon="0.52837">
        <ele>94</ele>
        <time>2025-04-16T08:59:42Z</time>
      </trkpt>
      <trkpt lat="45.29828" lon="0.52803">
        <ele>94</ele>
        <time>2025-04-16T08:59:48Z</time>
      </trkpt>
      <trkpt lat="45.29803" lon="0.52774">
        <ele>96</ele>
        <time>2025-04-16T08:59:54Z</time>
      </trkpt>
      <trkpt lat="45.29769" lon="0.52747">
        <ele>96</ele>
        <time>2025-04-16T09:00:00Z</time>
      </trkpt>
      <trkpt lat="45.29717" lon="0.52718">
        <ele>96</ele>
        <time>2025-04-16T09:00:10Z</time>
      </trkpt>
      <trkpt lat="45.29672" lon="0.5265">
        <ele>99</ele>
        <time>2025-04-16T09:00:22Z</time>
      </trkpt>
      <trkpt lat="45.29594" lon="0.5256">
        <ele>101</ele>
        <time>2025-04-16T09:00:40Z</time>
      </trkpt>
      <trkpt lat="45.29539" lon="0.52492">
        <ele>102</ele>
        <time>2025-04-16T09:00:53Z</time>
      </trkpt>
      <trkpt lat="45.29531" lon="0.52479">
        <ele>101</ele>
        <time>2025-04-16T09:00:55Z</time>
      </trkpt>
      <trkpt lat="45.29507" lon="0.52426">
        <ele>100</ele>
        <time>2025-04-16T09:01:03Z</time>
      </trkpt>
      <trkpt lat="45.29484" lon="0.52388">
        <ele>99</ele>
        <time>2025-04-16T09:01:09Z</time>
      </trkpt>
      <trkpt lat="45.29464" lon="0.52362">
        <ele>99</ele>
        <time>2025-04-16T09:01:14Z</time>
      </trkpt>
      <trkpt lat="45.29453" lon="0.52353">
        <ele>99</ele>
        <time>2025-04-16T09:01:16Z</time>
      </trkpt>
      <trkpt lat="45.2944" lon="0.52347">
        <ele>99</ele>
        <time>2025-04-16T09:01:19Z</time>
      </trkpt>
      <trkpt lat="45.29434" lon="0.52346">
        <ele>99</ele>
        <time>2025-04-16T09:01:20Z</time>
      </trkpt>
      <trkpt lat="45.29424" lon="0.5235">
        <ele>99</ele>
        <time>2025-04-16T09:01:22Z</time>
      </trkpt>
      <trkpt lat="45.29366" lon="0.52413">
        <ele>99</ele>
        <time>2025-04-16T09:01:35Z</time>
      </trkpt>
      <trkpt lat="45.29349" lon="0.52429">
        <ele>99</ele>
        <time>2025-04-16T09:01:38Z</time>
      </trkpt>
      <trkpt lat="45.29323" lon="0.52442">
        <ele>99</ele>
        <time>2025-04-16T09:01:43Z</time>
      </trkpt>
      <trkpt lat="45.29278" lon="0.52457">
        <ele>100</ele>
        <time>2025-04-16T09:01:51Z</time>
      </trkpt>
      <trkpt lat="45.29248" lon="0.52472">
        <ele>99</ele>
        <time>2025-04-16T09:01:57Z</time>
      </trkpt>
      <trkpt lat="45.29207" lon="0.52484">
        <ele>99</ele>
        <time>2025-04-16T09:02:05Z</time>
      </trkpt>
      <trkpt lat="45.29095" lon="0.5248">
        <ele>101</ele>
        <time>2025-04-16T09:02:24Z</time>
      </trkpt>
      <trkpt lat="45.29086" lon="0.52492">
        <ele>100</ele>
        <time>2025-04-16T09:02:27Z</time>
      </trkpt>
      <trkpt lat="45.29075" lon="0.52498">
        <ele>100</ele>
        <time>2025-04-16T09:02:29Z</time>
      </trkpt>
      <trkpt lat="45.29047" lon="0.52502">
        <ele>100</ele>
        <time>2025-04-16T09:02:34Z</time>
      </trkpt>
      <trkpt lat="45.29007" lon="0.52517">
        <ele>100</ele>
        <time>2025-04-16T09:02:41Z</time>
      </trkpt>
      <trkpt lat="45.2891" lon="0.52576">
        <ele>102</ele>
        <time>2025-04-16T09:03:00Z</time>
      </trkpt>
      <trkpt lat="45.28886" lon="0.52598">
        <ele>101</ele>
        <time>2025-04-16T09:03:05Z</time>
      </trkpt>
      <trkpt lat="45.28807" lon="0.52689">
        <ele>97</ele>
        <time>2025-04-16T09:03:23Z</time>
      </trkpt>
      <trkpt lat="45.28776" lon="0.5272">
        <ele>96</ele>
        <time>2025-04-16T09:03:30Z</time>
      </trkpt>
      <trkpt lat="45.28747" lon="0.52732">
        <ele>98</ele>
        <time>2025-04-16T09:03:35Z</time>
      </trkpt>
      <trkpt lat="45.28721" lon="0.52738">
        <ele>101</ele>
        <time>2025-04-16T09:03:40Z</time>
      </trkpt>
      <trkpt lat="45.28625" lon="0.52801">
        <ele>106</ele>
        <time>2025-04-16T09:03:59Z</time>
      </trkpt>
      <trkpt lat="45.28597" lon="0.52837">
        <ele>104</ele>
        <time>2025-04-16T09:04:05Z</time>
      </trkpt>
      <trkpt lat="45.28546" lon="0.52918">
        <ele>102</ele>
        <time>2025-04-16T09:04:19Z</time>
      </trkpt>
      <trkpt lat="45.28512" lon="0.52958">
        <ele>106</ele>
        <time>2025-04-16T09:04:27Z</time>
      </trkpt>
      <trkpt lat="45.28476" lon="0.52998">
        <ele>110</ele>
        <time>2025-04-16T09:04:35Z</time>
      </trkpt>
      <trkpt lat="45.2843" lon="0.53069">
        <ele>110</ele>
        <time>2025-04-16T09:04:47Z</time>
      </trkpt>
      <trkpt lat="45.28414" lon="0.53095">
        <ele>111</ele>
        <time>2025-04-16T09:04:51Z</time>
      </trkpt>
      <trkpt lat="45.28407" lon="0.53103">
        <ele>112</ele>
        <time>2025-04-16T09:04:53Z</time>
      </trkpt>
      <trkpt lat="45.28403" lon="0.53104">
        <ele>114</ele>
        <time>2025-04-16T09:04:54Z</time>
      </trkpt>
      <trkpt lat="45.28341" lon="0.53277">
        <ele>105</ele>
        <time>2025-04-16T09:05:18Z</time>
      </trkpt>
      <trkpt lat="45.28294" lon="0.53417">
        <ele>99</ele>
        <time>2025-04-16T09:05:37Z</time>
      </trkpt>
      <trkpt lat="45.28217" lon="0.53574">
        <ele>93</ele>
        <time>2025-04-16T09:06:01Z</time>
      </trkpt>
      <trkpt lat="45.28183" lon="0.53627">
        <ele>91</ele>
        <time>2025-04-16T09:06:10Z</time>
      </trkpt>
      <trkpt lat="45.28149" lon="0.5367">
        <ele>91</ele>
        <time>2025-04-16T09:06:19Z</time>
      </trkpt>
      <trkpt lat="45.28064" lon="0.53756">
        <ele>92</ele>
        <time>2025-04-16T09:06:37Z</time>
      </trkpt>
      <trkpt lat="45.28034" lon="0.53792">
        <ele>89</ele>
        <time>2025-04-16T09:06:44Z</time>
      </trkpt>
      <trkpt lat="45.28019" lon="0.53816">
        <ele>87</ele>
        <time>2025-04-16T09:06:48Z</time>
      </trkpt>
      <trkpt lat="45.28002" lon="0.53781">
        <ele>91</ele>
        <time>2025-04-16T09:06:53Z</time>
      </trkpt>
      <trkpt lat="45.27984" lon="0.53761">
        <ele>93</ele>
        <time>2025-04-16T09:06:57Z</time>
      </trkpt>
      <trkpt lat="45.27875" lon="0.5367">
        <ele>101</ele>
        <time>2025-04-16T09:07:20Z</time>
      </trkpt>
      <trkpt lat="45.2785" lon="0.53645">
        <ele>102</ele>
        <time>2025-04-16T09:07:25Z</time>
      </trkpt>
      <trkpt lat="45.27824" lon="0.53623">
        <ele>103</ele>
        <time>2025-04-16T09:07:31Z</time>
      </trkpt>
      <trkpt lat="45.27806" lon="0.53594">
        <ele>103</ele>
        <time>2025-04-16T09:07:36Z</time>
      </trkpt>
      <trkpt lat="45.27776" lon="0.53503">
        <ele>104</ele>
        <time>2025-04-16T09:07:48Z</time>
      </trkpt>
      <trkpt lat="45.27751" lon="0.53441">
        <ele>107</ele>
        <time>2025-04-16T09:07:57Z</time>
      </trkpt>
      <trkpt lat="45.27682" lon="0.53296">
        <ele>112</ele>
        <time>2025-04-16T09:08:19Z</time>
      </trkpt>
      <trkpt lat="45.27637" lon="0.53236">
        <ele>110</ele>
        <time>2025-04-16T09:08:30Z</time>
      </trkpt>
      <trkpt lat="45.27621" lon="0.53182">
        <ele>109</ele>
        <time>2025-04-16T09:08:37Z</time>
      </trkpt>
      <trkpt lat="45.27596" lon="0.5307">
        <ele>103</ele>
        <time>2025-04-16T09:08:52Z</time>
      </trkpt>
      <trkpt lat="45.27588" lon="0.5298">
        <ele>104</ele>
        <time>2025-04-16T09:09:03Z</time>
      </trkpt>
      <trkpt lat="45.2758" lon="0.52957">
        <ele>104</ele>
        <time>2025-04-16T09:09:07Z</time>
      </trkpt>
      <trkpt lat="45.27541" lon="0.52883">
        <ele>99</ele>
        <time>2025-04-16T09:09:18Z</time>
      </trkpt>
      <trkpt lat="45.27512" lon="0.52807">
        <ele>93</ele>
        <time>2025-04-16T09:09:29Z</time>
      </trkpt>
      <trkpt lat="45.27464" lon="0.5269">
        <ele>89</ele>
        <time>2025-04-16T09:09:46Z</time>
      </trkpt>
      <trkpt lat="45.27462" lon="0.52673">
        <ele>89</ele>
        <time>2025-04-16T09:09:48Z</time>
      </trkpt>
      <trkpt lat="45.27463" lon="0.52656">
        <ele>88</ele>
        <time>2025-04-16T09:09:50Z</time>
      </trkpt>
      <trkpt lat="45.27492" lon="0.5248">
        <ele>87</ele>
        <time>2025-04-16T09:10:13Z</time>
      </trkpt>
      <trkpt lat="45.27506" lon="0.52245">
        <ele>84</ele>
        <time>2025-04-16T09:10:42Z</time>
      </trkpt>
      <trkpt lat="45.27514" lon="0.52044">
        <ele>83</ele>
        <time>2025-04-16T09:11:08Z</time>
      </trkpt>
      <trkpt lat="45.27523" lon="0.51953">
        <ele>83</ele>
        <time>2025-04-16T09:11:19Z</time>
      </trkpt>
      <trkpt lat="45.27539" lon="0.51862">
        <ele>83</ele>
        <time>2025-04-16T09:11:31Z</time>
      </trkpt>
      <trkpt lat="45.27576" lon="0.51746">
        <ele>83</ele>
        <time>2025-04-16T09:11:47Z</time>
      </trkpt>
      <trkpt lat="45.27582" lon="0.5169">
        <ele>83</ele>
        <time>2025-04-16T09:11:54Z</time>
      </trkpt>
      <trkpt lat="45.27576" lon="0.51642">
        <ele>82</ele>
        <time>2025-04-16T09:12:00Z</time>
      </trkpt>
      <trkpt lat="45.27564" lon="0.51587">
        <ele>81</ele>
        <time>2025-04-16T09:12:07Z</time>
      </trkpt>
      <trkpt lat="45.27533" lon="0.51545">
        <ele>82</ele>
        <time>2025-04-16T09:12:15Z</time>
      </trkpt>
      <trkpt lat="45.27488" lon="0.51476">
        <ele>81</ele>
        <time>2025-04-16T09:12:27Z</time>
      </trkpt>
      <trkpt lat="45.27475" lon="0.51425">
        <ele>81</ele>
        <time>2025-04-16T09:12:33Z</time>
      </trkpt>
      <trkpt lat="45.27468" lon="0.51372">
        <ele>81</ele>
        <time>2025-04-16T09:12:40Z</time>
      </trkpt>
      <trkpt lat="45.27456" lon="0.51153">
        <ele>83</ele>
        <time>2025-04-16T09:13:08Z</time>
      </trkpt>
      <trkpt lat="45.27444" lon="0.51011">
        <ele>87</ele>
        <time>2025-04-16T09:13:26Z</time>
      </trkpt>
      <trkpt lat="45.27437" lon="0.50981">
        <ele>86</ele>
        <time>2025-04-16T09:13:30Z</time>
      </trkpt>
      <trkpt lat="45.27426" lon="0.50954">
        <ele>85</ele>
        <time>2025-04-16T09:13:34Z</time>
      </trkpt>
      <trkpt lat="45.27381" lon="0.50879">
        <ele>82</ele>
        <time>2025-04-16T09:13:46Z</time>
      </trkpt>
      <trkpt lat="45.2734" lon="0.50841">
        <ele>83</ele>
        <time>2025-04-16T09:13:55Z</time>
      </trkpt>
      <trkpt lat="45.27287" lon="0.50823">
        <ele>83</ele>
        <time>2025-04-16T09:14:04Z</time>
      </trkpt>
      <trkpt lat="45.27225" lon="0.50831">
        <ele>83</ele>
        <time>2025-04-16T09:14:15Z</time>
      </trkpt>
      <trkpt lat="45.2712" lon="0.50852">
        <ele>80</ele>
        <time>2025-04-16T09:14:34Z</time>
      </trkpt>
      <trkpt lat="45.27057" lon="0.50848">
        <ele>80</ele>
        <time>2025-04-16T09:14:45Z</time>
      </trkpt>
      <trkpt lat="45.26993" lon="0.50823">
        <ele>79</ele>
        <time>2025-04-16T09:14:57Z</time>
      </trkpt>
      <trkpt lat="45.26917" lon="0.50747">
        <ele>78</ele>
        <time>2025-04-16T09:15:14Z</time>
      </trkpt>
      <trkpt lat="45.26838" lon="0.50649">
        <ele>79</ele>
        <time>2025-04-16T09:15:32Z</time>
      </trkpt>
      <trkpt lat="45.26753" lon="0.50556">
        <ele>78</ele>
        <time>2025-04-16T09:15:52Z</time>
      </trkpt>
      <trkpt lat="45.26613" lon="0.50446">
        <ele>80</ele>
        <time>2025-04-16T09:16:20Z</time>
      </trkpt>
      <trkpt lat="45.26556" lon="0.50409">
        <ele>80</ele>
        <time>2025-04-16T09:16:31Z</time>
      </trkpt>
      <trkpt lat="45.265" lon="0.50363">
        <ele>82</ele>
        <time>2025-04-16T09:16:43Z</time>
      </trkpt>
      <trkpt lat="45.26488" lon="0.50365">
        <ele>81</ele>
        <time>2025-04-16T09:16:45Z</time>
      </trkpt>
      <trkpt lat="45.26363" lon="0.50287">
        <ele>81</ele>
        <time>2025-04-16T09:17:09Z</time>
      </trkpt>
      <trkpt lat="45.2629" lon="0.50225">
        <ele>80</ele>
        <time>2025-04-16T09:17:24Z</time>
      </trkpt>
      <trkpt lat="45.26213" lon="0.50153">
        <ele>80</ele>
        <time>2025-04-16T09:17:41Z</time>
      </trkpt>
      <trkpt lat="45.26148" lon="0.50099">
        <ele>78</ele>
        <time>2025-04-16T09:17:54Z</time>
      </trkpt>
      <trkpt lat="45.26099" lon="0.50007">
        <ele>77</ele>
        <time>2025-04-16T09:18:08Z</time>
      </trkpt>
      <trkpt lat="45.26047" lon="0.49891">
        <ele>77</ele>
        <time>2025-04-16T09:18:26Z</time>
      </trkpt>
      <trkpt lat="45.26042" lon="0.49866">
        <ele>77</ele>
        <time>2025-04-16T09:18:29Z</time>
      </trkpt>
      <trkpt lat="45.26003" lon="0.49553">
        <ele>76</ele>
        <time>2025-04-16T09:19:09Z</time>
      </trkpt>
      <trkpt lat="45.25991" lon="0.49458">
        <ele>76</ele>
        <time>2025-04-16T09:19:21Z</time>
      </trkpt>
      <trkpt lat="45.25995" lon="0.49268">
        <ele>77</ele>
        <time>2025-04-16T09:19:45Z</time>
      </trkpt>
      <trkpt lat="45.26006" lon="0.49155">
        <ele>76</ele>
        <time>2025-04-16T09:19:59Z</time>
      </trkpt>
      <trkpt lat="45.26036" lon="0.49155">
        <ele>76</ele>
        <time>2025-04-16T09:20:04Z</time>
      </trkpt>
      <trkpt lat="45.26057" lon="0.49145">
        <ele>76</ele>
        <time>2025-04-16T09:20:08Z</time>
      </trkpt>
      <trkpt lat="45.261" lon="0.49114">
        <ele>76</ele>
        <time>2025-04-16T09:20:17Z</time>
      </trkpt>
      <trkpt lat="45.2626" lon="0.48987">
        <ele>78</ele>
        <time>2025-04-16T09:20:49Z</time>
      </trkpt>
      <trkpt lat="45.26458" lon="0.48839">
        <ele>84</ele>
        <time>2025-04-16T09:21:29Z</time>
      </trkpt>
      <trkpt lat="45.26502" lon="0.48793">
        <ele>85</ele>
        <time>2025-04-16T09:21:39Z</time>
      </trkpt>
      <trkpt lat="45.26515" lon="0.48775">
        <ele>85</ele>
        <time>2025-04-16T09:21:42Z</time>
      </trkpt>
      <trkpt lat="45.26608" lon="0.48624">
        <ele>92</ele>
        <time>2025-04-16T09:22:07Z</time>
      </trkpt>
      <trkpt lat="45.26614" lon="0.48608">
        <ele>93</ele>
        <time>2025-04-16T09:22:10Z</time>
      </trkpt>
      <trkpt lat="45.26619" lon="0.48577">
        <ele>94</ele>
        <time>2025-04-16T09:22:14Z</time>
      </trkpt>
      <trkpt lat="45.26618" lon="0.48553">
        <ele>94</ele>
        <time>2025-04-16T09:22:17Z</time>
      </trkpt>
      <trkpt lat="45.26608" lon="0.4844">
        <ele>98</ele>
        <time>2025-04-16T09:22:31Z</time>
      </trkpt>
      <trkpt lat="45.26608" lon="0.48412">
        <ele>99</ele>
        <time>2025-04-16T09:22:34Z</time>
      </trkpt>
      <trkpt lat="45.26615" lon="0.48332">
        <ele>100</ele>
        <time>2025-04-16T09:22:44Z</time>
      </trkpt>
      <trkpt lat="45.26628" lon="0.48216">
        <ele>107</ele>
        <time>2025-04-16T09:22:59Z</time>
      </trkpt>
      <trkpt lat="45.26625" lon="0.48162">
        <ele>111</ele>
        <time>2025-04-16T09:23:06Z</time>
      </trkpt>
      <trkpt lat="45.26597" lon="0.48003">
        <ele>117</ele>
        <time>2025-04-16T09:23:26Z</time>
      </trkpt>
      <trkpt lat="45.26594" lon="0.47954">
        <ele>118</ele>
        <time>2025-04-16T09:23:33Z</time>
      </trkpt>
      <trkpt lat="45.26598" lon="0.47927">
        <ele>119</ele>
        <time>2025-04-16T09:23:36Z</time>
      </trkpt>
      <trkpt lat="45.2659" lon="0.47919">
        <ele>118</ele>
        <time>2025-04-16T09:23:38Z</time>
      </trkpt>
      <trkpt lat="45.26578" lon="0.47877">
        <ele>114</ele>
        <time>2025-04-16T09:23:43Z</time>
      </trkpt>
      <trkpt lat="45.26565" lon="0.47855">
        <ele>111</ele>
        <time>2025-04-16T09:23:47Z</time>
      </trkpt>
      <trkpt lat="45.26499" lon="0.47805">
        <ele>102</ele>
        <time>2025-04-16T09:24:00Z</time>
      </trkpt>
      <trkpt lat="45.26409" lon="0.47685">
        <ele>90</ele>
        <time>2025-04-16T09:24:22Z</time>
      </trkpt>
      <trkpt lat="45.26385" lon="0.47632">
        <ele>86</ele>
        <time>2025-04-16T09:24:30Z</time>
      </trkpt>
      <trkpt lat="45.26361" lon="0.47609">
        <ele>83</ele>
        <time>2025-04-16T09:24:35Z</time>
      </trkpt>
      <trkpt lat="45.26334" lon="0.47595">
        <ele>81</ele>
        <time>2025-04-16T09:24:40Z</time>
      </trkpt>
      <trkpt lat="45.26322" lon="0.47592">
        <ele>80</ele>
        <time>2025-04-16T09:24:43Z</time>
      </trkpt>
      <trkpt lat="45.26306" lon="0.47592">
        <ele>79</ele>
        <time>2025-04-16T09:24:45Z</time>
      </trkpt>
      <trkpt lat="45.26281" lon="0.47489">
        <ele>77</ele>
        <time>2025-04-16T09:24:59Z</time>
      </trkpt>
      <trkpt lat="45.26269" lon="0.47456">
        <ele>79</ele>
        <time>2025-04-16T09:25:04Z</time>
      </trkpt>
      <trkpt lat="45.26257" lon="0.47436">
        <ele>79</ele>
        <time>2025-04-16T09:25:07Z</time>
      </trkpt>
      <trkpt lat="45.2615" lon="0.47318">
        <ele>75</ele>
        <time>2025-04-16T09:25:31Z</time>
      </trkpt>
      <trkpt lat="45.26114" lon="0.47251">
        <ele>76</ele>
        <time>2025-04-16T09:25:42Z</time>
      </trkpt>
      <trkpt lat="45.26068" lon="0.4714">
        <ele>77</ele>
        <time>2025-04-16T09:25:58Z</time>
      </trkpt>
      <trkpt lat="45.26003" lon="0.46998">
        <ele>77</ele>
        <time>2025-04-16T09:26:19Z</time>
      </trkpt>
      <trkpt lat="45.25967" lon="0.46898">
        <ele>80</ele>
        <time>2025-04-16T09:26:33Z</time>
      </trkpt>
      <trkpt lat="45.25879" lon="0.46678">
        <ele>79</ele>
        <time>2025-04-16T09:27:05Z</time>
      </trkpt>
      <trkpt lat="45.2587" lon="0.4666">
        <ele>80</ele>
        <time>2025-04-16T09:27:08Z</time>
      </trkpt>
      <trkpt lat="45.2586" lon="0.46648">
        <ele>80</ele>
        <time>2025-04-16T09:27:10Z</time>
      </trkpt>
      <trkpt lat="45.25825" lon="0.46618">
        <ele>81</ele>
        <time>2025-04-16T09:27:17Z</time>
      </trkpt>
      <trkpt lat="45.25818" lon="0.46608">
        <ele>81</ele>
        <time>2025-04-16T09:27:19Z</time>
      </trkpt>
      <trkpt lat="45.25811" lon="0.46593">
        <ele>81</ele>
        <time>2025-04-16T09:27:21Z</time>
      </trkpt>
      <trkpt lat="45.25811" lon="0.46573">
        <ele>82</ele>
        <time>2025-04-16T09:27:24Z</time>
      </trkpt>
      <trkpt lat="45.25821" lon="0.46489">
        <ele>86</ele>
        <time>2025-04-16T09:27:34Z</time>
      </trkpt>
      <trkpt lat="45.25818" lon="0.46466">
        <ele>86</ele>
        <time>2025-04-16T09:27:37Z</time>
      </trkpt>
      <trkpt lat="45.25813" lon="0.46442">
        <ele>87</ele>
        <time>2025-04-16T09:27:40Z</time>
      </trkpt>
      <trkpt lat="45.25803" lon="0.46413">
        <ele>87</ele>
        <time>2025-04-16T09:27:45Z</time>
      </trkpt>
      <trkpt lat="45.25785" lon="0.46371">
        <ele>89</ele>
        <time>2025-04-16T09:27:51Z</time>
      </trkpt>
      <trkpt lat="45.2572" lon="0.46244">
        <ele>91</ele>
        <time>2025-04-16T09:28:10Z</time>
      </trkpt>
      <trkpt lat="45.25706" lon="0.46206">
        <ele>92</ele>
        <time>2025-04-16T09:28:16Z</time>
      </trkpt>
      <trkpt lat="45.25702" lon="0.46182">
        <ele>92</ele>
        <time>2025-04-16T09:28:19Z</time>
      </trkpt>
      <trkpt lat="45.25701" lon="0.46158">
        <ele>93</ele>
        <time>2025-04-16T09:28:22Z</time>
      </trkpt>
      <trkpt lat="45.25706" lon="0.46133">
        <ele>94</ele>
        <time>2025-04-16T09:28:25Z</time>
      </trkpt>
      <trkpt lat="45.25716" lon="0.4611">
        <ele>95</ele>
        <time>2025-04-16T09:28:28Z</time>
      </trkpt>
      <trkpt lat="45.25753" lon="0.46058">
        <ele>99</ele>
        <time>2025-04-16T09:28:38Z</time>
      </trkpt>
      <trkpt lat="45.25774" lon="0.46013">
        <ele>101</ele>
        <time>2025-04-16T09:28:44Z</time>
      </trkpt>
      <trkpt lat="45.25818" lon="0.45862">
        <ele>98</ele>
        <time>2025-04-16T09:29:05Z</time>
      </trkpt>
      <trkpt lat="45.25846" lon="0.45758">
        <ele>96</ele>
        <time>2025-04-16T09:29:19Z</time>
      </trkpt>
      <trkpt lat="45.25854" lon="0.45717">
        <ele>96</ele>
        <time>2025-04-16T09:29:24Z</time>
      </trkpt>
      <trkpt lat="45.25856" lon="0.45651">
        <ele>95</ele>
        <time>2025-04-16T09:29:32Z</time>
      </trkpt>
      <trkpt lat="45.25857" lon="0.45626">
        <ele>95</ele>
        <time>2025-04-16T09:29:36Z</time>
      </trkpt>
      <trkpt lat="45.25856" lon="0.45527">
        <ele>93</ele>
        <time>2025-04-16T09:29:48Z</time>
      </trkpt>
      <trkpt lat="45.25852" lon="0.45472">
        <ele>92</ele>
        <time>2025-04-16T09:29:55Z</time>
      </trkpt>
      <trkpt lat="45.25846" lon="0.45422">
        <ele>90</ele>
        <time>2025-04-16T09:30:01Z</time>
      </trkpt>
      <trkpt lat="45.25838" lon="0.45381">
        <ele>89</ele>
        <time>2025-04-16T09:30:07Z</time>
      </trkpt>
      <trkpt lat="45.25812" lon="0.45285">
        <ele>85</ele>
        <time>2025-04-16T09:30:20Z</time>
      </trkpt>
      <trkpt lat="45.25804" lon="0.4524">
        <ele>83</ele>
        <time>2025-04-16T09:30:25Z</time>
      </trkpt>
      <trkpt lat="45.25801" lon="0.45216">
        <ele>82</ele>
        <time>2025-04-16T09:30:28Z</time>
      </trkpt>
      <trkpt lat="45.25801" lon="0.45199">
        <ele>81</ele>
        <time>2025-04-16T09:30:31Z</time>
      </trkpt>
      <trkpt lat="45.25805" lon="0.45172">
        <ele>81</ele>
        <time>2025-04-16T09:30:34Z</time>
      </trkpt>
      <trkpt lat="45.2582" lon="0.45116">
        <ele>80</ele>
        <time>2025-04-16T09:30:41Z</time>
      </trkpt>
      <trkpt lat="45.25828" lon="0.4507">
        <ele>79</ele>
        <time>2025-04-16T09:30:47Z</time>
      </trkpt>
      <trkpt lat="45.25859" lon="0.4478">
        <ele>84</ele>
        <time>2025-04-16T09:31:24Z</time>
      </trkpt>
      <trkpt lat="45.2586" lon="0.44718">
        <ele>84</ele>
        <time>2025-04-16T09:31:32Z</time>
      </trkpt>
      <trkpt lat="45.2586" lon="0.44441">
        <ele>82</ele>
        <time>2025-04-16T09:32:07Z</time>
      </trkpt>
      <trkpt lat="45.25861" lon="0.44254">
        <ele>77</ele>
        <time>2025-04-16T09:32:30Z</time>
      </trkpt>
      <trkpt lat="45.25862" lon="0.44205">
        <ele>76</ele>
        <time>2025-04-16T09:32:36Z</time>
      </trkpt>
      <trkpt lat="45.25865" lon="0.44175">
        <ele>75</ele>
        <time>2025-04-16T09:32:40Z</time>
      </trkpt>
      <trkpt lat="45.2587" lon="0.44149">
        <ele>75</ele>
        <time>2025-04-16T09:32:43Z</time>
      </trkpt>
      <trkpt lat="45.25884" lon="0.44112">
        <ele>76</ele>
        <time>2025-04-16T09:32:49Z</time>
      </trkpt>
      <trkpt lat="45.25938" lon="0.44013">
        <ele>77</ele>
        <time>2025-04-16T09:33:04Z</time>
      </trkpt>
      <trkpt lat="45.25951" lon="0.43983">
        <ele>79</ele>
        <time>2025-04-16T09:33:09Z</time>
      </trkpt>
      <trkpt lat="45.25956" lon="0.43965">
        <ele>80</ele>
        <time>2025-04-16T09:33:11Z</time>
      </trkpt>
      <trkpt lat="45.2596" lon="0.43931">
        <ele>81</ele>
        <time>2025-04-16T09:33:15Z</time>
      </trkpt>
      <trkpt lat="45.25965" lon="0.43831">
        <ele>83</ele>
        <time>2025-04-16T09:33:28Z</time>
      </trkpt>
      <trkpt lat="45.25962" lon="0.43796">
        <ele>84</ele>
        <time>2025-04-16T09:33:32Z</time>
      </trkpt>
      <trkpt lat="45.25953" lon="0.43738">
        <ele>84</ele>
        <time>2025-04-16T09:33:40Z</time>
      </trkpt>
      <trkpt lat="45.25944" lon="0.43686">
        <ele>85</ele>
        <time>2025-04-16T09:33:47Z</time>
      </trkpt>
      <trkpt lat="45.25941" lon="0.43647">
        <ele>85</ele>
        <time>2025-04-16T09:33:51Z</time>
      </trkpt>
      <trkpt lat="45.25923" lon="0.43143">
        <ele>83</ele>
        <time>2025-04-16T09:34:55Z</time>
      </trkpt>
      <trkpt lat="45.25912" lon="0.43061">
        <ele>82</ele>
        <time>2025-04-16T09:35:05Z</time>
      </trkpt>
      <trkpt lat="45.2591" lon="0.43029">
        <ele>82</ele>
        <time>2025-04-16T09:35:09Z</time>
      </trkpt>
      <trkpt lat="45.25872" lon="0.42898">
        <ele>77</ele>
        <time>2025-04-16T09:35:27Z</time>
      </trkpt>
      <trkpt lat="45.25867" lon="0.42865">
        <ele>75</ele>
        <time>2025-04-16T09:35:31Z</time>
      </trkpt>
      <trkpt lat="45.25872" lon="0.42805">
        <ele>73</ele>
        <time>2025-04-16T09:35:39Z</time>
      </trkpt>
      <trkpt lat="45.25864" lon="0.42621">
        <ele>69</ele>
        <time>2025-04-16T09:36:02Z</time>
      </trkpt>
      <trkpt lat="45.25858" lon="0.42555">
        <ele>69</ele>
        <time>2025-04-16T09:36:10Z</time>
      </trkpt>
      <trkpt lat="45.25856" lon="0.42543">
        <ele>70</ele>
        <time>2025-04-16T09:36:12Z</time>
      </trkpt>
      <trkpt lat="45.2581" lon="0.42413">
        <ele>71</ele>
        <time>2025-04-16T09:36:30Z</time>
      </trkpt>
      <trkpt lat="45.25782" lon="0.42278">
        <ele>73</ele>
        <time>2025-04-16T09:36:48Z</time>
      </trkpt>
      <trkpt lat="45.25758" lon="0.42148">
        <ele>76</ele>
        <time>2025-04-16T09:37:04Z</time>
      </trkpt>
      <trkpt lat="45.25756" lon="0.42011">
        <ele>75</ele>
        <time>2025-04-16T09:37:22Z</time>
      </trkpt>
      <trkpt lat="45.2576" lon="0.41983">
        <ele>75</ele>
        <time>2025-04-16T09:37:25Z</time>
      </trkpt>
      <trkpt lat="45.25797" lon="0.41921">
        <ele>79</ele>
        <time>2025-04-16T09:37:35Z</time>
      </trkpt>
      <trkpt lat="45.25804" lon="0.41894">
        <ele>80</ele>
        <time>2025-04-16T09:37:39Z</time>
      </trkpt>
      <trkpt lat="45.25813" lon="0.41811">
        <ele>84</ele>
        <time>2025-04-16T09:37:49Z</time>
      </trkpt>
      <trkpt lat="45.25831" lon="0.4171">
        <ele>88</ele>
        <time>2025-04-16T09:38:02Z</time>
      </trkpt>
      <trkpt lat="45.25838" lon="0.4167">
        <ele>88</ele>
        <time>2025-04-16T09:38:08Z</time>
      </trkpt>
      <trkpt lat="45.25911" lon="0.41421">
        <ele>82</ele>
        <time>2025-04-16T09:38:41Z</time>
      </trkpt>
      <trkpt lat="45.25919" lon="0.41374">
        <ele>83</ele>
        <time>2025-04-16T09:38:47Z</time>
      </trkpt>
      <trkpt lat="45.25925" lon="0.41291">
        <ele>82</ele>
        <time>2025-04-16T09:38:58Z</time>
      </trkpt>
      <trkpt lat="45.25934" lon="0.41086">
        <ele>80</ele>
        <time>2025-04-16T09:39:24Z</time>
      </trkpt>
      <trkpt lat="45.2593" lon="0.41063">
        <ele>79</ele>
        <time>2025-04-16T09:39:27Z</time>
      </trkpt>
      <trkpt lat="45.25928" lon="0.41058">
        <ele>79</ele>
        <time>2025-04-16T09:39:27Z</time>
      </trkpt>
      <trkpt lat="45.25933" lon="0.41044">
        <ele>79</ele>
        <time>2025-04-16T09:39:29Z</time>
      </trkpt>
      <trkpt lat="45.25937" lon="0.41026">
        <ele>78</ele>
        <time>2025-04-16T09:39:32Z</time>
      </trkpt>
      <trkpt lat="45.25944" lon="0.40932">
        <ele>76</ele>
        <time>2025-04-16T09:39:43Z</time>
      </trkpt>
      <trkpt lat="45.25947" lon="0.40837">
        <ele>75</ele>
        <time>2025-04-16T09:39:55Z</time>
      </trkpt>
      <trkpt lat="45.25951" lon="0.40773">
        <ele>74</ele>
        <time>2025-04-16T09:40:03Z</time>
      </trkpt>
      <trkpt lat="45.25957" lon="0.40735">
        <ele>74</ele>
        <time>2025-04-16T09:40:08Z</time>
      </trkpt>
      <trkpt lat="45.25968" lon="0.40686">
        <ele>72</ele>
        <time>2025-04-16T09:40:15Z</time>
      </trkpt>
      <trkpt lat="45.2605" lon="0.40421">
        <ele>70</ele>
        <time>2025-04-16T09:40:51Z</time>
      </trkpt>
      <trkpt lat="45.26102" lon="0.4028">
        <ele>70</ele>
        <time>2025-04-16T09:41:11Z</time>
      </trkpt>
      <trkpt lat="45.26331" lon="0.39838">
        <ele>73</ele>
        <time>2025-04-16T09:42:20Z</time>
      </trkpt>
      <trkpt lat="45.2636" lon="0.39772">
        <ele>74</ele>
        <time>2025-04-16T09:42:29Z</time>
      </trkpt>
      <trkpt lat="45.26371" lon="0.39738">
        <ele>75</ele>
        <time>2025-04-16T09:42:34Z</time>
      </trkpt>
      <trkpt lat="45.26378" lon="0.39696">
        <ele>76</ele>
        <time>2025-04-16T09:42:40Z</time>
      </trkpt>
      <trkpt lat="45.26378" lon="0.39652">
        <ele>76</ele>
        <time>2025-04-16T09:42:45Z</time>
      </trkpt>
      <trkpt lat="45.26347" lon="0.39157">
        <ele>67</ele>
        <time>2025-04-16T09:43:47Z</time>
      </trkpt>
      <trkpt lat="45.26349" lon="0.39121">
        <ele>67</ele>
        <time>2025-04-16T09:43:52Z</time>
      </trkpt>
      <trkpt lat="45.26351" lon="0.39108">
        <ele>67</ele>
        <time>2025-04-16T09:43:53Z</time>
      </trkpt>
      <trkpt lat="45.26355" lon="0.39087">
        <ele>67</ele>
        <time>2025-04-16T09:43:56Z</time>
      </trkpt>
      <trkpt lat="45.26357" lon="0.39081">
        <ele>67</ele>
        <time>2025-04-16T09:43:57Z</time>
      </trkpt>
      <trkpt lat="45.26355" lon="0.39069">
        <ele>67</ele>
        <time>2025-04-16T09:43:59Z</time>
      </trkpt>
      <trkpt lat="45.26355" lon="0.39054">
        <ele>68</ele>
        <time>2025-04-16T09:44:00Z</time>
      </trkpt>
      <trkpt lat="45.26366" lon="0.38959">
        <ele>69</ele>
        <time>2025-04-16T09:44:12Z</time>
      </trkpt>
      <trkpt lat="45.26368" lon="0.3894">
        <ele>69</ele>
        <time>2025-04-16T09:44:15Z</time>
      </trkpt>
      <trkpt lat="45.26366" lon="0.38926">
        <ele>69</ele>
        <time>2025-04-16T09:44:17Z</time>
      </trkpt>
      <trkpt lat="45.26357" lon="0.38898">
        <ele>70</ele>
        <time>2025-04-16T09:44:21Z</time>
      </trkpt>
      <trkpt lat="45.26329" lon="0.38843">
        <ele>70</ele>
        <time>2025-04-16T09:44:29Z</time>
      </trkpt>
      <trkpt lat="45.26312" lon="0.38807">
        <ele>71</ele>
        <time>2025-04-16T09:44:34Z</time>
      </trkpt>
      <trkpt lat="45.26306" lon="0.38785">
        <ele>71</ele>
        <time>2025-04-16T09:44:37Z</time>
      </trkpt>
      <trkpt lat="45.26304" lon="0.38759">
        <ele>72</ele>
        <time>2025-04-16T09:44:41Z</time>
      </trkpt>
      <trkpt lat="45.26307" lon="0.38519">
        <ele>78</ele>
        <time>2025-04-16T09:45:11Z</time>
      </trkpt>
      <trkpt lat="45.26305" lon="0.38475">
        <ele>78</ele>
        <time>2025-04-16T09:45:16Z</time>
      </trkpt>
      <trkpt lat="45.2629" lon="0.38307">
        <ele>78</ele>
        <time>2025-04-16T09:45:37Z</time>
      </trkpt>
      <trkpt lat="45.26285" lon="0.38233">
        <ele>78</ele>
        <time>2025-04-16T09:45:47Z</time>
      </trkpt>
      <trkpt lat="45.26284" lon="0.38172">
        <ele>78</ele>
        <time>2025-04-16T09:45:54Z</time>
      </trkpt>
      <trkpt lat="45.26288" lon="0.38084">
        <ele>78</ele>
        <time>2025-04-16T09:46:05Z</time>
      </trkpt>
      <trkpt lat="45.26293" lon="0.38053">
        <ele>77</ele>
        <time>2025-04-16T09:46:09Z</time>
      </trkpt>
      <trkpt lat="45.26297" lon="0.38032">
        <ele>77</ele>
        <time>2025-04-16T09:46:12Z</time>
      </trkpt>
      <trkpt lat="45.2631" lon="0.3799">
        <ele>77</ele>
        <time>2025-04-16T09:46:18Z</time>
      </trkpt>
      <trkpt lat="45.26335" lon="0.37922">
        <ele>77</ele>
        <time>2025-04-16T09:46:28Z</time>
      </trkpt>
      <trkpt lat="45.26341" lon="0.37884">
        <ele>78</ele>
        <time>2025-04-16T09:46:32Z</time>
      </trkpt>
      <trkpt lat="45.26342" lon="0.37856">
        <ele>78</ele>
        <time>2025-04-16T09:46:36Z</time>
      </trkpt>
      <trkpt lat="45.2634" lon="0.37826">
        <ele>79</ele>
        <time>2025-04-16T09:46:40Z</time>
      </trkpt>
      <trkpt lat="45.26335" lon="0.37798">
        <ele>79</ele>
        <time>2025-04-16T09:46:43Z</time>
      </trkpt>
      <trkpt lat="45.2632" lon="0.37749">
        <ele>78</ele>
        <time>2025-04-16T09:46:50Z</time>
      </trkpt>
      <trkpt lat="45.26312" lon="0.3771">
        <ele>78</ele>
        <time>2025-04-16T09:46:55Z</time>
      </trkpt>
      <trkpt lat="45.26307" lon="0.37659">
        <ele>77</ele>
        <time>2025-04-16T09:47:02Z</time>
      </trkpt>
      <trkpt lat="45.26304" lon="0.37557">
        <ele>75</ele>
        <time>2025-04-16T09:47:14Z</time>
      </trkpt>
      <trkpt lat="45.26294" lon="0.37473">
        <ele>74</ele>
        <time>2025-04-16T09:47:25Z</time>
      </trkpt>
      <trkpt lat="45.26291" lon="0.37435">
        <ele>74</ele>
        <time>2025-04-16T09:47:30Z</time>
      </trkpt>
      <trkpt lat="45.2629" lon="0.37407">
        <ele>74</ele>
        <time>2025-04-16T09:47:33Z</time>
      </trkpt>
      <trkpt lat="45.26295" lon="0.37243">
        <ele>68</ele>
        <time>2025-04-16T09:47:54Z</time>
      </trkpt>
      <trkpt lat="45.26295" lon="0.37219">
        <ele>67</ele>
        <time>2025-04-16T09:47:57Z</time>
      </trkpt>
      <trkpt lat="45.26299" lon="0.37017">
        <ele>67</ele>
        <time>2025-04-16T09:48:22Z</time>
      </trkpt>
      <trkpt lat="45.26264" lon="0.36545">
        <ele>71</ele>
        <time>2025-04-16T09:49:22Z</time>
      </trkpt>
      <trkpt lat="45.2626" lon="0.36454">
        <ele>71</ele>
        <time>2025-04-16T09:49:33Z</time>
      </trkpt>
      <trkpt lat="45.26238" lon="0.36376">
        <ele>69</ele>
        <time>2025-04-16T09:49:44Z</time>
      </trkpt>
      <trkpt lat="45.2623" lon="0.36336">
        <ele>69</ele>
        <time>2025-04-16T09:49:49Z</time>
      </trkpt>
      <trkpt lat="45.26227" lon="0.36312">
        <ele>69</ele>
        <time>2025-04-16T09:49:52Z</time>
      </trkpt>
      <trkpt lat="45.26225" lon="0.36273">
        <ele>69</ele>
        <time>2025-04-16T09:49:57Z</time>
      </trkpt>
      <trkpt lat="45.26225" lon="0.36143">
        <ele>68</ele>
        <time>2025-04-16T09:50:13Z</time>
      </trkpt>
      <trkpt lat="45.26216" lon="0.36088">
        <ele>67</ele>
        <time>2025-04-16T09:50:20Z</time>
      </trkpt>
      <trkpt lat="45.26214" lon="0.36082">
        <ele>67</ele>
        <time>2025-04-16T09:50:21Z</time>
      </trkpt>
      <trkpt lat="45.26199" lon="0.36014">
        <ele>66</ele>
        <time>2025-04-16T09:50:30Z</time>
      </trkpt>
      <trkpt lat="45.26194" lon="0.35955">
        <ele>65</ele>
        <time>2025-04-16T09:50:37Z</time>
      </trkpt>
      <trkpt lat="45.26191" lon="0.35837">
        <ele>64</ele>
        <time>2025-04-16T09:50:52Z</time>
      </trkpt>
      <trkpt lat="45.26186" lon="0.35739">
        <ele>66</ele>
        <time>2025-04-16T09:51:04Z</time>
      </trkpt>
      <trkpt lat="45.26148" lon="0.35455">
        <ele>65</ele>
        <time>2025-04-16T09:51:41Z</time>
      </trkpt>
      <trkpt lat="45.26146" lon="0.35406">
        <ele>65</ele>
        <time>2025-04-16T09:51:47Z</time>
      </trkpt>
      <trkpt lat="45.26148" lon="0.35373">
        <ele>65</ele>
        <time>2025-04-16T09:51:51Z</time>
      </trkpt>
      <trkpt lat="45.26154" lon="0.35333">
        <ele>65</ele>
        <time>2025-04-16T09:51:56Z</time>
      </trkpt>
      <trkpt lat="45.26174" lon="0.35209">
        <ele>65</ele>
        <time>2025-04-16T09:52:12Z</time>
      </trkpt>
      <trkpt lat="45.2625" lon="0.3476">
        <ele>64</ele>
        <time>2025-04-16T09:53:10Z</time>
      </trkpt>
      <trkpt lat="45.26254" lon="0.34733">
        <ele>64</ele>
        <time>2025-04-16T09:53:13Z</time>
      </trkpt>
      <trkpt lat="45.26254" lon="0.34713">
        <ele>64</ele>
        <time>2025-04-16T09:53:16Z</time>
      </trkpt>
      <trkpt lat="45.26249" lon="0.34681">
        <ele>63</ele>
        <time>2025-04-16T09:53:20Z</time>
      </trkpt>
      <trkpt lat="45.26135" lon="0.34322">
        <ele>61</ele>
        <time>2025-04-16T09:54:09Z</time>
      </trkpt>
      <trkpt lat="45.26131" lon="0.34298">
        <ele>61</ele>
        <time>2025-04-16T09:54:12Z</time>
      </trkpt>
      <trkpt lat="45.26132" lon="0.34295">
        <ele>61</ele>
        <time>2025-04-16T09:54:13Z</time>
      </trkpt>
      <trkpt lat="45.26133" lon="0.34285">
        <ele>61</ele>
        <time>2025-04-16T09:54:14Z</time>
      </trkpt>
      <trkpt lat="45.26128" lon="0.34278">
        <ele>61</ele>
        <time>2025-04-16T09:54:15Z</time>
      </trkpt>
      <trkpt lat="45.26122" lon="0.34276">
        <ele>61</ele>
        <time>2025-04-16T09:54:16Z</time>
      </trkpt>
      <trkpt lat="45.2612" lon="0.34278">
        <ele>61</ele>
        <time>2025-04-16T09:54:17Z</time>
      </trkpt>
      <trkpt lat="45.26115" lon="0.34285">
        <ele>61</ele>
        <time>2025-04-16T09:54:18Z</time>
      </trkpt>
      <trkpt lat="45.26101" lon="0.34287">
        <ele>61</ele>
        <time>2025-04-16T09:54:20Z</time>
      </trkpt>
      <trkpt lat="45.26056" lon="0.34284">
        <ele>61</ele>
        <time>2025-04-16T09:54:28Z</time>
      </trkpt>
      <trkpt lat="45.25963" lon="0.34288">
        <ele>61</ele>
        <time>2025-04-16T09:54:45Z</time>
      </trkpt>
      <trkpt lat="45.25925" lon="0.34288">
        <ele>61</ele>
        <time>2025-04-16T09:54:52Z</time>
      </trkpt>
      <trkpt lat="45.25797" lon="0.3429">
        <ele>63</ele>
        <time>2025-04-16T09:55:15Z</time>
      </trkpt>
      <trkpt lat="45.25768" lon="0.34291">
        <ele>62</ele>
        <time>2025-04-16T09:55:20Z</time>
      </trkpt>
      <trkpt lat="45.25715" lon="0.34292">
        <ele>62</ele>
        <time>2025-04-16T09:55:29Z</time>
      </trkpt>
      <trkpt lat="45.25693" lon="0.3429">
        <ele>61</ele>
        <time>2025-04-16T09:55:33Z</time>
      </trkpt>
      <trkpt lat="45.25678" lon="0.34286">
        <ele>61</ele>
        <time>2025-04-16T09:55:36Z</time>
      </trkpt>
      <trkpt lat="45.2566" lon="0.34276">
        <ele>61</ele>
        <time>2025-04-16T09:55:39Z</time>
      </trkpt>
      <trkpt lat="45.25619" lon="0.34246">
        <ele>63</ele>
        <time>2025-04-16T09:55:47Z</time>
      </trkpt>
      <trkpt lat="45.25505" lon="0.34162">
        <ele>65</ele>
        <time>2025-04-16T09:56:10Z</time>
      </trkpt>
      <trkpt lat="45.25472" lon="0.34135">
        <ele>67</ele>
        <time>2025-04-16T09:56:17Z</time>
      </trkpt>
      <trkpt lat="45.25462" lon="0.34115">
        <ele>67</ele>
        <time>2025-04-16T09:56:20Z</time>
      </trkpt>
      <trkpt lat="45.25463" lon="0.34104">
        <ele>67</ele>
        <time>2025-04-16T09:56:22Z</time>
      </trkpt>
      <trkpt lat="45.25462" lon="0.34099">
        <ele>67</ele>
        <time>2025-04-16T09:56:22Z</time>
      </trkpt>
      <trkpt lat="45.25469" lon="0.34083">
        <ele>66</ele>
        <time>2025-04-16T09:56:25Z</time>
      </trkpt>
      <trkpt lat="45.25484" lon="0.34069">
        <ele>66</ele>
        <time>2025-04-16T09:56:28Z</time>
      </trkpt>
      <trkpt lat="45.25494" lon="0.34054">
        <ele>65</ele>
        <time>2025-04-16T09:56:30Z</time>
      </trkpt>
      <trkpt lat="45.255" lon="0.34039">
        <ele>64</ele>
        <time>2025-04-16T09:56:32Z</time>
      </trkpt>
      <trkpt lat="45.25513" lon="0.33978">
        <ele>64</ele>
        <time>2025-04-16T09:56:40Z</time>
      </trkpt>
      <trkpt lat="45.25514" lon="0.33974">
        <ele>64</ele>
        <time>2025-04-16T09:56:41Z</time>
      </trkpt>
      <trkpt lat="45.25547" lon="0.33806">
        <ele>67</ele>
        <time>2025-04-16T09:57:03Z</time>
      </trkpt>
      <trkpt lat="45.25549" lon="0.33787">
        <ele>67</ele>
        <time>2025-04-16T09:57:05Z</time>
      </trkpt>
      <trkpt lat="45.2555" lon="0.33766">
        <ele>68</ele>
        <time>2025-04-16T09:57:08Z</time>
      </trkpt>
      <trkpt lat="45.25541" lon="0.33708">
        <ele>69</ele>
        <time>2025-04-16T09:57:15Z</time>
      </trkpt>
      <trkpt lat="45.25539" lon="0.33679">
        <ele>69</ele>
        <time>2025-04-16T09:57:19Z</time>
      </trkpt>
      <trkpt lat="45.25536" lon="0.33672">
        <ele>70</ele>
        <time>2025-04-16T09:57:20Z</time>
      </trkpt>
      <trkpt lat="45.2553" lon="0.33667">
        <ele>70</ele>
        <time>2025-04-16T09:57:21Z</time>
      </trkpt>
      <trkpt lat="45.25452" lon="0.33655">
        <ele>70</ele>
        <time>2025-04-16T09:57:35Z</time>
      </trkpt>
      <trkpt lat="45.25437" lon="0.3365">
        <ele>69</ele>
        <time>2025-04-16T09:57:38Z</time>
      </trkpt>
      <trkpt lat="45.25076" lon="0.33593">
        <ele>72</ele>
        <time>2025-04-16T09:58:43Z</time>
      </trkpt>
      <trkpt lat="45.25073" lon="0.33623">
        <ele>71</ele>
        <time>2025-04-16T09:58:46Z</time>
      </trkpt>
      <trkpt lat="45.25077" lon="0.33681">
        <ele>70</ele>
        <time>2025-04-16T09:58:54Z</time>
      </trkpt>
      <trkpt lat="45.24999" lon="0.33697">
        <ele>72</ele>
        <time>2025-04-16T09:59:08Z</time>
      </trkpt>
    </trkseg>
  </trk>
  <trk>
    <name><![CDATA[dimanche 82km]]></name>
    <extensions>
      <line xmlns="http://www.topografix.com/GPX/gpx_style/0/2">
        <color>0011ff</color>
        <width>6</width>
          <extensions>
            <sens>1</sens>
          </extensions>
      </line>
    </extensions>
    <trkseg>
      <trkpt lat="45.24966" lon="0.33703">
        <ele>72</ele>
        <time>2025-04-16T07:01:23Z</time>
      </trkpt>
      <trkpt lat="45.24984" lon="0.337">
        <ele>72</ele>
        <time>2025-04-16T07:01:26Z</time>
      </trkpt>
      <trkpt lat="45.25077" lon="0.33681">
        <ele>70</ele>
        <time>2025-04-16T07:01:43Z</time>
      </trkpt>
      <trkpt lat="45.25073" lon="0.33623">
        <ele>71</ele>
        <time>2025-04-16T07:01:50Z</time>
      </trkpt>
      <trkpt lat="45.25076" lon="0.33593">
        <ele>72</ele>
        <time>2025-04-16T07:01:54Z</time>
      </trkpt>
      <trkpt lat="45.25116" lon="0.33599">
        <ele>72</ele>
        <time>2025-04-16T07:02:01Z</time>
      </trkpt>
      <trkpt lat="45.25437" lon="0.3365">
        <ele>69</ele>
        <time>2025-04-16T07:02:59Z</time>
      </trkpt>
      <trkpt lat="45.25452" lon="0.33655">
        <ele>70</ele>
        <time>2025-04-16T07:03:01Z</time>
      </trkpt>
      <trkpt lat="45.2553" lon="0.33667">
        <ele>70</ele>
        <time>2025-04-16T07:03:15Z</time>
      </trkpt>
      <trkpt lat="45.25536" lon="0.33672">
        <ele>70</ele>
        <time>2025-04-16T07:03:17Z</time>
      </trkpt>
      <trkpt lat="45.25539" lon="0.33679">
        <ele>69</ele>
        <time>2025-04-16T07:03:18Z</time>
      </trkpt>
      <trkpt lat="45.25541" lon="0.33708">
        <ele>69</ele>
        <time>2025-04-16T07:03:21Z</time>
      </trkpt>
      <trkpt lat="45.2555" lon="0.33766">
        <ele>68</ele>
        <time>2025-04-16T07:03:29Z</time>
      </trkpt>
      <trkpt lat="45.25549" lon="0.33787">
        <ele>67</ele>
        <time>2025-04-16T07:03:31Z</time>
      </trkpt>
      <trkpt lat="45.25547" lon="0.33806">
        <ele>67</ele>
        <time>2025-04-16T07:03:34Z</time>
      </trkpt>
      <trkpt lat="45.25514" lon="0.33974">
        <ele>64</ele>
        <time>2025-04-16T07:03:56Z</time>
      </trkpt>
      <trkpt lat="45.25513" lon="0.33978">
        <ele>64</ele>
        <time>2025-04-16T07:03:56Z</time>
      </trkpt>
      <trkpt lat="45.255" lon="0.34039">
        <ele>64</ele>
        <time>2025-04-16T07:04:04Z</time>
      </trkpt>
      <trkpt lat="45.25494" lon="0.34054">
        <ele>65</ele>
        <time>2025-04-16T07:04:06Z</time>
      </trkpt>
      <trkpt lat="45.25484" lon="0.34069">
        <ele>66</ele>
        <time>2025-04-16T07:04:09Z</time>
      </trkpt>
      <trkpt lat="45.25469" lon="0.34083">
        <ele>66</ele>
        <time>2025-04-16T07:04:12Z</time>
      </trkpt>
      <trkpt lat="45.25455" lon="0.34092">
        <ele>67</ele>
        <time>2025-04-16T07:04:15Z</time>
      </trkpt>
      <trkpt lat="45.25452" lon="0.34092">
        <ele>67</ele>
        <time>2025-04-16T07:04:15Z</time>
      </trkpt>
      <trkpt lat="45.25446" lon="0.34095">
        <ele>68</ele>
        <time>2025-04-16T07:04:16Z</time>
      </trkpt>
      <trkpt lat="45.25443" lon="0.34102">
        <ele>68</ele>
        <time>2025-04-16T07:04:17Z</time>
      </trkpt>
      <trkpt lat="45.25442" lon="0.34109">
        <ele>68</ele>
        <time>2025-04-16T07:04:18Z</time>
      </trkpt>
      <trkpt lat="45.25444" lon="0.34115">
        <ele>68</ele>
        <time>2025-04-16T07:04:19Z</time>
      </trkpt>
      <trkpt lat="45.2545" lon="0.34121">
        <ele>68</ele>
        <time>2025-04-16T07:04:21Z</time>
      </trkpt>
      <trkpt lat="45.25456" lon="0.34121">
        <ele>67</ele>
        <time>2025-04-16T07:04:22Z</time>
      </trkpt>
      <trkpt lat="45.25505" lon="0.34162">
        <ele>65</ele>
        <time>2025-04-16T07:04:32Z</time>
      </trkpt>
      <trkpt lat="45.25581" lon="0.34216">
        <ele>64</ele>
        <time>2025-04-16T07:04:47Z</time>
      </trkpt>
      <trkpt lat="45.25619" lon="0.34246">
        <ele>63</ele>
        <time>2025-04-16T07:04:55Z</time>
      </trkpt>
      <trkpt lat="45.2566" lon="0.34276">
        <ele>61</ele>
        <time>2025-04-16T07:05:03Z</time>
      </trkpt>
      <trkpt lat="45.25678" lon="0.34286">
        <ele>61</ele>
        <time>2025-04-16T07:05:06Z</time>
      </trkpt>
      <trkpt lat="45.25693" lon="0.3429">
        <ele>61</ele>
        <time>2025-04-16T07:05:09Z</time>
      </trkpt>
      <trkpt lat="45.25715" lon="0.34292">
        <ele>62</ele>
        <time>2025-04-16T07:05:13Z</time>
      </trkpt>
      <trkpt lat="45.25768" lon="0.34291">
        <ele>62</ele>
        <time>2025-04-16T07:05:22Z</time>
      </trkpt>
      <trkpt lat="45.25797" lon="0.3429">
        <ele>63</ele>
        <time>2025-04-16T07:05:27Z</time>
      </trkpt>
      <trkpt lat="45.25925" lon="0.34288">
        <ele>61</ele>
        <time>2025-04-16T07:05:50Z</time>
      </trkpt>
      <trkpt lat="45.25963" lon="0.34288">
        <ele>61</ele>
        <time>2025-04-16T07:05:57Z</time>
      </trkpt>
      <trkpt lat="45.26056" lon="0.34284">
        <ele>61</ele>
        <time>2025-04-16T07:06:14Z</time>
      </trkpt>
      <trkpt lat="45.26101" lon="0.34287">
        <ele>61</ele>
        <time>2025-04-16T07:06:22Z</time>
      </trkpt>
      <trkpt lat="45.26115" lon="0.34294">
        <ele>61</ele>
        <time>2025-04-16T07:06:24Z</time>
      </trkpt>
      <trkpt lat="45.26117" lon="0.343">
        <ele>61</ele>
        <time>2025-04-16T07:06:25Z</time>
      </trkpt>
      <trkpt lat="45.26125" lon="0.34303">
        <ele>61</ele>
        <time>2025-04-16T07:06:26Z</time>
      </trkpt>
      <trkpt lat="45.26135" lon="0.34322">
        <ele>61</ele>
        <time>2025-04-16T07:06:29Z</time>
      </trkpt>
      <trkpt lat="45.26249" lon="0.34681">
        <ele>63</ele>
        <time>2025-04-16T07:07:19Z</time>
      </trkpt>
      <trkpt lat="45.26254" lon="0.34713">
        <ele>64</ele>
        <time>2025-04-16T07:07:23Z</time>
      </trkpt>
      <trkpt lat="45.26254" lon="0.34733">
        <ele>64</ele>
        <time>2025-04-16T07:07:25Z</time>
      </trkpt>
      <trkpt lat="45.2625" lon="0.3476">
        <ele>64</ele>
        <time>2025-04-16T07:07:29Z</time>
      </trkpt>
      <trkpt lat="45.26154" lon="0.35333">
        <ele>65</ele>
        <time>2025-04-16T07:08:43Z</time>
      </trkpt>
      <trkpt lat="45.26148" lon="0.35373">
        <ele>65</ele>
        <time>2025-04-16T07:08:48Z</time>
      </trkpt>
      <trkpt lat="45.26146" lon="0.35406">
        <ele>65</ele>
        <time>2025-04-16T07:08:52Z</time>
      </trkpt>
      <trkpt lat="45.26148" lon="0.35455">
        <ele>65</ele>
        <time>2025-04-16T07:08:58Z</time>
      </trkpt>
      <trkpt lat="45.26186" lon="0.35739">
        <ele>66</ele>
        <time>2025-04-16T07:09:34Z</time>
      </trkpt>
      <trkpt lat="45.26191" lon="0.35837">
        <ele>64</ele>
        <time>2025-04-16T07:09:47Z</time>
      </trkpt>
      <trkpt lat="45.26194" lon="0.35955">
        <ele>65</ele>
        <time>2025-04-16T07:10:01Z</time>
      </trkpt>
      <trkpt lat="45.26199" lon="0.36014">
        <ele>66</ele>
        <time>2025-04-16T07:10:09Z</time>
      </trkpt>
      <trkpt lat="45.26214" lon="0.36082">
        <ele>67</ele>
        <time>2025-04-16T07:10:18Z</time>
      </trkpt>
      <trkpt lat="45.26216" lon="0.36088">
        <ele>67</ele>
        <time>2025-04-16T07:10:19Z</time>
      </trkpt>
      <trkpt lat="45.26225" lon="0.36143">
        <ele>68</ele>
        <time>2025-04-16T07:10:26Z</time>
      </trkpt>
      <trkpt lat="45.26225" lon="0.36273">
        <ele>69</ele>
        <time>2025-04-16T07:10:42Z</time>
      </trkpt>
      <trkpt lat="45.26227" lon="0.36312">
        <ele>69</ele>
        <time>2025-04-16T07:10:47Z</time>
      </trkpt>
      <trkpt lat="45.2623" lon="0.36336">
        <ele>69</ele>
        <time>2025-04-16T07:10:50Z</time>
      </trkpt>
      <trkpt lat="45.26238" lon="0.36376">
        <ele>69</ele>
        <time>2025-04-16T07:10:55Z</time>
      </trkpt>
      <trkpt lat="45.2626" lon="0.36454">
        <ele>71</ele>
        <time>2025-04-16T07:11:06Z</time>
      </trkpt>
      <trkpt lat="45.26264" lon="0.36545">
        <ele>71</ele>
        <time>2025-04-16T07:11:17Z</time>
      </trkpt>
      <trkpt lat="45.26299" lon="0.37017">
        <ele>67</ele>
        <time>2025-04-16T07:12:16Z</time>
      </trkpt>
      <trkpt lat="45.26295" lon="0.37219">
        <ele>67</ele>
        <time>2025-04-16T07:12:42Z</time>
      </trkpt>
      <trkpt lat="45.26295" lon="0.37243">
        <ele>68</ele>
        <time>2025-04-16T07:12:45Z</time>
      </trkpt>
      <trkpt lat="45.2629" lon="0.37407">
        <ele>74</ele>
        <time>2025-04-16T07:13:05Z</time>
      </trkpt>
      <trkpt lat="45.26291" lon="0.37435">
        <ele>74</ele>
        <time>2025-04-16T07:13:09Z</time>
      </trkpt>
      <trkpt lat="45.26294" lon="0.37473">
        <ele>74</ele>
        <time>2025-04-16T07:13:14Z</time>
      </trkpt>
      <trkpt lat="45.26304" lon="0.37557">
        <ele>75</ele>
        <time>2025-04-16T07:13:24Z</time>
      </trkpt>
      <trkpt lat="45.26307" lon="0.37659">
        <ele>77</ele>
        <time>2025-04-16T07:13:37Z</time>
      </trkpt>
      <trkpt lat="45.26312" lon="0.3771">
        <ele>78</ele>
        <time>2025-04-16T07:13:43Z</time>
      </trkpt>
      <trkpt lat="45.2632" lon="0.37749">
        <ele>78</ele>
        <time>2025-04-16T07:13:49Z</time>
      </trkpt>
      <trkpt lat="45.26335" lon="0.37798">
        <ele>79</ele>
        <time>2025-04-16T07:13:55Z</time>
      </trkpt>
      <trkpt lat="45.2634" lon="0.37826">
        <ele>79</ele>
        <time>2025-04-16T07:13:59Z</time>
      </trkpt>
      <trkpt lat="45.26342" lon="0.37856">
        <ele>78</ele>
        <time>2025-04-16T07:14:03Z</time>
      </trkpt>
      <trkpt lat="45.26341" lon="0.37884">
        <ele>78</ele>
        <time>2025-04-16T07:14:06Z</time>
      </trkpt>
      <trkpt lat="45.26335" lon="0.37922">
        <ele>77</ele>
        <time>2025-04-16T07:14:11Z</time>
      </trkpt>
      <trkpt lat="45.2631" lon="0.3799">
        <ele>77</ele>
        <time>2025-04-16T07:14:21Z</time>
      </trkpt>
      <trkpt lat="45.26297" lon="0.38032">
        <ele>77</ele>
        <time>2025-04-16T07:14:26Z</time>
      </trkpt>
      <trkpt lat="45.26293" lon="0.38053">
        <ele>77</ele>
        <time>2025-04-16T07:14:29Z</time>
      </trkpt>
      <trkpt lat="45.26288" lon="0.38084">
        <ele>78</ele>
        <time>2025-04-16T07:14:33Z</time>
      </trkpt>
      <trkpt lat="45.26284" lon="0.38172">
        <ele>78</ele>
        <time>2025-04-16T07:14:44Z</time>
      </trkpt>
      <trkpt lat="45.26285" lon="0.38233">
        <ele>78</ele>
        <time>2025-04-16T07:14:52Z</time>
      </trkpt>
      <trkpt lat="45.2629" lon="0.38307">
        <ele>78</ele>
        <time>2025-04-16T07:15:01Z</time>
      </trkpt>
      <trkpt lat="45.26305" lon="0.38475">
        <ele>78</ele>
        <time>2025-04-16T07:15:22Z</time>
      </trkpt>
      <trkpt lat="45.26307" lon="0.38519">
        <ele>78</ele>
        <time>2025-04-16T07:15:28Z</time>
      </trkpt>
      <trkpt lat="45.26304" lon="0.38759">
        <ele>72</ele>
        <time>2025-04-16T07:15:58Z</time>
      </trkpt>
      <trkpt lat="45.26306" lon="0.38785">
        <ele>71</ele>
        <time>2025-04-16T07:16:01Z</time>
      </trkpt>
      <trkpt lat="45.26312" lon="0.38807">
        <ele>71</ele>
        <time>2025-04-16T07:16:04Z</time>
      </trkpt>
      <trkpt lat="45.26329" lon="0.38843">
        <ele>70</ele>
        <time>2025-04-16T07:16:10Z</time>
      </trkpt>
      <trkpt lat="45.26357" lon="0.38898">
        <ele>70</ele>
        <time>2025-04-16T07:16:18Z</time>
      </trkpt>
      <trkpt lat="45.26366" lon="0.38926">
        <ele>69</ele>
        <time>2025-04-16T07:16:22Z</time>
      </trkpt>
      <trkpt lat="45.26368" lon="0.3894">
        <ele>69</ele>
        <time>2025-04-16T07:16:24Z</time>
      </trkpt>
      <trkpt lat="45.26366" lon="0.38959">
        <ele>69</ele>
        <time>2025-04-16T07:16:26Z</time>
      </trkpt>
      <trkpt lat="45.26355" lon="0.39054">
        <ele>68</ele>
        <time>2025-04-16T07:16:38Z</time>
      </trkpt>
      <trkpt lat="45.26355" lon="0.39069">
        <ele>67</ele>
        <time>2025-04-16T07:16:40Z</time>
      </trkpt>
      <trkpt lat="45.26357" lon="0.39081">
        <ele>67</ele>
        <time>2025-04-16T07:16:42Z</time>
      </trkpt>
      <trkpt lat="45.26365" lon="0.3909">
        <ele>67</ele>
        <time>2025-04-16T07:16:43Z</time>
      </trkpt>
      <trkpt lat="45.26373" lon="0.39095">
        <ele>67</ele>
        <time>2025-04-16T07:16:45Z</time>
      </trkpt>
      <trkpt lat="45.26384" lon="0.39096">
        <ele>68</ele>
        <time>2025-04-16T07:16:47Z</time>
      </trkpt>
      <trkpt lat="45.26497" lon="0.39077">
        <ele>68</ele>
        <time>2025-04-16T07:17:07Z</time>
      </trkpt>
      <trkpt lat="45.26536" lon="0.39076">
        <ele>70</ele>
        <time>2025-04-16T07:17:14Z</time>
      </trkpt>
      <trkpt lat="45.26637" lon="0.39091">
        <ele>71</ele>
        <time>2025-04-16T07:17:32Z</time>
      </trkpt>
      <trkpt lat="45.26673" lon="0.39101">
        <ele>72</ele>
        <time>2025-04-16T07:17:39Z</time>
      </trkpt>
      <trkpt lat="45.26691" lon="0.39108">
        <ele>72</ele>
        <time>2025-04-16T07:17:42Z</time>
      </trkpt>
      <trkpt lat="45.26715" lon="0.3913">
        <ele>72</ele>
        <time>2025-04-16T07:17:47Z</time>
      </trkpt>
      <trkpt lat="45.26803" lon="0.39249">
        <ele>71</ele>
        <time>2025-04-16T07:18:09Z</time>
      </trkpt>
      <trkpt lat="45.26813" lon="0.39264">
        <ele>71</ele>
        <time>2025-04-16T07:18:11Z</time>
      </trkpt>
      <trkpt lat="45.26839" lon="0.39304">
        <ele>71</ele>
        <time>2025-04-16T07:18:18Z</time>
      </trkpt>
      <trkpt lat="45.27049" lon="0.39595">
        <ele>84</ele>
        <time>2025-04-16T07:19:10Z</time>
      </trkpt>
      <trkpt lat="45.27067" lon="0.39623">
        <ele>85</ele>
        <time>2025-04-16T07:19:15Z</time>
      </trkpt>
      <trkpt lat="45.2712" lon="0.3973">
        <ele>85</ele>
        <time>2025-04-16T07:19:31Z</time>
      </trkpt>
      <trkpt lat="45.27183" lon="0.3986">
        <ele>83</ele>
        <time>2025-04-16T07:19:51Z</time>
      </trkpt>
      <trkpt lat="45.27211" lon="0.39897">
        <ele>84</ele>
        <time>2025-04-16T07:19:58Z</time>
      </trkpt>
      <trkpt lat="45.27242" lon="0.39936">
        <ele>84</ele>
        <time>2025-04-16T07:20:05Z</time>
      </trkpt>
      <trkpt lat="45.27268" lon="0.39962">
        <ele>85</ele>
        <time>2025-04-16T07:20:11Z</time>
      </trkpt>
      <trkpt lat="45.27294" lon="0.39986">
        <ele>86</ele>
        <time>2025-04-16T07:20:17Z</time>
      </trkpt>
      <trkpt lat="45.27382" lon="0.40043">
        <ele>88</ele>
        <time>2025-04-16T07:20:34Z</time>
      </trkpt>
      <trkpt lat="45.27437" lon="0.40061">
        <ele>87</ele>
        <time>2025-04-16T07:20:44Z</time>
      </trkpt>
      <trkpt lat="45.27511" lon="0.40071">
        <ele>88</ele>
        <time>2025-04-16T07:20:57Z</time>
      </trkpt>
      <trkpt lat="45.27536" lon="0.40079">
        <ele>89</ele>
        <time>2025-04-16T07:21:02Z</time>
      </trkpt>
      <trkpt lat="45.27596" lon="0.40107">
        <ele>90</ele>
        <time>2025-04-16T07:21:13Z</time>
      </trkpt>
      <trkpt lat="45.2772" lon="0.40151">
        <ele>88</ele>
        <time>2025-04-16T07:21:36Z</time>
      </trkpt>
      <trkpt lat="45.27789" lon="0.40157">
        <ele>89</ele>
        <time>2025-04-16T07:21:48Z</time>
      </trkpt>
      <trkpt lat="45.28123" lon="0.40288">
        <ele>93</ele>
        <time>2025-04-16T07:22:50Z</time>
      </trkpt>
      <trkpt lat="45.28147" lon="0.40294">
        <ele>93</ele>
        <time>2025-04-16T07:22:54Z</time>
      </trkpt>
      <trkpt lat="45.28359" lon="0.40327">
        <ele>94</ele>
        <time>2025-04-16T07:23:32Z</time>
      </trkpt>
      <trkpt lat="45.28396" lon="0.40327">
        <ele>95</ele>
        <time>2025-04-16T07:23:38Z</time>
      </trkpt>
      <trkpt lat="45.28502" lon="0.40322">
        <ele>99</ele>
        <time>2025-04-16T07:23:57Z</time>
      </trkpt>
      <trkpt lat="45.28624" lon="0.40306">
        <ele>103</ele>
        <time>2025-04-16T07:24:19Z</time>
      </trkpt>
      <trkpt lat="45.28647" lon="0.40308">
        <ele>103</ele>
        <time>2025-04-16T07:24:23Z</time>
      </trkpt>
      <trkpt lat="45.28816" lon="0.40385">
        <ele>98</ele>
        <time>2025-04-16T07:24:55Z</time>
      </trkpt>
      <trkpt lat="45.28836" lon="0.40392">
        <ele>98</ele>
        <time>2025-04-16T07:24:58Z</time>
      </trkpt>
      <trkpt lat="45.28867" lon="0.40397">
        <ele>100</ele>
        <time>2025-04-16T07:25:04Z</time>
      </trkpt>
      <trkpt lat="45.2889" lon="0.40405">
        <ele>101</ele>
        <time>2025-04-16T07:25:08Z</time>
      </trkpt>
      <trkpt lat="45.28904" lon="0.40415">
        <ele>101</ele>
        <time>2025-04-16T07:25:11Z</time>
      </trkpt>
      <trkpt lat="45.28933" lon="0.40442">
        <ele>102</ele>
        <time>2025-04-16T07:25:17Z</time>
      </trkpt>
      <trkpt lat="45.28946" lon="0.40452">
        <ele>102</ele>
        <time>2025-04-16T07:25:20Z</time>
      </trkpt>
      <trkpt lat="45.29194" lon="0.4055">
        <ele>105</ele>
        <time>2025-04-16T07:26:06Z</time>
      </trkpt>
      <trkpt lat="45.29216" lon="0.40554">
        <ele>105</ele>
        <time>2025-04-16T07:26:10Z</time>
      </trkpt>
      <trkpt lat="45.29258" lon="0.40555">
        <ele>107</ele>
        <time>2025-04-16T07:26:17Z</time>
      </trkpt>
      <trkpt lat="45.29273" lon="0.40557">
        <ele>109</ele>
        <time>2025-04-16T07:26:20Z</time>
      </trkpt>
      <trkpt lat="45.29288" lon="0.40564">
        <ele>109</ele>
        <time>2025-04-16T07:26:22Z</time>
      </trkpt>
      <trkpt lat="45.293" lon="0.40573">
        <ele>109</ele>
        <time>2025-04-16T07:26:25Z</time>
      </trkpt>
      <trkpt lat="45.2931" lon="0.40585">
        <ele>109</ele>
        <time>2025-04-16T07:26:27Z</time>
      </trkpt>
      <trkpt lat="45.29388" lon="0.40687">
        <ele>109</ele>
        <time>2025-04-16T07:26:46Z</time>
      </trkpt>
      <trkpt lat="45.294" lon="0.40707">
        <ele>109</ele>
        <time>2025-04-16T07:26:49Z</time>
      </trkpt>
      <trkpt lat="45.2941" lon="0.40727">
        <ele>109</ele>
        <time>2025-04-16T07:26:52Z</time>
      </trkpt>
      <trkpt lat="45.29521" lon="0.4101">
        <ele>107</ele>
        <time>2025-04-16T07:27:33Z</time>
      </trkpt>
      <trkpt lat="45.29536" lon="0.41032">
        <ele>107</ele>
        <time>2025-04-16T07:27:37Z</time>
      </trkpt>
      <trkpt lat="45.29589" lon="0.41097">
        <ele>106</ele>
        <time>2025-04-16T07:27:49Z</time>
      </trkpt>
      <trkpt lat="45.29695" lon="0.4126">
        <ele>106</ele>
        <time>2025-04-16T07:28:17Z</time>
      </trkpt>
      <trkpt lat="45.29702" lon="0.4127">
        <ele>106</ele>
        <time>2025-04-16T07:28:19Z</time>
      </trkpt>
      <trkpt lat="45.29715" lon="0.41276">
        <ele>107</ele>
        <time>2025-04-16T07:28:21Z</time>
      </trkpt>
      <trkpt lat="45.29741" lon="0.41322">
        <ele>105</ele>
        <time>2025-04-16T07:28:29Z</time>
      </trkpt>
      <trkpt lat="45.29762" lon="0.41364">
        <ele>105</ele>
        <time>2025-04-16T07:28:35Z</time>
      </trkpt>
      <trkpt lat="45.29766" lon="0.41367">
        <ele>105</ele>
        <time>2025-04-16T07:28:36Z</time>
      </trkpt>
      <trkpt lat="45.2977" lon="0.41391">
        <ele>105</ele>
        <time>2025-04-16T07:28:39Z</time>
      </trkpt>
      <trkpt lat="45.29787" lon="0.41445">
        <ele>104</ele>
        <time>2025-04-16T07:28:46Z</time>
      </trkpt>
      <trkpt lat="45.29793" lon="0.41457">
        <ele>104</ele>
        <time>2025-04-16T07:28:48Z</time>
      </trkpt>
      <trkpt lat="45.2985" lon="0.41546">
        <ele>102</ele>
        <time>2025-04-16T07:29:03Z</time>
      </trkpt>
      <trkpt lat="45.29874" lon="0.41592">
        <ele>103</ele>
        <time>2025-04-16T07:29:10Z</time>
      </trkpt>
      <trkpt lat="45.30001" lon="0.41862">
        <ele>110</ele>
        <time>2025-04-16T07:29:51Z</time>
      </trkpt>
      <trkpt lat="45.30017" lon="0.41908">
        <ele>113</ele>
        <time>2025-04-16T07:29:58Z</time>
      </trkpt>
      <trkpt lat="45.30023" lon="0.41938">
        <ele>116</ele>
        <time>2025-04-16T07:30:01Z</time>
      </trkpt>
      <trkpt lat="45.30022" lon="0.41968">
        <ele>118</ele>
        <time>2025-04-16T07:30:05Z</time>
      </trkpt>
      <trkpt lat="45.30018" lon="0.41985">
        <ele>120</ele>
        <time>2025-04-16T07:30:07Z</time>
      </trkpt>
      <trkpt lat="45.30003" lon="0.42019">
        <ele>121</ele>
        <time>2025-04-16T07:30:12Z</time>
      </trkpt>
      <trkpt lat="45.29991" lon="0.42035">
        <ele>121</ele>
        <time>2025-04-16T07:30:15Z</time>
      </trkpt>
      <trkpt lat="45.29975" lon="0.42048">
        <ele>122</ele>
        <time>2025-04-16T07:30:19Z</time>
      </trkpt>
      <trkpt lat="45.29786" lon="0.42173">
        <ele>146</ele>
        <time>2025-04-16T07:30:56Z</time>
      </trkpt>
      <trkpt lat="45.29728" lon="0.42205">
        <ele>150</ele>
        <time>2025-04-16T07:31:07Z</time>
      </trkpt>
      <trkpt lat="45.2963" lon="0.42243">
        <ele>155</ele>
        <time>2025-04-16T07:31:25Z</time>
      </trkpt>
      <trkpt lat="45.29599" lon="0.42259">
        <ele>158</ele>
        <time>2025-04-16T07:31:31Z</time>
      </trkpt>
      <trkpt lat="45.29567" lon="0.4228">
        <ele>159</ele>
        <time>2025-04-16T07:31:37Z</time>
      </trkpt>
      <trkpt lat="45.29542" lon="0.4231">
        <ele>161</ele>
        <time>2025-04-16T07:31:43Z</time>
      </trkpt>
      <trkpt lat="45.29522" lon="0.42345">
        <ele>165</ele>
        <time>2025-04-16T07:31:49Z</time>
      </trkpt>
      <trkpt lat="45.29508" lon="0.42383">
        <ele>169</ele>
        <time>2025-04-16T07:31:54Z</time>
      </trkpt>
      <trkpt lat="45.29495" lon="0.4243">
        <ele>173</ele>
        <time>2025-04-16T07:32:00Z</time>
      </trkpt>
      <trkpt lat="45.29488" lon="0.42492">
        <ele>178</ele>
        <time>2025-04-16T07:32:08Z</time>
      </trkpt>
      <trkpt lat="45.29483" lon="0.42626">
        <ele>178</ele>
        <time>2025-04-16T07:32:25Z</time>
      </trkpt>
      <trkpt lat="45.29469" lon="0.4271">
        <ele>177</ele>
        <time>2025-04-16T07:32:36Z</time>
      </trkpt>
      <trkpt lat="45.29465" lon="0.42763">
        <ele>175</ele>
        <time>2025-04-16T07:32:42Z</time>
      </trkpt>
      <trkpt lat="45.29469" lon="0.42822">
        <ele>174</ele>
        <time>2025-04-16T07:32:50Z</time>
      </trkpt>
      <trkpt lat="45.29478" lon="0.42868">
        <ele>175</ele>
        <time>2025-04-16T07:32:56Z</time>
      </trkpt>
      <trkpt lat="45.29489" lon="0.42901">
        <ele>176</ele>
        <time>2025-04-16T07:33:00Z</time>
      </trkpt>
      <trkpt lat="45.29515" lon="0.42957">
        <ele>177</ele>
        <time>2025-04-16T07:33:09Z</time>
      </trkpt>
      <trkpt lat="45.29576" lon="0.43079">
        <ele>179</ele>
        <time>2025-04-16T07:33:27Z</time>
      </trkpt>
      <trkpt lat="45.29582" lon="0.43094">
        <ele>179</ele>
        <time>2025-04-16T07:33:30Z</time>
      </trkpt>
      <trkpt lat="45.29591" lon="0.43117">
        <ele>180</ele>
        <time>2025-04-16T07:33:33Z</time>
      </trkpt>
      <trkpt lat="45.29614" lon="0.4316">
        <ele>182</ele>
        <time>2025-04-16T07:33:40Z</time>
      </trkpt>
      <trkpt lat="45.29648" lon="0.43203">
        <ele>183</ele>
        <time>2025-04-16T07:33:48Z</time>
      </trkpt>
      <trkpt lat="45.29698" lon="0.43256">
        <ele>184</ele>
        <time>2025-04-16T07:33:59Z</time>
      </trkpt>
      <trkpt lat="45.29729" lon="0.43285">
        <ele>183</ele>
        <time>2025-04-16T07:34:05Z</time>
      </trkpt>
      <trkpt lat="45.29746" lon="0.4331">
        <ele>183</ele>
        <time>2025-04-16T07:34:10Z</time>
      </trkpt>
      <trkpt lat="45.29757" lon="0.43345">
        <ele>181</ele>
        <time>2025-04-16T07:34:15Z</time>
      </trkpt>
      <trkpt lat="45.29765" lon="0.43423">
        <ele>177</ele>
        <time>2025-04-16T07:34:24Z</time>
      </trkpt>
      <trkpt lat="45.29769" lon="0.43504">
        <ele>176</ele>
        <time>2025-04-16T07:34:35Z</time>
      </trkpt>
      <trkpt lat="45.29763" lon="0.4356">
        <ele>178</ele>
        <time>2025-04-16T07:34:42Z</time>
      </trkpt>
      <trkpt lat="45.29753" lon="0.43625">
        <ele>180</ele>
        <time>2025-04-16T07:34:50Z</time>
      </trkpt>
      <trkpt lat="45.29743" lon="0.4366">
        <ele>180</ele>
        <time>2025-04-16T07:34:55Z</time>
      </trkpt>
      <trkpt lat="45.2972" lon="0.43705">
        <ele>181</ele>
        <time>2025-04-16T07:35:02Z</time>
      </trkpt>
      <trkpt lat="45.2969" lon="0.43751">
        <ele>183</ele>
        <time>2025-04-16T07:35:10Z</time>
      </trkpt>
      <trkpt lat="45.29544" lon="0.43925">
        <ele>182</ele>
        <time>2025-04-16T07:35:43Z</time>
      </trkpt>
      <trkpt lat="45.29514" lon="0.43965">
        <ele>179</ele>
        <time>2025-04-16T07:35:51Z</time>
      </trkpt>
      <trkpt lat="45.29496" lon="0.43995">
        <ele>178</ele>
        <time>2025-04-16T07:35:56Z</time>
      </trkpt>
      <trkpt lat="45.29468" lon="0.44064">
        <ele>174</ele>
        <time>2025-04-16T07:36:06Z</time>
      </trkpt>
      <trkpt lat="45.29452" lon="0.44091">
        <ele>173</ele>
        <time>2025-04-16T07:36:10Z</time>
      </trkpt>
      <trkpt lat="45.29431" lon="0.4411">
        <ele>173</ele>
        <time>2025-04-16T07:36:15Z</time>
      </trkpt>
      <trkpt lat="45.29365" lon="0.44138">
        <ele>169</ele>
        <time>2025-04-16T07:36:27Z</time>
      </trkpt>
      <trkpt lat="45.29342" lon="0.44155">
        <ele>166</ele>
        <time>2025-04-16T07:36:31Z</time>
      </trkpt>
      <trkpt lat="45.29328" lon="0.44171">
        <ele>165</ele>
        <time>2025-04-16T07:36:35Z</time>
      </trkpt>
      <trkpt lat="45.2932" lon="0.44184">
        <ele>163</ele>
        <time>2025-04-16T07:36:37Z</time>
      </trkpt>
      <trkpt lat="45.29308" lon="0.44218">
        <ele>161</ele>
        <time>2025-04-16T07:36:42Z</time>
      </trkpt>
      <trkpt lat="45.29299" lon="0.44257">
        <ele>160</ele>
        <time>2025-04-16T07:36:47Z</time>
      </trkpt>
      <trkpt lat="45.29303" lon="0.44296">
        <ele>158</ele>
        <time>2025-04-16T07:36:52Z</time>
      </trkpt>
      <trkpt lat="45.29329" lon="0.44407">
        <ele>152</ele>
        <time>2025-04-16T07:37:06Z</time>
      </trkpt>
      <trkpt lat="45.29351" lon="0.44496">
        <ele>145</ele>
        <time>2025-04-16T07:37:18Z</time>
      </trkpt>
      <trkpt lat="45.29359" lon="0.44556">
        <ele>143</ele>
        <time>2025-04-16T07:37:26Z</time>
      </trkpt>
      <trkpt lat="45.29365" lon="0.44626">
        <ele>139</ele>
        <time>2025-04-16T07:37:35Z</time>
      </trkpt>
      <trkpt lat="45.29373" lon="0.44976">
        <ele>115</ele>
        <time>2025-04-16T07:38:18Z</time>
      </trkpt>
      <trkpt lat="45.29372" lon="0.45001">
        <ele>113</ele>
        <time>2025-04-16T07:38:21Z</time>
      </trkpt>
      <trkpt lat="45.2937" lon="0.45022">
        <ele>112</ele>
        <time>2025-04-16T07:38:24Z</time>
      </trkpt>
      <trkpt lat="45.29363" lon="0.45048">
        <ele>111</ele>
        <time>2025-04-16T07:38:28Z</time>
      </trkpt>
      <trkpt lat="45.29273" lon="0.45326">
        <ele>103</ele>
        <time>2025-04-16T07:39:06Z</time>
      </trkpt>
      <trkpt lat="45.29239" lon="0.45436">
        <ele>102</ele>
        <time>2025-04-16T07:39:21Z</time>
      </trkpt>
      <trkpt lat="45.29237" lon="0.45443">
        <ele>102</ele>
        <time>2025-04-16T07:39:22Z</time>
      </trkpt>
      <trkpt lat="45.29224" lon="0.45481">
        <ele>104</ele>
        <time>2025-04-16T07:39:27Z</time>
      </trkpt>
      <trkpt lat="45.29213" lon="0.45526">
        <ele>106</ele>
        <time>2025-04-16T07:39:33Z</time>
      </trkpt>
      <trkpt lat="45.29207" lon="0.45562">
        <ele>108</ele>
        <time>2025-04-16T07:39:38Z</time>
      </trkpt>
      <trkpt lat="45.292" lon="0.45629">
        <ele>110</ele>
        <time>2025-04-16T07:39:46Z</time>
      </trkpt>
      <trkpt lat="45.29179" lon="0.45758">
        <ele>110</ele>
        <time>2025-04-16T07:40:03Z</time>
      </trkpt>
      <trkpt lat="45.29178" lon="0.45795">
        <ele>112</ele>
        <time>2025-04-16T07:40:07Z</time>
      </trkpt>
      <trkpt lat="45.29186" lon="0.45922">
        <ele>118</ele>
        <time>2025-04-16T07:40:23Z</time>
      </trkpt>
      <trkpt lat="45.2919" lon="0.46003">
        <ele>121</ele>
        <time>2025-04-16T07:40:34Z</time>
      </trkpt>
      <trkpt lat="45.29192" lon="0.46012">
        <ele>122</ele>
        <time>2025-04-16T07:40:35Z</time>
      </trkpt>
      <trkpt lat="45.29195" lon="0.46016">
        <ele>123</ele>
        <time>2025-04-16T07:40:36Z</time>
      </trkpt>
      <trkpt lat="45.29194" lon="0.46038">
        <ele>122</ele>
        <time>2025-04-16T07:40:38Z</time>
      </trkpt>
      <trkpt lat="45.29196" lon="0.46076">
        <ele>123</ele>
        <time>2025-04-16T07:40:43Z</time>
      </trkpt>
      <trkpt lat="45.29204" lon="0.4614">
        <ele>124</ele>
        <time>2025-04-16T07:40:51Z</time>
      </trkpt>
      <trkpt lat="45.29206" lon="0.46175">
        <ele>124</ele>
        <time>2025-04-16T07:40:56Z</time>
      </trkpt>
      <trkpt lat="45.29203" lon="0.46279">
        <ele>125</ele>
        <time>2025-04-16T07:41:09Z</time>
      </trkpt>
      <trkpt lat="45.29205" lon="0.46314">
        <ele>125</ele>
        <time>2025-04-16T07:41:13Z</time>
      </trkpt>
      <trkpt lat="45.29222" lon="0.46403">
        <ele>128</ele>
        <time>2025-04-16T07:41:25Z</time>
      </trkpt>
      <trkpt lat="45.29229" lon="0.46464">
        <ele>128</ele>
        <time>2025-04-16T07:41:32Z</time>
      </trkpt>
      <trkpt lat="45.29233" lon="0.46546">
        <ele>125</ele>
        <time>2025-04-16T07:41:43Z</time>
      </trkpt>
      <trkpt lat="45.29231" lon="0.46568">
        <ele>124</ele>
        <time>2025-04-16T07:41:45Z</time>
      </trkpt>
      <trkpt lat="45.29226" lon="0.46591">
        <ele>123</ele>
        <time>2025-04-16T07:41:48Z</time>
      </trkpt>
      <trkpt lat="45.29214" lon="0.46621">
        <ele>124</ele>
        <time>2025-04-16T07:41:53Z</time>
      </trkpt>
      <trkpt lat="45.292" lon="0.46648">
        <ele>124</ele>
        <time>2025-04-16T07:41:57Z</time>
      </trkpt>
      <trkpt lat="45.29193" lon="0.46676">
        <ele>125</ele>
        <time>2025-04-16T07:42:01Z</time>
      </trkpt>
      <trkpt lat="45.29194" lon="0.46709">
        <ele>127</ele>
        <time>2025-04-16T07:42:05Z</time>
      </trkpt>
      <trkpt lat="45.29208" lon="0.46843">
        <ele>131</ele>
        <time>2025-04-16T07:42:22Z</time>
      </trkpt>
      <trkpt lat="45.29224" lon="0.46895">
        <ele>131</ele>
        <time>2025-04-16T07:42:29Z</time>
      </trkpt>
      <trkpt lat="45.29388" lon="0.47317">
        <ele>136</ele>
        <time>2025-04-16T07:43:29Z</time>
      </trkpt>
      <trkpt lat="45.29394" lon="0.47348">
        <ele>135</ele>
        <time>2025-04-16T07:43:33Z</time>
      </trkpt>
      <trkpt lat="45.29397" lon="0.47379">
        <ele>134</ele>
        <time>2025-04-16T07:43:37Z</time>
      </trkpt>
      <trkpt lat="45.29392" lon="0.47423">
        <ele>133</ele>
        <time>2025-04-16T07:43:43Z</time>
      </trkpt>
      <trkpt lat="45.29382" lon="0.47473">
        <ele>134</ele>
        <time>2025-04-16T07:43:49Z</time>
      </trkpt>
      <trkpt lat="45.29368" lon="0.47505">
        <ele>135</ele>
        <time>2025-04-16T07:43:54Z</time>
      </trkpt>
      <trkpt lat="45.29349" lon="0.47535">
        <ele>136</ele>
        <time>2025-04-16T07:43:59Z</time>
      </trkpt>
      <trkpt lat="45.29326" lon="0.47561">
        <ele>137</ele>
        <time>2025-04-16T07:44:04Z</time>
      </trkpt>
      <trkpt lat="45.29301" lon="0.47583">
        <ele>140</ele>
        <time>2025-04-16T07:44:09Z</time>
      </trkpt>
      <trkpt lat="45.29287" lon="0.47617">
        <ele>144</ele>
        <time>2025-04-16T07:44:14Z</time>
      </trkpt>
      <trkpt lat="45.29285" lon="0.47634">
        <ele>145</ele>
        <time>2025-04-16T07:44:16Z</time>
      </trkpt>
      <trkpt lat="45.29287" lon="0.47651">
        <ele>146</ele>
        <time>2025-04-16T07:44:19Z</time>
      </trkpt>
      <trkpt lat="45.29291" lon="0.4766">
        <ele>146</ele>
        <time>2025-04-16T07:44:20Z</time>
      </trkpt>
      <trkpt lat="45.29301" lon="0.4767">
        <ele>146</ele>
        <time>2025-04-16T07:44:22Z</time>
      </trkpt>
      <trkpt lat="45.29347" lon="0.47685">
        <ele>145</ele>
        <time>2025-04-16T07:44:31Z</time>
      </trkpt>
      <trkpt lat="45.29368" lon="0.47695">
        <ele>146</ele>
        <time>2025-04-16T07:44:34Z</time>
      </trkpt>
      <trkpt lat="45.29377" lon="0.47702">
        <ele>146</ele>
        <time>2025-04-16T07:44:36Z</time>
      </trkpt>
      <trkpt lat="45.29385" lon="0.47715">
        <ele>147</ele>
        <time>2025-04-16T07:44:38Z</time>
      </trkpt>
      <trkpt lat="45.29389" lon="0.47734">
        <ele>149</ele>
        <time>2025-04-16T07:44:41Z</time>
      </trkpt>
      <trkpt lat="45.29393" lon="0.47801">
        <ele>153</ele>
        <time>2025-04-16T07:44:49Z</time>
      </trkpt>
      <trkpt lat="45.29404" lon="0.47875">
        <ele>153</ele>
        <time>2025-04-16T07:44:59Z</time>
      </trkpt>
      <trkpt lat="45.29403" lon="0.47901">
        <ele>153</ele>
        <time>2025-04-16T07:45:02Z</time>
      </trkpt>
      <trkpt lat="45.2939" lon="0.47935">
        <ele>153</ele>
        <time>2025-04-16T07:45:07Z</time>
      </trkpt>
      <trkpt lat="45.29356" lon="0.47995">
        <ele>155</ele>
        <time>2025-04-16T07:45:17Z</time>
      </trkpt>
      <trkpt lat="45.2934" lon="0.48021">
        <ele>155</ele>
        <time>2025-04-16T07:45:21Z</time>
      </trkpt>
      <trkpt lat="45.29319" lon="0.48035">
        <ele>157</ele>
        <time>2025-04-16T07:45:25Z</time>
      </trkpt>
      <trkpt lat="45.29174" lon="0.48101">
        <ele>166</ele>
        <time>2025-04-16T07:45:52Z</time>
      </trkpt>
      <trkpt lat="45.29152" lon="0.48114">
        <ele>168</ele>
        <time>2025-04-16T07:45:56Z</time>
      </trkpt>
      <trkpt lat="45.29138" lon="0.48132">
        <ele>169</ele>
        <time>2025-04-16T07:46:00Z</time>
      </trkpt>
      <trkpt lat="45.29128" lon="0.48157">
        <ele>170</ele>
        <time>2025-04-16T07:46:03Z</time>
      </trkpt>
      <trkpt lat="45.29125" lon="0.48178">
        <ele>171</ele>
        <time>2025-04-16T07:46:06Z</time>
      </trkpt>
      <trkpt lat="45.29125" lon="0.48199">
        <ele>172</ele>
        <time>2025-04-16T07:46:09Z</time>
      </trkpt>
      <trkpt lat="45.29131" lon="0.48221">
        <ele>173</ele>
        <time>2025-04-16T07:46:12Z</time>
      </trkpt>
      <trkpt lat="45.29139" lon="0.4824">
        <ele>173</ele>
        <time>2025-04-16T07:46:14Z</time>
      </trkpt>
      <trkpt lat="45.29151" lon="0.48251">
        <ele>173</ele>
        <time>2025-04-16T07:46:17Z</time>
      </trkpt>
      <trkpt lat="45.29167" lon="0.48259">
        <ele>173</ele>
        <time>2025-04-16T07:46:20Z</time>
      </trkpt>
      <trkpt lat="45.29202" lon="0.48266">
        <ele>172</ele>
        <time>2025-04-16T07:46:26Z</time>
      </trkpt>
      <trkpt lat="45.29215" lon="0.48273">
        <ele>172</ele>
        <time>2025-04-16T07:46:29Z</time>
      </trkpt>
      <trkpt lat="45.29223" lon="0.48281">
        <ele>172</ele>
        <time>2025-04-16T07:46:30Z</time>
      </trkpt>
      <trkpt lat="45.29229" lon="0.48291">
        <ele>172</ele>
        <time>2025-04-16T07:46:32Z</time>
      </trkpt>
      <trkpt lat="45.29234" lon="0.48316">
        <ele>174</ele>
        <time>2025-04-16T07:46:35Z</time>
      </trkpt>
      <trkpt lat="45.29234" lon="0.48334">
        <ele>175</ele>
        <time>2025-04-16T07:46:38Z</time>
      </trkpt>
      <trkpt lat="45.29217" lon="0.48446">
        <ele>179</ele>
        <time>2025-04-16T07:46:52Z</time>
      </trkpt>
      <trkpt lat="45.29217" lon="0.48477">
        <ele>180</ele>
        <time>2025-04-16T07:46:56Z</time>
      </trkpt>
      <trkpt lat="45.29221" lon="0.48497">
        <ele>181</ele>
        <time>2025-04-16T07:46:58Z</time>
      </trkpt>
      <trkpt lat="45.29228" lon="0.48519">
        <ele>182</ele>
        <time>2025-04-16T07:47:01Z</time>
      </trkpt>
      <trkpt lat="45.29244" lon="0.48542">
        <ele>182</ele>
        <time>2025-04-16T07:47:05Z</time>
      </trkpt>
      <trkpt lat="45.29256" lon="0.48552">
        <ele>183</ele>
        <time>2025-04-16T07:47:08Z</time>
      </trkpt>
      <trkpt lat="45.29311" lon="0.48581">
        <ele>187</ele>
        <time>2025-04-16T07:47:18Z</time>
      </trkpt>
      <trkpt lat="45.29343" lon="0.48592">
        <ele>188</ele>
        <time>2025-04-16T07:47:24Z</time>
      </trkpt>
      <trkpt lat="45.29447" lon="0.48641">
        <ele>191</ele>
        <time>2025-04-16T07:47:44Z</time>
      </trkpt>
      <trkpt lat="45.29459" lon="0.48651">
        <ele>192</ele>
        <time>2025-04-16T07:47:46Z</time>
      </trkpt>
      <trkpt lat="45.29476" lon="0.48673">
        <ele>193</ele>
        <time>2025-04-16T07:47:50Z</time>
      </trkpt>
      <trkpt lat="45.29513" lon="0.48764">
        <ele>193</ele>
        <time>2025-04-16T07:48:03Z</time>
      </trkpt>
      <trkpt lat="45.29519" lon="0.48791">
        <ele>193</ele>
        <time>2025-04-16T07:48:07Z</time>
      </trkpt>
      <trkpt lat="45.29525" lon="0.48824">
        <ele>192</ele>
        <time>2025-04-16T07:48:11Z</time>
      </trkpt>
      <trkpt lat="45.29534" lon="0.48853">
        <ele>192</ele>
        <time>2025-04-16T07:48:15Z</time>
      </trkpt>
      <trkpt lat="45.29545" lon="0.48879">
        <ele>192</ele>
        <time>2025-04-16T07:48:19Z</time>
      </trkpt>
      <trkpt lat="45.29577" lon="0.48928">
        <ele>196</ele>
        <time>2025-04-16T07:48:27Z</time>
      </trkpt>
      <trkpt lat="45.29596" lon="0.48974">
        <ele>197</ele>
        <time>2025-04-16T07:48:34Z</time>
      </trkpt>
      <trkpt lat="45.29602" lon="0.48999">
        <ele>196</ele>
        <time>2025-04-16T07:48:37Z</time>
      </trkpt>
      <trkpt lat="45.29606" lon="0.49026">
        <ele>195</ele>
        <time>2025-04-16T07:48:41Z</time>
      </trkpt>
      <trkpt lat="45.29607" lon="0.49053">
        <ele>193</ele>
        <time>2025-04-16T07:48:44Z</time>
      </trkpt>
      <trkpt lat="45.296" lon="0.49112">
        <ele>191</ele>
        <time>2025-04-16T07:48:52Z</time>
      </trkpt>
      <trkpt lat="45.29601" lon="0.49118">
        <ele>191</ele>
        <time>2025-04-16T07:48:52Z</time>
      </trkpt>
      <trkpt lat="45.2969" lon="0.49024">
        <ele>196</ele>
        <time>2025-04-16T07:49:12Z</time>
      </trkpt>
      <trkpt lat="45.29719" lon="0.49003">
        <ele>194</ele>
        <time>2025-04-16T07:49:18Z</time>
      </trkpt>
      <trkpt lat="45.29749" lon="0.48986">
        <ele>191</ele>
        <time>2025-04-16T07:49:24Z</time>
      </trkpt>
      <trkpt lat="45.29791" lon="0.48971">
        <ele>189</ele>
        <time>2025-04-16T07:49:31Z</time>
      </trkpt>
      <trkpt lat="45.299" lon="0.48941">
        <ele>183</ele>
        <time>2025-04-16T07:49:51Z</time>
      </trkpt>
      <trkpt lat="45.3029" lon="0.4888">
        <ele>184</ele>
        <time>2025-04-16T07:51:01Z</time>
      </trkpt>
      <trkpt lat="45.30338" lon="0.48876">
        <ele>187</ele>
        <time>2025-04-16T07:51:10Z</time>
      </trkpt>
      <trkpt lat="45.30372" lon="0.48884">
        <ele>186</ele>
        <time>2025-04-16T07:51:16Z</time>
      </trkpt>
      <trkpt lat="45.30703" lon="0.49015">
        <ele>193</ele>
        <time>2025-04-16T07:52:17Z</time>
      </trkpt>
      <trkpt lat="45.30831" lon="0.49062">
        <ele>200</ele>
        <time>2025-04-16T07:52:40Z</time>
      </trkpt>
      <trkpt lat="45.30876" lon="0.49075">
        <ele>201</ele>
        <time>2025-04-16T07:52:49Z</time>
      </trkpt>
      <trkpt lat="45.30905" lon="0.49073">
        <ele>201</ele>
        <time>2025-04-16T07:52:54Z</time>
      </trkpt>
      <trkpt lat="45.3111" lon="0.4898">
        <ele>196</ele>
        <time>2025-04-16T07:53:32Z</time>
      </trkpt>
      <trkpt lat="45.31146" lon="0.48969">
        <ele>193</ele>
        <time>2025-04-16T07:53:39Z</time>
      </trkpt>
      <trkpt lat="45.31177" lon="0.48967">
        <ele>191</ele>
        <time>2025-04-16T07:53:44Z</time>
      </trkpt>
      <trkpt lat="45.31209" lon="0.48981">
        <ele>189</ele>
        <time>2025-04-16T07:53:50Z</time>
      </trkpt>
      <trkpt lat="45.31287" lon="0.49025">
        <ele>182</ele>
        <time>2025-04-16T07:54:05Z</time>
      </trkpt>
      <trkpt lat="45.31306" lon="0.49038">
        <ele>181</ele>
        <time>2025-04-16T07:54:09Z</time>
      </trkpt>
      <trkpt lat="45.3132" lon="0.49052">
        <ele>180</ele>
        <time>2025-04-16T07:54:12Z</time>
      </trkpt>
      <trkpt lat="45.3135" lon="0.49097">
        <ele>176</ele>
        <time>2025-04-16T07:54:20Z</time>
      </trkpt>
      <trkpt lat="45.31373" lon="0.49124">
        <ele>173</ele>
        <time>2025-04-16T07:54:25Z</time>
      </trkpt>
      <trkpt lat="45.31389" lon="0.49141">
        <ele>173</ele>
        <time>2025-04-16T07:54:28Z</time>
      </trkpt>
      <trkpt lat="45.31406" lon="0.49152">
        <ele>173</ele>
        <time>2025-04-16T07:54:32Z</time>
      </trkpt>
      <trkpt lat="45.31419" lon="0.49156">
        <ele>173</ele>
        <time>2025-04-16T07:54:34Z</time>
      </trkpt>
      <trkpt lat="45.3143" lon="0.49157">
        <ele>172</ele>
        <time>2025-04-16T07:54:36Z</time>
      </trkpt>
      <trkpt lat="45.31444" lon="0.49154">
        <ele>171</ele>
        <time>2025-04-16T07:54:39Z</time>
      </trkpt>
      <trkpt lat="45.31544" lon="0.49107">
        <ele>167</ele>
        <time>2025-04-16T07:54:57Z</time>
      </trkpt>
      <trkpt lat="45.31565" lon="0.49104">
        <ele>166</ele>
        <time>2025-04-16T07:55:01Z</time>
      </trkpt>
      <trkpt lat="45.31593" lon="0.49107">
        <ele>166</ele>
        <time>2025-04-16T07:55:06Z</time>
      </trkpt>
      <trkpt lat="45.31618" lon="0.49116">
        <ele>168</ele>
        <time>2025-04-16T07:55:11Z</time>
      </trkpt>
      <trkpt lat="45.31726" lon="0.49161">
        <ele>171</ele>
        <time>2025-04-16T07:55:31Z</time>
      </trkpt>
      <trkpt lat="45.31914" lon="0.49248">
        <ele>169</ele>
        <time>2025-04-16T07:56:06Z</time>
      </trkpt>
      <trkpt lat="45.31937" lon="0.49253">
        <ele>169</ele>
        <time>2025-04-16T07:56:10Z</time>
      </trkpt>
      <trkpt lat="45.31959" lon="0.49254">
        <ele>168</ele>
        <time>2025-04-16T07:56:14Z</time>
      </trkpt>
      <trkpt lat="45.32076" lon="0.49225">
        <ele>169</ele>
        <time>2025-04-16T07:56:35Z</time>
      </trkpt>
      <trkpt lat="45.32109" lon="0.4922">
        <ele>169</ele>
        <time>2025-04-16T07:56:41Z</time>
      </trkpt>
      <trkpt lat="45.32147" lon="0.49217">
        <ele>168</ele>
        <time>2025-04-16T07:56:48Z</time>
      </trkpt>
      <trkpt lat="45.32165" lon="0.49218">
        <ele>167</ele>
        <time>2025-04-16T07:56:51Z</time>
      </trkpt>
      <trkpt lat="45.32189" lon="0.4923">
        <ele>166</ele>
        <time>2025-04-16T07:56:55Z</time>
      </trkpt>
      <trkpt lat="45.32225" lon="0.49257">
        <ele>164</ele>
        <time>2025-04-16T07:57:03Z</time>
      </trkpt>
      <trkpt lat="45.323" lon="0.49297">
        <ele>161</ele>
        <time>2025-04-16T07:57:17Z</time>
      </trkpt>
      <trkpt lat="45.32358" lon="0.49334">
        <ele>158</ele>
        <time>2025-04-16T07:57:28Z</time>
      </trkpt>
      <trkpt lat="45.32422" lon="0.49403">
        <ele>149</ele>
        <time>2025-04-16T07:57:43Z</time>
      </trkpt>
      <trkpt lat="45.32449" lon="0.49432">
        <ele>147</ele>
        <time>2025-04-16T07:57:49Z</time>
      </trkpt>
      <trkpt lat="45.32459" lon="0.49439">
        <ele>147</ele>
        <time>2025-04-16T07:57:51Z</time>
      </trkpt>
      <trkpt lat="45.32506" lon="0.49466">
        <ele>143</ele>
        <time>2025-04-16T07:58:00Z</time>
      </trkpt>
      <trkpt lat="45.3252" lon="0.4948">
        <ele>143</ele>
        <time>2025-04-16T07:58:03Z</time>
      </trkpt>
      <trkpt lat="45.32585" lon="0.49562">
        <ele>142</ele>
        <time>2025-04-16T07:58:18Z</time>
      </trkpt>
      <trkpt lat="45.32598" lon="0.49574">
        <ele>141</ele>
        <time>2025-04-16T07:58:21Z</time>
      </trkpt>
      <trkpt lat="45.32642" lon="0.49604">
        <ele>140</ele>
        <time>2025-04-16T07:58:29Z</time>
      </trkpt>
      <trkpt lat="45.32652" lon="0.49615">
        <ele>139</ele>
        <time>2025-04-16T07:58:32Z</time>
      </trkpt>
      <trkpt lat="45.32734" lon="0.49732">
        <ele>139</ele>
        <time>2025-04-16T07:58:52Z</time>
      </trkpt>
      <trkpt lat="45.3275" lon="0.49747">
        <ele>139</ele>
        <time>2025-04-16T07:58:56Z</time>
      </trkpt>
      <trkpt lat="45.32789" lon="0.49758">
        <ele>139</ele>
        <time>2025-04-16T07:59:03Z</time>
      </trkpt>
      <trkpt lat="45.32821" lon="0.49758">
        <ele>138</ele>
        <time>2025-04-16T07:59:09Z</time>
      </trkpt>
      <trkpt lat="45.32853" lon="0.4975">
        <ele>138</ele>
        <time>2025-04-16T07:59:14Z</time>
      </trkpt>
      <trkpt lat="45.32879" lon="0.49737">
        <ele>136</ele>
        <time>2025-04-16T07:59:19Z</time>
      </trkpt>
      <trkpt lat="45.32945" lon="0.49694">
        <ele>128</ele>
        <time>2025-04-16T07:59:32Z</time>
      </trkpt>
      <trkpt lat="45.32981" lon="0.49678">
        <ele>123</ele>
        <time>2025-04-16T07:59:39Z</time>
      </trkpt>
      <trkpt lat="45.32999" lon="0.4968">
        <ele>122</ele>
        <time>2025-04-16T07:59:42Z</time>
      </trkpt>
      <trkpt lat="45.33016" lon="0.49687">
        <ele>121</ele>
        <time>2025-04-16T07:59:45Z</time>
      </trkpt>
      <trkpt lat="45.33035" lon="0.49704">
        <ele>119</ele>
        <time>2025-04-16T07:59:49Z</time>
      </trkpt>
      <trkpt lat="45.33065" lon="0.49741">
        <ele>116</ele>
        <time>2025-04-16T07:59:56Z</time>
      </trkpt>
      <trkpt lat="45.3311" lon="0.49805">
        <ele>113</ele>
        <time>2025-04-16T08:00:08Z</time>
      </trkpt>
      <trkpt lat="45.33127" lon="0.49823">
        <ele>111</ele>
        <time>2025-04-16T08:00:11Z</time>
      </trkpt>
      <trkpt lat="45.33142" lon="0.49835">
        <ele>110</ele>
        <time>2025-04-16T08:00:14Z</time>
      </trkpt>
      <trkpt lat="45.33207" lon="0.49879">
        <ele>109</ele>
        <time>2025-04-16T08:00:27Z</time>
      </trkpt>
      <trkpt lat="45.33225" lon="0.49894">
        <ele>109</ele>
        <time>2025-04-16T08:00:31Z</time>
      </trkpt>
      <trkpt lat="45.33232" lon="0.49903">
        <ele>109</ele>
        <time>2025-04-16T08:00:33Z</time>
      </trkpt>
      <trkpt lat="45.33334" lon="0.50128">
        <ele>103</ele>
        <time>2025-04-16T08:01:06Z</time>
      </trkpt>
      <trkpt lat="45.3334" lon="0.50143">
        <ele>103</ele>
        <time>2025-04-16T08:01:08Z</time>
      </trkpt>
      <trkpt lat="45.33417" lon="0.50311">
        <ele>100</ele>
        <time>2025-04-16T08:01:33Z</time>
      </trkpt>
      <trkpt lat="45.33428" lon="0.50329">
        <ele>100</ele>
        <time>2025-04-16T08:01:36Z</time>
      </trkpt>
      <trkpt lat="45.33432" lon="0.50305">
        <ele>101</ele>
        <time>2025-04-16T08:01:39Z</time>
      </trkpt>
      <trkpt lat="45.33436" lon="0.50248">
        <ele>103</ele>
        <time>2025-04-16T08:01:47Z</time>
      </trkpt>
      <trkpt lat="45.33436" lon="0.50201">
        <ele>104</ele>
        <time>2025-04-16T08:01:52Z</time>
      </trkpt>
      <trkpt lat="45.3344" lon="0.50148">
        <ele>105</ele>
        <time>2025-04-16T08:01:59Z</time>
      </trkpt>
      <trkpt lat="45.33453" lon="0.501">
        <ele>106</ele>
        <time>2025-04-16T08:02:06Z</time>
      </trkpt>
      <trkpt lat="45.33474" lon="0.50037">
        <ele>107</ele>
        <time>2025-04-16T08:02:14Z</time>
      </trkpt>
      <trkpt lat="45.33497" lon="0.49991">
        <ele>107</ele>
        <time>2025-04-16T08:02:21Z</time>
      </trkpt>
      <trkpt lat="45.33628" lon="0.49804">
        <ele>109</ele>
        <time>2025-04-16T08:02:54Z</time>
      </trkpt>
      <trkpt lat="45.33713" lon="0.49703">
        <ele>112</ele>
        <time>2025-04-16T08:03:14Z</time>
      </trkpt>
      <trkpt lat="45.33742" lon="0.49658">
        <ele>112</ele>
        <time>2025-04-16T08:03:22Z</time>
      </trkpt>
      <trkpt lat="45.33768" lon="0.496">
        <ele>112</ele>
        <time>2025-04-16T08:03:30Z</time>
      </trkpt>
      <trkpt lat="45.33852" lon="0.49349">
        <ele>114</ele>
        <time>2025-04-16T08:04:05Z</time>
      </trkpt>
      <trkpt lat="45.33912" lon="0.49113">
        <ele>112</ele>
        <time>2025-04-16T08:04:37Z</time>
      </trkpt>
      <trkpt lat="45.33937" lon="0.49006">
        <ele>116</ele>
        <time>2025-04-16T08:04:51Z</time>
      </trkpt>
      <trkpt lat="45.33951" lon="0.48954">
        <ele>117</ele>
        <time>2025-04-16T08:04:58Z</time>
      </trkpt>
      <trkpt lat="45.33989" lon="0.48849">
        <ele>116</ele>
        <time>2025-04-16T08:05:12Z</time>
      </trkpt>
      <trkpt lat="45.34003" lon="0.48787">
        <ele>116</ele>
        <time>2025-04-16T08:05:20Z</time>
      </trkpt>
      <trkpt lat="45.34056" lon="0.485">
        <ele>118</ele>
        <time>2025-04-16T08:05:58Z</time>
      </trkpt>
      <trkpt lat="45.34065" lon="0.48464">
        <ele>118</ele>
        <time>2025-04-16T08:06:02Z</time>
      </trkpt>
      <trkpt lat="45.3408" lon="0.48432">
        <ele>119</ele>
        <time>2025-04-16T08:06:07Z</time>
      </trkpt>
      <trkpt lat="45.341" lon="0.48402">
        <ele>120</ele>
        <time>2025-04-16T08:06:12Z</time>
      </trkpt>
      <trkpt lat="45.34146" lon="0.48367">
        <ele>120</ele>
        <time>2025-04-16T08:06:22Z</time>
      </trkpt>
      <trkpt lat="45.34158" lon="0.48362">
        <ele>120</ele>
        <time>2025-04-16T08:06:24Z</time>
      </trkpt>
      <trkpt lat="45.34184" lon="0.48342">
        <ele>120</ele>
        <time>2025-04-16T08:06:29Z</time>
      </trkpt>
      <trkpt lat="45.34215" lon="0.4831">
        <ele>121</ele>
        <time>2025-04-16T08:06:36Z</time>
      </trkpt>
      <trkpt lat="45.3425" lon="0.48264">
        <ele>120</ele>
        <time>2025-04-16T08:06:44Z</time>
      </trkpt>
      <trkpt lat="45.34265" lon="0.48229">
        <ele>119</ele>
        <time>2025-04-16T08:06:50Z</time>
      </trkpt>
      <trkpt lat="45.34269" lon="0.48189">
        <ele>119</ele>
        <time>2025-04-16T08:06:55Z</time>
      </trkpt>
      <trkpt lat="45.34282" lon="0.47965">
        <ele>122</ele>
        <time>2025-04-16T08:07:23Z</time>
      </trkpt>
      <trkpt lat="45.34286" lon="0.47843">
        <ele>124</ele>
        <time>2025-04-16T08:07:38Z</time>
      </trkpt>
      <trkpt lat="45.34284" lon="0.47814">
        <ele>124</ele>
        <time>2025-04-16T08:07:42Z</time>
      </trkpt>
      <trkpt lat="45.3428" lon="0.47792">
        <ele>124</ele>
        <time>2025-04-16T08:07:44Z</time>
      </trkpt>
      <trkpt lat="45.34274" lon="0.47773">
        <ele>124</ele>
        <time>2025-04-16T08:07:47Z</time>
      </trkpt>
      <trkpt lat="45.34269" lon="0.47762">
        <ele>124</ele>
        <time>2025-04-16T08:07:49Z</time>
      </trkpt>
      <trkpt lat="45.34211" lon="0.47627">
        <ele>125</ele>
        <time>2025-04-16T08:08:08Z</time>
      </trkpt>
      <trkpt lat="45.34205" lon="0.47604">
        <ele>126</ele>
        <time>2025-04-16T08:08:12Z</time>
      </trkpt>
      <trkpt lat="45.34201" lon="0.474">
        <ele>128</ele>
        <time>2025-04-16T08:08:37Z</time>
      </trkpt>
      <trkpt lat="45.34193" lon="0.47322">
        <ele>129</ele>
        <time>2025-04-16T08:08:47Z</time>
      </trkpt>
      <trkpt lat="45.34191" lon="0.47284">
        <ele>129</ele>
        <time>2025-04-16T08:08:52Z</time>
      </trkpt>
      <trkpt lat="45.34196" lon="0.47238">
        <ele>129</ele>
        <time>2025-04-16T08:08:58Z</time>
      </trkpt>
      <trkpt lat="45.3421" lon="0.47183">
        <ele>127</ele>
        <time>2025-04-16T08:09:05Z</time>
      </trkpt>
      <trkpt lat="45.342" lon="0.47045">
        <ele>127</ele>
        <time>2025-04-16T08:09:22Z</time>
      </trkpt>
      <trkpt lat="45.34213" lon="0.46965">
        <ele>127</ele>
        <time>2025-04-16T08:09:32Z</time>
      </trkpt>
      <trkpt lat="45.34239" lon="0.46833">
        <ele>126</ele>
        <time>2025-04-16T08:09:50Z</time>
      </trkpt>
      <trkpt lat="45.34238" lon="0.4682">
        <ele>126</ele>
        <time>2025-04-16T08:09:51Z</time>
      </trkpt>
      <trkpt lat="45.34236" lon="0.46807">
        <ele>126</ele>
        <time>2025-04-16T08:09:53Z</time>
      </trkpt>
      <trkpt lat="45.34226" lon="0.46771">
        <ele>127</ele>
        <time>2025-04-16T08:09:58Z</time>
      </trkpt>
      <trkpt lat="45.3422" lon="0.46731">
        <ele>127</ele>
        <time>2025-04-16T08:10:03Z</time>
      </trkpt>
      <trkpt lat="45.34211" lon="0.46635">
        <ele>128</ele>
        <time>2025-04-16T08:10:15Z</time>
      </trkpt>
      <trkpt lat="45.34206" lon="0.46616">
        <ele>128</ele>
        <time>2025-04-16T08:10:18Z</time>
      </trkpt>
      <trkpt lat="45.34178" lon="0.46563">
        <ele>130</ele>
        <time>2025-04-16T08:10:26Z</time>
      </trkpt>
      <trkpt lat="45.34162" lon="0.46541">
        <ele>131</ele>
        <time>2025-04-16T08:10:30Z</time>
      </trkpt>
      <trkpt lat="45.34154" lon="0.46516">
        <ele>132</ele>
        <time>2025-04-16T08:10:33Z</time>
      </trkpt>
      <trkpt lat="45.34151" lon="0.4649">
        <ele>133</ele>
        <time>2025-04-16T08:10:36Z</time>
      </trkpt>
      <trkpt lat="45.34148" lon="0.46402">
        <ele>134</ele>
        <time>2025-04-16T08:10:48Z</time>
      </trkpt>
      <trkpt lat="45.3415" lon="0.46326">
        <ele>135</ele>
        <time>2025-04-16T08:10:57Z</time>
      </trkpt>
      <trkpt lat="45.34149" lon="0.46303">
        <ele>135</ele>
        <time>2025-04-16T08:11:00Z</time>
      </trkpt>
      <trkpt lat="45.34136" lon="0.4619">
        <ele>138</ele>
        <time>2025-04-16T08:11:14Z</time>
      </trkpt>
      <trkpt lat="45.34144" lon="0.46044">
        <ele>136</ele>
        <time>2025-04-16T08:11:33Z</time>
      </trkpt>
      <trkpt lat="45.34153" lon="0.46">
        <ele>135</ele>
        <time>2025-04-16T08:11:38Z</time>
      </trkpt>
      <trkpt lat="45.3418" lon="0.45896">
        <ele>136</ele>
        <time>2025-04-16T08:11:52Z</time>
      </trkpt>
      <trkpt lat="45.34182" lon="0.45875">
        <ele>136</ele>
        <time>2025-04-16T08:11:55Z</time>
      </trkpt>
      <trkpt lat="45.3418" lon="0.45852">
        <ele>136</ele>
        <time>2025-04-16T08:11:58Z</time>
      </trkpt>
      <trkpt lat="45.3416" lon="0.45701">
        <ele>135</ele>
        <time>2025-04-16T08:12:17Z</time>
      </trkpt>
      <trkpt lat="45.3416" lon="0.45636">
        <ele>135</ele>
        <time>2025-04-16T08:12:25Z</time>
      </trkpt>
      <trkpt lat="45.34162" lon="0.45589">
        <ele>135</ele>
        <time>2025-04-16T08:12:31Z</time>
      </trkpt>
      <trkpt lat="45.34168" lon="0.45546">
        <ele>136</ele>
        <time>2025-04-16T08:12:36Z</time>
      </trkpt>
      <trkpt lat="45.34185" lon="0.45469">
        <ele>139</ele>
        <time>2025-04-16T08:12:46Z</time>
      </trkpt>
      <trkpt lat="45.34189" lon="0.45427">
        <ele>139</ele>
        <time>2025-04-16T08:12:52Z</time>
      </trkpt>
      <trkpt lat="45.34179" lon="0.45301">
        <ele>141</ele>
        <time>2025-04-16T08:13:08Z</time>
      </trkpt>
      <trkpt lat="45.34178" lon="0.45251">
        <ele>141</ele>
        <time>2025-04-16T08:13:14Z</time>
      </trkpt>
      <trkpt lat="45.3418" lon="0.45218">
        <ele>140</ele>
        <time>2025-04-16T08:13:18Z</time>
      </trkpt>
      <trkpt lat="45.34203" lon="0.45142">
        <ele>138</ele>
        <time>2025-04-16T08:13:28Z</time>
      </trkpt>
      <trkpt lat="45.34225" lon="0.4506">
        <ele>138</ele>
        <time>2025-04-16T08:13:39Z</time>
      </trkpt>
      <trkpt lat="45.34231" lon="0.45004">
        <ele>137</ele>
        <time>2025-04-16T08:13:46Z</time>
      </trkpt>
      <trkpt lat="45.34231" lon="0.44965">
        <ele>136</ele>
        <time>2025-04-16T08:13:51Z</time>
      </trkpt>
      <trkpt lat="45.34226" lon="0.44892">
        <ele>136</ele>
        <time>2025-04-16T08:14:01Z</time>
      </trkpt>
      <trkpt lat="45.34227" lon="0.44821">
        <ele>138</ele>
        <time>2025-04-16T08:14:09Z</time>
      </trkpt>
      <trkpt lat="45.34232" lon="0.44764">
        <ele>140</ele>
        <time>2025-04-16T08:14:17Z</time>
      </trkpt>
      <trkpt lat="45.34256" lon="0.44668">
        <ele>141</ele>
        <time>2025-04-16T08:14:29Z</time>
      </trkpt>
      <trkpt lat="45.34318" lon="0.44543">
        <ele>137</ele>
        <time>2025-04-16T08:14:48Z</time>
      </trkpt>
      <trkpt lat="45.34425" lon="0.44346">
        <ele>140</ele>
        <time>2025-04-16T08:15:20Z</time>
      </trkpt>
      <trkpt lat="45.34457" lon="0.44264">
        <ele>143</ele>
        <time>2025-04-16T08:15:31Z</time>
      </trkpt>
      <trkpt lat="45.34501" lon="0.44109">
        <ele>143</ele>
        <time>2025-04-16T08:15:52Z</time>
      </trkpt>
      <trkpt lat="45.34561" lon="0.43877">
        <ele>141</ele>
        <time>2025-04-16T08:16:23Z</time>
      </trkpt>
      <trkpt lat="45.3459" lon="0.43894">
        <ele>139</ele>
        <time>2025-04-16T08:16:29Z</time>
      </trkpt>
      <trkpt lat="45.34617" lon="0.43905">
        <ele>137</ele>
        <time>2025-04-16T08:16:34Z</time>
      </trkpt>
      <trkpt lat="45.34649" lon="0.43909">
        <ele>137</ele>
        <time>2025-04-16T08:16:39Z</time>
      </trkpt>
      <trkpt lat="45.34763" lon="0.43915">
        <ele>137</ele>
        <time>2025-04-16T08:17:00Z</time>
      </trkpt>
      <trkpt lat="45.34786" lon="0.4392">
        <ele>138</ele>
        <time>2025-04-16T08:17:04Z</time>
      </trkpt>
      <trkpt lat="45.34835" lon="0.43934">
        <ele>138</ele>
        <time>2025-04-16T08:17:13Z</time>
      </trkpt>
      <trkpt lat="45.34856" lon="0.43945">
        <ele>139</ele>
        <time>2025-04-16T08:17:17Z</time>
      </trkpt>
      <trkpt lat="45.34863" lon="0.43951">
        <ele>139</ele>
        <time>2025-04-16T08:17:18Z</time>
      </trkpt>
      <trkpt lat="45.34871" lon="0.4396">
        <ele>139</ele>
        <time>2025-04-16T08:17:20Z</time>
      </trkpt>
      <trkpt lat="45.34887" lon="0.43983">
        <ele>138</ele>
        <time>2025-04-16T08:17:24Z</time>
      </trkpt>
      <trkpt lat="45.34919" lon="0.44052">
        <ele>139</ele>
        <time>2025-04-16T08:17:34Z</time>
      </trkpt>
      <trkpt lat="45.34967" lon="0.44154">
        <ele>143</ele>
        <time>2025-04-16T08:17:50Z</time>
      </trkpt>
      <trkpt lat="45.34987" lon="0.4418">
        <ele>145</ele>
        <time>2025-04-16T08:17:55Z</time>
      </trkpt>
      <trkpt lat="45.35092" lon="0.44273">
        <ele>153</ele>
        <time>2025-04-16T08:18:17Z</time>
      </trkpt>
      <trkpt lat="45.35128" lon="0.44289">
        <ele>154</ele>
        <time>2025-04-16T08:18:23Z</time>
      </trkpt>
      <trkpt lat="45.35168" lon="0.44294">
        <ele>155</ele>
        <time>2025-04-16T08:18:30Z</time>
      </trkpt>
      <trkpt lat="45.3545" lon="0.44311">
        <ele>154</ele>
        <time>2025-04-16T08:19:21Z</time>
      </trkpt>
      <trkpt lat="45.35538" lon="0.44311">
        <ele>156</ele>
        <time>2025-04-16T08:19:36Z</time>
      </trkpt>
      <trkpt lat="45.35583" lon="0.44307">
        <ele>156</ele>
        <time>2025-04-16T08:19:44Z</time>
      </trkpt>
      <trkpt lat="45.35831" lon="0.44259">
        <ele>145</ele>
        <time>2025-04-16T08:20:29Z</time>
      </trkpt>
      <trkpt lat="45.35876" lon="0.4425">
        <ele>145</ele>
        <time>2025-04-16T08:20:37Z</time>
      </trkpt>
      <trkpt lat="45.359" lon="0.44249">
        <ele>145</ele>
        <time>2025-04-16T08:20:41Z</time>
      </trkpt>
      <trkpt lat="45.36103" lon="0.4426">
        <ele>146</ele>
        <time>2025-04-16T08:21:17Z</time>
      </trkpt>
      <trkpt lat="45.36126" lon="0.44264">
        <ele>145</ele>
        <time>2025-04-16T08:21:21Z</time>
      </trkpt>
      <trkpt lat="45.3615" lon="0.44272">
        <ele>144</ele>
        <time>2025-04-16T08:21:26Z</time>
      </trkpt>
      <trkpt lat="45.36168" lon="0.44281">
        <ele>144</ele>
        <time>2025-04-16T08:21:29Z</time>
      </trkpt>
      <trkpt lat="45.36192" lon="0.44297">
        <ele>143</ele>
        <time>2025-04-16T08:21:34Z</time>
      </trkpt>
      <trkpt lat="45.36259" lon="0.44357">
        <ele>140</ele>
        <time>2025-04-16T08:21:48Z</time>
      </trkpt>
      <trkpt lat="45.36324" lon="0.44443">
        <ele>137</ele>
        <time>2025-04-16T08:22:04Z</time>
      </trkpt>
      <trkpt lat="45.36402" lon="0.44563">
        <ele>138</ele>
        <time>2025-04-16T08:22:24Z</time>
      </trkpt>
      <trkpt lat="45.36448" lon="0.44616">
        <ele>142</ele>
        <time>2025-04-16T08:22:35Z</time>
      </trkpt>
      <trkpt lat="45.36491" lon="0.44603">
        <ele>145</ele>
        <time>2025-04-16T08:22:43Z</time>
      </trkpt>
      <trkpt lat="45.36502" lon="0.44604">
        <ele>146</ele>
        <time>2025-04-16T08:22:45Z</time>
      </trkpt>
      <trkpt lat="45.36522" lon="0.44612">
        <ele>146</ele>
        <time>2025-04-16T08:22:48Z</time>
      </trkpt>
      <trkpt lat="45.36546" lon="0.44635">
        <ele>146</ele>
        <time>2025-04-16T08:22:53Z</time>
      </trkpt>
      <trkpt lat="45.36553" lon="0.44624">
        <ele>147</ele>
        <time>2025-04-16T08:22:55Z</time>
      </trkpt>
      <trkpt lat="45.36565" lon="0.4461">
        <ele>147</ele>
        <time>2025-04-16T08:22:58Z</time>
      </trkpt>
      <trkpt lat="45.36586" lon="0.44597">
        <ele>148</ele>
        <time>2025-04-16T08:23:02Z</time>
      </trkpt>
      <trkpt lat="45.36597" lon="0.44584">
        <ele>147</ele>
        <time>2025-04-16T08:23:05Z</time>
      </trkpt>
      <trkpt lat="45.3661" lon="0.44583">
        <ele>147</ele>
        <time>2025-04-16T08:23:07Z</time>
      </trkpt>
      <trkpt lat="45.36723" lon="0.44521">
        <ele>145</ele>
        <time>2025-04-16T08:23:29Z</time>
      </trkpt>
      <trkpt lat="45.36743" lon="0.44517">
        <ele>145</ele>
        <time>2025-04-16T08:23:32Z</time>
      </trkpt>
      <trkpt lat="45.36752" lon="0.44518">
        <ele>145</ele>
        <time>2025-04-16T08:23:34Z</time>
      </trkpt>
      <trkpt lat="45.36762" lon="0.44522">
        <ele>144</ele>
        <time>2025-04-16T08:23:36Z</time>
      </trkpt>
      <trkpt lat="45.36776" lon="0.44537">
        <ele>144</ele>
        <time>2025-04-16T08:23:39Z</time>
      </trkpt>
      <trkpt lat="45.36939" lon="0.44769">
        <ele>137</ele>
        <time>2025-04-16T08:24:20Z</time>
      </trkpt>
      <trkpt lat="45.36945" lon="0.44778">
        <ele>137</ele>
        <time>2025-04-16T08:24:21Z</time>
      </trkpt>
      <trkpt lat="45.37125" lon="0.45034">
        <ele>149</ele>
        <time>2025-04-16T08:25:07Z</time>
      </trkpt>
      <trkpt lat="45.37267" lon="0.45241">
        <ele>150</ele>
        <time>2025-04-16T08:25:43Z</time>
      </trkpt>
      <trkpt lat="45.37287" lon="0.45285">
        <ele>153</ele>
        <time>2025-04-16T08:25:49Z</time>
      </trkpt>
      <trkpt lat="45.37335" lon="0.45479">
        <ele>155</ele>
        <time>2025-04-16T08:26:15Z</time>
      </trkpt>
      <trkpt lat="45.37348" lon="0.45516">
        <ele>156</ele>
        <time>2025-04-16T08:26:20Z</time>
      </trkpt>
      <trkpt lat="45.37365" lon="0.45548">
        <ele>155</ele>
        <time>2025-04-16T08:26:25Z</time>
      </trkpt>
      <trkpt lat="45.37431" lon="0.45653">
        <ele>154</ele>
        <time>2025-04-16T08:26:43Z</time>
      </trkpt>
      <trkpt lat="45.3744" lon="0.45674">
        <ele>155</ele>
        <time>2025-04-16T08:26:46Z</time>
      </trkpt>
      <trkpt lat="45.37448" lon="0.45697">
        <ele>155</ele>
        <time>2025-04-16T08:26:49Z</time>
      </trkpt>
      <trkpt lat="45.37452" lon="0.45732">
        <ele>156</ele>
        <time>2025-04-16T08:26:53Z</time>
      </trkpt>
      <trkpt lat="45.3745" lon="0.45882">
        <ele>158</ele>
        <time>2025-04-16T08:27:12Z</time>
      </trkpt>
      <trkpt lat="45.37452" lon="0.45914">
        <ele>158</ele>
        <time>2025-04-16T08:27:16Z</time>
      </trkpt>
      <trkpt lat="45.37458" lon="0.45947">
        <ele>158</ele>
        <time>2025-04-16T08:27:21Z</time>
      </trkpt>
      <trkpt lat="45.37466" lon="0.45978">
        <ele>159</ele>
        <time>2025-04-16T08:27:25Z</time>
      </trkpt>
      <trkpt lat="45.37483" lon="0.46016">
        <ele>159</ele>
        <time>2025-04-16T08:27:30Z</time>
      </trkpt>
      <trkpt lat="45.37503" lon="0.46046">
        <ele>159</ele>
        <time>2025-04-16T08:27:35Z</time>
      </trkpt>
      <trkpt lat="45.37532" lon="0.46077">
        <ele>160</ele>
        <time>2025-04-16T08:27:42Z</time>
      </trkpt>
      <trkpt lat="45.37562" lon="0.46104">
        <ele>159</ele>
        <time>2025-04-16T08:27:48Z</time>
      </trkpt>
      <trkpt lat="45.37582" lon="0.4613">
        <ele>158</ele>
        <time>2025-04-16T08:27:53Z</time>
      </trkpt>
      <trkpt lat="45.37595" lon="0.46158">
        <ele>158</ele>
        <time>2025-04-16T08:27:57Z</time>
      </trkpt>
      <trkpt lat="45.37747" lon="0.46592">
        <ele>160</ele>
        <time>2025-04-16T08:28:58Z</time>
      </trkpt>
      <trkpt lat="45.37755" lon="0.46623">
        <ele>162</ele>
        <time>2025-04-16T08:29:02Z</time>
      </trkpt>
      <trkpt lat="45.3776" lon="0.46651">
        <ele>164</ele>
        <time>2025-04-16T08:29:06Z</time>
      </trkpt>
      <trkpt lat="45.37776" lon="0.46796">
        <ele>168</ele>
        <time>2025-04-16T08:29:24Z</time>
      </trkpt>
      <trkpt lat="45.37783" lon="0.46832">
        <ele>168</ele>
        <time>2025-04-16T08:29:29Z</time>
      </trkpt>
      <trkpt lat="45.37793" lon="0.46859">
        <ele>168</ele>
        <time>2025-04-16T08:29:32Z</time>
      </trkpt>
      <trkpt lat="45.37817" lon="0.46896">
        <ele>165</ele>
        <time>2025-04-16T08:29:39Z</time>
      </trkpt>
      <trkpt lat="45.37837" lon="0.46953">
        <ele>166</ele>
        <time>2025-04-16T08:29:47Z</time>
      </trkpt>
      <trkpt lat="45.37859" lon="0.4705">
        <ele>173</ele>
        <time>2025-04-16T08:29:59Z</time>
      </trkpt>
      <trkpt lat="45.37862" lon="0.47068">
        <ele>173</ele>
        <time>2025-04-16T08:30:02Z</time>
      </trkpt>
      <trkpt lat="45.37863" lon="0.47089">
        <ele>174</ele>
        <time>2025-04-16T08:30:04Z</time>
      </trkpt>
      <trkpt lat="45.37864" lon="0.47132">
        <ele>176</ele>
        <time>2025-04-16T08:30:10Z</time>
      </trkpt>
      <trkpt lat="45.37868" lon="0.47153">
        <ele>176</ele>
        <time>2025-04-16T08:30:12Z</time>
      </trkpt>
      <trkpt lat="45.37873" lon="0.47172">
        <ele>176</ele>
        <time>2025-04-16T08:30:15Z</time>
      </trkpt>
      <trkpt lat="45.37902" lon="0.47215">
        <ele>174</ele>
        <time>2025-04-16T08:30:22Z</time>
      </trkpt>
      <trkpt lat="45.37912" lon="0.47231">
        <ele>173</ele>
        <time>2025-04-16T08:30:25Z</time>
      </trkpt>
      <trkpt lat="45.37915" lon="0.47241">
        <ele>173</ele>
        <time>2025-04-16T08:30:26Z</time>
      </trkpt>
      <trkpt lat="45.37915" lon="0.47346">
        <ele>177</ele>
        <time>2025-04-16T08:30:40Z</time>
      </trkpt>
      <trkpt lat="45.37918" lon="0.47381">
        <ele>177</ele>
        <time>2025-04-16T08:30:44Z</time>
      </trkpt>
      <trkpt lat="45.37977" lon="0.4761">
        <ele>181</ele>
        <time>2025-04-16T08:31:14Z</time>
      </trkpt>
      <trkpt lat="45.37983" lon="0.47669">
        <ele>181</ele>
        <time>2025-04-16T08:31:22Z</time>
      </trkpt>
      <trkpt lat="45.37987" lon="0.4769">
        <ele>181</ele>
        <time>2025-04-16T08:31:25Z</time>
      </trkpt>
      <trkpt lat="45.37998" lon="0.47711">
        <ele>180</ele>
        <time>2025-04-16T08:31:28Z</time>
      </trkpt>
      <trkpt lat="45.38111" lon="0.47858">
        <ele>179</ele>
        <time>2025-04-16T08:31:55Z</time>
      </trkpt>
      <trkpt lat="45.38144" lon="0.47895">
        <ele>179</ele>
        <time>2025-04-16T08:32:03Z</time>
      </trkpt>
      <trkpt lat="45.38196" lon="0.47948">
        <ele>180</ele>
        <time>2025-04-16T08:32:14Z</time>
      </trkpt>
      <trkpt lat="45.38223" lon="0.47999">
        <ele>183</ele>
        <time>2025-04-16T08:32:22Z</time>
      </trkpt>
      <trkpt lat="45.38257" lon="0.48089">
        <ele>188</ele>
        <time>2025-04-16T08:32:35Z</time>
      </trkpt>
      <trkpt lat="45.38271" lon="0.4812">
        <ele>190</ele>
        <time>2025-04-16T08:32:39Z</time>
      </trkpt>
      <trkpt lat="45.38293" lon="0.48154">
        <ele>191</ele>
        <time>2025-04-16T08:32:45Z</time>
      </trkpt>
      <trkpt lat="45.38337" lon="0.48207">
        <ele>189</ele>
        <time>2025-04-16T08:32:55Z</time>
      </trkpt>
      <trkpt lat="45.38354" lon="0.48229">
        <ele>189</ele>
        <time>2025-04-16T08:32:59Z</time>
      </trkpt>
      <trkpt lat="45.38365" lon="0.4825">
        <ele>188</ele>
        <time>2025-04-16T08:33:03Z</time>
      </trkpt>
      <trkpt lat="45.38376" lon="0.48273">
        <ele>188</ele>
        <time>2025-04-16T08:33:06Z</time>
      </trkpt>
      <trkpt lat="45.38394" lon="0.48333">
        <ele>187</ele>
        <time>2025-04-16T08:33:14Z</time>
      </trkpt>
      <trkpt lat="45.38397" lon="0.48355">
        <ele>187</ele>
        <time>2025-04-16T08:33:17Z</time>
      </trkpt>
      <trkpt lat="45.38397" lon="0.48412">
        <ele>188</ele>
        <time>2025-04-16T08:33:24Z</time>
      </trkpt>
      <trkpt lat="45.38401" lon="0.48439">
        <ele>188</ele>
        <time>2025-04-16T08:33:28Z</time>
      </trkpt>
      <trkpt lat="45.38408" lon="0.48454">
        <ele>188</ele>
        <time>2025-04-16T08:33:30Z</time>
      </trkpt>
      <trkpt lat="45.38425" lon="0.48477">
        <ele>188</ele>
        <time>2025-04-16T08:33:34Z</time>
      </trkpt>
      <trkpt lat="45.38441" lon="0.48506">
        <ele>187</ele>
        <time>2025-04-16T08:33:39Z</time>
      </trkpt>
      <trkpt lat="45.38446" lon="0.48522">
        <ele>187</ele>
        <time>2025-04-16T08:33:41Z</time>
      </trkpt>
      <trkpt lat="45.3845" lon="0.48545">
        <ele>187</ele>
        <time>2025-04-16T08:33:44Z</time>
      </trkpt>
      <trkpt lat="45.3845" lon="0.48563">
        <ele>187</ele>
        <time>2025-04-16T08:33:46Z</time>
      </trkpt>
      <trkpt lat="45.38446" lon="0.48588">
        <ele>187</ele>
        <time>2025-04-16T08:33:49Z</time>
      </trkpt>
      <trkpt lat="45.38383" lon="0.48826">
        <ele>194</ele>
        <time>2025-04-16T08:34:21Z</time>
      </trkpt>
      <trkpt lat="45.38378" lon="0.48851">
        <ele>195</ele>
        <time>2025-04-16T08:34:24Z</time>
      </trkpt>
      <trkpt lat="45.38376" lon="0.48875">
        <ele>196</ele>
        <time>2025-04-16T08:34:27Z</time>
      </trkpt>
      <trkpt lat="45.38377" lon="0.48893">
        <ele>196</ele>
        <time>2025-04-16T08:34:30Z</time>
      </trkpt>
      <trkpt lat="45.38382" lon="0.48912">
        <ele>196</ele>
        <time>2025-04-16T08:34:32Z</time>
      </trkpt>
      <trkpt lat="45.38388" lon="0.48929">
        <ele>196</ele>
        <time>2025-04-16T08:34:35Z</time>
      </trkpt>
      <trkpt lat="45.38397" lon="0.48946">
        <ele>196</ele>
        <time>2025-04-16T08:34:37Z</time>
      </trkpt>
      <trkpt lat="45.38435" lon="0.49007">
        <ele>197</ele>
        <time>2025-04-16T08:34:47Z</time>
      </trkpt>
      <trkpt lat="45.38445" lon="0.49025">
        <ele>198</ele>
        <time>2025-04-16T08:34:50Z</time>
      </trkpt>
      <trkpt lat="45.38462" lon="0.49083">
        <ele>199</ele>
        <time>2025-04-16T08:34:58Z</time>
      </trkpt>
      <trkpt lat="45.38469" lon="0.49101">
        <ele>200</ele>
        <time>2025-04-16T08:35:01Z</time>
      </trkpt>
      <trkpt lat="45.38476" lon="0.49115">
        <ele>200</ele>
        <time>2025-04-16T08:35:03Z</time>
      </trkpt>
      <trkpt lat="45.38489" lon="0.49128">
        <ele>201</ele>
        <time>2025-04-16T08:35:06Z</time>
      </trkpt>
      <trkpt lat="45.38505" lon="0.49137">
        <ele>201</ele>
        <time>2025-04-16T08:35:09Z</time>
      </trkpt>
      <trkpt lat="45.38753" lon="0.49223">
        <ele>201</ele>
        <time>2025-04-16T08:35:54Z</time>
      </trkpt>
      <trkpt lat="45.38774" lon="0.49234">
        <ele>200</ele>
        <time>2025-04-16T08:35:58Z</time>
      </trkpt>
      <trkpt lat="45.38792" lon="0.49246">
        <ele>200</ele>
        <time>2025-04-16T08:36:02Z</time>
      </trkpt>
      <trkpt lat="45.38821" lon="0.49275">
        <ele>198</ele>
        <time>2025-04-16T08:36:08Z</time>
      </trkpt>
      <trkpt lat="45.38841" lon="0.49306">
        <ele>197</ele>
        <time>2025-04-16T08:36:13Z</time>
      </trkpt>
      <trkpt lat="45.38856" lon="0.49336">
        <ele>197</ele>
        <time>2025-04-16T08:36:18Z</time>
      </trkpt>
      <trkpt lat="45.38898" lon="0.49449">
        <ele>197</ele>
        <time>2025-04-16T08:36:34Z</time>
      </trkpt>
      <trkpt lat="45.38907" lon="0.49466">
        <ele>196</ele>
        <time>2025-04-16T08:36:37Z</time>
      </trkpt>
      <trkpt lat="45.38924" lon="0.49491">
        <ele>196</ele>
        <time>2025-04-16T08:36:41Z</time>
      </trkpt>
      <trkpt lat="45.39017" lon="0.49583">
        <ele>193</ele>
        <time>2025-04-16T08:37:01Z</time>
      </trkpt>
      <trkpt lat="45.39073" lon="0.49647">
        <ele>191</ele>
        <time>2025-04-16T08:37:14Z</time>
      </trkpt>
      <trkpt lat="45.39124" lon="0.49717">
        <ele>188</ele>
        <time>2025-04-16T08:37:26Z</time>
      </trkpt>
      <trkpt lat="45.39134" lon="0.49737">
        <ele>188</ele>
        <time>2025-04-16T08:37:29Z</time>
      </trkpt>
      <trkpt lat="45.3914" lon="0.49755">
        <ele>187</ele>
        <time>2025-04-16T08:37:32Z</time>
      </trkpt>
      <trkpt lat="45.39146" lon="0.49777">
        <ele>187</ele>
        <time>2025-04-16T08:37:35Z</time>
      </trkpt>
      <trkpt lat="45.39152" lon="0.49842">
        <ele>184</ele>
        <time>2025-04-16T08:37:43Z</time>
      </trkpt>
      <trkpt lat="45.39159" lon="0.49871">
        <ele>183</ele>
        <time>2025-04-16T08:37:47Z</time>
      </trkpt>
      <trkpt lat="45.39166" lon="0.4989">
        <ele>182</ele>
        <time>2025-04-16T08:37:50Z</time>
      </trkpt>
      <trkpt lat="45.39175" lon="0.49907">
        <ele>182</ele>
        <time>2025-04-16T08:37:52Z</time>
      </trkpt>
      <trkpt lat="45.39187" lon="0.49921">
        <ele>181</ele>
        <time>2025-04-16T08:37:55Z</time>
      </trkpt>
      <trkpt lat="45.39202" lon="0.49933">
        <ele>180</ele>
        <time>2025-04-16T08:37:58Z</time>
      </trkpt>
      <trkpt lat="45.39243" lon="0.49958">
        <ele>177</ele>
        <time>2025-04-16T08:38:06Z</time>
      </trkpt>
      <trkpt lat="45.39265" lon="0.49975">
        <ele>176</ele>
        <time>2025-04-16T08:38:10Z</time>
      </trkpt>
      <trkpt lat="45.39284" lon="0.49994">
        <ele>175</ele>
        <time>2025-04-16T08:38:15Z</time>
      </trkpt>
      <trkpt lat="45.3931" lon="0.50029">
        <ele>173</ele>
        <time>2025-04-16T08:38:21Z</time>
      </trkpt>
      <trkpt lat="45.3932" lon="0.50049">
        <ele>172</ele>
        <time>2025-04-16T08:38:24Z</time>
      </trkpt>
      <trkpt lat="45.39341" lon="0.50091">
        <ele>169</ele>
        <time>2025-04-16T08:38:31Z</time>
      </trkpt>
      <trkpt lat="45.39354" lon="0.50124">
        <ele>168</ele>
        <time>2025-04-16T08:38:35Z</time>
      </trkpt>
      <trkpt lat="45.39371" lon="0.5018">
        <ele>166</ele>
        <time>2025-04-16T08:38:43Z</time>
      </trkpt>
      <trkpt lat="45.39382" lon="0.50227">
        <ele>166</ele>
        <time>2025-04-16T08:38:49Z</time>
      </trkpt>
      <trkpt lat="45.39396" lon="0.50338">
        <ele>168</ele>
        <time>2025-04-16T08:39:03Z</time>
      </trkpt>
      <trkpt lat="45.39407" lon="0.50407">
        <ele>168</ele>
        <time>2025-04-16T08:39:12Z</time>
      </trkpt>
      <trkpt lat="45.39404" lon="0.5041">
        <ele>168</ele>
        <time>2025-04-16T08:39:13Z</time>
      </trkpt>
      <trkpt lat="45.39402" lon="0.50417">
        <ele>168</ele>
        <time>2025-04-16T08:39:14Z</time>
      </trkpt>
      <trkpt lat="45.39399" lon="0.50509">
        <ele>165</ele>
        <time>2025-04-16T08:39:25Z</time>
      </trkpt>
      <trkpt lat="45.39396" lon="0.50543">
        <ele>167</ele>
        <time>2025-04-16T08:39:29Z</time>
      </trkpt>
      <trkpt lat="45.39391" lon="0.50568">
        <ele>167</ele>
        <time>2025-04-16T08:39:33Z</time>
      </trkpt>
      <trkpt lat="45.39364" lon="0.50641">
        <ele>170</ele>
        <time>2025-04-16T08:39:43Z</time>
      </trkpt>
      <trkpt lat="45.39333" lon="0.50735">
        <ele>173</ele>
        <time>2025-04-16T08:39:56Z</time>
      </trkpt>
      <trkpt lat="45.39323" lon="0.50778">
        <ele>174</ele>
        <time>2025-04-16T08:40:02Z</time>
      </trkpt>
      <trkpt lat="45.39305" lon="0.50924">
        <ele>172</ele>
        <time>2025-04-16T08:40:20Z</time>
      </trkpt>
      <trkpt lat="45.393" lon="0.50964">
        <ele>171</ele>
        <time>2025-04-16T08:40:25Z</time>
      </trkpt>
      <trkpt lat="45.39275" lon="0.51129">
        <ele>170</ele>
        <time>2025-04-16T08:40:46Z</time>
      </trkpt>
      <trkpt lat="45.39267" lon="0.5115">
        <ele>171</ele>
        <time>2025-04-16T08:40:49Z</time>
      </trkpt>
      <trkpt lat="45.39247" lon="0.51167">
        <ele>172</ele>
        <time>2025-04-16T08:40:53Z</time>
      </trkpt>
      <trkpt lat="45.39207" lon="0.51197">
        <ele>175</ele>
        <time>2025-04-16T08:41:01Z</time>
      </trkpt>
      <trkpt lat="45.39179" lon="0.51233">
        <ele>178</ele>
        <time>2025-04-16T08:41:08Z</time>
      </trkpt>
      <trkpt lat="45.39176" lon="0.51273">
        <ele>182</ele>
        <time>2025-04-16T08:41:13Z</time>
      </trkpt>
      <trkpt lat="45.39184" lon="0.5131">
        <ele>184</ele>
        <time>2025-04-16T08:41:18Z</time>
      </trkpt>
      <trkpt lat="45.39206" lon="0.51349">
        <ele>187</ele>
        <time>2025-04-16T08:41:24Z</time>
      </trkpt>
      <trkpt lat="45.39172" lon="0.51392">
        <ele>188</ele>
        <time>2025-04-16T08:41:32Z</time>
      </trkpt>
      <trkpt lat="45.39155" lon="0.51408">
        <ele>187</ele>
        <time>2025-04-16T08:41:36Z</time>
      </trkpt>
      <trkpt lat="45.39122" lon="0.51431">
        <ele>183</ele>
        <time>2025-04-16T08:41:42Z</time>
      </trkpt>
      <trkpt lat="45.39103" lon="0.51456">
        <ele>180</ele>
        <time>2025-04-16T08:41:47Z</time>
      </trkpt>
      <trkpt lat="45.39092" lon="0.51466">
        <ele>178</ele>
        <time>2025-04-16T08:41:49Z</time>
      </trkpt>
      <trkpt lat="45.39076" lon="0.51471">
        <ele>176</ele>
        <time>2025-04-16T08:41:52Z</time>
      </trkpt>
      <trkpt lat="45.39047" lon="0.51466">
        <ele>173</ele>
        <time>2025-04-16T08:41:58Z</time>
      </trkpt>
      <trkpt lat="45.39025" lon="0.51455">
        <ele>172</ele>
        <time>2025-04-16T08:42:02Z</time>
      </trkpt>
      <trkpt lat="45.39004" lon="0.51436">
        <ele>170</ele>
        <time>2025-04-16T08:42:06Z</time>
      </trkpt>
      <trkpt lat="45.38967" lon="0.5137">
        <ele>166</ele>
        <time>2025-04-16T08:42:17Z</time>
      </trkpt>
      <trkpt lat="45.38952" lon="0.51356">
        <ele>165</ele>
        <time>2025-04-16T08:42:20Z</time>
      </trkpt>
      <trkpt lat="45.38929" lon="0.51348">
        <ele>162</ele>
        <time>2025-04-16T08:42:24Z</time>
      </trkpt>
      <trkpt lat="45.38831" lon="0.5135">
        <ele>157</ele>
        <time>2025-04-16T08:42:42Z</time>
      </trkpt>
      <trkpt lat="45.38808" lon="0.51357">
        <ele>156</ele>
        <time>2025-04-16T08:42:46Z</time>
      </trkpt>
      <trkpt lat="45.38741" lon="0.51399">
        <ele>157</ele>
        <time>2025-04-16T08:42:59Z</time>
      </trkpt>
      <trkpt lat="45.38687" lon="0.51425">
        <ele>157</ele>
        <time>2025-04-16T08:43:09Z</time>
      </trkpt>
      <trkpt lat="45.38602" lon="0.51425">
        <ele>158</ele>
        <time>2025-04-16T08:43:24Z</time>
      </trkpt>
      <trkpt lat="45.3856" lon="0.51399">
        <ele>159</ele>
        <time>2025-04-16T08:43:32Z</time>
      </trkpt>
      <trkpt lat="45.38536" lon="0.51382">
        <ele>159</ele>
        <time>2025-04-16T08:43:37Z</time>
      </trkpt>
      <trkpt lat="45.38482" lon="0.51366">
        <ele>157</ele>
        <time>2025-04-16T08:43:47Z</time>
      </trkpt>
      <trkpt lat="45.38462" lon="0.51363">
        <ele>157</ele>
        <time>2025-04-16T08:43:50Z</time>
      </trkpt>
      <trkpt lat="45.38454" lon="0.51362">
        <ele>157</ele>
        <time>2025-04-16T08:43:52Z</time>
      </trkpt>
      <trkpt lat="45.3842" lon="0.51364">
        <ele>156</ele>
        <time>2025-04-16T08:43:58Z</time>
      </trkpt>
      <trkpt lat="45.38382" lon="0.51374">
        <ele>158</ele>
        <time>2025-04-16T08:44:05Z</time>
      </trkpt>
      <trkpt lat="45.38341" lon="0.51389">
        <ele>158</ele>
        <time>2025-04-16T08:44:12Z</time>
      </trkpt>
      <trkpt lat="45.38301" lon="0.51414">
        <ele>159</ele>
        <time>2025-04-16T08:44:20Z</time>
      </trkpt>
      <trkpt lat="45.38269" lon="0.51483">
        <ele>161</ele>
        <time>2025-04-16T08:44:30Z</time>
      </trkpt>
      <trkpt lat="45.38233" lon="0.5157">
        <ele>154</ele>
        <time>2025-04-16T08:44:43Z</time>
      </trkpt>
      <trkpt lat="45.38216" lon="0.51603">
        <ele>152</ele>
        <time>2025-04-16T08:44:48Z</time>
      </trkpt>
      <trkpt lat="45.38193" lon="0.51616">
        <ele>152</ele>
        <time>2025-04-16T08:44:52Z</time>
      </trkpt>
      <trkpt lat="45.38132" lon="0.51613">
        <ele>152</ele>
        <time>2025-04-16T08:45:03Z</time>
      </trkpt>
      <trkpt lat="45.38069" lon="0.51589">
        <ele>151</ele>
        <time>2025-04-16T08:45:15Z</time>
      </trkpt>
      <trkpt lat="45.38022" lon="0.51569">
        <ele>149</ele>
        <time>2025-04-16T08:45:24Z</time>
      </trkpt>
      <trkpt lat="45.37987" lon="0.51563">
        <ele>148</ele>
        <time>2025-04-16T08:45:30Z</time>
      </trkpt>
      <trkpt lat="45.37934" lon="0.51571">
        <ele>148</ele>
        <time>2025-04-16T08:45:39Z</time>
      </trkpt>
      <trkpt lat="45.37859" lon="0.51589">
        <ele>145</ele>
        <time>2025-04-16T08:45:53Z</time>
      </trkpt>
      <trkpt lat="45.3782" lon="0.51594">
        <ele>145</ele>
        <time>2025-04-16T08:46:00Z</time>
      </trkpt>
      <trkpt lat="45.37795" lon="0.51589">
        <ele>144</ele>
        <time>2025-04-16T08:46:04Z</time>
      </trkpt>
      <trkpt lat="45.37764" lon="0.51549">
        <ele>145</ele>
        <time>2025-04-16T08:46:12Z</time>
      </trkpt>
      <trkpt lat="45.37742" lon="0.51504">
        <ele>144</ele>
        <time>2025-04-16T08:46:19Z</time>
      </trkpt>
      <trkpt lat="45.37714" lon="0.51463">
        <ele>143</ele>
        <time>2025-04-16T08:46:26Z</time>
      </trkpt>
      <trkpt lat="45.37668" lon="0.51425">
        <ele>139</ele>
        <time>2025-04-16T08:46:35Z</time>
      </trkpt>
      <trkpt lat="45.37632" lon="0.51391">
        <ele>141</ele>
        <time>2025-04-16T08:46:43Z</time>
      </trkpt>
      <trkpt lat="45.37602" lon="0.5138">
        <ele>140</ele>
        <time>2025-04-16T08:46:48Z</time>
      </trkpt>
      <trkpt lat="45.37554" lon="0.5138">
        <ele>140</ele>
        <time>2025-04-16T08:46:57Z</time>
      </trkpt>
      <trkpt lat="45.3748" lon="0.51348">
        <ele>143</ele>
        <time>2025-04-16T08:47:11Z</time>
      </trkpt>
      <trkpt lat="45.37436" lon="0.51344">
        <ele>144</ele>
        <time>2025-04-16T08:47:19Z</time>
      </trkpt>
      <trkpt lat="45.37392" lon="0.51363">
        <ele>142</ele>
        <time>2025-04-16T08:47:27Z</time>
      </trkpt>
      <trkpt lat="45.37368" lon="0.514">
        <ele>139</ele>
        <time>2025-04-16T08:47:33Z</time>
      </trkpt>
      <trkpt lat="45.37353" lon="0.51433">
        <ele>139</ele>
        <time>2025-04-16T08:47:38Z</time>
      </trkpt>
      <trkpt lat="45.37338" lon="0.5145">
        <ele>142</ele>
        <time>2025-04-16T08:47:41Z</time>
      </trkpt>
      <trkpt lat="45.37301" lon="0.51456">
        <ele>143</ele>
        <time>2025-04-16T08:47:48Z</time>
      </trkpt>
      <trkpt lat="45.37224" lon="0.51458">
        <ele>143</ele>
        <time>2025-04-16T08:48:02Z</time>
      </trkpt>
      <trkpt lat="45.37152" lon="0.51438">
        <ele>142</ele>
        <time>2025-04-16T08:48:15Z</time>
      </trkpt>
      <trkpt lat="45.37096" lon="0.51404">
        <ele>139</ele>
        <time>2025-04-16T08:48:26Z</time>
      </trkpt>
      <trkpt lat="45.37073" lon="0.51402">
        <ele>139</ele>
        <time>2025-04-16T08:48:30Z</time>
      </trkpt>
      <trkpt lat="45.36942" lon="0.51443">
        <ele>142</ele>
        <time>2025-04-16T08:48:54Z</time>
      </trkpt>
      <trkpt lat="45.3686" lon="0.51478">
        <ele>141</ele>
        <time>2025-04-16T08:49:09Z</time>
      </trkpt>
      <trkpt lat="45.36792" lon="0.51534">
        <ele>140</ele>
        <time>2025-04-16T08:49:23Z</time>
      </trkpt>
      <trkpt lat="45.36724" lon="0.51615">
        <ele>137</ele>
        <time>2025-04-16T08:49:39Z</time>
      </trkpt>
      <trkpt lat="45.36659" lon="0.51698">
        <ele>129</ele>
        <time>2025-04-16T08:49:54Z</time>
      </trkpt>
      <trkpt lat="45.36609" lon="0.5176">
        <ele>128</ele>
        <time>2025-04-16T08:50:06Z</time>
      </trkpt>
      <trkpt lat="45.36589" lon="0.51779">
        <ele>129</ele>
        <time>2025-04-16T08:50:10Z</time>
      </trkpt>
      <trkpt lat="45.36582" lon="0.51785">
        <ele>130</ele>
        <time>2025-04-16T08:50:12Z</time>
      </trkpt>
      <trkpt lat="45.36539" lon="0.51796">
        <ele>133</ele>
        <time>2025-04-16T08:50:19Z</time>
      </trkpt>
      <trkpt lat="45.36489" lon="0.51799">
        <ele>135</ele>
        <time>2025-04-16T08:50:28Z</time>
      </trkpt>
      <trkpt lat="45.36421" lon="0.51799">
        <ele>133</ele>
        <time>2025-04-16T08:50:40Z</time>
      </trkpt>
      <trkpt lat="45.36378" lon="0.51807">
        <ele>132</ele>
        <time>2025-04-16T08:50:48Z</time>
      </trkpt>
      <trkpt lat="45.36317" lon="0.51837">
        <ele>131</ele>
        <time>2025-04-16T08:51:00Z</time>
      </trkpt>
      <trkpt lat="45.36245" lon="0.51888">
        <ele>130</ele>
        <time>2025-04-16T08:51:14Z</time>
      </trkpt>
      <trkpt lat="45.36197" lon="0.51914">
        <ele>126</ele>
        <time>2025-04-16T08:51:23Z</time>
      </trkpt>
      <trkpt lat="45.36076" lon="0.51949">
        <ele>128</ele>
        <time>2025-04-16T08:51:45Z</time>
      </trkpt>
      <trkpt lat="45.35998" lon="0.51957">
        <ele>128</ele>
        <time>2025-04-16T08:51:59Z</time>
      </trkpt>
      <trkpt lat="45.35786" lon="0.52017">
        <ele>123</ele>
        <time>2025-04-16T08:52:37Z</time>
      </trkpt>
      <trkpt lat="45.35666" lon="0.5206">
        <ele>125</ele>
        <time>2025-04-16T08:52:59Z</time>
      </trkpt>
      <trkpt lat="45.35556" lon="0.52094">
        <ele>124</ele>
        <time>2025-04-16T08:53:19Z</time>
      </trkpt>
      <trkpt lat="45.35511" lon="0.52138">
        <ele>125</ele>
        <time>2025-04-16T08:53:29Z</time>
      </trkpt>
      <trkpt lat="45.35457" lon="0.52206">
        <ele>127</ele>
        <time>2025-04-16T08:53:42Z</time>
      </trkpt>
      <trkpt lat="45.35438" lon="0.52238">
        <ele>128</ele>
        <time>2025-04-16T08:53:47Z</time>
      </trkpt>
      <trkpt lat="45.35396" lon="0.5232">
        <ele>132</ele>
        <time>2025-04-16T08:54:00Z</time>
      </trkpt>
      <trkpt lat="45.35385" lon="0.52349">
        <ele>133</ele>
        <time>2025-04-16T08:54:04Z</time>
      </trkpt>
      <trkpt lat="45.35382" lon="0.52393">
        <ele>135</ele>
        <time>2025-04-16T08:54:10Z</time>
      </trkpt>
      <trkpt lat="45.35386" lon="0.52461">
        <ele>137</ele>
        <time>2025-04-16T08:54:18Z</time>
      </trkpt>
      <trkpt lat="45.35368" lon="0.52531">
        <ele>140</ele>
        <time>2025-04-16T08:54:27Z</time>
      </trkpt>
      <trkpt lat="45.3533" lon="0.52586">
        <ele>142</ele>
        <time>2025-04-16T08:54:37Z</time>
      </trkpt>
      <trkpt lat="45.3528" lon="0.52622">
        <ele>146</ele>
        <time>2025-04-16T08:54:47Z</time>
      </trkpt>
      <trkpt lat="45.35225" lon="0.52654">
        <ele>148</ele>
        <time>2025-04-16T08:54:58Z</time>
      </trkpt>
      <trkpt lat="45.35192" lon="0.52695">
        <ele>150</ele>
        <time>2025-04-16T08:55:05Z</time>
      </trkpt>
      <trkpt lat="45.3506" lon="0.52877">
        <ele>149</ele>
        <time>2025-04-16T08:55:38Z</time>
      </trkpt>
      <trkpt lat="45.35013" lon="0.52925">
        <ele>147</ele>
        <time>2025-04-16T08:55:48Z</time>
      </trkpt>
      <trkpt lat="45.34853" lon="0.53053">
        <ele>137</ele>
        <time>2025-04-16T08:56:21Z</time>
      </trkpt>
      <trkpt lat="45.34818" lon="0.53083">
        <ele>134</ele>
        <time>2025-04-16T08:56:28Z</time>
      </trkpt>
      <trkpt lat="45.34802" lon="0.53107">
        <ele>133</ele>
        <time>2025-04-16T08:56:32Z</time>
      </trkpt>
      <trkpt lat="45.34793" lon="0.53138">
        <ele>132</ele>
        <time>2025-04-16T08:56:37Z</time>
      </trkpt>
      <trkpt lat="45.34795" lon="0.53177">
        <ele>131</ele>
        <time>2025-04-16T08:56:42Z</time>
      </trkpt>
      <trkpt lat="45.34842" lon="0.53513">
        <ele>136</ele>
        <time>2025-04-16T08:57:24Z</time>
      </trkpt>
      <trkpt lat="45.34844" lon="0.53577">
        <ele>138</ele>
        <time>2025-04-16T08:57:32Z</time>
      </trkpt>
      <trkpt lat="45.34834" lon="0.53641">
        <ele>138</ele>
        <time>2025-04-16T08:57:41Z</time>
      </trkpt>
      <trkpt lat="45.3482" lon="0.53693">
        <ele>140</ele>
        <time>2025-04-16T08:57:48Z</time>
      </trkpt>
      <trkpt lat="45.34795" lon="0.53743">
        <ele>143</ele>
        <time>2025-04-16T08:57:55Z</time>
      </trkpt>
      <trkpt lat="45.34758" lon="0.5379">
        <ele>145</ele>
        <time>2025-04-16T08:58:04Z</time>
      </trkpt>
      <trkpt lat="45.34744" lon="0.53803">
        <ele>146</ele>
        <time>2025-04-16T08:58:07Z</time>
      </trkpt>
      <trkpt lat="45.34712" lon="0.5384">
        <ele>147</ele>
        <time>2025-04-16T08:58:14Z</time>
      </trkpt>
      <trkpt lat="45.34692" lon="0.53859">
        <ele>147</ele>
        <time>2025-04-16T08:58:19Z</time>
      </trkpt>
      <trkpt lat="45.34709" lon="0.53884">
        <ele>148</ele>
        <time>2025-04-16T08:58:23Z</time>
      </trkpt>
      <trkpt lat="45.34815" lon="0.53966">
        <ele>150</ele>
        <time>2025-04-16T08:58:44Z</time>
      </trkpt>
      <trkpt lat="45.34812" lon="0.53981">
        <ele>150</ele>
        <time>2025-04-16T08:58:46Z</time>
      </trkpt>
      <trkpt lat="45.34811" lon="0.54001">
        <ele>150</ele>
        <time>2025-04-16T08:58:49Z</time>
      </trkpt>
      <trkpt lat="45.34815" lon="0.54196">
        <ele>151</ele>
        <time>2025-04-16T08:59:13Z</time>
      </trkpt>
      <trkpt lat="45.34817" lon="0.54226">
        <ele>152</ele>
        <time>2025-04-16T08:59:17Z</time>
      </trkpt>
      <trkpt lat="45.34822" lon="0.54248">
        <ele>152</ele>
        <time>2025-04-16T08:59:20Z</time>
      </trkpt>
      <trkpt lat="45.34829" lon="0.5427">
        <ele>153</ele>
        <time>2025-04-16T08:59:23Z</time>
      </trkpt>
      <trkpt lat="45.34892" lon="0.54401">
        <ele>161</ele>
        <time>2025-04-16T08:59:43Z</time>
      </trkpt>
      <trkpt lat="45.34909" lon="0.54458">
        <ele>158</ele>
        <time>2025-04-16T08:59:51Z</time>
      </trkpt>
      <trkpt lat="45.34918" lon="0.54482">
        <ele>157</ele>
        <time>2025-04-16T08:59:54Z</time>
      </trkpt>
      <trkpt lat="45.34943" lon="0.54517">
        <ele>154</ele>
        <time>2025-04-16T09:00:00Z</time>
      </trkpt>
      <trkpt lat="45.3496" lon="0.54534">
        <ele>152</ele>
        <time>2025-04-16T09:00:04Z</time>
      </trkpt>
      <trkpt lat="45.34976" lon="0.54544">
        <ele>151</ele>
        <time>2025-04-16T09:00:07Z</time>
      </trkpt>
      <trkpt lat="45.35013" lon="0.54557">
        <ele>149</ele>
        <time>2025-04-16T09:00:14Z</time>
      </trkpt>
      <trkpt lat="45.35034" lon="0.54566">
        <ele>146</ele>
        <time>2025-04-16T09:00:18Z</time>
      </trkpt>
      <trkpt lat="45.3506" lon="0.54585">
        <ele>143</ele>
        <time>2025-04-16T09:00:23Z</time>
      </trkpt>
      <trkpt lat="45.35079" lon="0.54604">
        <ele>141</ele>
        <time>2025-04-16T09:00:27Z</time>
      </trkpt>
      <trkpt lat="45.35102" lon="0.54633">
        <ele>139</ele>
        <time>2025-04-16T09:00:33Z</time>
      </trkpt>
      <trkpt lat="45.35111" lon="0.5465">
        <ele>138</ele>
        <time>2025-04-16T09:00:35Z</time>
      </trkpt>
      <trkpt lat="45.35118" lon="0.54666">
        <ele>137</ele>
        <time>2025-04-16T09:00:38Z</time>
      </trkpt>
      <trkpt lat="45.35121" lon="0.54686">
        <ele>136</ele>
        <time>2025-04-16T09:00:40Z</time>
      </trkpt>
      <trkpt lat="45.35129" lon="0.54779">
        <ele>133</ele>
        <time>2025-04-16T09:00:52Z</time>
      </trkpt>
      <trkpt lat="45.35149" lon="0.54847">
        <ele>130</ele>
        <time>2025-04-16T09:01:01Z</time>
      </trkpt>
      <trkpt lat="45.35155" lon="0.5488">
        <ele>129</ele>
        <time>2025-04-16T09:01:05Z</time>
      </trkpt>
      <trkpt lat="45.35163" lon="0.55024">
        <ele>124</ele>
        <time>2025-04-16T09:01:23Z</time>
      </trkpt>
      <trkpt lat="45.35176" lon="0.55198">
        <ele>117</ele>
        <time>2025-04-16T09:01:45Z</time>
      </trkpt>
      <trkpt lat="45.35197" lon="0.55211">
        <ele>117</ele>
        <time>2025-04-16T09:01:49Z</time>
      </trkpt>
      <trkpt lat="45.35213" lon="0.55224">
        <ele>117</ele>
        <time>2025-04-16T09:01:53Z</time>
      </trkpt>
      <trkpt lat="45.35233" lon="0.55236">
        <ele>117</ele>
        <time>2025-04-16T09:01:56Z</time>
      </trkpt>
      <trkpt lat="45.35243" lon="0.55246">
        <ele>116</ele>
        <time>2025-04-16T09:01:59Z</time>
      </trkpt>
      <trkpt lat="45.35244" lon="0.55269">
        <ele>115</ele>
        <time>2025-04-16T09:02:02Z</time>
      </trkpt>
      <trkpt lat="45.35257" lon="0.55273">
        <ele>115</ele>
        <time>2025-04-16T09:02:04Z</time>
      </trkpt>
      <trkpt lat="45.35274" lon="0.55291">
        <ele>113</ele>
        <time>2025-04-16T09:02:08Z</time>
      </trkpt>
      <trkpt lat="45.35281" lon="0.55306">
        <ele>112</ele>
        <time>2025-04-16T09:02:10Z</time>
      </trkpt>
      <trkpt lat="45.35267" lon="0.55355">
        <ele>109</ele>
        <time>2025-04-16T09:02:17Z</time>
      </trkpt>
      <trkpt lat="45.35263" lon="0.55387">
        <ele>107</ele>
        <time>2025-04-16T09:02:21Z</time>
      </trkpt>
      <trkpt lat="45.35346" lon="0.55528">
        <ele>104</ele>
        <time>2025-04-16T09:02:44Z</time>
      </trkpt>
      <trkpt lat="45.3537" lon="0.55572">
        <ele>105</ele>
        <time>2025-04-16T09:02:51Z</time>
      </trkpt>
      <trkpt lat="45.35392" lon="0.55605">
        <ele>106</ele>
        <time>2025-04-16T09:02:56Z</time>
      </trkpt>
      <trkpt lat="45.35405" lon="0.55619">
        <ele>106</ele>
        <time>2025-04-16T09:02:59Z</time>
      </trkpt>
      <trkpt lat="45.35609" lon="0.55795">
        <ele>109</ele>
        <time>2025-04-16T09:03:42Z</time>
      </trkpt>
      <trkpt lat="45.35661" lon="0.55831">
        <ele>107</ele>
        <time>2025-04-16T09:03:52Z</time>
      </trkpt>
      <trkpt lat="45.35767" lon="0.55879">
        <ele>113</ele>
        <time>2025-04-16T09:04:12Z</time>
      </trkpt>
      <trkpt lat="45.35782" lon="0.5589">
        <ele>111</ele>
        <time>2025-04-16T09:04:15Z</time>
      </trkpt>
      <trkpt lat="45.35796" lon="0.55923">
        <ele>107</ele>
        <time>2025-04-16T09:04:19Z</time>
      </trkpt>
      <trkpt lat="45.35798" lon="0.55941">
        <ele>106</ele>
        <time>2025-04-16T09:04:22Z</time>
      </trkpt>
      <trkpt lat="45.35807" lon="0.56016">
        <ele>105</ele>
        <time>2025-04-16T09:04:31Z</time>
      </trkpt>
      <trkpt lat="45.35837" lon="0.56234">
        <ele>115</ele>
        <time>2025-04-16T09:04:59Z</time>
      </trkpt>
      <trkpt lat="45.3584" lon="0.5631">
        <ele>121</ele>
        <time>2025-04-16T09:05:09Z</time>
      </trkpt>
      <trkpt lat="45.35827" lon="0.56414">
        <ele>126</ele>
        <time>2025-04-16T09:05:22Z</time>
      </trkpt>
      <trkpt lat="45.35827" lon="0.56469">
        <ele>126</ele>
        <time>2025-04-16T09:05:29Z</time>
      </trkpt>
      <trkpt lat="45.35835" lon="0.5652">
        <ele>125</ele>
        <time>2025-04-16T09:05:35Z</time>
      </trkpt>
      <trkpt lat="45.35835" lon="0.56562">
        <ele>123</ele>
        <time>2025-04-16T09:05:40Z</time>
      </trkpt>
      <trkpt lat="45.35824" lon="0.56617">
        <ele>124</ele>
        <time>2025-04-16T09:05:48Z</time>
      </trkpt>
      <trkpt lat="45.35796" lon="0.56701">
        <ele>129</ele>
        <time>2025-04-16T09:05:59Z</time>
      </trkpt>
      <trkpt lat="45.3576" lon="0.5676">
        <ele>131</ele>
        <time>2025-04-16T09:06:09Z</time>
      </trkpt>
      <trkpt lat="45.35739" lon="0.56817">
        <ele>131</ele>
        <time>2025-04-16T09:06:17Z</time>
      </trkpt>
      <trkpt lat="45.35744" lon="0.56873">
        <ele>131</ele>
        <time>2025-04-16T09:06:24Z</time>
      </trkpt>
      <trkpt lat="45.35745" lon="0.56936">
        <ele>133</ele>
        <time>2025-04-16T09:06:32Z</time>
      </trkpt>
      <trkpt lat="45.35737" lon="0.5701">
        <ele>138</ele>
        <time>2025-04-16T09:06:41Z</time>
      </trkpt>
      <trkpt lat="45.35735" lon="0.57048">
        <ele>139</ele>
        <time>2025-04-16T09:06:46Z</time>
      </trkpt>
      <trkpt lat="45.35746" lon="0.57142">
        <ele>138</ele>
        <time>2025-04-16T09:06:58Z</time>
      </trkpt>
      <trkpt lat="45.35736" lon="0.57223">
        <ele>140</ele>
        <time>2025-04-16T09:07:08Z</time>
      </trkpt>
      <trkpt lat="45.35745" lon="0.5728">
        <ele>140</ele>
        <time>2025-04-16T09:07:16Z</time>
      </trkpt>
      <trkpt lat="45.35751" lon="0.57335">
        <ele>142</ele>
        <time>2025-04-16T09:07:23Z</time>
      </trkpt>
      <trkpt lat="45.35743" lon="0.57407">
        <ele>144</ele>
        <time>2025-04-16T09:07:32Z</time>
      </trkpt>
      <trkpt lat="45.35751" lon="0.57473">
        <ele>143</ele>
        <time>2025-04-16T09:07:40Z</time>
      </trkpt>
      <trkpt lat="45.35769" lon="0.5753">
        <ele>144</ele>
        <time>2025-04-16T09:07:48Z</time>
      </trkpt>
      <trkpt lat="45.35801" lon="0.57546">
        <ele>146</ele>
        <time>2025-04-16T09:07:54Z</time>
      </trkpt>
      <trkpt lat="45.35834" lon="0.57553">
        <ele>147</ele>
        <time>2025-04-16T09:08:00Z</time>
      </trkpt>
      <trkpt lat="45.35862" lon="0.57583">
        <ele>147</ele>
        <time>2025-04-16T09:08:06Z</time>
      </trkpt>
      <trkpt lat="45.35882" lon="0.57634">
        <ele>150</ele>
        <time>2025-04-16T09:08:13Z</time>
      </trkpt>
      <trkpt lat="45.35968" lon="0.57667">
        <ele>152</ele>
        <time>2025-04-16T09:08:29Z</time>
      </trkpt>
      <trkpt lat="45.35999" lon="0.57697">
        <ele>153</ele>
        <time>2025-04-16T09:08:36Z</time>
      </trkpt>
      <trkpt lat="45.36019" lon="0.57732">
        <ele>155</ele>
        <time>2025-04-16T09:08:42Z</time>
      </trkpt>
      <trkpt lat="45.36043" lon="0.57793">
        <ele>157</ele>
        <time>2025-04-16T09:08:50Z</time>
      </trkpt>
      <trkpt lat="45.36103" lon="0.58004">
        <ele>159</ele>
        <time>2025-04-16T09:09:19Z</time>
      </trkpt>
      <trkpt lat="45.36128" lon="0.58107">
        <ele>161</ele>
        <time>2025-04-16T09:09:32Z</time>
      </trkpt>
      <trkpt lat="45.3613" lon="0.58156">
        <ele>163</ele>
        <time>2025-04-16T09:09:38Z</time>
      </trkpt>
      <trkpt lat="45.36081" lon="0.58561">
        <ele>169</ele>
        <time>2025-04-16T09:10:30Z</time>
      </trkpt>
      <trkpt lat="45.36048" lon="0.58552">
        <ele>169</ele>
        <time>2025-04-16T09:10:36Z</time>
      </trkpt>
      <trkpt lat="45.36026" lon="0.58547">
        <ele>170</ele>
        <time>2025-04-16T09:10:40Z</time>
      </trkpt>
      <trkpt lat="45.36001" lon="0.58547">
        <ele>170</ele>
        <time>2025-04-16T09:10:44Z</time>
      </trkpt>
      <trkpt lat="45.36026" lon="0.58547">
        <ele>170</ele>
        <time>2025-04-16T09:10:49Z</time>
      </trkpt>
      <trkpt lat="45.36048" lon="0.58552">
        <ele>169</ele>
        <time>2025-04-16T09:10:53Z</time>
      </trkpt>
      <trkpt lat="45.36081" lon="0.58561">
        <ele>169</ele>
        <time>2025-04-16T09:10:59Z</time>
      </trkpt>
      <trkpt lat="45.36011" lon="0.58873">
        <ele>177</ele>
        <time>2025-04-16T09:11:40Z</time>
      </trkpt>
      <trkpt lat="45.3601" lon="0.58894">
        <ele>178</ele>
        <time>2025-04-16T09:11:42Z</time>
      </trkpt>
      <trkpt lat="45.36002" lon="0.58899">
        <ele>178</ele>
        <time>2025-04-16T09:11:44Z</time>
      </trkpt>
      <trkpt lat="45.3597" lon="0.58907">
        <ele>177</ele>
        <time>2025-04-16T09:11:50Z</time>
      </trkpt>
      <trkpt lat="45.35962" lon="0.58913">
        <ele>177</ele>
        <time>2025-04-16T09:11:51Z</time>
      </trkpt>
      <trkpt lat="45.35957" lon="0.58919">
        <ele>177</ele>
        <time>2025-04-16T09:11:52Z</time>
      </trkpt>
      <trkpt lat="45.35955" lon="0.58927">
        <ele>177</ele>
        <time>2025-04-16T09:11:53Z</time>
      </trkpt>
      <trkpt lat="45.35944" lon="0.59016">
        <ele>177</ele>
        <time>2025-04-16T09:12:05Z</time>
      </trkpt>
      <trkpt lat="45.3594" lon="0.59038">
        <ele>177</ele>
        <time>2025-04-16T09:12:08Z</time>
      </trkpt>
      <trkpt lat="45.35934" lon="0.59057">
        <ele>177</ele>
        <time>2025-04-16T09:12:10Z</time>
      </trkpt>
      <trkpt lat="45.3592" lon="0.59086">
        <ele>177</ele>
        <time>2025-04-16T09:12:15Z</time>
      </trkpt>
      <trkpt lat="45.35843" lon="0.59219">
        <ele>175</ele>
        <time>2025-04-16T09:12:36Z</time>
      </trkpt>
      <trkpt lat="45.35774" lon="0.59289">
        <ele>177</ele>
        <time>2025-04-16T09:12:51Z</time>
      </trkpt>
      <trkpt lat="45.35711" lon="0.59391">
        <ele>178</ele>
        <time>2025-04-16T09:13:08Z</time>
      </trkpt>
      <trkpt lat="45.35681" lon="0.59438">
        <ele>178</ele>
        <time>2025-04-16T09:13:16Z</time>
      </trkpt>
      <trkpt lat="45.35659" lon="0.5946">
        <ele>178</ele>
        <time>2025-04-16T09:13:21Z</time>
      </trkpt>
      <trkpt lat="45.3563" lon="0.59484">
        <ele>178</ele>
        <time>2025-04-16T09:13:27Z</time>
      </trkpt>
      <trkpt lat="45.35606" lon="0.59514">
        <ele>179</ele>
        <time>2025-04-16T09:13:33Z</time>
      </trkpt>
      <trkpt lat="45.35522" lon="0.59652">
        <ele>177</ele>
        <time>2025-04-16T09:13:55Z</time>
      </trkpt>
      <trkpt lat="45.35497" lon="0.59678">
        <ele>177</ele>
        <time>2025-04-16T09:14:01Z</time>
      </trkpt>
      <trkpt lat="45.35438" lon="0.59721">
        <ele>176</ele>
        <time>2025-04-16T09:14:13Z</time>
      </trkpt>
      <trkpt lat="45.35242" lon="0.59864">
        <ele>177</ele>
        <time>2025-04-16T09:14:52Z</time>
      </trkpt>
      <trkpt lat="45.35192" lon="0.59891">
        <ele>176</ele>
        <time>2025-04-16T09:15:01Z</time>
      </trkpt>
      <trkpt lat="45.35144" lon="0.59909">
        <ele>176</ele>
        <time>2025-04-16T09:15:10Z</time>
      </trkpt>
      <trkpt lat="45.3511" lon="0.59907">
        <ele>177</ele>
        <time>2025-04-16T09:15:16Z</time>
      </trkpt>
      <trkpt lat="45.348" lon="0.59722">
        <ele>177</ele>
        <time>2025-04-16T09:16:16Z</time>
      </trkpt>
      <trkpt lat="45.34772" lon="0.59711">
        <ele>177</ele>
        <time>2025-04-16T09:16:21Z</time>
      </trkpt>
      <trkpt lat="45.34677" lon="0.59716">
        <ele>175</ele>
        <time>2025-04-16T09:16:38Z</time>
      </trkpt>
      <trkpt lat="45.34671" lon="0.59716">
        <ele>175</ele>
        <time>2025-04-16T09:16:39Z</time>
      </trkpt>
      <trkpt lat="45.34641" lon="0.59717">
        <ele>174</ele>
        <time>2025-04-16T09:16:45Z</time>
      </trkpt>
      <trkpt lat="45.34564" lon="0.59725">
        <ele>172</ele>
        <time>2025-04-16T09:16:58Z</time>
      </trkpt>
      <trkpt lat="45.34549" lon="0.59728">
        <ele>172</ele>
        <time>2025-04-16T09:17:01Z</time>
      </trkpt>
      <trkpt lat="45.34528" lon="0.59757">
        <ele>170</ele>
        <time>2025-04-16T09:17:06Z</time>
      </trkpt>
      <trkpt lat="45.34514" lon="0.59785">
        <ele>168</ele>
        <time>2025-04-16T09:17:10Z</time>
      </trkpt>
      <trkpt lat="45.34503" lon="0.59821">
        <ele>167</ele>
        <time>2025-04-16T09:17:15Z</time>
      </trkpt>
      <trkpt lat="45.34496" lon="0.59852">
        <ele>166</ele>
        <time>2025-04-16T09:17:19Z</time>
      </trkpt>
      <trkpt lat="45.34484" lon="0.59879">
        <ele>165</ele>
        <time>2025-04-16T09:17:23Z</time>
      </trkpt>
      <trkpt lat="45.34466" lon="0.59893">
        <ele>164</ele>
        <time>2025-04-16T09:17:27Z</time>
      </trkpt>
      <trkpt lat="45.34451" lon="0.59898">
        <ele>164</ele>
        <time>2025-04-16T09:17:30Z</time>
      </trkpt>
      <trkpt lat="45.34429" lon="0.59902">
        <ele>163</ele>
        <time>2025-04-16T09:17:34Z</time>
      </trkpt>
      <trkpt lat="45.34355" lon="0.59875">
        <ele>160</ele>
        <time>2025-04-16T09:17:47Z</time>
      </trkpt>
      <trkpt lat="45.34257" lon="0.59833">
        <ele>158</ele>
        <time>2025-04-16T09:18:06Z</time>
      </trkpt>
      <trkpt lat="45.34239" lon="0.59815">
        <ele>158</ele>
        <time>2025-04-16T09:18:09Z</time>
      </trkpt>
      <trkpt lat="45.34219" lon="0.59784">
        <ele>158</ele>
        <time>2025-04-16T09:18:15Z</time>
      </trkpt>
      <trkpt lat="45.34176" lon="0.59659">
        <ele>152</ele>
        <time>2025-04-16T09:18:32Z</time>
      </trkpt>
      <trkpt lat="45.34144" lon="0.59614">
        <ele>150</ele>
        <time>2025-04-16T09:18:40Z</time>
      </trkpt>
      <trkpt lat="45.34087" lon="0.59556">
        <ele>148</ele>
        <time>2025-04-16T09:18:53Z</time>
      </trkpt>
      <trkpt lat="45.34059" lon="0.59537">
        <ele>147</ele>
        <time>2025-04-16T09:18:58Z</time>
      </trkpt>
      <trkpt lat="45.34012" lon="0.5951">
        <ele>143</ele>
        <time>2025-04-16T09:19:07Z</time>
      </trkpt>
      <trkpt lat="45.33985" lon="0.59505">
        <ele>141</ele>
        <time>2025-04-16T09:19:12Z</time>
      </trkpt>
      <trkpt lat="45.33862" lon="0.59515">
        <ele>137</ele>
        <time>2025-04-16T09:19:34Z</time>
      </trkpt>
      <trkpt lat="45.33832" lon="0.59509">
        <ele>135</ele>
        <time>2025-04-16T09:19:39Z</time>
      </trkpt>
      <trkpt lat="45.33813" lon="0.59497">
        <ele>134</ele>
        <time>2025-04-16T09:19:43Z</time>
      </trkpt>
      <trkpt lat="45.33788" lon="0.59486">
        <ele>134</ele>
        <time>2025-04-16T09:19:48Z</time>
      </trkpt>
      <trkpt lat="45.33745" lon="0.59458">
        <ele>133</ele>
        <time>2025-04-16T09:19:56Z</time>
      </trkpt>
      <trkpt lat="45.33713" lon="0.59416">
        <ele>129</ele>
        <time>2025-04-16T09:20:04Z</time>
      </trkpt>
      <trkpt lat="45.337" lon="0.59403">
        <ele>130</ele>
        <time>2025-04-16T09:20:07Z</time>
      </trkpt>
      <trkpt lat="45.33684" lon="0.59392">
        <ele>129</ele>
        <time>2025-04-16T09:20:10Z</time>
      </trkpt>
      <trkpt lat="45.33664" lon="0.59386">
        <ele>128</ele>
        <time>2025-04-16T09:20:13Z</time>
      </trkpt>
      <trkpt lat="45.33535" lon="0.59379">
        <ele>120</ele>
        <time>2025-04-16T09:20:36Z</time>
      </trkpt>
      <trkpt lat="45.33497" lon="0.59375">
        <ele>116</ele>
        <time>2025-04-16T09:20:43Z</time>
      </trkpt>
      <trkpt lat="45.33475" lon="0.59364">
        <ele>112</ele>
        <time>2025-04-16T09:20:47Z</time>
      </trkpt>
      <trkpt lat="45.33443" lon="0.59339">
        <ele>106</ele>
        <time>2025-04-16T09:20:54Z</time>
      </trkpt>
      <trkpt lat="45.33438" lon="0.59307">
        <ele>109</ele>
        <time>2025-04-16T09:20:58Z</time>
      </trkpt>
      <trkpt lat="45.33427" lon="0.59275">
        <ele>112</ele>
        <time>2025-04-16T09:21:02Z</time>
      </trkpt>
      <trkpt lat="45.33385" lon="0.59196">
        <ele>121</ele>
        <time>2025-04-16T09:21:15Z</time>
      </trkpt>
      <trkpt lat="45.3332" lon="0.59144">
        <ele>121</ele>
        <time>2025-04-16T09:21:28Z</time>
      </trkpt>
      <trkpt lat="45.33293" lon="0.59134">
        <ele>120</ele>
        <time>2025-04-16T09:21:33Z</time>
      </trkpt>
      <trkpt lat="45.33268" lon="0.59124">
        <ele>119</ele>
        <time>2025-04-16T09:21:38Z</time>
      </trkpt>
      <trkpt lat="45.33238" lon="0.5912">
        <ele>117</ele>
        <time>2025-04-16T09:21:43Z</time>
      </trkpt>
      <trkpt lat="45.33107" lon="0.59127">
        <ele>106</ele>
        <time>2025-04-16T09:22:06Z</time>
      </trkpt>
      <trkpt lat="45.33081" lon="0.59121">
        <ele>106</ele>
        <time>2025-04-16T09:22:11Z</time>
      </trkpt>
      <trkpt lat="45.33056" lon="0.59102">
        <ele>107</ele>
        <time>2025-04-16T09:22:16Z</time>
      </trkpt>
      <trkpt lat="45.33023" lon="0.59064">
        <ele>109</ele>
        <time>2025-04-16T09:22:24Z</time>
      </trkpt>
      <trkpt lat="45.32991" lon="0.59041">
        <ele>110</ele>
        <time>2025-04-16T09:22:30Z</time>
      </trkpt>
      <trkpt lat="45.32895" lon="0.58992">
        <ele>104</ele>
        <time>2025-04-16T09:22:48Z</time>
      </trkpt>
      <trkpt lat="45.32863" lon="0.58966">
        <ele>101</ele>
        <time>2025-04-16T09:22:55Z</time>
      </trkpt>
      <trkpt lat="45.3284" lon="0.58958">
        <ele>98</ele>
        <time>2025-04-16T09:22:59Z</time>
      </trkpt>
      <trkpt lat="45.32809" lon="0.58962">
        <ele>98</ele>
        <time>2025-04-16T09:23:04Z</time>
      </trkpt>
      <trkpt lat="45.3278" lon="0.58969">
        <ele>98</ele>
        <time>2025-04-16T09:23:10Z</time>
      </trkpt>
      <trkpt lat="45.32751" lon="0.58968">
        <ele>98</ele>
        <time>2025-04-16T09:23:15Z</time>
      </trkpt>
      <trkpt lat="45.32712" lon="0.58961">
        <ele>98</ele>
        <time>2025-04-16T09:23:22Z</time>
      </trkpt>
      <trkpt lat="45.32674" lon="0.58964">
        <ele>97</ele>
        <time>2025-04-16T09:23:29Z</time>
      </trkpt>
      <trkpt lat="45.32636" lon="0.58973">
        <ele>96</ele>
        <time>2025-04-16T09:23:35Z</time>
      </trkpt>
      <trkpt lat="45.32566" lon="0.58977">
        <ele>93</ele>
        <time>2025-04-16T09:23:48Z</time>
      </trkpt>
      <trkpt lat="45.3253" lon="0.5897">
        <ele>93</ele>
        <time>2025-04-16T09:23:54Z</time>
      </trkpt>
      <trkpt lat="45.32504" lon="0.58951">
        <ele>93</ele>
        <time>2025-04-16T09:24:00Z</time>
      </trkpt>
      <trkpt lat="45.32479" lon="0.58913">
        <ele>92</ele>
        <time>2025-04-16T09:24:06Z</time>
      </trkpt>
      <trkpt lat="45.3246" lon="0.58871">
        <ele>92</ele>
        <time>2025-04-16T09:24:12Z</time>
      </trkpt>
      <trkpt lat="45.32441" lon="0.58806">
        <ele>92</ele>
        <time>2025-04-16T09:24:21Z</time>
      </trkpt>
      <trkpt lat="45.32432" lon="0.58753">
        <ele>94</ele>
        <time>2025-04-16T09:24:28Z</time>
      </trkpt>
      <trkpt lat="45.32424" lon="0.58626">
        <ele>95</ele>
        <time>2025-04-16T09:24:44Z</time>
      </trkpt>
      <trkpt lat="45.32434" lon="0.58503">
        <ele>94</ele>
        <time>2025-04-16T09:24:59Z</time>
      </trkpt>
      <trkpt lat="45.32435" lon="0.5845">
        <ele>94</ele>
        <time>2025-04-16T09:25:06Z</time>
      </trkpt>
      <trkpt lat="45.32416" lon="0.58292">
        <ele>94</ele>
        <time>2025-04-16T09:25:26Z</time>
      </trkpt>
      <trkpt lat="45.32421" lon="0.58219">
        <ele>96</ele>
        <time>2025-04-16T09:25:35Z</time>
      </trkpt>
      <trkpt lat="45.32431" lon="0.5818">
        <ele>98</ele>
        <time>2025-04-16T09:25:41Z</time>
      </trkpt>
      <trkpt lat="45.32443" lon="0.58158">
        <ele>99</ele>
        <time>2025-04-16T09:25:44Z</time>
      </trkpt>
      <trkpt lat="45.32448" lon="0.58145">
        <ele>99</ele>
        <time>2025-04-16T09:25:46Z</time>
      </trkpt>
      <trkpt lat="45.32452" lon="0.58119">
        <ele>100</ele>
        <time>2025-04-16T09:25:49Z</time>
      </trkpt>
      <trkpt lat="45.32459" lon="0.57884">
        <ele>96</ele>
        <time>2025-04-16T09:26:19Z</time>
      </trkpt>
      <trkpt lat="45.32458" lon="0.57807">
        <ele>95</ele>
        <time>2025-04-16T09:26:28Z</time>
      </trkpt>
      <trkpt lat="45.3246" lon="0.5777">
        <ele>94</ele>
        <time>2025-04-16T09:26:33Z</time>
      </trkpt>
      <trkpt lat="45.32464" lon="0.57732">
        <ele>94</ele>
        <time>2025-04-16T09:26:38Z</time>
      </trkpt>
      <trkpt lat="45.32494" lon="0.57579">
        <ele>97</ele>
        <time>2025-04-16T09:26:58Z</time>
      </trkpt>
      <trkpt lat="45.32498" lon="0.57548">
        <ele>97</ele>
        <time>2025-04-16T09:27:01Z</time>
      </trkpt>
      <trkpt lat="45.325" lon="0.57499">
        <ele>98</ele>
        <time>2025-04-16T09:27:08Z</time>
      </trkpt>
      <trkpt lat="45.32494" lon="0.57324">
        <ele>99</ele>
        <time>2025-04-16T09:27:30Z</time>
      </trkpt>
      <trkpt lat="45.3247" lon="0.57056">
        <ele>100</ele>
        <time>2025-04-16T09:28:03Z</time>
      </trkpt>
      <trkpt lat="45.32462" lon="0.5701">
        <ele>100</ele>
        <time>2025-04-16T09:28:09Z</time>
      </trkpt>
      <trkpt lat="45.32444" lon="0.56948">
        <ele>102</ele>
        <time>2025-04-16T09:28:18Z</time>
      </trkpt>
      <trkpt lat="45.32421" lon="0.56883">
        <ele>103</ele>
        <time>2025-04-16T09:28:27Z</time>
      </trkpt>
      <trkpt lat="45.32352" lon="0.56705">
        <ele>106</ele>
        <time>2025-04-16T09:28:52Z</time>
      </trkpt>
      <trkpt lat="45.3231" lon="0.56646">
        <ele>108</ele>
        <time>2025-04-16T09:29:03Z</time>
      </trkpt>
      <trkpt lat="45.3216" lon="0.56482">
        <ele>108</ele>
        <time>2025-04-16T09:29:36Z</time>
      </trkpt>
      <trkpt lat="45.32064" lon="0.56336">
        <ele>105</ele>
        <time>2025-04-16T09:30:01Z</time>
      </trkpt>
      <trkpt lat="45.32048" lon="0.56287">
        <ele>102</ele>
        <time>2025-04-16T09:30:08Z</time>
      </trkpt>
      <trkpt lat="45.32044" lon="0.56259">
        <ele>101</ele>
        <time>2025-04-16T09:30:12Z</time>
      </trkpt>
      <trkpt lat="45.32052" lon="0.56239">
        <ele>101</ele>
        <time>2025-04-16T09:30:15Z</time>
      </trkpt>
      <trkpt lat="45.32095" lon="0.56174">
        <ele>105</ele>
        <time>2025-04-16T09:30:26Z</time>
      </trkpt>
      <trkpt lat="45.32111" lon="0.56141">
        <ele>105</ele>
        <time>2025-04-16T09:30:31Z</time>
      </trkpt>
      <trkpt lat="45.32113" lon="0.56105">
        <ele>102</ele>
        <time>2025-04-16T09:30:35Z</time>
      </trkpt>
      <trkpt lat="45.32103" lon="0.56074">
        <ele>98</ele>
        <time>2025-04-16T09:30:40Z</time>
      </trkpt>
      <trkpt lat="45.32086" lon="0.56065">
        <ele>96</ele>
        <time>2025-04-16T09:30:43Z</time>
      </trkpt>
      <trkpt lat="45.32049" lon="0.5607">
        <ele>98</ele>
        <time>2025-04-16T09:30:49Z</time>
      </trkpt>
      <trkpt lat="45.3203" lon="0.56069">
        <ele>99</ele>
        <time>2025-04-16T09:30:53Z</time>
      </trkpt>
      <trkpt lat="45.32008" lon="0.56065">
        <ele>100</ele>
        <time>2025-04-16T09:30:57Z</time>
      </trkpt>
      <trkpt lat="45.31976" lon="0.5605">
        <ele>104</ele>
        <time>2025-04-16T09:31:03Z</time>
      </trkpt>
      <trkpt lat="45.31934" lon="0.56003">
        <ele>110</ele>
        <time>2025-04-16T09:31:12Z</time>
      </trkpt>
      <trkpt lat="45.3189" lon="0.55915">
        <ele>117</ele>
        <time>2025-04-16T09:31:26Z</time>
      </trkpt>
      <trkpt lat="45.31883" lon="0.55892">
        <ele>118</ele>
        <time>2025-04-16T09:31:29Z</time>
      </trkpt>
      <trkpt lat="45.31878" lon="0.55895">
        <ele>118</ele>
        <time>2025-04-16T09:31:30Z</time>
      </trkpt>
      <trkpt lat="45.31864" lon="0.55895">
        <ele>118</ele>
        <time>2025-04-16T09:31:32Z</time>
      </trkpt>
      <trkpt lat="45.31849" lon="0.55901">
        <ele>118</ele>
        <time>2025-04-16T09:31:35Z</time>
      </trkpt>
      <trkpt lat="45.31841" lon="0.55912">
        <ele>118</ele>
        <time>2025-04-16T09:31:37Z</time>
      </trkpt>
      <trkpt lat="45.31822" lon="0.55946">
        <ele>118</ele>
        <time>2025-04-16T09:31:43Z</time>
      </trkpt>
      <trkpt lat="45.31816" lon="0.55955">
        <ele>118</ele>
        <time>2025-04-16T09:31:44Z</time>
      </trkpt>
      <trkpt lat="45.31805" lon="0.55964">
        <ele>119</ele>
        <time>2025-04-16T09:31:46Z</time>
      </trkpt>
      <trkpt lat="45.3179" lon="0.5597">
        <ele>120</ele>
        <time>2025-04-16T09:31:49Z</time>
      </trkpt>
      <trkpt lat="45.31757" lon="0.55967">
        <ele>123</ele>
        <time>2025-04-16T09:31:55Z</time>
      </trkpt>
      <trkpt lat="45.31718" lon="0.55946">
        <ele>125</ele>
        <time>2025-04-16T09:32:02Z</time>
      </trkpt>
      <trkpt lat="45.31633" lon="0.55857">
        <ele>132</ele>
        <time>2025-04-16T09:32:21Z</time>
      </trkpt>
      <trkpt lat="45.3157" lon="0.55848">
        <ele>131</ele>
        <time>2025-04-16T09:32:32Z</time>
      </trkpt>
      <trkpt lat="45.31512" lon="0.55846">
        <ele>131</ele>
        <time>2025-04-16T09:32:43Z</time>
      </trkpt>
      <trkpt lat="45.31457" lon="0.55854">
        <ele>129</ele>
        <time>2025-04-16T09:32:53Z</time>
      </trkpt>
      <trkpt lat="45.31365" lon="0.55889">
        <ele>127</ele>
        <time>2025-04-16T09:33:10Z</time>
      </trkpt>
      <trkpt lat="45.31325" lon="0.55903">
        <ele>126</ele>
        <time>2025-04-16T09:33:17Z</time>
      </trkpt>
      <trkpt lat="45.31284" lon="0.55902">
        <ele>124</ele>
        <time>2025-04-16T09:33:24Z</time>
      </trkpt>
      <trkpt lat="45.31217" lon="0.55859">
        <ele>121</ele>
        <time>2025-04-16T09:33:37Z</time>
      </trkpt>
      <trkpt lat="45.3119" lon="0.5583">
        <ele>121</ele>
        <time>2025-04-16T09:33:43Z</time>
      </trkpt>
      <trkpt lat="45.31137" lon="0.55688">
        <ele>115</ele>
        <time>2025-04-16T09:34:03Z</time>
      </trkpt>
      <trkpt lat="45.31108" lon="0.55642">
        <ele>115</ele>
        <time>2025-04-16T09:34:11Z</time>
      </trkpt>
      <trkpt lat="45.31078" lon="0.55607">
        <ele>116</ele>
        <time>2025-04-16T09:34:18Z</time>
      </trkpt>
      <trkpt lat="45.31051" lon="0.55561">
        <ele>113</ele>
        <time>2025-04-16T09:34:26Z</time>
      </trkpt>
      <trkpt lat="45.31031" lon="0.55508">
        <ele>108</ele>
        <time>2025-04-16T09:34:33Z</time>
      </trkpt>
      <trkpt lat="45.31002" lon="0.55442">
        <ele>105</ele>
        <time>2025-04-16T09:34:43Z</time>
      </trkpt>
      <trkpt lat="45.30961" lon="0.55389">
        <ele>104</ele>
        <time>2025-04-16T09:34:53Z</time>
      </trkpt>
      <trkpt lat="45.30911" lon="0.55328">
        <ele>96</ele>
        <time>2025-04-16T09:35:04Z</time>
      </trkpt>
      <trkpt lat="45.30837" lon="0.55264">
        <ele>91</ele>
        <time>2025-04-16T09:35:20Z</time>
      </trkpt>
      <trkpt lat="45.30814" lon="0.55253">
        <ele>90</ele>
        <time>2025-04-16T09:35:24Z</time>
      </trkpt>
      <trkpt lat="45.30786" lon="0.55245">
        <ele>91</ele>
        <time>2025-04-16T09:35:29Z</time>
      </trkpt>
      <trkpt lat="45.30761" lon="0.55233">
        <ele>91</ele>
        <time>2025-04-16T09:35:34Z</time>
      </trkpt>
      <trkpt lat="45.30745" lon="0.55219">
        <ele>91</ele>
        <time>2025-04-16T09:35:37Z</time>
      </trkpt>
      <trkpt lat="45.30741" lon="0.55206">
        <ele>91</ele>
        <time>2025-04-16T09:35:39Z</time>
      </trkpt>
      <trkpt lat="45.3074" lon="0.55193">
        <ele>91</ele>
        <time>2025-04-16T09:35:41Z</time>
      </trkpt>
      <trkpt lat="45.30767" lon="0.55119">
        <ele>91</ele>
        <time>2025-04-16T09:35:51Z</time>
      </trkpt>
      <trkpt lat="45.30769" lon="0.55107">
        <ele>91</ele>
        <time>2025-04-16T09:35:53Z</time>
      </trkpt>
      <trkpt lat="45.30764" lon="0.55084">
        <ele>91</ele>
        <time>2025-04-16T09:35:56Z</time>
      </trkpt>
      <trkpt lat="45.30745" lon="0.55028">
        <ele>91</ele>
        <time>2025-04-16T09:36:03Z</time>
      </trkpt>
      <trkpt lat="45.30738" lon="0.54993">
        <ele>91</ele>
        <time>2025-04-16T09:36:08Z</time>
      </trkpt>
      <trkpt lat="45.30732" lon="0.54919">
        <ele>92</ele>
        <time>2025-04-16T09:36:17Z</time>
      </trkpt>
      <trkpt lat="45.30731" lon="0.54914">
        <ele>92</ele>
        <time>2025-04-16T09:36:18Z</time>
      </trkpt>
      <trkpt lat="45.3073" lon="0.54859">
        <ele>91</ele>
        <time>2025-04-16T09:36:25Z</time>
      </trkpt>
      <trkpt lat="45.30751" lon="0.54646">
        <ele>95</ele>
        <time>2025-04-16T09:36:52Z</time>
      </trkpt>
      <trkpt lat="45.30751" lon="0.54628">
        <ele>97</ele>
        <time>2025-04-16T09:36:54Z</time>
      </trkpt>
      <trkpt lat="45.30746" lon="0.54604">
        <ele>99</ele>
        <time>2025-04-16T09:36:57Z</time>
      </trkpt>
      <trkpt lat="45.30741" lon="0.54593">
        <ele>100</ele>
        <time>2025-04-16T09:36:59Z</time>
      </trkpt>
      <trkpt lat="45.30732" lon="0.5458">
        <ele>100</ele>
        <time>2025-04-16T09:37:01Z</time>
      </trkpt>
      <trkpt lat="45.30718" lon="0.54566">
        <ele>100</ele>
        <time>2025-04-16T09:37:04Z</time>
      </trkpt>
      <trkpt lat="45.30693" lon="0.54545">
        <ele>100</ele>
        <time>2025-04-16T09:37:09Z</time>
      </trkpt>
      <trkpt lat="45.30582" lon="0.54464">
        <ele>103</ele>
        <time>2025-04-16T09:37:31Z</time>
      </trkpt>
      <trkpt lat="45.30574" lon="0.54456">
        <ele>103</ele>
        <time>2025-04-16T09:37:33Z</time>
      </trkpt>
      <trkpt lat="45.30571" lon="0.54451">
        <ele>103</ele>
        <time>2025-04-16T09:37:34Z</time>
      </trkpt>
      <trkpt lat="45.30519" lon="0.54454">
        <ele>101</ele>
        <time>2025-04-16T09:37:43Z</time>
      </trkpt>
      <trkpt lat="45.30379" lon="0.54461">
        <ele>98</ele>
        <time>2025-04-16T09:38:08Z</time>
      </trkpt>
      <trkpt lat="45.30346" lon="0.54452">
        <ele>98</ele>
        <time>2025-04-16T09:38:14Z</time>
      </trkpt>
      <trkpt lat="45.30261" lon="0.54398">
        <ele>95</ele>
        <time>2025-04-16T09:38:31Z</time>
      </trkpt>
      <trkpt lat="45.30243" lon="0.54376">
        <ele>95</ele>
        <time>2025-04-16T09:38:35Z</time>
      </trkpt>
      <trkpt lat="45.30238" lon="0.54344">
        <ele>95</ele>
        <time>2025-04-16T09:38:39Z</time>
      </trkpt>
      <trkpt lat="45.30217" lon="0.54038">
        <ele>92</ele>
        <time>2025-04-16T09:39:18Z</time>
      </trkpt>
      <trkpt lat="45.3021" lon="0.53893">
        <ele>89</ele>
        <time>2025-04-16T09:39:36Z</time>
      </trkpt>
      <trkpt lat="45.30211" lon="0.53885">
        <ele>89</ele>
        <time>2025-04-16T09:39:37Z</time>
      </trkpt>
      <trkpt lat="45.30256" lon="0.53898">
        <ele>90</ele>
        <time>2025-04-16T09:39:45Z</time>
      </trkpt>
      <trkpt lat="45.30258" lon="0.53893">
        <ele>90</ele>
        <time>2025-04-16T09:39:46Z</time>
      </trkpt>
      <trkpt lat="45.30279" lon="0.53873">
        <ele>89</ele>
        <time>2025-04-16T09:39:50Z</time>
      </trkpt>
      <trkpt lat="45.30281" lon="0.5386">
        <ele>89</ele>
        <time>2025-04-16T09:39:52Z</time>
      </trkpt>
      <trkpt lat="45.30278" lon="0.53851">
        <ele>88</ele>
        <time>2025-04-16T09:39:53Z</time>
      </trkpt>
      <trkpt lat="45.30251" lon="0.53801">
        <ele>87</ele>
        <time>2025-04-16T09:40:01Z</time>
      </trkpt>
      <trkpt lat="45.30241" lon="0.5378">
        <ele>87</ele>
        <time>2025-04-16T09:40:04Z</time>
      </trkpt>
      <trkpt lat="45.30236" lon="0.53761">
        <ele>87</ele>
        <time>2025-04-16T09:40:07Z</time>
      </trkpt>
      <trkpt lat="45.30235" lon="0.5375">
        <ele>87</ele>
        <time>2025-04-16T09:40:08Z</time>
      </trkpt>
      <trkpt lat="45.30236" lon="0.53742">
        <ele>88</ele>
        <time>2025-04-16T09:40:09Z</time>
      </trkpt>
      <trkpt lat="45.30242" lon="0.53706">
        <ele>90</ele>
        <time>2025-04-16T09:40:14Z</time>
      </trkpt>
      <trkpt lat="45.30243" lon="0.53702">
        <ele>91</ele>
        <time>2025-04-16T09:40:14Z</time>
      </trkpt>
      <trkpt lat="45.30244" lon="0.53698">
        <ele>91</ele>
        <time>2025-04-16T09:40:15Z</time>
      </trkpt>
      <trkpt lat="45.30243" lon="0.53688">
        <ele>92</ele>
        <time>2025-04-16T09:40:16Z</time>
      </trkpt>
      <trkpt lat="45.30216" lon="0.53613">
        <ele>96</ele>
        <time>2025-04-16T09:40:27Z</time>
      </trkpt>
      <trkpt lat="45.30195" lon="0.5353">
        <ele>96</ele>
        <time>2025-04-16T09:40:38Z</time>
      </trkpt>
      <trkpt lat="45.30171" lon="0.53465">
        <ele>97</ele>
        <time>2025-04-16T09:40:47Z</time>
      </trkpt>
      <trkpt lat="45.30133" lon="0.53385">
        <ele>98</ele>
        <time>2025-04-16T09:40:59Z</time>
      </trkpt>
      <trkpt lat="45.30096" lon="0.53293">
        <ele>96</ele>
        <time>2025-04-16T09:41:12Z</time>
      </trkpt>
      <trkpt lat="45.30083" lon="0.53253">
        <ele>95</ele>
        <time>2025-04-16T09:41:18Z</time>
      </trkpt>
      <trkpt lat="45.30077" lon="0.53215">
        <ele>97</ele>
        <time>2025-04-16T09:41:23Z</time>
      </trkpt>
      <trkpt lat="45.30066" lon="0.53183">
        <ele>98</ele>
        <time>2025-04-16T09:41:27Z</time>
      </trkpt>
      <trkpt lat="45.30037" lon="0.53116">
        <ele>99</ele>
        <time>2025-04-16T09:41:37Z</time>
      </trkpt>
      <trkpt lat="45.29983" lon="0.53011">
        <ele>95</ele>
        <time>2025-04-16T09:41:53Z</time>
      </trkpt>
      <trkpt lat="45.29958" lon="0.52926">
        <ele>97</ele>
        <time>2025-04-16T09:42:05Z</time>
      </trkpt>
      <trkpt lat="45.2995" lon="0.52911">
        <ele>97</ele>
        <time>2025-04-16T09:42:07Z</time>
      </trkpt>
      <trkpt lat="45.29936" lon="0.529">
        <ele>96</ele>
        <time>2025-04-16T09:42:10Z</time>
      </trkpt>
      <trkpt lat="45.29896" lon="0.52875">
        <ele>95</ele>
        <time>2025-04-16T09:42:18Z</time>
      </trkpt>
      <trkpt lat="45.29853" lon="0.52837">
        <ele>94</ele>
        <time>2025-04-16T09:42:27Z</time>
      </trkpt>
      <trkpt lat="45.29828" lon="0.52803">
        <ele>94</ele>
        <time>2025-04-16T09:42:33Z</time>
      </trkpt>
      <trkpt lat="45.29803" lon="0.52774">
        <ele>96</ele>
        <time>2025-04-16T09:42:39Z</time>
      </trkpt>
      <trkpt lat="45.29794" lon="0.52767">
        <ele>96</ele>
        <time>2025-04-16T09:42:40Z</time>
      </trkpt>
      <trkpt lat="45.29769" lon="0.52747">
        <ele>96</ele>
        <time>2025-04-16T09:42:45Z</time>
      </trkpt>
      <trkpt lat="45.29717" lon="0.52718">
        <ele>96</ele>
        <time>2025-04-16T09:42:55Z</time>
      </trkpt>
      <trkpt lat="45.29672" lon="0.5265">
        <ele>99</ele>
        <time>2025-04-16T09:43:07Z</time>
      </trkpt>
      <trkpt lat="45.29594" lon="0.5256">
        <ele>101</ele>
        <time>2025-04-16T09:43:25Z</time>
      </trkpt>
      <trkpt lat="45.29539" lon="0.52492">
        <ele>102</ele>
        <time>2025-04-16T09:43:38Z</time>
      </trkpt>
      <trkpt lat="45.29531" lon="0.52479">
        <ele>101</ele>
        <time>2025-04-16T09:43:40Z</time>
      </trkpt>
      <trkpt lat="45.29507" lon="0.52426">
        <ele>100</ele>
        <time>2025-04-16T09:43:48Z</time>
      </trkpt>
      <trkpt lat="45.29484" lon="0.52388">
        <ele>99</ele>
        <time>2025-04-16T09:43:54Z</time>
      </trkpt>
      <trkpt lat="45.29464" lon="0.52362">
        <ele>99</ele>
        <time>2025-04-16T09:43:59Z</time>
      </trkpt>
      <trkpt lat="45.29453" lon="0.52353">
        <ele>99</ele>
        <time>2025-04-16T09:44:01Z</time>
      </trkpt>
      <trkpt lat="45.2944" lon="0.52347">
        <ele>99</ele>
        <time>2025-04-16T09:44:04Z</time>
      </trkpt>
      <trkpt lat="45.29434" lon="0.52346">
        <ele>99</ele>
        <time>2025-04-16T09:44:05Z</time>
      </trkpt>
      <trkpt lat="45.29424" lon="0.5235">
        <ele>99</ele>
        <time>2025-04-16T09:44:07Z</time>
      </trkpt>
      <trkpt lat="45.29366" lon="0.52413">
        <ele>99</ele>
        <time>2025-04-16T09:44:20Z</time>
      </trkpt>
      <trkpt lat="45.29349" lon="0.52429">
        <ele>99</ele>
        <time>2025-04-16T09:44:23Z</time>
      </trkpt>
      <trkpt lat="45.29323" lon="0.52442">
        <ele>99</ele>
        <time>2025-04-16T09:44:28Z</time>
      </trkpt>
      <trkpt lat="45.29278" lon="0.52457">
        <ele>100</ele>
        <time>2025-04-16T09:44:36Z</time>
      </trkpt>
      <trkpt lat="45.29248" lon="0.52472">
        <ele>99</ele>
        <time>2025-04-16T09:44:42Z</time>
      </trkpt>
      <trkpt lat="45.29207" lon="0.52484">
        <ele>99</ele>
        <time>2025-04-16T09:44:50Z</time>
      </trkpt>
      <trkpt lat="45.29095" lon="0.5248">
        <ele>101</ele>
        <time>2025-04-16T09:45:09Z</time>
      </trkpt>
      <trkpt lat="45.29086" lon="0.52492">
        <ele>100</ele>
        <time>2025-04-16T09:45:12Z</time>
      </trkpt>
      <trkpt lat="45.29075" lon="0.52498">
        <ele>100</ele>
        <time>2025-04-16T09:45:14Z</time>
      </trkpt>
      <trkpt lat="45.29047" lon="0.52502">
        <ele>100</ele>
        <time>2025-04-16T09:45:19Z</time>
      </trkpt>
      <trkpt lat="45.29005" lon="0.52517">
        <ele>100</ele>
        <time>2025-04-16T09:45:26Z</time>
      </trkpt>
      <trkpt lat="45.2891" lon="0.52576">
        <ele>102</ele>
        <time>2025-04-16T09:45:45Z</time>
      </trkpt>
      <trkpt lat="45.28886" lon="0.52598">
        <ele>101</ele>
        <time>2025-04-16T09:45:50Z</time>
      </trkpt>
      <trkpt lat="45.28807" lon="0.52689">
        <ele>97</ele>
        <time>2025-04-16T09:46:08Z</time>
      </trkpt>
      <trkpt lat="45.28776" lon="0.5272">
        <ele>96</ele>
        <time>2025-04-16T09:46:15Z</time>
      </trkpt>
      <trkpt lat="45.28747" lon="0.52732">
        <ele>98</ele>
        <time>2025-04-16T09:46:20Z</time>
      </trkpt>
      <trkpt lat="45.28721" lon="0.52738">
        <ele>101</ele>
        <time>2025-04-16T09:46:25Z</time>
      </trkpt>
      <trkpt lat="45.28625" lon="0.52801">
        <ele>106</ele>
        <time>2025-04-16T09:46:44Z</time>
      </trkpt>
      <trkpt lat="45.28597" lon="0.52837">
        <ele>104</ele>
        <time>2025-04-16T09:46:50Z</time>
      </trkpt>
      <trkpt lat="45.28546" lon="0.52918">
        <ele>102</ele>
        <time>2025-04-16T09:47:04Z</time>
      </trkpt>
      <trkpt lat="45.28512" lon="0.52958">
        <ele>106</ele>
        <time>2025-04-16T09:47:12Z</time>
      </trkpt>
      <trkpt lat="45.28476" lon="0.52998">
        <ele>110</ele>
        <time>2025-04-16T09:47:20Z</time>
      </trkpt>
      <trkpt lat="45.2843" lon="0.53069">
        <ele>110</ele>
        <time>2025-04-16T09:47:32Z</time>
      </trkpt>
      <trkpt lat="45.28414" lon="0.53095">
        <ele>111</ele>
        <time>2025-04-16T09:47:36Z</time>
      </trkpt>
      <trkpt lat="45.28407" lon="0.53103">
        <ele>112</ele>
        <time>2025-04-16T09:47:38Z</time>
      </trkpt>
      <trkpt lat="45.28403" lon="0.53104">
        <ele>114</ele>
        <time>2025-04-16T09:47:39Z</time>
      </trkpt>
      <trkpt lat="45.28341" lon="0.53277">
        <ele>105</ele>
        <time>2025-04-16T09:48:03Z</time>
      </trkpt>
      <trkpt lat="45.28294" lon="0.53417">
        <ele>99</ele>
        <time>2025-04-16T09:48:22Z</time>
      </trkpt>
      <trkpt lat="45.28217" lon="0.53574">
        <ele>93</ele>
        <time>2025-04-16T09:48:46Z</time>
      </trkpt>
      <trkpt lat="45.28183" lon="0.53627">
        <ele>91</ele>
        <time>2025-04-16T09:48:55Z</time>
      </trkpt>
      <trkpt lat="45.28149" lon="0.5367">
        <ele>91</ele>
        <time>2025-04-16T09:49:03Z</time>
      </trkpt>
      <trkpt lat="45.28064" lon="0.53756">
        <ele>92</ele>
        <time>2025-04-16T09:49:22Z</time>
      </trkpt>
      <trkpt lat="45.28034" lon="0.53792">
        <ele>89</ele>
        <time>2025-04-16T09:49:29Z</time>
      </trkpt>
      <trkpt lat="45.28019" lon="0.53816">
        <ele>87</ele>
        <time>2025-04-16T09:49:33Z</time>
      </trkpt>
      <trkpt lat="45.28002" lon="0.53781">
        <ele>91</ele>
        <time>2025-04-16T09:49:38Z</time>
      </trkpt>
      <trkpt lat="45.27984" lon="0.53761">
        <ele>93</ele>
        <time>2025-04-16T09:49:42Z</time>
      </trkpt>
      <trkpt lat="45.27875" lon="0.5367">
        <ele>101</ele>
        <time>2025-04-16T09:50:05Z</time>
      </trkpt>
      <trkpt lat="45.2785" lon="0.53645">
        <ele>102</ele>
        <time>2025-04-16T09:50:10Z</time>
      </trkpt>
      <trkpt lat="45.27824" lon="0.53623">
        <ele>103</ele>
        <time>2025-04-16T09:50:16Z</time>
      </trkpt>
      <trkpt lat="45.27806" lon="0.53594">
        <ele>103</ele>
        <time>2025-04-16T09:50:21Z</time>
      </trkpt>
      <trkpt lat="45.27776" lon="0.53503">
        <ele>104</ele>
        <time>2025-04-16T09:50:33Z</time>
      </trkpt>
      <trkpt lat="45.27751" lon="0.53441">
        <ele>107</ele>
        <time>2025-04-16T09:50:42Z</time>
      </trkpt>
      <trkpt lat="45.27682" lon="0.53296">
        <ele>112</ele>
        <time>2025-04-16T09:51:04Z</time>
      </trkpt>
      <trkpt lat="45.27637" lon="0.53236">
        <ele>110</ele>
        <time>2025-04-16T09:51:15Z</time>
      </trkpt>
      <trkpt lat="45.27621" lon="0.53182">
        <ele>109</ele>
        <time>2025-04-16T09:51:22Z</time>
      </trkpt>
      <trkpt lat="45.27596" lon="0.5307">
        <ele>103</ele>
        <time>2025-04-16T09:51:37Z</time>
      </trkpt>
      <trkpt lat="45.27588" lon="0.5298">
        <ele>104</ele>
        <time>2025-04-16T09:51:48Z</time>
      </trkpt>
      <trkpt lat="45.2758" lon="0.52957">
        <ele>104</ele>
        <time>2025-04-16T09:51:52Z</time>
      </trkpt>
      <trkpt lat="45.27541" lon="0.52883">
        <ele>99</ele>
        <time>2025-04-16T09:52:03Z</time>
      </trkpt>
      <trkpt lat="45.27512" lon="0.52807">
        <ele>93</ele>
        <time>2025-04-16T09:52:14Z</time>
      </trkpt>
      <trkpt lat="45.27464" lon="0.5269">
        <ele>89</ele>
        <time>2025-04-16T09:52:31Z</time>
      </trkpt>
      <trkpt lat="45.27462" lon="0.52673">
        <ele>89</ele>
        <time>2025-04-16T09:52:33Z</time>
      </trkpt>
      <trkpt lat="45.27463" lon="0.52656">
        <ele>88</ele>
        <time>2025-04-16T09:52:35Z</time>
      </trkpt>
      <trkpt lat="45.27478" lon="0.52571">
        <ele>88</ele>
        <time>2025-04-16T09:52:46Z</time>
      </trkpt>
      <trkpt lat="45.27477" lon="0.52571">
        <ele>88</ele>
        <time>2025-04-16T09:52:46Z</time>
      </trkpt>
      <trkpt lat="45.27478" lon="0.52571">
        <ele>88</ele>
        <time>2025-04-16T09:52:47Z</time>
      </trkpt>
      <trkpt lat="45.27492" lon="0.5248">
        <ele>87</ele>
        <time>2025-04-16T09:52:58Z</time>
      </trkpt>
      <trkpt lat="45.27506" lon="0.52245">
        <ele>84</ele>
        <time>2025-04-16T09:53:28Z</time>
      </trkpt>
      <trkpt lat="45.27514" lon="0.52044">
        <ele>83</ele>
        <time>2025-04-16T09:53:53Z</time>
      </trkpt>
      <trkpt lat="45.27523" lon="0.51953">
        <ele>83</ele>
        <time>2025-04-16T09:54:05Z</time>
      </trkpt>
      <trkpt lat="45.27539" lon="0.51862">
        <ele>83</ele>
        <time>2025-04-16T09:54:16Z</time>
      </trkpt>
      <trkpt lat="45.27576" lon="0.51746">
        <ele>83</ele>
        <time>2025-04-16T09:54:32Z</time>
      </trkpt>
      <trkpt lat="45.27582" lon="0.5169">
        <ele>83</ele>
        <time>2025-04-16T09:54:39Z</time>
      </trkpt>
      <trkpt lat="45.27576" lon="0.51642">
        <ele>82</ele>
        <time>2025-04-16T09:54:45Z</time>
      </trkpt>
      <trkpt lat="45.27564" lon="0.51587">
        <ele>81</ele>
        <time>2025-04-16T09:54:53Z</time>
      </trkpt>
      <trkpt lat="45.27533" lon="0.51545">
        <ele>82</ele>
        <time>2025-04-16T09:55:00Z</time>
      </trkpt>
      <trkpt lat="45.27488" lon="0.51476">
        <ele>81</ele>
        <time>2025-04-16T09:55:12Z</time>
      </trkpt>
      <trkpt lat="45.27475" lon="0.51425">
        <ele>81</ele>
        <time>2025-04-16T09:55:19Z</time>
      </trkpt>
      <trkpt lat="45.27468" lon="0.51372">
        <ele>81</ele>
        <time>2025-04-16T09:55:26Z</time>
      </trkpt>
      <trkpt lat="45.27456" lon="0.51158">
        <ele>83</ele>
        <time>2025-04-16T09:55:52Z</time>
      </trkpt>
      <trkpt lat="45.27444" lon="0.51011">
        <ele>87</ele>
        <time>2025-04-16T09:56:11Z</time>
      </trkpt>
      <trkpt lat="45.27437" lon="0.50981">
        <ele>86</ele>
        <time>2025-04-16T09:56:15Z</time>
      </trkpt>
      <trkpt lat="45.27426" lon="0.50954">
        <ele>85</ele>
        <time>2025-04-16T09:56:19Z</time>
      </trkpt>
      <trkpt lat="45.27381" lon="0.50879">
        <ele>82</ele>
        <time>2025-04-16T09:56:31Z</time>
      </trkpt>
      <trkpt lat="45.2734" lon="0.50841">
        <ele>83</ele>
        <time>2025-04-16T09:56:40Z</time>
      </trkpt>
      <trkpt lat="45.27287" lon="0.50823">
        <ele>83</ele>
        <time>2025-04-16T09:56:50Z</time>
      </trkpt>
      <trkpt lat="45.27225" lon="0.50831">
        <ele>83</ele>
        <time>2025-04-16T09:57:01Z</time>
      </trkpt>
      <trkpt lat="45.2712" lon="0.50852">
        <ele>80</ele>
        <time>2025-04-16T09:57:20Z</time>
      </trkpt>
      <trkpt lat="45.27057" lon="0.50848">
        <ele>80</ele>
        <time>2025-04-16T09:57:31Z</time>
      </trkpt>
      <trkpt lat="45.26993" lon="0.50823">
        <ele>79</ele>
        <time>2025-04-16T09:57:43Z</time>
      </trkpt>
      <trkpt lat="45.26917" lon="0.50747">
        <ele>78</ele>
        <time>2025-04-16T09:57:59Z</time>
      </trkpt>
      <trkpt lat="45.26838" lon="0.50649">
        <ele>79</ele>
        <time>2025-04-16T09:58:18Z</time>
      </trkpt>
      <trkpt lat="45.26753" lon="0.50556">
        <ele>78</ele>
        <time>2025-04-16T09:58:37Z</time>
      </trkpt>
      <trkpt lat="45.26613" lon="0.50446">
        <ele>80</ele>
        <time>2025-04-16T09:59:05Z</time>
      </trkpt>
      <trkpt lat="45.26556" lon="0.50409">
        <ele>80</ele>
        <time>2025-04-16T09:59:16Z</time>
      </trkpt>
      <trkpt lat="45.265" lon="0.50363">
        <ele>82</ele>
        <time>2025-04-16T09:59:28Z</time>
      </trkpt>
      <trkpt lat="45.26488" lon="0.50365">
        <ele>81</ele>
        <time>2025-04-16T09:59:30Z</time>
      </trkpt>
      <trkpt lat="45.26363" lon="0.50287">
        <ele>81</ele>
        <time>2025-04-16T09:59:54Z</time>
      </trkpt>
      <trkpt lat="45.2629" lon="0.50225">
        <ele>80</ele>
        <time>2025-04-16T10:00:10Z</time>
      </trkpt>
      <trkpt lat="45.26213" lon="0.50153">
        <ele>80</ele>
        <time>2025-04-16T10:00:26Z</time>
      </trkpt>
      <trkpt lat="45.26148" lon="0.50099">
        <ele>78</ele>
        <time>2025-04-16T10:00:39Z</time>
      </trkpt>
      <trkpt lat="45.26099" lon="0.50007">
        <ele>77</ele>
        <time>2025-04-16T10:00:54Z</time>
      </trkpt>
      <trkpt lat="45.26047" lon="0.49891">
        <ele>77</ele>
        <time>2025-04-16T10:01:11Z</time>
      </trkpt>
      <trkpt lat="45.26042" lon="0.49866">
        <ele>77</ele>
        <time>2025-04-16T10:01:14Z</time>
      </trkpt>
      <trkpt lat="45.26016" lon="0.4965">
        <ele>76</ele>
        <time>2025-04-16T10:01:42Z</time>
      </trkpt>
      <trkpt lat="45.25991" lon="0.49458">
        <ele>76</ele>
        <time>2025-04-16T10:02:06Z</time>
      </trkpt>
      <trkpt lat="45.25993" lon="0.49344">
        <ele>76</ele>
        <time>2025-04-16T10:02:20Z</time>
      </trkpt>
      <trkpt lat="45.25995" lon="0.49268">
        <ele>77</ele>
        <time>2025-04-16T10:02:30Z</time>
      </trkpt>
      <trkpt lat="45.26006" lon="0.49155">
        <ele>76</ele>
        <time>2025-04-16T10:02:44Z</time>
      </trkpt>
      <trkpt lat="45.26036" lon="0.49155">
        <ele>76</ele>
        <time>2025-04-16T10:02:50Z</time>
      </trkpt>
      <trkpt lat="45.26057" lon="0.49145">
        <ele>76</ele>
        <time>2025-04-16T10:02:54Z</time>
      </trkpt>
      <trkpt lat="45.261" lon="0.49114">
        <ele>76</ele>
        <time>2025-04-16T10:03:02Z</time>
      </trkpt>
      <trkpt lat="45.2626" lon="0.48987">
        <ele>78</ele>
        <time>2025-04-16T10:03:35Z</time>
      </trkpt>
      <trkpt lat="45.26458" lon="0.48839">
        <ele>84</ele>
        <time>2025-04-16T10:04:15Z</time>
      </trkpt>
      <trkpt lat="45.26502" lon="0.48793">
        <ele>85</ele>
        <time>2025-04-16T10:04:24Z</time>
      </trkpt>
      <trkpt lat="45.26515" lon="0.48775">
        <ele>85</ele>
        <time>2025-04-16T10:04:27Z</time>
      </trkpt>
      <trkpt lat="45.26504" lon="0.48726">
        <ele>85</ele>
        <time>2025-04-16T10:04:34Z</time>
      </trkpt>
      <trkpt lat="45.26493" lon="0.48647">
        <ele>85</ele>
        <time>2025-04-16T10:04:44Z</time>
      </trkpt>
      <trkpt lat="45.26488" lon="0.48577">
        <ele>85</ele>
        <time>2025-04-16T10:04:53Z</time>
      </trkpt>
      <trkpt lat="45.26463" lon="0.48443">
        <ele>84</ele>
        <time>2025-04-16T10:05:10Z</time>
      </trkpt>
      <trkpt lat="45.26462" lon="0.48278">
        <ele>83</ele>
        <time>2025-04-16T10:05:31Z</time>
      </trkpt>
      <trkpt lat="45.26451" lon="0.4819">
        <ele>85</ele>
        <time>2025-04-16T10:05:42Z</time>
      </trkpt>
      <trkpt lat="45.26422" lon="0.48029">
        <ele>84</ele>
        <time>2025-04-16T10:06:03Z</time>
      </trkpt>
      <trkpt lat="45.26407" lon="0.47952">
        <ele>84</ele>
        <time>2025-04-16T10:06:13Z</time>
      </trkpt>
      <trkpt lat="45.26388" lon="0.47875">
        <ele>84</ele>
        <time>2025-04-16T10:06:23Z</time>
      </trkpt>
      <trkpt lat="45.26358" lon="0.47789">
        <ele>82</ele>
        <time>2025-04-16T10:06:35Z</time>
      </trkpt>
      <trkpt lat="45.2634" lon="0.47731">
        <ele>82</ele>
        <time>2025-04-16T10:06:43Z</time>
      </trkpt>
      <trkpt lat="45.26281" lon="0.47489">
        <ele>77</ele>
        <time>2025-04-16T10:07:15Z</time>
      </trkpt>
      <trkpt lat="45.26269" lon="0.47456">
        <ele>79</ele>
        <time>2025-04-16T10:07:20Z</time>
      </trkpt>
      <trkpt lat="45.26257" lon="0.47436">
        <ele>79</ele>
        <time>2025-04-16T10:07:23Z</time>
      </trkpt>
      <trkpt lat="45.2615" lon="0.47318">
        <ele>75</ele>
        <time>2025-04-16T10:07:47Z</time>
      </trkpt>
      <trkpt lat="45.26114" lon="0.47251">
        <ele>76</ele>
        <time>2025-04-16T10:07:58Z</time>
      </trkpt>
      <trkpt lat="45.26091" lon="0.47196">
        <ele>77</ele>
        <time>2025-04-16T10:08:06Z</time>
      </trkpt>
      <trkpt lat="45.26068" lon="0.4714">
        <ele>77</ele>
        <time>2025-04-16T10:08:14Z</time>
      </trkpt>
      <trkpt lat="45.26003" lon="0.46998">
        <ele>77</ele>
        <time>2025-04-16T10:08:35Z</time>
      </trkpt>
      <trkpt lat="45.25967" lon="0.46898">
        <ele>80</ele>
        <time>2025-04-16T10:08:49Z</time>
      </trkpt>
      <trkpt lat="45.25879" lon="0.46678">
        <ele>79</ele>
        <time>2025-04-16T10:09:21Z</time>
      </trkpt>
      <trkpt lat="45.2587" lon="0.4666">
        <ele>80</ele>
        <time>2025-04-16T10:09:24Z</time>
      </trkpt>
      <trkpt lat="45.2586" lon="0.46648">
        <ele>80</ele>
        <time>2025-04-16T10:09:26Z</time>
      </trkpt>
      <trkpt lat="45.25825" lon="0.46618">
        <ele>81</ele>
        <time>2025-04-16T10:09:33Z</time>
      </trkpt>
      <trkpt lat="45.25818" lon="0.46608">
        <ele>81</ele>
        <time>2025-04-16T10:09:35Z</time>
      </trkpt>
      <trkpt lat="45.25811" lon="0.46593">
        <ele>81</ele>
        <time>2025-04-16T10:09:37Z</time>
      </trkpt>
      <trkpt lat="45.25811" lon="0.46573">
        <ele>82</ele>
        <time>2025-04-16T10:09:40Z</time>
      </trkpt>
      <trkpt lat="45.25821" lon="0.46489">
        <ele>86</ele>
        <time>2025-04-16T10:09:50Z</time>
      </trkpt>
      <trkpt lat="45.25818" lon="0.46466">
        <ele>86</ele>
        <time>2025-04-16T10:09:53Z</time>
      </trkpt>
      <trkpt lat="45.25813" lon="0.46442">
        <ele>87</ele>
        <time>2025-04-16T10:09:56Z</time>
      </trkpt>
      <trkpt lat="45.25803" lon="0.46413">
        <ele>87</ele>
        <time>2025-04-16T10:10:00Z</time>
      </trkpt>
      <trkpt lat="45.25785" lon="0.46371">
        <ele>89</ele>
        <time>2025-04-16T10:10:07Z</time>
      </trkpt>
      <trkpt lat="45.2572" lon="0.46244">
        <ele>91</ele>
        <time>2025-04-16T10:10:26Z</time>
      </trkpt>
      <trkpt lat="45.25706" lon="0.46206">
        <ele>92</ele>
        <time>2025-04-16T10:10:32Z</time>
      </trkpt>
      <trkpt lat="45.25702" lon="0.46182">
        <ele>92</ele>
        <time>2025-04-16T10:10:35Z</time>
      </trkpt>
      <trkpt lat="45.25701" lon="0.46158">
        <ele>93</ele>
        <time>2025-04-16T10:10:38Z</time>
      </trkpt>
      <trkpt lat="45.25706" lon="0.46133">
        <ele>94</ele>
        <time>2025-04-16T10:10:41Z</time>
      </trkpt>
      <trkpt lat="45.25716" lon="0.4611">
        <ele>95</ele>
        <time>2025-04-16T10:10:44Z</time>
      </trkpt>
      <trkpt lat="45.25753" lon="0.46058">
        <ele>99</ele>
        <time>2025-04-16T10:10:54Z</time>
      </trkpt>
      <trkpt lat="45.25774" lon="0.46013">
        <ele>101</ele>
        <time>2025-04-16T10:11:00Z</time>
      </trkpt>
      <trkpt lat="45.25778" lon="0.46">
        <ele>101</ele>
        <time>2025-04-16T10:11:02Z</time>
      </trkpt>
      <trkpt lat="45.25818" lon="0.45862">
        <ele>98</ele>
        <time>2025-04-16T10:11:21Z</time>
      </trkpt>
      <trkpt lat="45.25846" lon="0.45758">
        <ele>96</ele>
        <time>2025-04-16T10:11:35Z</time>
      </trkpt>
      <trkpt lat="45.25854" lon="0.45717">
        <ele>96</ele>
        <time>2025-04-16T10:11:40Z</time>
      </trkpt>
      <trkpt lat="45.25856" lon="0.45651">
        <ele>95</ele>
        <time>2025-04-16T10:11:48Z</time>
      </trkpt>
      <trkpt lat="45.25857" lon="0.45626">
        <ele>95</ele>
        <time>2025-04-16T10:11:52Z</time>
      </trkpt>
      <trkpt lat="45.25856" lon="0.45527">
        <ele>93</ele>
        <time>2025-04-16T10:12:04Z</time>
      </trkpt>
      <trkpt lat="45.25852" lon="0.45472">
        <ele>92</ele>
        <time>2025-04-16T10:12:11Z</time>
      </trkpt>
      <trkpt lat="45.25846" lon="0.45422">
        <ele>90</ele>
        <time>2025-04-16T10:12:17Z</time>
      </trkpt>
      <trkpt lat="45.25838" lon="0.45381">
        <ele>89</ele>
        <time>2025-04-16T10:12:23Z</time>
      </trkpt>
      <trkpt lat="45.25812" lon="0.45285">
        <ele>85</ele>
        <time>2025-04-16T10:12:36Z</time>
      </trkpt>
      <trkpt lat="45.25804" lon="0.4524">
        <ele>83</ele>
        <time>2025-04-16T10:12:41Z</time>
      </trkpt>
      <trkpt lat="45.25801" lon="0.45216">
        <ele>82</ele>
        <time>2025-04-16T10:12:44Z</time>
      </trkpt>
      <trkpt lat="45.25801" lon="0.45199">
        <ele>81</ele>
        <time>2025-04-16T10:12:46Z</time>
      </trkpt>
      <trkpt lat="45.25805" lon="0.45172">
        <ele>81</ele>
        <time>2025-04-16T10:12:50Z</time>
      </trkpt>
      <trkpt lat="45.2582" lon="0.45116">
        <ele>80</ele>
        <time>2025-04-16T10:12:57Z</time>
      </trkpt>
      <trkpt lat="45.25828" lon="0.4507">
        <ele>79</ele>
        <time>2025-04-16T10:13:03Z</time>
      </trkpt>
      <trkpt lat="45.25859" lon="0.4478">
        <ele>84</ele>
        <time>2025-04-16T10:13:40Z</time>
      </trkpt>
      <trkpt lat="45.2586" lon="0.44701">
        <ele>84</ele>
        <time>2025-04-16T10:13:50Z</time>
      </trkpt>
      <trkpt lat="45.2586" lon="0.44441">
        <ele>82</ele>
        <time>2025-04-16T10:14:23Z</time>
      </trkpt>
      <trkpt lat="45.25861" lon="0.44254">
        <ele>77</ele>
        <time>2025-04-16T10:14:46Z</time>
      </trkpt>
      <trkpt lat="45.25862" lon="0.44205">
        <ele>76</ele>
        <time>2025-04-16T10:14:52Z</time>
      </trkpt>
      <trkpt lat="45.25865" lon="0.44175">
        <ele>75</ele>
        <time>2025-04-16T10:14:56Z</time>
      </trkpt>
      <trkpt lat="45.2587" lon="0.44149">
        <ele>75</ele>
        <time>2025-04-16T10:14:59Z</time>
      </trkpt>
      <trkpt lat="45.25884" lon="0.44112">
        <ele>76</ele>
        <time>2025-04-16T10:15:05Z</time>
      </trkpt>
      <trkpt lat="45.25938" lon="0.44013">
        <ele>77</ele>
        <time>2025-04-16T10:15:20Z</time>
      </trkpt>
      <trkpt lat="45.25951" lon="0.43983">
        <ele>79</ele>
        <time>2025-04-16T10:15:25Z</time>
      </trkpt>
      <trkpt lat="45.25956" lon="0.43965">
        <ele>80</ele>
        <time>2025-04-16T10:15:27Z</time>
      </trkpt>
      <trkpt lat="45.2596" lon="0.43931">
        <ele>81</ele>
        <time>2025-04-16T10:15:31Z</time>
      </trkpt>
      <trkpt lat="45.25965" lon="0.43831">
        <ele>83</ele>
        <time>2025-04-16T10:15:44Z</time>
      </trkpt>
      <trkpt lat="45.25962" lon="0.43796">
        <ele>84</ele>
        <time>2025-04-16T10:15:48Z</time>
      </trkpt>
      <trkpt lat="45.25953" lon="0.43738">
        <ele>84</ele>
        <time>2025-04-16T10:15:56Z</time>
      </trkpt>
      <trkpt lat="45.25944" lon="0.43686">
        <ele>85</ele>
        <time>2025-04-16T10:16:03Z</time>
      </trkpt>
      <trkpt lat="45.25941" lon="0.43647">
        <ele>85</ele>
        <time>2025-04-16T10:16:07Z</time>
      </trkpt>
      <trkpt lat="45.25936" lon="0.43498">
        <ele>85</ele>
        <time>2025-04-16T10:16:26Z</time>
      </trkpt>
      <trkpt lat="45.25923" lon="0.43143">
        <ele>83</ele>
        <time>2025-04-16T10:17:11Z</time>
      </trkpt>
      <trkpt lat="45.25912" lon="0.43061">
        <ele>82</ele>
        <time>2025-04-16T10:17:21Z</time>
      </trkpt>
      <trkpt lat="45.2591" lon="0.43029">
        <ele>82</ele>
        <time>2025-04-16T10:17:25Z</time>
      </trkpt>
      <trkpt lat="45.25872" lon="0.42898">
        <ele>77</ele>
        <time>2025-04-16T10:17:43Z</time>
      </trkpt>
      <trkpt lat="45.25867" lon="0.42865">
        <ele>75</ele>
        <time>2025-04-16T10:17:47Z</time>
      </trkpt>
      <trkpt lat="45.25872" lon="0.42805">
        <ele>73</ele>
        <time>2025-04-16T10:17:55Z</time>
      </trkpt>
      <trkpt lat="45.25864" lon="0.42621">
        <ele>69</ele>
        <time>2025-04-16T10:18:18Z</time>
      </trkpt>
      <trkpt lat="45.25858" lon="0.42555">
        <ele>69</ele>
        <time>2025-04-16T10:18:26Z</time>
      </trkpt>
      <trkpt lat="45.25856" lon="0.42543">
        <ele>70</ele>
        <time>2025-04-16T10:18:28Z</time>
      </trkpt>
      <trkpt lat="45.2581" lon="0.42413">
        <ele>71</ele>
        <time>2025-04-16T10:18:46Z</time>
      </trkpt>
      <trkpt lat="45.25782" lon="0.42278">
        <ele>73</ele>
        <time>2025-04-16T10:19:03Z</time>
      </trkpt>
      <trkpt lat="45.25758" lon="0.42148">
        <ele>76</ele>
        <time>2025-04-16T10:19:20Z</time>
      </trkpt>
      <trkpt lat="45.25756" lon="0.42011">
        <ele>75</ele>
        <time>2025-04-16T10:19:37Z</time>
      </trkpt>
      <trkpt lat="45.2576" lon="0.41983">
        <ele>75</ele>
        <time>2025-04-16T10:19:41Z</time>
      </trkpt>
      <trkpt lat="45.25797" lon="0.41921">
        <ele>79</ele>
        <time>2025-04-16T10:19:51Z</time>
      </trkpt>
      <trkpt lat="45.25804" lon="0.41894">
        <ele>80</ele>
        <time>2025-04-16T10:19:55Z</time>
      </trkpt>
      <trkpt lat="45.25813" lon="0.41811">
        <ele>84</ele>
        <time>2025-04-16T10:20:05Z</time>
      </trkpt>
      <trkpt lat="45.25831" lon="0.4171">
        <ele>88</ele>
        <time>2025-04-16T10:20:18Z</time>
      </trkpt>
      <trkpt lat="45.25838" lon="0.4167">
        <ele>88</ele>
        <time>2025-04-16T10:20:24Z</time>
      </trkpt>
      <trkpt lat="45.25911" lon="0.41421">
        <ele>82</ele>
        <time>2025-04-16T10:20:57Z</time>
      </trkpt>
      <trkpt lat="45.25919" lon="0.41374">
        <ele>83</ele>
        <time>2025-04-16T10:21:03Z</time>
      </trkpt>
      <trkpt lat="45.25925" lon="0.41291">
        <ele>82</ele>
        <time>2025-04-16T10:21:14Z</time>
      </trkpt>
      <trkpt lat="45.25934" lon="0.41086">
        <ele>80</ele>
        <time>2025-04-16T10:21:40Z</time>
      </trkpt>
      <trkpt lat="45.2593" lon="0.41063">
        <ele>79</ele>
        <time>2025-04-16T10:21:43Z</time>
      </trkpt>
      <trkpt lat="45.25928" lon="0.41058">
        <ele>79</ele>
        <time>2025-04-16T10:21:43Z</time>
      </trkpt>
      <trkpt lat="45.25933" lon="0.41044">
        <ele>79</ele>
        <time>2025-04-16T10:21:45Z</time>
      </trkpt>
      <trkpt lat="45.25937" lon="0.41026">
        <ele>78</ele>
        <time>2025-04-16T10:21:48Z</time>
      </trkpt>
      <trkpt lat="45.25944" lon="0.40932">
        <ele>76</ele>
        <time>2025-04-16T10:21:59Z</time>
      </trkpt>
      <trkpt lat="45.25947" lon="0.40837">
        <ele>75</ele>
        <time>2025-04-16T10:22:11Z</time>
      </trkpt>
      <trkpt lat="45.25951" lon="0.40773">
        <ele>74</ele>
        <time>2025-04-16T10:22:19Z</time>
      </trkpt>
      <trkpt lat="45.25957" lon="0.40735">
        <ele>74</ele>
        <time>2025-04-16T10:22:24Z</time>
      </trkpt>
      <trkpt lat="45.25968" lon="0.40686">
        <ele>72</ele>
        <time>2025-04-16T10:22:31Z</time>
      </trkpt>
      <trkpt lat="45.2605" lon="0.40421">
        <ele>70</ele>
        <time>2025-04-16T10:23:07Z</time>
      </trkpt>
      <trkpt lat="45.26102" lon="0.4028">
        <ele>70</ele>
        <time>2025-04-16T10:23:27Z</time>
      </trkpt>
      <trkpt lat="45.26331" lon="0.39838">
        <ele>73</ele>
        <time>2025-04-16T10:24:36Z</time>
      </trkpt>
      <trkpt lat="45.2636" lon="0.39772">
        <ele>74</ele>
        <time>2025-04-16T10:24:45Z</time>
      </trkpt>
      <trkpt lat="45.26371" lon="0.39738">
        <ele>75</ele>
        <time>2025-04-16T10:24:50Z</time>
      </trkpt>
      <trkpt lat="45.26378" lon="0.39696">
        <ele>76</ele>
        <time>2025-04-16T10:24:55Z</time>
      </trkpt>
      <trkpt lat="45.26378" lon="0.39652">
        <ele>76</ele>
        <time>2025-04-16T10:25:01Z</time>
      </trkpt>
      <trkpt lat="45.26347" lon="0.39157">
        <ele>67</ele>
        <time>2025-04-16T10:26:03Z</time>
      </trkpt>
      <trkpt lat="45.26349" lon="0.39121">
        <ele>67</ele>
        <time>2025-04-16T10:26:08Z</time>
      </trkpt>
      <trkpt lat="45.26351" lon="0.39108">
        <ele>67</ele>
        <time>2025-04-16T10:26:09Z</time>
      </trkpt>
      <trkpt lat="45.26355" lon="0.39087">
        <ele>67</ele>
        <time>2025-04-16T10:26:12Z</time>
      </trkpt>
      <trkpt lat="45.26357" lon="0.39081">
        <ele>67</ele>
        <time>2025-04-16T10:26:13Z</time>
      </trkpt>
      <trkpt lat="45.26355" lon="0.39069">
        <ele>67</ele>
        <time>2025-04-16T10:26:15Z</time>
      </trkpt>
      <trkpt lat="45.26355" lon="0.39054">
        <ele>68</ele>
        <time>2025-04-16T10:26:16Z</time>
      </trkpt>
      <trkpt lat="45.26366" lon="0.38959">
        <ele>69</ele>
        <time>2025-04-16T10:26:28Z</time>
      </trkpt>
      <trkpt lat="45.26368" lon="0.3894">
        <ele>69</ele>
        <time>2025-04-16T10:26:31Z</time>
      </trkpt>
      <trkpt lat="45.26366" lon="0.38926">
        <ele>69</ele>
        <time>2025-04-16T10:26:33Z</time>
      </trkpt>
      <trkpt lat="45.26357" lon="0.38898">
        <ele>70</ele>
        <time>2025-04-16T10:26:37Z</time>
      </trkpt>
      <trkpt lat="45.26329" lon="0.38843">
        <ele>70</ele>
        <time>2025-04-16T10:26:45Z</time>
      </trkpt>
      <trkpt lat="45.26312" lon="0.38807">
        <ele>71</ele>
        <time>2025-04-16T10:26:50Z</time>
      </trkpt>
      <trkpt lat="45.26306" lon="0.38785">
        <ele>71</ele>
        <time>2025-04-16T10:26:53Z</time>
      </trkpt>
      <trkpt lat="45.26304" lon="0.38759">
        <ele>72</ele>
        <time>2025-04-16T10:26:57Z</time>
      </trkpt>
      <trkpt lat="45.26307" lon="0.38519">
        <ele>78</ele>
        <time>2025-04-16T10:27:27Z</time>
      </trkpt>
      <trkpt lat="45.26305" lon="0.38475">
        <ele>78</ele>
        <time>2025-04-16T10:27:32Z</time>
      </trkpt>
      <trkpt lat="45.2629" lon="0.38307">
        <ele>78</ele>
        <time>2025-04-16T10:27:53Z</time>
      </trkpt>
      <trkpt lat="45.26285" lon="0.38233">
        <ele>78</ele>
        <time>2025-04-16T10:28:03Z</time>
      </trkpt>
      <trkpt lat="45.26284" lon="0.38172">
        <ele>78</ele>
        <time>2025-04-16T10:28:10Z</time>
      </trkpt>
      <trkpt lat="45.26288" lon="0.38084">
        <ele>78</ele>
        <time>2025-04-16T10:28:21Z</time>
      </trkpt>
      <trkpt lat="45.26293" lon="0.38053">
        <ele>77</ele>
        <time>2025-04-16T10:28:25Z</time>
      </trkpt>
      <trkpt lat="45.26297" lon="0.38032">
        <ele>77</ele>
        <time>2025-04-16T10:28:28Z</time>
      </trkpt>
      <trkpt lat="45.2631" lon="0.3799">
        <ele>77</ele>
        <time>2025-04-16T10:28:34Z</time>
      </trkpt>
      <trkpt lat="45.26335" lon="0.37922">
        <ele>77</ele>
        <time>2025-04-16T10:28:44Z</time>
      </trkpt>
      <trkpt lat="45.26341" lon="0.37884">
        <ele>78</ele>
        <time>2025-04-16T10:28:48Z</time>
      </trkpt>
      <trkpt lat="45.26342" lon="0.37856">
        <ele>78</ele>
        <time>2025-04-16T10:28:52Z</time>
      </trkpt>
      <trkpt lat="45.2634" lon="0.37826">
        <ele>79</ele>
        <time>2025-04-16T10:28:56Z</time>
      </trkpt>
      <trkpt lat="45.26335" lon="0.37798">
        <ele>79</ele>
        <time>2025-04-16T10:28:59Z</time>
      </trkpt>
      <trkpt lat="45.2632" lon="0.37749">
        <ele>78</ele>
        <time>2025-04-16T10:29:06Z</time>
      </trkpt>
      <trkpt lat="45.26312" lon="0.3771">
        <ele>78</ele>
        <time>2025-04-16T10:29:11Z</time>
      </trkpt>
      <trkpt lat="45.26307" lon="0.37659">
        <ele>77</ele>
        <time>2025-04-16T10:29:18Z</time>
      </trkpt>
      <trkpt lat="45.26304" lon="0.37557">
        <ele>75</ele>
        <time>2025-04-16T10:29:30Z</time>
      </trkpt>
      <trkpt lat="45.26294" lon="0.37473">
        <ele>74</ele>
        <time>2025-04-16T10:29:41Z</time>
      </trkpt>
      <trkpt lat="45.26291" lon="0.37435">
        <ele>74</ele>
        <time>2025-04-16T10:29:46Z</time>
      </trkpt>
      <trkpt lat="45.2629" lon="0.37407">
        <ele>74</ele>
        <time>2025-04-16T10:29:49Z</time>
      </trkpt>
      <trkpt lat="45.26295" lon="0.37243">
        <ele>68</ele>
        <time>2025-04-16T10:30:10Z</time>
      </trkpt>
      <trkpt lat="45.26295" lon="0.37219">
        <ele>67</ele>
        <time>2025-04-16T10:30:13Z</time>
      </trkpt>
      <trkpt lat="45.26299" lon="0.37017">
        <ele>67</ele>
        <time>2025-04-16T10:30:38Z</time>
      </trkpt>
      <trkpt lat="45.26264" lon="0.36545">
        <ele>71</ele>
        <time>2025-04-16T10:31:38Z</time>
      </trkpt>
      <trkpt lat="45.2626" lon="0.36454">
        <ele>71</ele>
        <time>2025-04-16T10:31:49Z</time>
      </trkpt>
      <trkpt lat="45.26238" lon="0.36376">
        <ele>69</ele>
        <time>2025-04-16T10:32:00Z</time>
      </trkpt>
      <trkpt lat="45.2623" lon="0.36336">
        <ele>69</ele>
        <time>2025-04-16T10:32:05Z</time>
      </trkpt>
      <trkpt lat="45.26227" lon="0.36312">
        <ele>69</ele>
        <time>2025-04-16T10:32:08Z</time>
      </trkpt>
      <trkpt lat="45.26225" lon="0.36273">
        <ele>69</ele>
        <time>2025-04-16T10:32:13Z</time>
      </trkpt>
      <trkpt lat="45.26225" lon="0.36143">
        <ele>68</ele>
        <time>2025-04-16T10:32:29Z</time>
      </trkpt>
      <trkpt lat="45.26216" lon="0.36088">
        <ele>67</ele>
        <time>2025-04-16T10:32:36Z</time>
      </trkpt>
      <trkpt lat="45.26214" lon="0.36082">
        <ele>67</ele>
        <time>2025-04-16T10:32:37Z</time>
      </trkpt>
      <trkpt lat="45.26199" lon="0.36014">
        <ele>66</ele>
        <time>2025-04-16T10:32:46Z</time>
      </trkpt>
      <trkpt lat="45.26194" lon="0.35955">
        <ele>65</ele>
        <time>2025-04-16T10:32:53Z</time>
      </trkpt>
      <trkpt lat="45.26191" lon="0.35837">
        <ele>64</ele>
        <time>2025-04-16T10:33:08Z</time>
      </trkpt>
      <trkpt lat="45.26186" lon="0.35739">
        <ele>66</ele>
        <time>2025-04-16T10:33:20Z</time>
      </trkpt>
      <trkpt lat="45.26148" lon="0.35455">
        <ele>65</ele>
        <time>2025-04-16T10:33:57Z</time>
      </trkpt>
      <trkpt lat="45.26146" lon="0.35406">
        <ele>65</ele>
        <time>2025-04-16T10:34:03Z</time>
      </trkpt>
      <trkpt lat="45.26148" lon="0.35373">
        <ele>65</ele>
        <time>2025-04-16T10:34:07Z</time>
      </trkpt>
      <trkpt lat="45.26154" lon="0.35333">
        <ele>65</ele>
        <time>2025-04-16T10:34:12Z</time>
      </trkpt>
      <trkpt lat="45.2625" lon="0.3476">
        <ele>64</ele>
        <time>2025-04-16T10:35:26Z</time>
      </trkpt>
      <trkpt lat="45.26254" lon="0.34733">
        <ele>64</ele>
        <time>2025-04-16T10:35:29Z</time>
      </trkpt>
      <trkpt lat="45.26254" lon="0.34713">
        <ele>64</ele>
        <time>2025-04-16T10:35:32Z</time>
      </trkpt>
      <trkpt lat="45.26249" lon="0.34681">
        <ele>63</ele>
        <time>2025-04-16T10:35:36Z</time>
      </trkpt>
      <trkpt lat="45.26135" lon="0.34322">
        <ele>61</ele>
        <time>2025-04-16T10:36:25Z</time>
      </trkpt>
      <trkpt lat="45.26131" lon="0.34298">
        <ele>61</ele>
        <time>2025-04-16T10:36:28Z</time>
      </trkpt>
      <trkpt lat="45.26132" lon="0.34295">
        <ele>61</ele>
        <time>2025-04-16T10:36:29Z</time>
      </trkpt>
      <trkpt lat="45.26133" lon="0.34285">
        <ele>61</ele>
        <time>2025-04-16T10:36:30Z</time>
      </trkpt>
      <trkpt lat="45.26128" lon="0.34278">
        <ele>61</ele>
        <time>2025-04-16T10:36:31Z</time>
      </trkpt>
      <trkpt lat="45.26122" lon="0.34276">
        <ele>61</ele>
        <time>2025-04-16T10:36:32Z</time>
      </trkpt>
      <trkpt lat="45.2612" lon="0.34278">
        <ele>61</ele>
        <time>2025-04-16T10:36:33Z</time>
      </trkpt>
      <trkpt lat="45.26115" lon="0.34285">
        <ele>61</ele>
        <time>2025-04-16T10:36:34Z</time>
      </trkpt>
      <trkpt lat="45.26101" lon="0.34287">
        <ele>61</ele>
        <time>2025-04-16T10:36:36Z</time>
      </trkpt>
      <trkpt lat="45.26056" lon="0.34284">
        <ele>61</ele>
        <time>2025-04-16T10:36:44Z</time>
      </trkpt>
      <trkpt lat="45.25963" lon="0.34288">
        <ele>61</ele>
        <time>2025-04-16T10:37:01Z</time>
      </trkpt>
      <trkpt lat="45.25925" lon="0.34288">
        <ele>61</ele>
        <time>2025-04-16T10:37:08Z</time>
      </trkpt>
      <trkpt lat="45.25882" lon="0.34289">
        <ele>62</ele>
        <time>2025-04-16T10:37:15Z</time>
      </trkpt>
      <trkpt lat="45.25797" lon="0.3429">
        <ele>63</ele>
        <time>2025-04-16T10:37:31Z</time>
      </trkpt>
      <trkpt lat="45.25768" lon="0.34291">
        <ele>62</ele>
        <time>2025-04-16T10:37:36Z</time>
      </trkpt>
      <trkpt lat="45.25715" lon="0.34292">
        <ele>62</ele>
        <time>2025-04-16T10:37:45Z</time>
      </trkpt>
      <trkpt lat="45.25693" lon="0.3429">
        <ele>61</ele>
        <time>2025-04-16T10:37:49Z</time>
      </trkpt>
      <trkpt lat="45.25678" lon="0.34286">
        <ele>61</ele>
        <time>2025-04-16T10:37:52Z</time>
      </trkpt>
      <trkpt lat="45.2566" lon="0.34276">
        <ele>61</ele>
        <time>2025-04-16T10:37:55Z</time>
      </trkpt>
      <trkpt lat="45.25619" lon="0.34246">
        <ele>63</ele>
        <time>2025-04-16T10:38:03Z</time>
      </trkpt>
      <trkpt lat="45.25604" lon="0.34233">
        <ele>63</ele>
        <time>2025-04-16T10:38:07Z</time>
      </trkpt>
      <trkpt lat="45.25505" lon="0.34162">
        <ele>65</ele>
        <time>2025-04-16T10:38:26Z</time>
      </trkpt>
      <trkpt lat="45.25472" lon="0.34135">
        <ele>67</ele>
        <time>2025-04-16T10:38:33Z</time>
      </trkpt>
      <trkpt lat="45.25462" lon="0.34115">
        <ele>67</ele>
        <time>2025-04-16T10:38:36Z</time>
      </trkpt>
      <trkpt lat="45.25463" lon="0.34104">
        <ele>67</ele>
        <time>2025-04-16T10:38:37Z</time>
      </trkpt>
      <trkpt lat="45.25462" lon="0.34099">
        <ele>67</ele>
        <time>2025-04-16T10:38:38Z</time>
      </trkpt>
      <trkpt lat="45.25469" lon="0.34083">
        <ele>66</ele>
        <time>2025-04-16T10:38:41Z</time>
      </trkpt>
      <trkpt lat="45.25484" lon="0.34069">
        <ele>66</ele>
        <time>2025-04-16T10:38:44Z</time>
      </trkpt>
      <trkpt lat="45.25494" lon="0.34054">
        <ele>65</ele>
        <time>2025-04-16T10:38:46Z</time>
      </trkpt>
      <trkpt lat="45.255" lon="0.34039">
        <ele>64</ele>
        <time>2025-04-16T10:38:48Z</time>
      </trkpt>
      <trkpt lat="45.25513" lon="0.33978">
        <ele>64</ele>
        <time>2025-04-16T10:38:56Z</time>
      </trkpt>
      <trkpt lat="45.25514" lon="0.33974">
        <ele>64</ele>
        <time>2025-04-16T10:38:57Z</time>
      </trkpt>
      <trkpt lat="45.25547" lon="0.33806">
        <ele>67</ele>
        <time>2025-04-16T10:39:19Z</time>
      </trkpt>
      <trkpt lat="45.25549" lon="0.33787">
        <ele>67</ele>
        <time>2025-04-16T10:39:21Z</time>
      </trkpt>
      <trkpt lat="45.2555" lon="0.33766">
        <ele>68</ele>
        <time>2025-04-16T10:39:24Z</time>
      </trkpt>
      <trkpt lat="45.25541" lon="0.33708">
        <ele>69</ele>
        <time>2025-04-16T10:39:31Z</time>
      </trkpt>
      <trkpt lat="45.25539" lon="0.33679">
        <ele>69</ele>
        <time>2025-04-16T10:39:35Z</time>
      </trkpt>
      <trkpt lat="45.25536" lon="0.33672">
        <ele>70</ele>
        <time>2025-04-16T10:39:36Z</time>
      </trkpt>
      <trkpt lat="45.2553" lon="0.33667">
        <ele>70</ele>
        <time>2025-04-16T10:39:37Z</time>
      </trkpt>
      <trkpt lat="45.25452" lon="0.33655">
        <ele>70</ele>
        <time>2025-04-16T10:39:51Z</time>
      </trkpt>
      <trkpt lat="45.25437" lon="0.3365">
        <ele>69</ele>
        <time>2025-04-16T10:39:54Z</time>
      </trkpt>
      <trkpt lat="45.25158" lon="0.33606">
        <ele>72</ele>
        <time>2025-04-16T10:40:44Z</time>
      </trkpt>
      <trkpt lat="45.25076" lon="0.33593">
        <ele>72</ele>
        <time>2025-04-16T10:40:59Z</time>
      </trkpt>
      <trkpt lat="45.25073" lon="0.33623">
        <ele>71</ele>
        <time>2025-04-16T10:41:02Z</time>
      </trkpt>
      <trkpt lat="45.25077" lon="0.33681">
        <ele>70</ele>
        <time>2025-04-16T10:41:10Z</time>
      </trkpt>
      <trkpt lat="45.24984" lon="0.337">
        <ele>72</ele>
        <time>2025-04-16T10:41:26Z</time>
      </trkpt>
      <trkpt lat="45.24982" lon="0.337">
        <ele>72</ele>
        <time>2025-04-16T10:41:27Z</time>
      </trkpt>
    </trkseg>
  </trk>
  <trk>
    <name><![CDATA[dimanche  105km]]></name>
    <extensions>
      <line xmlns="http://www.topografix.com/GPX/gpx_style/0/2">
        <color>FF0000</color>
        <width>7</width>
          <extensions>
            <sens>1</sens>
          </extensions>
      </line>
    </extensions>
    <trkseg>
      <trkpt lat="45.24959" lon="0.33699">
        <ele>72</ele>
        <time>2025-04-16T07:00:33Z</time>
      </trkpt>
      <trkpt lat="45.24959" lon="0.33705">
        <ele>72</ele>
        <time>2025-04-16T07:00:34Z</time>
      </trkpt>
      <trkpt lat="45.24984" lon="0.337">
        <ele>72</ele>
        <time>2025-04-16T07:00:38Z</time>
      </trkpt>
      <trkpt lat="45.25001" lon="0.33696">
        <ele>72</ele>
        <time>2025-04-16T07:00:41Z</time>
      </trkpt>
      <trkpt lat="45.25015" lon="0.33694">
        <ele>71</ele>
        <time>2025-04-16T07:00:44Z</time>
      </trkpt>
      <trkpt lat="45.2503" lon="0.33691">
        <ele>71</ele>
        <time>2025-04-16T07:00:47Z</time>
      </trkpt>
      <trkpt lat="45.25043" lon="0.33688">
        <ele>71</ele>
        <time>2025-04-16T07:00:49Z</time>
      </trkpt>
      <trkpt lat="45.25052" lon="0.33686">
        <ele>71</ele>
        <time>2025-04-16T07:00:50Z</time>
      </trkpt>
      <trkpt lat="45.25077" lon="0.33681">
        <ele>70</ele>
        <time>2025-04-16T07:00:55Z</time>
      </trkpt>
      <trkpt lat="45.25073" lon="0.33623">
        <ele>71</ele>
        <time>2025-04-16T07:01:02Z</time>
      </trkpt>
      <trkpt lat="45.25076" lon="0.33593">
        <ele>72</ele>
        <time>2025-04-16T07:01:06Z</time>
      </trkpt>
      <trkpt lat="45.25116" lon="0.33599">
        <ele>72</ele>
        <time>2025-04-16T07:01:13Z</time>
      </trkpt>
      <trkpt lat="45.25248" lon="0.33621">
        <ele>72</ele>
        <time>2025-04-16T07:01:37Z</time>
      </trkpt>
      <trkpt lat="45.25271" lon="0.33624">
        <ele>72</ele>
        <time>2025-04-16T07:01:41Z</time>
      </trkpt>
      <trkpt lat="45.25296" lon="0.33628">
        <ele>72</ele>
        <time>2025-04-16T07:01:45Z</time>
      </trkpt>
      <trkpt lat="45.25316" lon="0.3363">
        <ele>71</ele>
        <time>2025-04-16T07:01:49Z</time>
      </trkpt>
      <trkpt lat="45.25437" lon="0.3365">
        <ele>69</ele>
        <time>2025-04-16T07:02:11Z</time>
      </trkpt>
      <trkpt lat="45.25452" lon="0.33655">
        <ele>70</ele>
        <time>2025-04-16T07:02:13Z</time>
      </trkpt>
      <trkpt lat="45.2553" lon="0.33667">
        <ele>70</ele>
        <time>2025-04-16T07:02:27Z</time>
      </trkpt>
      <trkpt lat="45.25536" lon="0.33672">
        <ele>70</ele>
        <time>2025-04-16T07:02:29Z</time>
      </trkpt>
      <trkpt lat="45.25539" lon="0.33679">
        <ele>69</ele>
        <time>2025-04-16T07:02:30Z</time>
      </trkpt>
      <trkpt lat="45.25541" lon="0.33708">
        <ele>69</ele>
        <time>2025-04-16T07:02:33Z</time>
      </trkpt>
      <trkpt lat="45.25547" lon="0.33741">
        <ele>68</ele>
        <time>2025-04-16T07:02:38Z</time>
      </trkpt>
      <trkpt lat="45.2555" lon="0.33766">
        <ele>68</ele>
        <time>2025-04-16T07:02:41Z</time>
      </trkpt>
      <trkpt lat="45.25549" lon="0.33787">
        <ele>67</ele>
        <time>2025-04-16T07:02:43Z</time>
      </trkpt>
      <trkpt lat="45.25547" lon="0.33806">
        <ele>67</ele>
        <time>2025-04-16T07:02:46Z</time>
      </trkpt>
      <trkpt lat="45.25514" lon="0.33974">
        <ele>64</ele>
        <time>2025-04-16T07:03:08Z</time>
      </trkpt>
      <trkpt lat="45.25513" lon="0.33978">
        <ele>64</ele>
        <time>2025-04-16T07:03:08Z</time>
      </trkpt>
      <trkpt lat="45.25511" lon="0.33989">
        <ele>64</ele>
        <time>2025-04-16T07:03:10Z</time>
      </trkpt>
      <trkpt lat="45.25507" lon="0.3401">
        <ele>64</ele>
        <time>2025-04-16T07:03:12Z</time>
      </trkpt>
      <trkpt lat="45.255" lon="0.34039">
        <ele>64</ele>
        <time>2025-04-16T07:03:16Z</time>
      </trkpt>
      <trkpt lat="45.2549" lon="0.34061">
        <ele>65</ele>
        <time>2025-04-16T07:03:19Z</time>
      </trkpt>
      <trkpt lat="45.25484" lon="0.34069">
        <ele>66</ele>
        <time>2025-04-16T07:03:21Z</time>
      </trkpt>
      <trkpt lat="45.25471" lon="0.34081">
        <ele>66</ele>
        <time>2025-04-16T07:03:24Z</time>
      </trkpt>
      <trkpt lat="45.25452" lon="0.34092">
        <ele>67</ele>
        <time>2025-04-16T07:03:27Z</time>
      </trkpt>
      <trkpt lat="45.25447" lon="0.34094">
        <ele>68</ele>
        <time>2025-04-16T07:03:28Z</time>
      </trkpt>
      <trkpt lat="45.25442" lon="0.34104">
        <ele>68</ele>
        <time>2025-04-16T07:03:30Z</time>
      </trkpt>
      <trkpt lat="45.25442" lon="0.34109">
        <ele>68</ele>
        <time>2025-04-16T07:03:30Z</time>
      </trkpt>
      <trkpt lat="45.25444" lon="0.34115">
        <ele>68</ele>
        <time>2025-04-16T07:03:31Z</time>
      </trkpt>
      <trkpt lat="45.25449" lon="0.34121">
        <ele>68</ele>
        <time>2025-04-16T07:03:32Z</time>
      </trkpt>
      <trkpt lat="45.25456" lon="0.34121">
        <ele>67</ele>
        <time>2025-04-16T07:03:34Z</time>
      </trkpt>
      <trkpt lat="45.25472" lon="0.34135">
        <ele>67</ele>
        <time>2025-04-16T07:03:37Z</time>
      </trkpt>
      <trkpt lat="45.25505" lon="0.34162">
        <ele>65</ele>
        <time>2025-04-16T07:03:44Z</time>
      </trkpt>
      <trkpt lat="45.25516" lon="0.34169">
        <ele>65</ele>
        <time>2025-04-16T07:03:46Z</time>
      </trkpt>
      <trkpt lat="45.25604" lon="0.34233">
        <ele>63</ele>
        <time>2025-04-16T07:04:03Z</time>
      </trkpt>
      <trkpt lat="45.25619" lon="0.34246">
        <ele>63</ele>
        <time>2025-04-16T07:04:07Z</time>
      </trkpt>
      <trkpt lat="45.2566" lon="0.34276">
        <ele>61</ele>
        <time>2025-04-16T07:04:15Z</time>
      </trkpt>
      <trkpt lat="45.25678" lon="0.34286">
        <ele>61</ele>
        <time>2025-04-16T07:04:18Z</time>
      </trkpt>
      <trkpt lat="45.25693" lon="0.3429">
        <ele>61</ele>
        <time>2025-04-16T07:04:21Z</time>
      </trkpt>
      <trkpt lat="45.25715" lon="0.34292">
        <ele>62</ele>
        <time>2025-04-16T07:04:25Z</time>
      </trkpt>
      <trkpt lat="45.25768" lon="0.34291">
        <ele>62</ele>
        <time>2025-04-16T07:04:34Z</time>
      </trkpt>
      <trkpt lat="45.25797" lon="0.3429">
        <ele>63</ele>
        <time>2025-04-16T07:04:39Z</time>
      </trkpt>
      <trkpt lat="45.25925" lon="0.34288">
        <ele>61</ele>
        <time>2025-04-16T07:05:02Z</time>
      </trkpt>
      <trkpt lat="45.25963" lon="0.34288">
        <ele>61</ele>
        <time>2025-04-16T07:05:09Z</time>
      </trkpt>
      <trkpt lat="45.26056" lon="0.34284">
        <ele>61</ele>
        <time>2025-04-16T07:05:26Z</time>
      </trkpt>
      <trkpt lat="45.26101" lon="0.34287">
        <ele>61</ele>
        <time>2025-04-16T07:05:34Z</time>
      </trkpt>
      <trkpt lat="45.26115" lon="0.34294">
        <ele>61</ele>
        <time>2025-04-16T07:05:36Z</time>
      </trkpt>
      <trkpt lat="45.26117" lon="0.343">
        <ele>61</ele>
        <time>2025-04-16T07:05:37Z</time>
      </trkpt>
      <trkpt lat="45.26125" lon="0.34303">
        <ele>61</ele>
        <time>2025-04-16T07:05:39Z</time>
      </trkpt>
      <trkpt lat="45.26135" lon="0.34322">
        <ele>61</ele>
        <time>2025-04-16T07:05:42Z</time>
      </trkpt>
      <trkpt lat="45.26167" lon="0.34427">
        <ele>62</ele>
        <time>2025-04-16T07:05:56Z</time>
      </trkpt>
      <trkpt lat="45.26249" lon="0.34681">
        <ele>63</ele>
        <time>2025-04-16T07:06:31Z</time>
      </trkpt>
      <trkpt lat="45.26254" lon="0.34713">
        <ele>64</ele>
        <time>2025-04-16T07:06:35Z</time>
      </trkpt>
      <trkpt lat="45.26254" lon="0.34733">
        <ele>64</ele>
        <time>2025-04-16T07:06:37Z</time>
      </trkpt>
      <trkpt lat="45.2625" lon="0.3476">
        <ele>64</ele>
        <time>2025-04-16T07:06:41Z</time>
      </trkpt>
      <trkpt lat="45.26201" lon="0.35053">
        <ele>64</ele>
        <time>2025-04-16T07:07:19Z</time>
      </trkpt>
      <trkpt lat="45.2618" lon="0.35175">
        <ele>64</ele>
        <time>2025-04-16T07:07:34Z</time>
      </trkpt>
      <trkpt lat="45.26154" lon="0.35333">
        <ele>65</ele>
        <time>2025-04-16T07:07:55Z</time>
      </trkpt>
      <trkpt lat="45.26148" lon="0.35373">
        <ele>65</ele>
        <time>2025-04-16T07:08:00Z</time>
      </trkpt>
      <trkpt lat="45.26146" lon="0.35406">
        <ele>65</ele>
        <time>2025-04-16T07:08:04Z</time>
      </trkpt>
      <trkpt lat="45.26148" lon="0.35455">
        <ele>65</ele>
        <time>2025-04-16T07:08:10Z</time>
      </trkpt>
      <trkpt lat="45.26186" lon="0.35739">
        <ele>66</ele>
        <time>2025-04-16T07:08:46Z</time>
      </trkpt>
      <trkpt lat="45.26191" lon="0.35837">
        <ele>64</ele>
        <time>2025-04-16T07:08:59Z</time>
      </trkpt>
      <trkpt lat="45.26194" lon="0.35955">
        <ele>65</ele>
        <time>2025-04-16T07:09:13Z</time>
      </trkpt>
      <trkpt lat="45.26199" lon="0.36014">
        <ele>66</ele>
        <time>2025-04-16T07:09:21Z</time>
      </trkpt>
      <trkpt lat="45.26212" lon="0.36074">
        <ele>67</ele>
        <time>2025-04-16T07:09:29Z</time>
      </trkpt>
      <trkpt lat="45.26214" lon="0.36082">
        <ele>67</ele>
        <time>2025-04-16T07:09:30Z</time>
      </trkpt>
      <trkpt lat="45.26216" lon="0.36088">
        <ele>67</ele>
        <time>2025-04-16T07:09:31Z</time>
      </trkpt>
      <trkpt lat="45.26222" lon="0.36124">
        <ele>67</ele>
        <time>2025-04-16T07:09:35Z</time>
      </trkpt>
      <trkpt lat="45.26225" lon="0.36143">
        <ele>68</ele>
        <time>2025-04-16T07:09:38Z</time>
      </trkpt>
      <trkpt lat="45.26225" lon="0.36273">
        <ele>69</ele>
        <time>2025-04-16T07:09:54Z</time>
      </trkpt>
      <trkpt lat="45.26227" lon="0.36312">
        <ele>69</ele>
        <time>2025-04-16T07:09:59Z</time>
      </trkpt>
      <trkpt lat="45.2623" lon="0.36336">
        <ele>69</ele>
        <time>2025-04-16T07:10:02Z</time>
      </trkpt>
      <trkpt lat="45.26238" lon="0.36376">
        <ele>69</ele>
        <time>2025-04-16T07:10:07Z</time>
      </trkpt>
      <trkpt lat="45.2626" lon="0.36454">
        <ele>71</ele>
        <time>2025-04-16T07:10:18Z</time>
      </trkpt>
      <trkpt lat="45.26264" lon="0.36545">
        <ele>71</ele>
        <time>2025-04-16T07:10:29Z</time>
      </trkpt>
      <trkpt lat="45.26268" lon="0.36602">
        <ele>72</ele>
        <time>2025-04-16T07:10:36Z</time>
      </trkpt>
      <trkpt lat="45.26299" lon="0.37017">
        <ele>67</ele>
        <time>2025-04-16T07:11:28Z</time>
      </trkpt>
      <trkpt lat="45.26295" lon="0.37219">
        <ele>67</ele>
        <time>2025-04-16T07:11:54Z</time>
      </trkpt>
      <trkpt lat="45.26295" lon="0.37243">
        <ele>68</ele>
        <time>2025-04-16T07:11:57Z</time>
      </trkpt>
      <trkpt lat="45.2629" lon="0.37407">
        <ele>74</ele>
        <time>2025-04-16T07:12:17Z</time>
      </trkpt>
      <trkpt lat="45.26291" lon="0.37435">
        <ele>74</ele>
        <time>2025-04-16T07:12:21Z</time>
      </trkpt>
      <trkpt lat="45.26294" lon="0.37473">
        <ele>74</ele>
        <time>2025-04-16T07:12:26Z</time>
      </trkpt>
      <trkpt lat="45.26304" lon="0.37557">
        <ele>75</ele>
        <time>2025-04-16T07:12:36Z</time>
      </trkpt>
      <trkpt lat="45.26307" lon="0.37659">
        <ele>77</ele>
        <time>2025-04-16T07:12:49Z</time>
      </trkpt>
      <trkpt lat="45.26312" lon="0.3771">
        <ele>78</ele>
        <time>2025-04-16T07:12:56Z</time>
      </trkpt>
      <trkpt lat="45.2632" lon="0.37749">
        <ele>78</ele>
        <time>2025-04-16T07:13:01Z</time>
      </trkpt>
      <trkpt lat="45.26335" lon="0.37798">
        <ele>79</ele>
        <time>2025-04-16T07:13:07Z</time>
      </trkpt>
      <trkpt lat="45.2634" lon="0.37826">
        <ele>79</ele>
        <time>2025-04-16T07:13:11Z</time>
      </trkpt>
      <trkpt lat="45.26342" lon="0.37856">
        <ele>78</ele>
        <time>2025-04-16T07:13:15Z</time>
      </trkpt>
      <trkpt lat="45.26341" lon="0.37884">
        <ele>78</ele>
        <time>2025-04-16T07:13:18Z</time>
      </trkpt>
      <trkpt lat="45.26335" lon="0.37922">
        <ele>77</ele>
        <time>2025-04-16T07:13:23Z</time>
      </trkpt>
      <trkpt lat="45.2631" lon="0.3799">
        <ele>77</ele>
        <time>2025-04-16T07:13:33Z</time>
      </trkpt>
      <trkpt lat="45.26297" lon="0.38032">
        <ele>77</ele>
        <time>2025-04-16T07:13:38Z</time>
      </trkpt>
      <trkpt lat="45.26293" lon="0.38053">
        <ele>77</ele>
        <time>2025-04-16T07:13:41Z</time>
      </trkpt>
      <trkpt lat="45.26288" lon="0.38084">
        <ele>78</ele>
        <time>2025-04-16T07:13:45Z</time>
      </trkpt>
      <trkpt lat="45.26284" lon="0.38172">
        <ele>78</ele>
        <time>2025-04-16T07:13:56Z</time>
      </trkpt>
      <trkpt lat="45.26285" lon="0.38233">
        <ele>78</ele>
        <time>2025-04-16T07:14:04Z</time>
      </trkpt>
      <trkpt lat="45.2629" lon="0.38307">
        <ele>78</ele>
        <time>2025-04-16T07:14:13Z</time>
      </trkpt>
      <trkpt lat="45.26305" lon="0.38475">
        <ele>78</ele>
        <time>2025-04-16T07:14:34Z</time>
      </trkpt>
      <trkpt lat="45.26307" lon="0.38519">
        <ele>78</ele>
        <time>2025-04-16T07:14:40Z</time>
      </trkpt>
      <trkpt lat="45.26306" lon="0.38562">
        <ele>77</ele>
        <time>2025-04-16T07:14:45Z</time>
      </trkpt>
      <trkpt lat="45.26306" lon="0.38595">
        <ele>77</ele>
        <time>2025-04-16T07:14:49Z</time>
      </trkpt>
      <trkpt lat="45.26304" lon="0.38759">
        <ele>72</ele>
        <time>2025-04-16T07:15:10Z</time>
      </trkpt>
      <trkpt lat="45.26306" lon="0.38785">
        <ele>71</ele>
        <time>2025-04-16T07:15:13Z</time>
      </trkpt>
      <trkpt lat="45.26312" lon="0.38807">
        <ele>71</ele>
        <time>2025-04-16T07:15:16Z</time>
      </trkpt>
      <trkpt lat="45.26323" lon="0.38829">
        <ele>71</ele>
        <time>2025-04-16T07:15:20Z</time>
      </trkpt>
      <trkpt lat="45.26357" lon="0.38898">
        <ele>70</ele>
        <time>2025-04-16T07:15:30Z</time>
      </trkpt>
      <trkpt lat="45.26366" lon="0.38926">
        <ele>69</ele>
        <time>2025-04-16T07:15:34Z</time>
      </trkpt>
      <trkpt lat="45.26368" lon="0.3894">
        <ele>69</ele>
        <time>2025-04-16T07:15:36Z</time>
      </trkpt>
      <trkpt lat="45.26366" lon="0.38959">
        <ele>69</ele>
        <time>2025-04-16T07:15:38Z</time>
      </trkpt>
      <trkpt lat="45.26355" lon="0.39054">
        <ele>68</ele>
        <time>2025-04-16T07:15:50Z</time>
      </trkpt>
      <trkpt lat="45.26355" lon="0.39069">
        <ele>67</ele>
        <time>2025-04-16T07:15:52Z</time>
      </trkpt>
      <trkpt lat="45.26357" lon="0.39081">
        <ele>67</ele>
        <time>2025-04-16T07:15:54Z</time>
      </trkpt>
      <trkpt lat="45.26365" lon="0.3909">
        <ele>67</ele>
        <time>2025-04-16T07:15:55Z</time>
      </trkpt>
      <trkpt lat="45.26373" lon="0.39095">
        <ele>67</ele>
        <time>2025-04-16T07:15:57Z</time>
      </trkpt>
      <trkpt lat="45.26384" lon="0.39096">
        <ele>68</ele>
        <time>2025-04-16T07:15:59Z</time>
      </trkpt>
      <trkpt lat="45.26398" lon="0.39094">
        <ele>68</ele>
        <time>2025-04-16T07:16:01Z</time>
      </trkpt>
      <trkpt lat="45.26497" lon="0.39077">
        <ele>68</ele>
        <time>2025-04-16T07:16:19Z</time>
      </trkpt>
      <trkpt lat="45.26536" lon="0.39076">
        <ele>70</ele>
        <time>2025-04-16T07:16:26Z</time>
      </trkpt>
      <trkpt lat="45.26637" lon="0.39091">
        <ele>71</ele>
        <time>2025-04-16T07:16:44Z</time>
      </trkpt>
      <trkpt lat="45.26673" lon="0.39101">
        <ele>72</ele>
        <time>2025-04-16T07:16:51Z</time>
      </trkpt>
      <trkpt lat="45.26691" lon="0.39108">
        <ele>72</ele>
        <time>2025-04-16T07:16:54Z</time>
      </trkpt>
      <trkpt lat="45.26715" lon="0.3913">
        <ele>72</ele>
        <time>2025-04-16T07:16:59Z</time>
      </trkpt>
      <trkpt lat="45.26803" lon="0.39249">
        <ele>71</ele>
        <time>2025-04-16T07:17:21Z</time>
      </trkpt>
      <trkpt lat="45.26813" lon="0.39264">
        <ele>71</ele>
        <time>2025-04-16T07:17:23Z</time>
      </trkpt>
      <trkpt lat="45.26839" lon="0.39304">
        <ele>71</ele>
        <time>2025-04-16T07:17:30Z</time>
      </trkpt>
      <trkpt lat="45.26925" lon="0.39423">
        <ele>79</ele>
        <time>2025-04-16T07:17:52Z</time>
      </trkpt>
      <trkpt lat="45.27049" lon="0.39595">
        <ele>84</ele>
        <time>2025-04-16T07:18:22Z</time>
      </trkpt>
      <trkpt lat="45.27067" lon="0.39623">
        <ele>85</ele>
        <time>2025-04-16T07:18:27Z</time>
      </trkpt>
      <trkpt lat="45.27139" lon="0.39769">
        <ele>85</ele>
        <time>2025-04-16T07:18:49Z</time>
      </trkpt>
      <trkpt lat="45.27183" lon="0.3986">
        <ele>83</ele>
        <time>2025-04-16T07:19:03Z</time>
      </trkpt>
      <trkpt lat="45.27211" lon="0.39897">
        <ele>84</ele>
        <time>2025-04-16T07:19:10Z</time>
      </trkpt>
      <trkpt lat="45.27242" lon="0.39936">
        <ele>84</ele>
        <time>2025-04-16T07:19:17Z</time>
      </trkpt>
      <trkpt lat="45.27268" lon="0.39962">
        <ele>85</ele>
        <time>2025-04-16T07:19:23Z</time>
      </trkpt>
      <trkpt lat="45.27294" lon="0.39986">
        <ele>86</ele>
        <time>2025-04-16T07:19:29Z</time>
      </trkpt>
      <trkpt lat="45.27382" lon="0.40043">
        <ele>88</ele>
        <time>2025-04-16T07:19:46Z</time>
      </trkpt>
      <trkpt lat="45.27437" lon="0.40061">
        <ele>87</ele>
        <time>2025-04-16T07:19:56Z</time>
      </trkpt>
      <trkpt lat="45.27511" lon="0.40071">
        <ele>88</ele>
        <time>2025-04-16T07:20:09Z</time>
      </trkpt>
      <trkpt lat="45.27536" lon="0.40079">
        <ele>89</ele>
        <time>2025-04-16T07:20:14Z</time>
      </trkpt>
      <trkpt lat="45.27596" lon="0.40107">
        <ele>90</ele>
        <time>2025-04-16T07:20:25Z</time>
      </trkpt>
      <trkpt lat="45.2772" lon="0.40151">
        <ele>88</ele>
        <time>2025-04-16T07:20:48Z</time>
      </trkpt>
      <trkpt lat="45.27789" lon="0.40157">
        <ele>89</ele>
        <time>2025-04-16T07:21:00Z</time>
      </trkpt>
      <trkpt lat="45.28123" lon="0.40288">
        <ele>93</ele>
        <time>2025-04-16T07:22:02Z</time>
      </trkpt>
      <trkpt lat="45.28147" lon="0.40294">
        <ele>93</ele>
        <time>2025-04-16T07:22:06Z</time>
      </trkpt>
      <trkpt lat="45.28248" lon="0.4031">
        <ele>91</ele>
        <time>2025-04-16T07:22:24Z</time>
      </trkpt>
      <trkpt lat="45.28257" lon="0.40312">
        <ele>91</ele>
        <time>2025-04-16T07:22:26Z</time>
      </trkpt>
      <trkpt lat="45.28359" lon="0.40327">
        <ele>94</ele>
        <time>2025-04-16T07:22:44Z</time>
      </trkpt>
      <trkpt lat="45.28396" lon="0.40327">
        <ele>95</ele>
        <time>2025-04-16T07:22:50Z</time>
      </trkpt>
      <trkpt lat="45.28502" lon="0.40322">
        <ele>99</ele>
        <time>2025-04-16T07:23:09Z</time>
      </trkpt>
      <trkpt lat="45.28624" lon="0.40306">
        <ele>103</ele>
        <time>2025-04-16T07:23:31Z</time>
      </trkpt>
      <trkpt lat="45.28647" lon="0.40308">
        <ele>103</ele>
        <time>2025-04-16T07:23:35Z</time>
      </trkpt>
      <trkpt lat="45.28816" lon="0.40385">
        <ele>98</ele>
        <time>2025-04-16T07:24:07Z</time>
      </trkpt>
      <trkpt lat="45.28836" lon="0.40392">
        <ele>98</ele>
        <time>2025-04-16T07:24:10Z</time>
      </trkpt>
      <trkpt lat="45.28867" lon="0.40397">
        <ele>100</ele>
        <time>2025-04-16T07:24:16Z</time>
      </trkpt>
      <trkpt lat="45.2889" lon="0.40405">
        <ele>101</ele>
        <time>2025-04-16T07:24:20Z</time>
      </trkpt>
      <trkpt lat="45.28904" lon="0.40415">
        <ele>101</ele>
        <time>2025-04-16T07:24:23Z</time>
      </trkpt>
      <trkpt lat="45.28933" lon="0.40442">
        <ele>102</ele>
        <time>2025-04-16T07:24:29Z</time>
      </trkpt>
      <trkpt lat="45.28946" lon="0.40452">
        <ele>102</ele>
        <time>2025-04-16T07:24:32Z</time>
      </trkpt>
      <trkpt lat="45.29082" lon="0.40506">
        <ele>106</ele>
        <time>2025-04-16T07:24:57Z</time>
      </trkpt>
      <trkpt lat="45.29194" lon="0.4055">
        <ele>105</ele>
        <time>2025-04-16T07:25:18Z</time>
      </trkpt>
      <trkpt lat="45.29216" lon="0.40554">
        <ele>105</ele>
        <time>2025-04-16T07:25:22Z</time>
      </trkpt>
      <trkpt lat="45.29258" lon="0.40555">
        <ele>107</ele>
        <time>2025-04-16T07:25:29Z</time>
      </trkpt>
      <trkpt lat="45.29273" lon="0.40557">
        <ele>109</ele>
        <time>2025-04-16T07:25:32Z</time>
      </trkpt>
      <trkpt lat="45.29288" lon="0.40564">
        <ele>109</ele>
        <time>2025-04-16T07:25:35Z</time>
      </trkpt>
      <trkpt lat="45.293" lon="0.40573">
        <ele>109</ele>
        <time>2025-04-16T07:25:37Z</time>
      </trkpt>
      <trkpt lat="45.2931" lon="0.40585">
        <ele>109</ele>
        <time>2025-04-16T07:25:39Z</time>
      </trkpt>
      <trkpt lat="45.29388" lon="0.40687">
        <ele>109</ele>
        <time>2025-04-16T07:25:58Z</time>
      </trkpt>
      <trkpt lat="45.294" lon="0.40707">
        <ele>109</ele>
        <time>2025-04-16T07:26:01Z</time>
      </trkpt>
      <trkpt lat="45.2941" lon="0.40727">
        <ele>109</ele>
        <time>2025-04-16T07:26:04Z</time>
      </trkpt>
      <trkpt lat="45.29435" lon="0.40791">
        <ele>108</ele>
        <time>2025-04-16T07:26:14Z</time>
      </trkpt>
      <trkpt lat="45.29488" lon="0.40928">
        <ele>109</ele>
        <time>2025-04-16T07:26:33Z</time>
      </trkpt>
      <trkpt lat="45.29521" lon="0.4101">
        <ele>107</ele>
        <time>2025-04-16T07:26:45Z</time>
      </trkpt>
      <trkpt lat="45.29536" lon="0.41032">
        <ele>107</ele>
        <time>2025-04-16T07:26:49Z</time>
      </trkpt>
      <trkpt lat="45.29589" lon="0.41097">
        <ele>106</ele>
        <time>2025-04-16T07:27:01Z</time>
      </trkpt>
      <trkpt lat="45.29601" lon="0.41113">
        <ele>105</ele>
        <time>2025-04-16T07:27:04Z</time>
      </trkpt>
      <trkpt lat="45.29667" lon="0.41216">
        <ele>105</ele>
        <time>2025-04-16T07:27:22Z</time>
      </trkpt>
      <trkpt lat="45.29689" lon="0.41251">
        <ele>106</ele>
        <time>2025-04-16T07:27:28Z</time>
      </trkpt>
      <trkpt lat="45.29692" lon="0.41256">
        <ele>106</ele>
        <time>2025-04-16T07:27:28Z</time>
      </trkpt>
      <trkpt lat="45.29695" lon="0.4126">
        <ele>106</ele>
        <time>2025-04-16T07:27:29Z</time>
      </trkpt>
      <trkpt lat="45.29702" lon="0.4127">
        <ele>106</ele>
        <time>2025-04-16T07:27:31Z</time>
      </trkpt>
      <trkpt lat="45.29715" lon="0.41276">
        <ele>107</ele>
        <time>2025-04-16T07:27:33Z</time>
      </trkpt>
      <trkpt lat="45.29724" lon="0.41294">
        <ele>106</ele>
        <time>2025-04-16T07:27:36Z</time>
      </trkpt>
      <trkpt lat="45.29741" lon="0.41322">
        <ele>105</ele>
        <time>2025-04-16T07:27:41Z</time>
      </trkpt>
      <trkpt lat="45.29762" lon="0.41364">
        <ele>105</ele>
        <time>2025-04-16T07:27:47Z</time>
      </trkpt>
      <trkpt lat="45.29766" lon="0.41367">
        <ele>105</ele>
        <time>2025-04-16T07:27:48Z</time>
      </trkpt>
      <trkpt lat="45.2977" lon="0.41391">
        <ele>105</ele>
        <time>2025-04-16T07:27:51Z</time>
      </trkpt>
      <trkpt lat="45.29787" lon="0.41445">
        <ele>104</ele>
        <time>2025-04-16T07:27:58Z</time>
      </trkpt>
      <trkpt lat="45.29793" lon="0.41457">
        <ele>104</ele>
        <time>2025-04-16T07:28:00Z</time>
      </trkpt>
      <trkpt lat="45.2985" lon="0.41546">
        <ele>102</ele>
        <time>2025-04-16T07:28:15Z</time>
      </trkpt>
      <trkpt lat="45.29874" lon="0.41592">
        <ele>103</ele>
        <time>2025-04-16T07:28:23Z</time>
      </trkpt>
      <trkpt lat="45.2994" lon="0.41734">
        <ele>105</ele>
        <time>2025-04-16T07:28:44Z</time>
      </trkpt>
      <trkpt lat="45.29987" lon="0.41831">
        <ele>109</ele>
        <time>2025-04-16T07:28:59Z</time>
      </trkpt>
      <trkpt lat="45.30001" lon="0.41862">
        <ele>110</ele>
        <time>2025-04-16T07:29:03Z</time>
      </trkpt>
      <trkpt lat="45.30008" lon="0.41882">
        <ele>112</ele>
        <time>2025-04-16T07:29:06Z</time>
      </trkpt>
      <trkpt lat="45.30017" lon="0.41908">
        <ele>113</ele>
        <time>2025-04-16T07:29:10Z</time>
      </trkpt>
      <trkpt lat="45.30023" lon="0.41938">
        <ele>116</ele>
        <time>2025-04-16T07:29:14Z</time>
      </trkpt>
      <trkpt lat="45.30022" lon="0.41968">
        <ele>118</ele>
        <time>2025-04-16T07:29:17Z</time>
      </trkpt>
      <trkpt lat="45.30018" lon="0.41985">
        <ele>120</ele>
        <time>2025-04-16T07:29:20Z</time>
      </trkpt>
      <trkpt lat="45.30003" lon="0.42019">
        <ele>121</ele>
        <time>2025-04-16T07:29:25Z</time>
      </trkpt>
      <trkpt lat="45.29991" lon="0.42035">
        <ele>121</ele>
        <time>2025-04-16T07:29:27Z</time>
      </trkpt>
      <trkpt lat="45.29975" lon="0.42048">
        <ele>122</ele>
        <time>2025-04-16T07:29:31Z</time>
      </trkpt>
      <trkpt lat="45.2991" lon="0.4209">
        <ele>129</ele>
        <time>2025-04-16T07:29:43Z</time>
      </trkpt>
      <trkpt lat="45.29786" lon="0.42173">
        <ele>146</ele>
        <time>2025-04-16T07:30:08Z</time>
      </trkpt>
      <trkpt lat="45.29728" lon="0.42205">
        <ele>150</ele>
        <time>2025-04-16T07:30:19Z</time>
      </trkpt>
      <trkpt lat="45.2963" lon="0.42243">
        <ele>155</ele>
        <time>2025-04-16T07:30:37Z</time>
      </trkpt>
      <trkpt lat="45.29599" lon="0.42259">
        <ele>158</ele>
        <time>2025-04-16T07:30:43Z</time>
      </trkpt>
      <trkpt lat="45.29567" lon="0.4228">
        <ele>159</ele>
        <time>2025-04-16T07:30:49Z</time>
      </trkpt>
      <trkpt lat="45.29556" lon="0.42293">
        <ele>160</ele>
        <time>2025-04-16T07:30:52Z</time>
      </trkpt>
      <trkpt lat="45.29542" lon="0.4231">
        <ele>161</ele>
        <time>2025-04-16T07:30:55Z</time>
      </trkpt>
      <trkpt lat="45.29522" lon="0.42345">
        <ele>165</ele>
        <time>2025-04-16T07:31:01Z</time>
      </trkpt>
      <trkpt lat="45.29508" lon="0.42383">
        <ele>169</ele>
        <time>2025-04-16T07:31:06Z</time>
      </trkpt>
      <trkpt lat="45.29495" lon="0.4243">
        <ele>173</ele>
        <time>2025-04-16T07:31:12Z</time>
      </trkpt>
      <trkpt lat="45.29488" lon="0.42492">
        <ele>178</ele>
        <time>2025-04-16T07:31:20Z</time>
      </trkpt>
      <trkpt lat="45.29484" lon="0.42609">
        <ele>178</ele>
        <time>2025-04-16T07:31:35Z</time>
      </trkpt>
      <trkpt lat="45.29483" lon="0.42626">
        <ele>178</ele>
        <time>2025-04-16T07:31:37Z</time>
      </trkpt>
      <trkpt lat="45.29469" lon="0.4271">
        <ele>177</ele>
        <time>2025-04-16T07:31:48Z</time>
      </trkpt>
      <trkpt lat="45.29465" lon="0.42763">
        <ele>175</ele>
        <time>2025-04-16T07:31:54Z</time>
      </trkpt>
      <trkpt lat="45.29469" lon="0.42822">
        <ele>174</ele>
        <time>2025-04-16T07:32:02Z</time>
      </trkpt>
      <trkpt lat="45.29478" lon="0.42868">
        <ele>175</ele>
        <time>2025-04-16T07:32:08Z</time>
      </trkpt>
      <trkpt lat="45.29489" lon="0.42901">
        <ele>176</ele>
        <time>2025-04-16T07:32:12Z</time>
      </trkpt>
      <trkpt lat="45.29515" lon="0.42957">
        <ele>177</ele>
        <time>2025-04-16T07:32:21Z</time>
      </trkpt>
      <trkpt lat="45.29576" lon="0.43079">
        <ele>179</ele>
        <time>2025-04-16T07:32:40Z</time>
      </trkpt>
      <trkpt lat="45.29582" lon="0.43094">
        <ele>179</ele>
        <time>2025-04-16T07:32:42Z</time>
      </trkpt>
      <trkpt lat="45.29591" lon="0.43117">
        <ele>180</ele>
        <time>2025-04-16T07:32:45Z</time>
      </trkpt>
      <trkpt lat="45.29614" lon="0.4316">
        <ele>182</ele>
        <time>2025-04-16T07:32:52Z</time>
      </trkpt>
      <trkpt lat="45.29648" lon="0.43203">
        <ele>183</ele>
        <time>2025-04-16T07:33:00Z</time>
      </trkpt>
      <trkpt lat="45.29698" lon="0.43256">
        <ele>184</ele>
        <time>2025-04-16T07:33:11Z</time>
      </trkpt>
      <trkpt lat="45.29729" lon="0.43285">
        <ele>183</ele>
        <time>2025-04-16T07:33:18Z</time>
      </trkpt>
      <trkpt lat="45.29741" lon="0.43303">
        <ele>183</ele>
        <time>2025-04-16T07:33:21Z</time>
      </trkpt>
      <trkpt lat="45.29746" lon="0.4331">
        <ele>183</ele>
        <time>2025-04-16T07:33:22Z</time>
      </trkpt>
      <trkpt lat="45.29757" lon="0.43345">
        <ele>181</ele>
        <time>2025-04-16T07:33:27Z</time>
      </trkpt>
      <trkpt lat="45.29764" lon="0.43407">
        <ele>178</ele>
        <time>2025-04-16T07:33:35Z</time>
      </trkpt>
      <trkpt lat="45.29769" lon="0.43504">
        <ele>176</ele>
        <time>2025-04-16T07:33:47Z</time>
      </trkpt>
      <trkpt lat="45.29763" lon="0.4356">
        <ele>178</ele>
        <time>2025-04-16T07:33:54Z</time>
      </trkpt>
      <trkpt lat="45.29753" lon="0.43625">
        <ele>180</ele>
        <time>2025-04-16T07:34:02Z</time>
      </trkpt>
      <trkpt lat="45.29743" lon="0.4366">
        <ele>180</ele>
        <time>2025-04-16T07:34:07Z</time>
      </trkpt>
      <trkpt lat="45.2972" lon="0.43705">
        <ele>181</ele>
        <time>2025-04-16T07:34:14Z</time>
      </trkpt>
      <trkpt lat="45.2969" lon="0.43751">
        <ele>183</ele>
        <time>2025-04-16T07:34:22Z</time>
      </trkpt>
      <trkpt lat="45.29585" lon="0.43876">
        <ele>184</ele>
        <time>2025-04-16T07:34:46Z</time>
      </trkpt>
      <trkpt lat="45.29544" lon="0.43925">
        <ele>182</ele>
        <time>2025-04-16T07:34:56Z</time>
      </trkpt>
      <trkpt lat="45.29514" lon="0.43965">
        <ele>179</ele>
        <time>2025-04-16T07:35:03Z</time>
      </trkpt>
      <trkpt lat="45.29496" lon="0.43995">
        <ele>178</ele>
        <time>2025-04-16T07:35:08Z</time>
      </trkpt>
      <trkpt lat="45.2948" lon="0.44036">
        <ele>175</ele>
        <time>2025-04-16T07:35:14Z</time>
      </trkpt>
      <trkpt lat="45.29468" lon="0.44064">
        <ele>174</ele>
        <time>2025-04-16T07:35:18Z</time>
      </trkpt>
      <trkpt lat="45.29452" lon="0.44091">
        <ele>173</ele>
        <time>2025-04-16T07:35:22Z</time>
      </trkpt>
      <trkpt lat="45.29442" lon="0.44101">
        <ele>173</ele>
        <time>2025-04-16T07:35:24Z</time>
      </trkpt>
      <trkpt lat="45.29431" lon="0.4411">
        <ele>173</ele>
        <time>2025-04-16T07:35:27Z</time>
      </trkpt>
      <trkpt lat="45.29365" lon="0.44138">
        <ele>169</ele>
        <time>2025-04-16T07:35:39Z</time>
      </trkpt>
      <trkpt lat="45.29342" lon="0.44155">
        <ele>166</ele>
        <time>2025-04-16T07:35:44Z</time>
      </trkpt>
      <trkpt lat="45.29328" lon="0.44171">
        <ele>165</ele>
        <time>2025-04-16T07:35:47Z</time>
      </trkpt>
      <trkpt lat="45.2932" lon="0.44184">
        <ele>163</ele>
        <time>2025-04-16T07:35:49Z</time>
      </trkpt>
      <trkpt lat="45.29308" lon="0.44218">
        <ele>161</ele>
        <time>2025-04-16T07:35:54Z</time>
      </trkpt>
      <trkpt lat="45.29299" lon="0.44257">
        <ele>160</ele>
        <time>2025-04-16T07:35:59Z</time>
      </trkpt>
      <trkpt lat="45.29303" lon="0.44296">
        <ele>158</ele>
        <time>2025-04-16T07:36:04Z</time>
      </trkpt>
      <trkpt lat="45.29329" lon="0.44407">
        <ele>152</ele>
        <time>2025-04-16T07:36:18Z</time>
      </trkpt>
      <trkpt lat="45.29351" lon="0.44496">
        <ele>145</ele>
        <time>2025-04-16T07:36:30Z</time>
      </trkpt>
      <trkpt lat="45.29359" lon="0.44556">
        <ele>143</ele>
        <time>2025-04-16T07:36:38Z</time>
      </trkpt>
      <trkpt lat="45.29365" lon="0.44626">
        <ele>139</ele>
        <time>2025-04-16T07:36:47Z</time>
      </trkpt>
      <trkpt lat="45.29373" lon="0.44976">
        <ele>115</ele>
        <time>2025-04-16T07:37:30Z</time>
      </trkpt>
      <trkpt lat="45.29372" lon="0.45001">
        <ele>113</ele>
        <time>2025-04-16T07:37:34Z</time>
      </trkpt>
      <trkpt lat="45.2937" lon="0.45022">
        <ele>112</ele>
        <time>2025-04-16T07:37:36Z</time>
      </trkpt>
      <trkpt lat="45.29363" lon="0.45048">
        <ele>111</ele>
        <time>2025-04-16T07:37:40Z</time>
      </trkpt>
      <trkpt lat="45.29273" lon="0.45326">
        <ele>103</ele>
        <time>2025-04-16T07:38:18Z</time>
      </trkpt>
      <trkpt lat="45.29239" lon="0.45436">
        <ele>102</ele>
        <time>2025-04-16T07:38:33Z</time>
      </trkpt>
      <trkpt lat="45.29237" lon="0.45443">
        <ele>102</ele>
        <time>2025-04-16T07:38:34Z</time>
      </trkpt>
      <trkpt lat="45.29224" lon="0.45481">
        <ele>104</ele>
        <time>2025-04-16T07:38:39Z</time>
      </trkpt>
      <trkpt lat="45.29213" lon="0.45526">
        <ele>106</ele>
        <time>2025-04-16T07:38:45Z</time>
      </trkpt>
      <trkpt lat="45.29207" lon="0.45562">
        <ele>108</ele>
        <time>2025-04-16T07:38:50Z</time>
      </trkpt>
      <trkpt lat="45.292" lon="0.45629">
        <ele>110</ele>
        <time>2025-04-16T07:38:58Z</time>
      </trkpt>
      <trkpt lat="45.29179" lon="0.45758">
        <ele>110</ele>
        <time>2025-04-16T07:39:15Z</time>
      </trkpt>
      <trkpt lat="45.29178" lon="0.45795">
        <ele>112</ele>
        <time>2025-04-16T07:39:20Z</time>
      </trkpt>
      <trkpt lat="45.29186" lon="0.45922">
        <ele>118</ele>
        <time>2025-04-16T07:39:36Z</time>
      </trkpt>
      <trkpt lat="45.2919" lon="0.46003">
        <ele>121</ele>
        <time>2025-04-16T07:39:46Z</time>
      </trkpt>
      <trkpt lat="45.29192" lon="0.46012">
        <ele>122</ele>
        <time>2025-04-16T07:39:47Z</time>
      </trkpt>
      <trkpt lat="45.29195" lon="0.46016">
        <ele>123</ele>
        <time>2025-04-16T07:39:48Z</time>
      </trkpt>
      <trkpt lat="45.29194" lon="0.46038">
        <ele>122</ele>
        <time>2025-04-16T07:39:50Z</time>
      </trkpt>
      <trkpt lat="45.29196" lon="0.46076">
        <ele>123</ele>
        <time>2025-04-16T07:39:55Z</time>
      </trkpt>
      <trkpt lat="45.29204" lon="0.4614">
        <ele>124</ele>
        <time>2025-04-16T07:40:03Z</time>
      </trkpt>
      <trkpt lat="45.29206" lon="0.46175">
        <ele>124</ele>
        <time>2025-04-16T07:40:08Z</time>
      </trkpt>
      <trkpt lat="45.29203" lon="0.46279">
        <ele>125</ele>
        <time>2025-04-16T07:40:21Z</time>
      </trkpt>
      <trkpt lat="45.29205" lon="0.46314">
        <ele>125</ele>
        <time>2025-04-16T07:40:25Z</time>
      </trkpt>
      <trkpt lat="45.29222" lon="0.46403">
        <ele>128</ele>
        <time>2025-04-16T07:40:37Z</time>
      </trkpt>
      <trkpt lat="45.29229" lon="0.46464">
        <ele>128</ele>
        <time>2025-04-16T07:40:44Z</time>
      </trkpt>
      <trkpt lat="45.29233" lon="0.46546">
        <ele>125</ele>
        <time>2025-04-16T07:40:55Z</time>
      </trkpt>
      <trkpt lat="45.29231" lon="0.46568">
        <ele>124</ele>
        <time>2025-04-16T07:40:57Z</time>
      </trkpt>
      <trkpt lat="45.29226" lon="0.46591">
        <ele>123</ele>
        <time>2025-04-16T07:41:00Z</time>
      </trkpt>
      <trkpt lat="45.29214" lon="0.46621">
        <ele>124</ele>
        <time>2025-04-16T07:41:05Z</time>
      </trkpt>
      <trkpt lat="45.292" lon="0.46648">
        <ele>124</ele>
        <time>2025-04-16T07:41:09Z</time>
      </trkpt>
      <trkpt lat="45.29193" lon="0.46676">
        <ele>125</ele>
        <time>2025-04-16T07:41:13Z</time>
      </trkpt>
      <trkpt lat="45.29194" lon="0.46709">
        <ele>127</ele>
        <time>2025-04-16T07:41:17Z</time>
      </trkpt>
      <trkpt lat="45.29208" lon="0.46843">
        <ele>131</ele>
        <time>2025-04-16T07:41:34Z</time>
      </trkpt>
      <trkpt lat="45.29224" lon="0.46895">
        <ele>131</ele>
        <time>2025-04-16T07:41:41Z</time>
      </trkpt>
      <trkpt lat="45.29261" lon="0.4699">
        <ele>130</ele>
        <time>2025-04-16T07:41:54Z</time>
      </trkpt>
      <trkpt lat="45.29388" lon="0.47317">
        <ele>136</ele>
        <time>2025-04-16T07:42:41Z</time>
      </trkpt>
      <trkpt lat="45.29394" lon="0.47348">
        <ele>135</ele>
        <time>2025-04-16T07:42:45Z</time>
      </trkpt>
      <trkpt lat="45.29395" lon="0.47355">
        <ele>135</ele>
        <time>2025-04-16T07:42:46Z</time>
      </trkpt>
      <trkpt lat="45.29397" lon="0.47379">
        <ele>134</ele>
        <time>2025-04-16T07:42:49Z</time>
      </trkpt>
      <trkpt lat="45.29392" lon="0.47423">
        <ele>133</ele>
        <time>2025-04-16T07:42:55Z</time>
      </trkpt>
      <trkpt lat="45.29382" lon="0.47473">
        <ele>134</ele>
        <time>2025-04-16T07:43:01Z</time>
      </trkpt>
      <trkpt lat="45.29368" lon="0.47505">
        <ele>135</ele>
        <time>2025-04-16T07:43:06Z</time>
      </trkpt>
      <trkpt lat="45.29349" lon="0.47535">
        <ele>136</ele>
        <time>2025-04-16T07:43:11Z</time>
      </trkpt>
      <trkpt lat="45.29326" lon="0.47561">
        <ele>137</ele>
        <time>2025-04-16T07:43:16Z</time>
      </trkpt>
      <trkpt lat="45.29301" lon="0.47583">
        <ele>140</ele>
        <time>2025-04-16T07:43:22Z</time>
      </trkpt>
      <trkpt lat="45.293" lon="0.47586">
        <ele>141</ele>
        <time>2025-04-16T07:43:22Z</time>
      </trkpt>
      <trkpt lat="45.29287" lon="0.47617">
        <ele>144</ele>
        <time>2025-04-16T07:43:26Z</time>
      </trkpt>
      <trkpt lat="45.29285" lon="0.47634">
        <ele>145</ele>
        <time>2025-04-16T07:43:29Z</time>
      </trkpt>
      <trkpt lat="45.29287" lon="0.47651">
        <ele>146</ele>
        <time>2025-04-16T07:43:31Z</time>
      </trkpt>
      <trkpt lat="45.29291" lon="0.4766">
        <ele>146</ele>
        <time>2025-04-16T07:43:32Z</time>
      </trkpt>
      <trkpt lat="45.29301" lon="0.4767">
        <ele>146</ele>
        <time>2025-04-16T07:43:34Z</time>
      </trkpt>
      <trkpt lat="45.29347" lon="0.47685">
        <ele>145</ele>
        <time>2025-04-16T07:43:43Z</time>
      </trkpt>
      <trkpt lat="45.29368" lon="0.47695">
        <ele>146</ele>
        <time>2025-04-16T07:43:47Z</time>
      </trkpt>
      <trkpt lat="45.29377" lon="0.47702">
        <ele>146</ele>
        <time>2025-04-16T07:43:48Z</time>
      </trkpt>
      <trkpt lat="45.29385" lon="0.47715">
        <ele>147</ele>
        <time>2025-04-16T07:43:51Z</time>
      </trkpt>
      <trkpt lat="45.29389" lon="0.47734">
        <ele>149</ele>
        <time>2025-04-16T07:43:53Z</time>
      </trkpt>
      <trkpt lat="45.29391" lon="0.47754">
        <ele>150</ele>
        <time>2025-04-16T07:43:56Z</time>
      </trkpt>
      <trkpt lat="45.29393" lon="0.47801">
        <ele>153</ele>
        <time>2025-04-16T07:44:01Z</time>
      </trkpt>
      <trkpt lat="45.29394" lon="0.47808">
        <ele>153</ele>
        <time>2025-04-16T07:44:02Z</time>
      </trkpt>
      <trkpt lat="45.29399" lon="0.47836">
        <ele>154</ele>
        <time>2025-04-16T07:44:06Z</time>
      </trkpt>
      <trkpt lat="45.29404" lon="0.47875">
        <ele>153</ele>
        <time>2025-04-16T07:44:11Z</time>
      </trkpt>
      <trkpt lat="45.29403" lon="0.47901">
        <ele>153</ele>
        <time>2025-04-16T07:44:14Z</time>
      </trkpt>
      <trkpt lat="45.2939" lon="0.47935">
        <ele>153</ele>
        <time>2025-04-16T07:44:19Z</time>
      </trkpt>
      <trkpt lat="45.29384" lon="0.47947">
        <ele>153</ele>
        <time>2025-04-16T07:44:21Z</time>
      </trkpt>
      <trkpt lat="45.29356" lon="0.47995">
        <ele>155</ele>
        <time>2025-04-16T07:44:29Z</time>
      </trkpt>
      <trkpt lat="45.2934" lon="0.48021">
        <ele>155</ele>
        <time>2025-04-16T07:44:33Z</time>
      </trkpt>
      <trkpt lat="45.29319" lon="0.48035">
        <ele>157</ele>
        <time>2025-04-16T07:44:37Z</time>
      </trkpt>
      <trkpt lat="45.29235" lon="0.48074">
        <ele>162</ele>
        <time>2025-04-16T07:44:53Z</time>
      </trkpt>
      <trkpt lat="45.29174" lon="0.48101">
        <ele>166</ele>
        <time>2025-04-16T07:45:04Z</time>
      </trkpt>
      <trkpt lat="45.29152" lon="0.48114">
        <ele>168</ele>
        <time>2025-04-16T07:45:08Z</time>
      </trkpt>
      <trkpt lat="45.29138" lon="0.48132">
        <ele>169</ele>
        <time>2025-04-16T07:45:12Z</time>
      </trkpt>
      <trkpt lat="45.29128" lon="0.48157">
        <ele>170</ele>
        <time>2025-04-16T07:45:15Z</time>
      </trkpt>
      <trkpt lat="45.29125" lon="0.48178">
        <ele>171</ele>
        <time>2025-04-16T07:45:18Z</time>
      </trkpt>
      <trkpt lat="45.29125" lon="0.48199">
        <ele>172</ele>
        <time>2025-04-16T07:45:21Z</time>
      </trkpt>
      <trkpt lat="45.29131" lon="0.48221">
        <ele>173</ele>
        <time>2025-04-16T07:45:24Z</time>
      </trkpt>
      <trkpt lat="45.29139" lon="0.4824">
        <ele>173</ele>
        <time>2025-04-16T07:45:26Z</time>
      </trkpt>
      <trkpt lat="45.29151" lon="0.48251">
        <ele>173</ele>
        <time>2025-04-16T07:45:29Z</time>
      </trkpt>
      <trkpt lat="45.29167" lon="0.48259">
        <ele>173</ele>
        <time>2025-04-16T07:45:32Z</time>
      </trkpt>
      <trkpt lat="45.29202" lon="0.48266">
        <ele>172</ele>
        <time>2025-04-16T07:45:38Z</time>
      </trkpt>
      <trkpt lat="45.29215" lon="0.48273">
        <ele>172</ele>
        <time>2025-04-16T07:45:41Z</time>
      </trkpt>
      <trkpt lat="45.29223" lon="0.48281">
        <ele>172</ele>
        <time>2025-04-16T07:45:43Z</time>
      </trkpt>
      <trkpt lat="45.29229" lon="0.48291">
        <ele>172</ele>
        <time>2025-04-16T07:45:44Z</time>
      </trkpt>
      <trkpt lat="45.29234" lon="0.48316">
        <ele>174</ele>
        <time>2025-04-16T07:45:47Z</time>
      </trkpt>
      <trkpt lat="45.29234" lon="0.48334">
        <ele>175</ele>
        <time>2025-04-16T07:45:50Z</time>
      </trkpt>
      <trkpt lat="45.2923" lon="0.4836">
        <ele>175</ele>
        <time>2025-04-16T07:45:53Z</time>
      </trkpt>
      <trkpt lat="45.29217" lon="0.48446">
        <ele>179</ele>
        <time>2025-04-16T07:46:04Z</time>
      </trkpt>
      <trkpt lat="45.29217" lon="0.48463">
        <ele>179</ele>
        <time>2025-04-16T07:46:06Z</time>
      </trkpt>
      <trkpt lat="45.29217" lon="0.48477">
        <ele>180</ele>
        <time>2025-04-16T07:46:08Z</time>
      </trkpt>
      <trkpt lat="45.29221" lon="0.48497">
        <ele>181</ele>
        <time>2025-04-16T07:46:11Z</time>
      </trkpt>
      <trkpt lat="45.29228" lon="0.48519">
        <ele>182</ele>
        <time>2025-04-16T07:46:14Z</time>
      </trkpt>
      <trkpt lat="45.29244" lon="0.48542">
        <ele>182</ele>
        <time>2025-04-16T07:46:18Z</time>
      </trkpt>
      <trkpt lat="45.29256" lon="0.48552">
        <ele>183</ele>
        <time>2025-04-16T07:46:20Z</time>
      </trkpt>
      <trkpt lat="45.29311" lon="0.48581">
        <ele>187</ele>
        <time>2025-04-16T07:46:31Z</time>
      </trkpt>
      <trkpt lat="45.29343" lon="0.48592">
        <ele>188</ele>
        <time>2025-04-16T07:46:36Z</time>
      </trkpt>
      <trkpt lat="45.2943" lon="0.48633">
        <ele>190</ele>
        <time>2025-04-16T07:46:53Z</time>
      </trkpt>
      <trkpt lat="45.29447" lon="0.48641">
        <ele>191</ele>
        <time>2025-04-16T07:46:56Z</time>
      </trkpt>
      <trkpt lat="45.29459" lon="0.48651">
        <ele>192</ele>
        <time>2025-04-16T07:46:58Z</time>
      </trkpt>
      <trkpt lat="45.29476" lon="0.48673">
        <ele>193</ele>
        <time>2025-04-16T07:47:02Z</time>
      </trkpt>
      <trkpt lat="45.29513" lon="0.48764">
        <ele>193</ele>
        <time>2025-04-16T07:47:16Z</time>
      </trkpt>
      <trkpt lat="45.29519" lon="0.48791">
        <ele>193</ele>
        <time>2025-04-16T07:47:19Z</time>
      </trkpt>
      <trkpt lat="45.29525" lon="0.48824">
        <ele>192</ele>
        <time>2025-04-16T07:47:23Z</time>
      </trkpt>
      <trkpt lat="45.29534" lon="0.48853">
        <ele>192</ele>
        <time>2025-04-16T07:47:27Z</time>
      </trkpt>
      <trkpt lat="45.29545" lon="0.48879">
        <ele>192</ele>
        <time>2025-04-16T07:47:31Z</time>
      </trkpt>
      <trkpt lat="45.29577" lon="0.48928">
        <ele>196</ele>
        <time>2025-04-16T07:47:40Z</time>
      </trkpt>
      <trkpt lat="45.29596" lon="0.48974">
        <ele>197</ele>
        <time>2025-04-16T07:47:46Z</time>
      </trkpt>
      <trkpt lat="45.29602" lon="0.48999">
        <ele>196</ele>
        <time>2025-04-16T07:47:50Z</time>
      </trkpt>
      <trkpt lat="45.29606" lon="0.49026">
        <ele>195</ele>
        <time>2025-04-16T07:47:53Z</time>
      </trkpt>
      <trkpt lat="45.29607" lon="0.49053">
        <ele>193</ele>
        <time>2025-04-16T07:47:56Z</time>
      </trkpt>
      <trkpt lat="45.29606" lon="0.49074">
        <ele>192</ele>
        <time>2025-04-16T07:47:59Z</time>
      </trkpt>
      <trkpt lat="45.296" lon="0.49112">
        <ele>191</ele>
        <time>2025-04-16T07:48:04Z</time>
      </trkpt>
      <trkpt lat="45.29601" lon="0.49118">
        <ele>191</ele>
        <time>2025-04-16T07:48:05Z</time>
      </trkpt>
      <trkpt lat="45.2969" lon="0.49024">
        <ele>196</ele>
        <time>2025-04-16T07:48:24Z</time>
      </trkpt>
      <trkpt lat="45.29719" lon="0.49003">
        <ele>194</ele>
        <time>2025-04-16T07:48:30Z</time>
      </trkpt>
      <trkpt lat="45.29749" lon="0.48986">
        <ele>191</ele>
        <time>2025-04-16T07:48:36Z</time>
      </trkpt>
      <trkpt lat="45.29791" lon="0.48971">
        <ele>189</ele>
        <time>2025-04-16T07:48:44Z</time>
      </trkpt>
      <trkpt lat="45.299" lon="0.48941">
        <ele>183</ele>
        <time>2025-04-16T07:49:03Z</time>
      </trkpt>
      <trkpt lat="45.29905" lon="0.48941">
        <ele>183</ele>
        <time>2025-04-16T07:49:04Z</time>
      </trkpt>
      <trkpt lat="45.30253" lon="0.48886">
        <ele>181</ele>
        <time>2025-04-16T07:50:07Z</time>
      </trkpt>
      <trkpt lat="45.3029" lon="0.4888">
        <ele>184</ele>
        <time>2025-04-16T07:50:13Z</time>
      </trkpt>
      <trkpt lat="45.30338" lon="0.48876">
        <ele>187</ele>
        <time>2025-04-16T07:50:22Z</time>
      </trkpt>
      <trkpt lat="45.30372" lon="0.48884">
        <ele>186</ele>
        <time>2025-04-16T07:50:28Z</time>
      </trkpt>
      <trkpt lat="45.30385" lon="0.48889">
        <ele>187</ele>
        <time>2025-04-16T07:50:30Z</time>
      </trkpt>
      <trkpt lat="45.30424" lon="0.48905">
        <ele>187</ele>
        <time>2025-04-16T07:50:37Z</time>
      </trkpt>
      <trkpt lat="45.30703" lon="0.49015">
        <ele>193</ele>
        <time>2025-04-16T07:51:29Z</time>
      </trkpt>
      <trkpt lat="45.30765" lon="0.49038">
        <ele>195</ele>
        <time>2025-04-16T07:51:40Z</time>
      </trkpt>
      <trkpt lat="45.30831" lon="0.49062">
        <ele>200</ele>
        <time>2025-04-16T07:51:53Z</time>
      </trkpt>
      <trkpt lat="45.30876" lon="0.49075">
        <ele>201</ele>
        <time>2025-04-16T07:52:01Z</time>
      </trkpt>
      <trkpt lat="45.30905" lon="0.49073">
        <ele>201</ele>
        <time>2025-04-16T07:52:06Z</time>
      </trkpt>
      <trkpt lat="45.3111" lon="0.4898">
        <ele>196</ele>
        <time>2025-04-16T07:52:44Z</time>
      </trkpt>
      <trkpt lat="45.31146" lon="0.48969">
        <ele>193</ele>
        <time>2025-04-16T07:52:51Z</time>
      </trkpt>
      <trkpt lat="45.31177" lon="0.48967">
        <ele>191</ele>
        <time>2025-04-16T07:52:56Z</time>
      </trkpt>
      <trkpt lat="45.31209" lon="0.48981">
        <ele>189</ele>
        <time>2025-04-16T07:53:02Z</time>
      </trkpt>
      <trkpt lat="45.31287" lon="0.49025">
        <ele>182</ele>
        <time>2025-04-16T07:53:17Z</time>
      </trkpt>
      <trkpt lat="45.31306" lon="0.49038">
        <ele>181</ele>
        <time>2025-04-16T07:53:21Z</time>
      </trkpt>
      <trkpt lat="45.3132" lon="0.49052">
        <ele>180</ele>
        <time>2025-04-16T07:53:24Z</time>
      </trkpt>
      <trkpt lat="45.3135" lon="0.49097">
        <ele>176</ele>
        <time>2025-04-16T07:53:32Z</time>
      </trkpt>
      <trkpt lat="45.31373" lon="0.49124">
        <ele>173</ele>
        <time>2025-04-16T07:53:37Z</time>
      </trkpt>
      <trkpt lat="45.31389" lon="0.49141">
        <ele>173</ele>
        <time>2025-04-16T07:53:41Z</time>
      </trkpt>
      <trkpt lat="45.31406" lon="0.49152">
        <ele>173</ele>
        <time>2025-04-16T07:53:44Z</time>
      </trkpt>
      <trkpt lat="45.31419" lon="0.49156">
        <ele>173</ele>
        <time>2025-04-16T07:53:46Z</time>
      </trkpt>
      <trkpt lat="45.3143" lon="0.49157">
        <ele>172</ele>
        <time>2025-04-16T07:53:48Z</time>
      </trkpt>
      <trkpt lat="45.31444" lon="0.49154">
        <ele>171</ele>
        <time>2025-04-16T07:53:51Z</time>
      </trkpt>
      <trkpt lat="45.31519" lon="0.49118">
        <ele>167</ele>
        <time>2025-04-16T07:54:05Z</time>
      </trkpt>
      <trkpt lat="45.31544" lon="0.49107">
        <ele>167</ele>
        <time>2025-04-16T07:54:09Z</time>
      </trkpt>
      <trkpt lat="45.31565" lon="0.49104">
        <ele>166</ele>
        <time>2025-04-16T07:54:13Z</time>
      </trkpt>
      <trkpt lat="45.31593" lon="0.49107">
        <ele>166</ele>
        <time>2025-04-16T07:54:18Z</time>
      </trkpt>
      <trkpt lat="45.31618" lon="0.49116">
        <ele>168</ele>
        <time>2025-04-16T07:54:23Z</time>
      </trkpt>
      <trkpt lat="45.31726" lon="0.49161">
        <ele>171</ele>
        <time>2025-04-16T07:54:43Z</time>
      </trkpt>
      <trkpt lat="45.31914" lon="0.49248">
        <ele>169</ele>
        <time>2025-04-16T07:55:18Z</time>
      </trkpt>
      <trkpt lat="45.31937" lon="0.49253">
        <ele>169</ele>
        <time>2025-04-16T07:55:22Z</time>
      </trkpt>
      <trkpt lat="45.31959" lon="0.49254">
        <ele>168</ele>
        <time>2025-04-16T07:55:26Z</time>
      </trkpt>
      <trkpt lat="45.32024" lon="0.49237">
        <ele>169</ele>
        <time>2025-04-16T07:55:38Z</time>
      </trkpt>
      <trkpt lat="45.32076" lon="0.49225">
        <ele>169</ele>
        <time>2025-04-16T07:55:47Z</time>
      </trkpt>
      <trkpt lat="45.32109" lon="0.4922">
        <ele>169</ele>
        <time>2025-04-16T07:55:53Z</time>
      </trkpt>
      <trkpt lat="45.32147" lon="0.49217">
        <ele>168</ele>
        <time>2025-04-16T07:56:00Z</time>
      </trkpt>
      <trkpt lat="45.32165" lon="0.49218">
        <ele>167</ele>
        <time>2025-04-16T07:56:03Z</time>
      </trkpt>
      <trkpt lat="45.32189" lon="0.4923">
        <ele>166</ele>
        <time>2025-04-16T07:56:08Z</time>
      </trkpt>
      <trkpt lat="45.32225" lon="0.49257">
        <ele>164</ele>
        <time>2025-04-16T07:56:15Z</time>
      </trkpt>
      <trkpt lat="45.323" lon="0.49297">
        <ele>161</ele>
        <time>2025-04-16T07:56:29Z</time>
      </trkpt>
      <trkpt lat="45.32358" lon="0.49334">
        <ele>158</ele>
        <time>2025-04-16T07:56:40Z</time>
      </trkpt>
      <trkpt lat="45.32449" lon="0.49432">
        <ele>147</ele>
        <time>2025-04-16T07:57:01Z</time>
      </trkpt>
      <trkpt lat="45.32459" lon="0.49439">
        <ele>147</ele>
        <time>2025-04-16T07:57:03Z</time>
      </trkpt>
      <trkpt lat="45.32506" lon="0.49466">
        <ele>143</ele>
        <time>2025-04-16T07:57:12Z</time>
      </trkpt>
      <trkpt lat="45.3252" lon="0.4948">
        <ele>143</ele>
        <time>2025-04-16T07:57:15Z</time>
      </trkpt>
      <trkpt lat="45.32585" lon="0.49562">
        <ele>142</ele>
        <time>2025-04-16T07:57:30Z</time>
      </trkpt>
      <trkpt lat="45.32598" lon="0.49574">
        <ele>141</ele>
        <time>2025-04-16T07:57:33Z</time>
      </trkpt>
      <trkpt lat="45.32642" lon="0.49604">
        <ele>140</ele>
        <time>2025-04-16T07:57:42Z</time>
      </trkpt>
      <trkpt lat="45.32652" lon="0.49615">
        <ele>139</ele>
        <time>2025-04-16T07:57:44Z</time>
      </trkpt>
      <trkpt lat="45.3271" lon="0.49701">
        <ele>139</ele>
        <time>2025-04-16T07:57:59Z</time>
      </trkpt>
      <trkpt lat="45.32734" lon="0.49732">
        <ele>139</ele>
        <time>2025-04-16T07:58:05Z</time>
      </trkpt>
      <trkpt lat="45.3275" lon="0.49747">
        <ele>139</ele>
        <time>2025-04-16T07:58:08Z</time>
      </trkpt>
      <trkpt lat="45.32789" lon="0.49758">
        <ele>139</ele>
        <time>2025-04-16T07:58:15Z</time>
      </trkpt>
      <trkpt lat="45.32821" lon="0.49758">
        <ele>138</ele>
        <time>2025-04-16T07:58:21Z</time>
      </trkpt>
      <trkpt lat="45.32853" lon="0.4975">
        <ele>138</ele>
        <time>2025-04-16T07:58:27Z</time>
      </trkpt>
      <trkpt lat="45.32879" lon="0.49737">
        <ele>136</ele>
        <time>2025-04-16T07:58:31Z</time>
      </trkpt>
      <trkpt lat="45.32945" lon="0.49694">
        <ele>128</ele>
        <time>2025-04-16T07:58:44Z</time>
      </trkpt>
      <trkpt lat="45.32981" lon="0.49678">
        <ele>123</ele>
        <time>2025-04-16T07:58:51Z</time>
      </trkpt>
      <trkpt lat="45.32999" lon="0.4968">
        <ele>122</ele>
        <time>2025-04-16T07:58:54Z</time>
      </trkpt>
      <trkpt lat="45.33016" lon="0.49687">
        <ele>121</ele>
        <time>2025-04-16T07:58:57Z</time>
      </trkpt>
      <trkpt lat="45.33035" lon="0.49704">
        <ele>119</ele>
        <time>2025-04-16T07:59:01Z</time>
      </trkpt>
      <trkpt lat="45.33065" lon="0.49741">
        <ele>116</ele>
        <time>2025-04-16T07:59:08Z</time>
      </trkpt>
      <trkpt lat="45.3308" lon="0.49763">
        <ele>114</ele>
        <time>2025-04-16T07:59:12Z</time>
      </trkpt>
      <trkpt lat="45.3311" lon="0.49805">
        <ele>113</ele>
        <time>2025-04-16T07:59:20Z</time>
      </trkpt>
      <trkpt lat="45.33127" lon="0.49823">
        <ele>111</ele>
        <time>2025-04-16T07:59:24Z</time>
      </trkpt>
      <trkpt lat="45.33142" lon="0.49835">
        <ele>110</ele>
        <time>2025-04-16T07:59:27Z</time>
      </trkpt>
      <trkpt lat="45.33207" lon="0.49879">
        <ele>109</ele>
        <time>2025-04-16T07:59:39Z</time>
      </trkpt>
      <trkpt lat="45.33225" lon="0.49894">
        <ele>109</ele>
        <time>2025-04-16T07:59:43Z</time>
      </trkpt>
      <trkpt lat="45.33232" lon="0.49903">
        <ele>109</ele>
        <time>2025-04-16T07:59:45Z</time>
      </trkpt>
      <trkpt lat="45.33334" lon="0.50128">
        <ele>103</ele>
        <time>2025-04-16T08:00:18Z</time>
      </trkpt>
      <trkpt lat="45.3334" lon="0.50143">
        <ele>103</ele>
        <time>2025-04-16T08:00:20Z</time>
      </trkpt>
      <trkpt lat="45.33417" lon="0.50311">
        <ele>100</ele>
        <time>2025-04-16T08:00:46Z</time>
      </trkpt>
      <trkpt lat="45.33428" lon="0.50329">
        <ele>100</ele>
        <time>2025-04-16T08:00:49Z</time>
      </trkpt>
      <trkpt lat="45.33432" lon="0.50305">
        <ele>101</ele>
        <time>2025-04-16T08:00:52Z</time>
      </trkpt>
      <trkpt lat="45.33436" lon="0.50248">
        <ele>103</ele>
        <time>2025-04-16T08:00:59Z</time>
      </trkpt>
      <trkpt lat="45.33436" lon="0.50201">
        <ele>104</ele>
        <time>2025-04-16T08:01:05Z</time>
      </trkpt>
      <trkpt lat="45.3344" lon="0.50148">
        <ele>105</ele>
        <time>2025-04-16T08:01:11Z</time>
      </trkpt>
      <trkpt lat="45.33453" lon="0.501">
        <ele>106</ele>
        <time>2025-04-16T08:01:18Z</time>
      </trkpt>
      <trkpt lat="45.33474" lon="0.50037">
        <ele>107</ele>
        <time>2025-04-16T08:01:26Z</time>
      </trkpt>
      <trkpt lat="45.33497" lon="0.49991">
        <ele>107</ele>
        <time>2025-04-16T08:01:34Z</time>
      </trkpt>
      <trkpt lat="45.33479" lon="0.49958">
        <ele>106</ele>
        <time>2025-04-16T08:01:39Z</time>
      </trkpt>
      <trkpt lat="45.33497" lon="0.49991">
        <ele>107</ele>
        <time>2025-04-16T08:01:44Z</time>
      </trkpt>
      <trkpt lat="45.33628" lon="0.49804">
        <ele>109</ele>
        <time>2025-04-16T08:02:17Z</time>
      </trkpt>
      <trkpt lat="45.33713" lon="0.49703">
        <ele>112</ele>
        <time>2025-04-16T08:02:37Z</time>
      </trkpt>
      <trkpt lat="45.33742" lon="0.49658">
        <ele>112</ele>
        <time>2025-04-16T08:02:44Z</time>
      </trkpt>
      <trkpt lat="45.33768" lon="0.496">
        <ele>112</ele>
        <time>2025-04-16T08:02:53Z</time>
      </trkpt>
      <trkpt lat="45.33852" lon="0.49349">
        <ele>114</ele>
        <time>2025-04-16T08:03:28Z</time>
      </trkpt>
      <trkpt lat="45.33912" lon="0.49113">
        <ele>112</ele>
        <time>2025-04-16T08:03:59Z</time>
      </trkpt>
      <trkpt lat="45.33937" lon="0.49006">
        <ele>116</ele>
        <time>2025-04-16T08:04:13Z</time>
      </trkpt>
      <trkpt lat="45.33951" lon="0.48954">
        <ele>117</ele>
        <time>2025-04-16T08:04:20Z</time>
      </trkpt>
      <trkpt lat="45.33989" lon="0.48849">
        <ele>116</ele>
        <time>2025-04-16T08:04:35Z</time>
      </trkpt>
      <trkpt lat="45.34003" lon="0.48787">
        <ele>116</ele>
        <time>2025-04-16T08:04:43Z</time>
      </trkpt>
      <trkpt lat="45.34056" lon="0.485">
        <ele>118</ele>
        <time>2025-04-16T08:05:20Z</time>
      </trkpt>
      <trkpt lat="45.34065" lon="0.48464">
        <ele>118</ele>
        <time>2025-04-16T08:05:25Z</time>
      </trkpt>
      <trkpt lat="45.3408" lon="0.48432">
        <ele>119</ele>
        <time>2025-04-16T08:05:30Z</time>
      </trkpt>
      <trkpt lat="45.341" lon="0.48402">
        <ele>120</ele>
        <time>2025-04-16T08:05:35Z</time>
      </trkpt>
      <trkpt lat="45.34146" lon="0.48367">
        <ele>120</ele>
        <time>2025-04-16T08:05:44Z</time>
      </trkpt>
      <trkpt lat="45.34158" lon="0.48362">
        <ele>120</ele>
        <time>2025-04-16T08:05:46Z</time>
      </trkpt>
      <trkpt lat="45.34184" lon="0.48342">
        <ele>120</ele>
        <time>2025-04-16T08:05:52Z</time>
      </trkpt>
      <trkpt lat="45.34215" lon="0.4831">
        <ele>121</ele>
        <time>2025-04-16T08:05:59Z</time>
      </trkpt>
      <trkpt lat="45.3425" lon="0.48264">
        <ele>120</ele>
        <time>2025-04-16T08:06:07Z</time>
      </trkpt>
      <trkpt lat="45.34265" lon="0.48229">
        <ele>119</ele>
        <time>2025-04-16T08:06:12Z</time>
      </trkpt>
      <trkpt lat="45.34269" lon="0.48189">
        <ele>119</ele>
        <time>2025-04-16T08:06:17Z</time>
      </trkpt>
      <trkpt lat="45.34282" lon="0.47965">
        <ele>122</ele>
        <time>2025-04-16T08:06:45Z</time>
      </trkpt>
      <trkpt lat="45.34286" lon="0.47843">
        <ele>124</ele>
        <time>2025-04-16T08:07:01Z</time>
      </trkpt>
      <trkpt lat="45.34284" lon="0.47814">
        <ele>124</ele>
        <time>2025-04-16T08:07:04Z</time>
      </trkpt>
      <trkpt lat="45.3428" lon="0.47792">
        <ele>124</ele>
        <time>2025-04-16T08:07:07Z</time>
      </trkpt>
      <trkpt lat="45.34274" lon="0.47773">
        <ele>124</ele>
        <time>2025-04-16T08:07:10Z</time>
      </trkpt>
      <trkpt lat="45.34269" lon="0.47762">
        <ele>124</ele>
        <time>2025-04-16T08:07:11Z</time>
      </trkpt>
      <trkpt lat="45.34211" lon="0.47627">
        <ele>125</ele>
        <time>2025-04-16T08:07:31Z</time>
      </trkpt>
      <trkpt lat="45.34205" lon="0.47604">
        <ele>126</ele>
        <time>2025-04-16T08:07:34Z</time>
      </trkpt>
      <trkpt lat="45.34203" lon="0.4753">
        <ele>127</ele>
        <time>2025-04-16T08:07:43Z</time>
      </trkpt>
      <trkpt lat="45.34202" lon="0.4751">
        <ele>127</ele>
        <time>2025-04-16T08:07:46Z</time>
      </trkpt>
      <trkpt lat="45.34202" lon="0.47458">
        <ele>127</ele>
        <time>2025-04-16T08:07:52Z</time>
      </trkpt>
      <trkpt lat="45.34201" lon="0.474">
        <ele>128</ele>
        <time>2025-04-16T08:08:00Z</time>
      </trkpt>
      <trkpt lat="45.34193" lon="0.47322">
        <ele>129</ele>
        <time>2025-04-16T08:08:10Z</time>
      </trkpt>
      <trkpt lat="45.34191" lon="0.47284">
        <ele>129</ele>
        <time>2025-04-16T08:08:14Z</time>
      </trkpt>
      <trkpt lat="45.34196" lon="0.47238">
        <ele>129</ele>
        <time>2025-04-16T08:08:20Z</time>
      </trkpt>
      <trkpt lat="45.3421" lon="0.47183">
        <ele>127</ele>
        <time>2025-04-16T08:08:27Z</time>
      </trkpt>
      <trkpt lat="45.342" lon="0.47045">
        <ele>127</ele>
        <time>2025-04-16T08:08:45Z</time>
      </trkpt>
      <trkpt lat="45.34213" lon="0.46965">
        <ele>127</ele>
        <time>2025-04-16T08:08:55Z</time>
      </trkpt>
      <trkpt lat="45.34239" lon="0.46833">
        <ele>126</ele>
        <time>2025-04-16T08:09:12Z</time>
      </trkpt>
      <trkpt lat="45.34238" lon="0.4682">
        <ele>126</ele>
        <time>2025-04-16T08:09:14Z</time>
      </trkpt>
      <trkpt lat="45.34236" lon="0.46807">
        <ele>126</ele>
        <time>2025-04-16T08:09:16Z</time>
      </trkpt>
      <trkpt lat="45.34226" lon="0.46771">
        <ele>127</ele>
        <time>2025-04-16T08:09:20Z</time>
      </trkpt>
      <trkpt lat="45.3422" lon="0.46731">
        <ele>127</ele>
        <time>2025-04-16T08:09:25Z</time>
      </trkpt>
      <trkpt lat="45.34211" lon="0.46635">
        <ele>128</ele>
        <time>2025-04-16T08:09:38Z</time>
      </trkpt>
      <trkpt lat="45.34206" lon="0.46616">
        <ele>128</ele>
        <time>2025-04-16T08:09:40Z</time>
      </trkpt>
      <trkpt lat="45.34178" lon="0.46563">
        <ele>130</ele>
        <time>2025-04-16T08:09:48Z</time>
      </trkpt>
      <trkpt lat="45.34162" lon="0.46541">
        <ele>131</ele>
        <time>2025-04-16T08:09:52Z</time>
      </trkpt>
      <trkpt lat="45.34154" lon="0.46516">
        <ele>132</ele>
        <time>2025-04-16T08:09:56Z</time>
      </trkpt>
      <trkpt lat="45.34151" lon="0.4649">
        <ele>133</ele>
        <time>2025-04-16T08:09:59Z</time>
      </trkpt>
      <trkpt lat="45.34148" lon="0.46402">
        <ele>134</ele>
        <time>2025-04-16T08:10:10Z</time>
      </trkpt>
      <trkpt lat="45.3415" lon="0.46326">
        <ele>135</ele>
        <time>2025-04-16T08:10:20Z</time>
      </trkpt>
      <trkpt lat="45.34149" lon="0.46303">
        <ele>135</ele>
        <time>2025-04-16T08:10:23Z</time>
      </trkpt>
      <trkpt lat="45.34136" lon="0.4619">
        <ele>138</ele>
        <time>2025-04-16T08:10:37Z</time>
      </trkpt>
      <trkpt lat="45.34137" lon="0.4618">
        <ele>138</ele>
        <time>2025-04-16T08:10:38Z</time>
      </trkpt>
      <trkpt lat="45.34137" lon="0.46166">
        <ele>138</ele>
        <time>2025-04-16T08:10:40Z</time>
      </trkpt>
      <trkpt lat="45.34144" lon="0.46044">
        <ele>136</ele>
        <time>2025-04-16T08:10:55Z</time>
      </trkpt>
      <trkpt lat="45.34153" lon="0.46">
        <ele>135</ele>
        <time>2025-04-16T08:11:01Z</time>
      </trkpt>
      <trkpt lat="45.3418" lon="0.45896">
        <ele>136</ele>
        <time>2025-04-16T08:11:15Z</time>
      </trkpt>
      <trkpt lat="45.34182" lon="0.45875">
        <ele>136</ele>
        <time>2025-04-16T08:11:17Z</time>
      </trkpt>
      <trkpt lat="45.3418" lon="0.45852">
        <ele>136</ele>
        <time>2025-04-16T08:11:20Z</time>
      </trkpt>
      <trkpt lat="45.3416" lon="0.45701">
        <ele>135</ele>
        <time>2025-04-16T08:11:40Z</time>
      </trkpt>
      <trkpt lat="45.3416" lon="0.45636">
        <ele>135</ele>
        <time>2025-04-16T08:11:48Z</time>
      </trkpt>
      <trkpt lat="45.34162" lon="0.45589">
        <ele>135</ele>
        <time>2025-04-16T08:11:54Z</time>
      </trkpt>
      <trkpt lat="45.34168" lon="0.45546">
        <ele>136</ele>
        <time>2025-04-16T08:11:59Z</time>
      </trkpt>
      <trkpt lat="45.34185" lon="0.45469">
        <ele>139</ele>
        <time>2025-04-16T08:12:09Z</time>
      </trkpt>
      <trkpt lat="45.34189" lon="0.45427">
        <ele>139</ele>
        <time>2025-04-16T08:12:14Z</time>
      </trkpt>
      <trkpt lat="45.34179" lon="0.45301">
        <ele>141</ele>
        <time>2025-04-16T08:12:30Z</time>
      </trkpt>
      <trkpt lat="45.34178" lon="0.45251">
        <ele>141</ele>
        <time>2025-04-16T08:12:37Z</time>
      </trkpt>
      <trkpt lat="45.3418" lon="0.45218">
        <ele>140</ele>
        <time>2025-04-16T08:12:41Z</time>
      </trkpt>
      <trkpt lat="45.34203" lon="0.45142">
        <ele>138</ele>
        <time>2025-04-16T08:12:51Z</time>
      </trkpt>
      <trkpt lat="45.34225" lon="0.4506">
        <ele>138</ele>
        <time>2025-04-16T08:13:02Z</time>
      </trkpt>
      <trkpt lat="45.34231" lon="0.45004">
        <ele>137</ele>
        <time>2025-04-16T08:13:09Z</time>
      </trkpt>
      <trkpt lat="45.34231" lon="0.44965">
        <ele>136</ele>
        <time>2025-04-16T08:13:14Z</time>
      </trkpt>
      <trkpt lat="45.34226" lon="0.44892">
        <ele>136</ele>
        <time>2025-04-16T08:13:23Z</time>
      </trkpt>
      <trkpt lat="45.34227" lon="0.44821">
        <ele>138</ele>
        <time>2025-04-16T08:13:32Z</time>
      </trkpt>
      <trkpt lat="45.34232" lon="0.44764">
        <ele>140</ele>
        <time>2025-04-16T08:13:39Z</time>
      </trkpt>
      <trkpt lat="45.34256" lon="0.44668">
        <ele>141</ele>
        <time>2025-04-16T08:13:52Z</time>
      </trkpt>
      <trkpt lat="45.34318" lon="0.44543">
        <ele>137</ele>
        <time>2025-04-16T08:14:11Z</time>
      </trkpt>
      <trkpt lat="45.34425" lon="0.44346">
        <ele>140</ele>
        <time>2025-04-16T08:14:42Z</time>
      </trkpt>
      <trkpt lat="45.34457" lon="0.44264">
        <ele>143</ele>
        <time>2025-04-16T08:14:54Z</time>
      </trkpt>
      <trkpt lat="45.34501" lon="0.44109">
        <ele>143</ele>
        <time>2025-04-16T08:15:15Z</time>
      </trkpt>
      <trkpt lat="45.34561" lon="0.43877">
        <ele>141</ele>
        <time>2025-04-16T08:15:46Z</time>
      </trkpt>
      <trkpt lat="45.3459" lon="0.43894">
        <ele>139</ele>
        <time>2025-04-16T08:15:51Z</time>
      </trkpt>
      <trkpt lat="45.34617" lon="0.43905">
        <ele>137</ele>
        <time>2025-04-16T08:15:56Z</time>
      </trkpt>
      <trkpt lat="45.34649" lon="0.43909">
        <ele>137</ele>
        <time>2025-04-16T08:16:02Z</time>
      </trkpt>
      <trkpt lat="45.34763" lon="0.43915">
        <ele>137</ele>
        <time>2025-04-16T08:16:22Z</time>
      </trkpt>
      <trkpt lat="45.34786" lon="0.4392">
        <ele>138</ele>
        <time>2025-04-16T08:16:26Z</time>
      </trkpt>
      <trkpt lat="45.34835" lon="0.43934">
        <ele>138</ele>
        <time>2025-04-16T08:16:35Z</time>
      </trkpt>
      <trkpt lat="45.34852" lon="0.43943">
        <ele>139</ele>
        <time>2025-04-16T08:16:39Z</time>
      </trkpt>
      <trkpt lat="45.34863" lon="0.43951">
        <ele>139</ele>
        <time>2025-04-16T08:16:41Z</time>
      </trkpt>
      <trkpt lat="45.34871" lon="0.4396">
        <ele>139</ele>
        <time>2025-04-16T08:16:43Z</time>
      </trkpt>
      <trkpt lat="45.34887" lon="0.43983">
        <ele>138</ele>
        <time>2025-04-16T08:16:47Z</time>
      </trkpt>
      <trkpt lat="45.34893" lon="0.43996">
        <ele>138</ele>
        <time>2025-04-16T08:16:49Z</time>
      </trkpt>
      <trkpt lat="45.34896" lon="0.44002">
        <ele>138</ele>
        <time>2025-04-16T08:16:50Z</time>
      </trkpt>
      <trkpt lat="45.34967" lon="0.44154">
        <ele>143</ele>
        <time>2025-04-16T08:17:12Z</time>
      </trkpt>
      <trkpt lat="45.34987" lon="0.4418">
        <ele>145</ele>
        <time>2025-04-16T08:17:17Z</time>
      </trkpt>
      <trkpt lat="45.35092" lon="0.44273">
        <ele>153</ele>
        <time>2025-04-16T08:17:39Z</time>
      </trkpt>
      <trkpt lat="45.35114" lon="0.44282">
        <ele>154</ele>
        <time>2025-04-16T08:17:43Z</time>
      </trkpt>
      <trkpt lat="45.35116" lon="0.44283">
        <ele>154</ele>
        <time>2025-04-16T08:17:44Z</time>
      </trkpt>
      <trkpt lat="45.35128" lon="0.44289">
        <ele>154</ele>
        <time>2025-04-16T08:17:46Z</time>
      </trkpt>
      <trkpt lat="45.35168" lon="0.44294">
        <ele>155</ele>
        <time>2025-04-16T08:17:53Z</time>
      </trkpt>
      <trkpt lat="45.3545" lon="0.44311">
        <ele>154</ele>
        <time>2025-04-16T08:18:43Z</time>
      </trkpt>
      <trkpt lat="45.35538" lon="0.44311">
        <ele>156</ele>
        <time>2025-04-16T08:18:59Z</time>
      </trkpt>
      <trkpt lat="45.35552" lon="0.4431">
        <ele>156</ele>
        <time>2025-04-16T08:19:01Z</time>
      </trkpt>
      <trkpt lat="45.35583" lon="0.44307">
        <ele>156</ele>
        <time>2025-04-16T08:19:07Z</time>
      </trkpt>
      <trkpt lat="45.35792" lon="0.44266">
        <ele>147</ele>
        <time>2025-04-16T08:19:44Z</time>
      </trkpt>
      <trkpt lat="45.35831" lon="0.44259">
        <ele>145</ele>
        <time>2025-04-16T08:19:51Z</time>
      </trkpt>
      <trkpt lat="45.35876" lon="0.4425">
        <ele>145</ele>
        <time>2025-04-16T08:20:00Z</time>
      </trkpt>
      <trkpt lat="45.359" lon="0.44249">
        <ele>145</ele>
        <time>2025-04-16T08:20:04Z</time>
      </trkpt>
      <trkpt lat="45.36096" lon="0.4426">
        <ele>146</ele>
        <time>2025-04-16T08:20:39Z</time>
      </trkpt>
      <trkpt lat="45.36103" lon="0.4426">
        <ele>146</ele>
        <time>2025-04-16T08:20:40Z</time>
      </trkpt>
      <trkpt lat="45.36126" lon="0.44264">
        <ele>145</ele>
        <time>2025-04-16T08:20:44Z</time>
      </trkpt>
      <trkpt lat="45.3615" lon="0.44272">
        <ele>144</ele>
        <time>2025-04-16T08:20:48Z</time>
      </trkpt>
      <trkpt lat="45.36168" lon="0.44281">
        <ele>144</ele>
        <time>2025-04-16T08:20:52Z</time>
      </trkpt>
      <trkpt lat="45.36192" lon="0.44297">
        <ele>143</ele>
        <time>2025-04-16T08:20:57Z</time>
      </trkpt>
      <trkpt lat="45.36259" lon="0.44357">
        <ele>140</ele>
        <time>2025-04-16T08:21:11Z</time>
      </trkpt>
      <trkpt lat="45.36297" lon="0.44406">
        <ele>137</ele>
        <time>2025-04-16T08:21:20Z</time>
      </trkpt>
      <trkpt lat="45.36324" lon="0.44443">
        <ele>137</ele>
        <time>2025-04-16T08:21:26Z</time>
      </trkpt>
      <trkpt lat="45.36374" lon="0.4452">
        <ele>138</ele>
        <time>2025-04-16T08:21:40Z</time>
      </trkpt>
      <trkpt lat="45.36402" lon="0.44563">
        <ele>138</ele>
        <time>2025-04-16T08:21:47Z</time>
      </trkpt>
      <trkpt lat="45.36448" lon="0.44616">
        <ele>142</ele>
        <time>2025-04-16T08:21:57Z</time>
      </trkpt>
      <trkpt lat="45.36469" lon="0.44611">
        <ele>144</ele>
        <time>2025-04-16T08:22:01Z</time>
      </trkpt>
      <trkpt lat="45.36491" lon="0.44603">
        <ele>145</ele>
        <time>2025-04-16T08:22:05Z</time>
      </trkpt>
      <trkpt lat="45.36502" lon="0.44604">
        <ele>146</ele>
        <time>2025-04-16T08:22:07Z</time>
      </trkpt>
      <trkpt lat="45.36522" lon="0.44612">
        <ele>146</ele>
        <time>2025-04-16T08:22:11Z</time>
      </trkpt>
      <trkpt lat="45.36546" lon="0.44635">
        <ele>146</ele>
        <time>2025-04-16T08:22:16Z</time>
      </trkpt>
      <trkpt lat="45.36553" lon="0.44624">
        <ele>147</ele>
        <time>2025-04-16T08:22:18Z</time>
      </trkpt>
      <trkpt lat="45.36565" lon="0.4461">
        <ele>147</ele>
        <time>2025-04-16T08:22:21Z</time>
      </trkpt>
      <trkpt lat="45.36569" lon="0.44608">
        <ele>147</ele>
        <time>2025-04-16T08:22:21Z</time>
      </trkpt>
      <trkpt lat="45.36572" lon="0.44605">
        <ele>147</ele>
        <time>2025-04-16T08:22:22Z</time>
      </trkpt>
      <trkpt lat="45.36586" lon="0.44597">
        <ele>148</ele>
        <time>2025-04-16T08:22:25Z</time>
      </trkpt>
      <trkpt lat="45.36597" lon="0.44584">
        <ele>147</ele>
        <time>2025-04-16T08:22:27Z</time>
      </trkpt>
      <trkpt lat="45.3661" lon="0.44583">
        <ele>147</ele>
        <time>2025-04-16T08:22:30Z</time>
      </trkpt>
      <trkpt lat="45.36621" lon="0.44577">
        <ele>147</ele>
        <time>2025-04-16T08:22:32Z</time>
      </trkpt>
      <trkpt lat="45.36626" lon="0.44574">
        <ele>147</ele>
        <time>2025-04-16T08:22:33Z</time>
      </trkpt>
      <trkpt lat="45.36723" lon="0.44521">
        <ele>145</ele>
        <time>2025-04-16T08:22:51Z</time>
      </trkpt>
      <trkpt lat="45.36743" lon="0.44517">
        <ele>145</ele>
        <time>2025-04-16T08:22:55Z</time>
      </trkpt>
      <trkpt lat="45.36752" lon="0.44518">
        <ele>145</ele>
        <time>2025-04-16T08:22:56Z</time>
      </trkpt>
      <trkpt lat="45.36762" lon="0.44522">
        <ele>144</ele>
        <time>2025-04-16T08:22:58Z</time>
      </trkpt>
      <trkpt lat="45.3677" lon="0.44529">
        <ele>144</ele>
        <time>2025-04-16T08:23:00Z</time>
      </trkpt>
      <trkpt lat="45.36776" lon="0.44537">
        <ele>144</ele>
        <time>2025-04-16T08:23:01Z</time>
      </trkpt>
      <trkpt lat="45.36812" lon="0.44587">
        <ele>141</ele>
        <time>2025-04-16T08:23:10Z</time>
      </trkpt>
      <trkpt lat="45.36939" lon="0.44769">
        <ele>137</ele>
        <time>2025-04-16T08:23:42Z</time>
      </trkpt>
      <trkpt lat="45.36945" lon="0.44778">
        <ele>137</ele>
        <time>2025-04-16T08:23:44Z</time>
      </trkpt>
      <trkpt lat="45.37028" lon="0.44895">
        <ele>141</ele>
        <time>2025-04-16T08:24:05Z</time>
      </trkpt>
      <trkpt lat="45.37125" lon="0.45034">
        <ele>149</ele>
        <time>2025-04-16T08:24:29Z</time>
      </trkpt>
      <trkpt lat="45.37267" lon="0.45241">
        <ele>150</ele>
        <time>2025-04-16T08:25:05Z</time>
      </trkpt>
      <trkpt lat="45.37287" lon="0.45285">
        <ele>153</ele>
        <time>2025-04-16T08:25:12Z</time>
      </trkpt>
      <trkpt lat="45.37327" lon="0.45449">
        <ele>154</ele>
        <time>2025-04-16T08:25:34Z</time>
      </trkpt>
      <trkpt lat="45.37335" lon="0.45479">
        <ele>155</ele>
        <time>2025-04-16T08:25:38Z</time>
      </trkpt>
      <trkpt lat="45.37348" lon="0.45516">
        <ele>156</ele>
        <time>2025-04-16T08:25:43Z</time>
      </trkpt>
      <trkpt lat="45.37365" lon="0.45548">
        <ele>155</ele>
        <time>2025-04-16T08:25:48Z</time>
      </trkpt>
      <trkpt lat="45.37431" lon="0.45653">
        <ele>154</ele>
        <time>2025-04-16T08:26:05Z</time>
      </trkpt>
      <trkpt lat="45.3744" lon="0.45674">
        <ele>155</ele>
        <time>2025-04-16T08:26:09Z</time>
      </trkpt>
      <trkpt lat="45.37448" lon="0.45697">
        <ele>155</ele>
        <time>2025-04-16T08:26:12Z</time>
      </trkpt>
      <trkpt lat="45.37452" lon="0.45732">
        <ele>156</ele>
        <time>2025-04-16T08:26:16Z</time>
      </trkpt>
      <trkpt lat="45.3745" lon="0.45882">
        <ele>158</ele>
        <time>2025-04-16T08:26:35Z</time>
      </trkpt>
      <trkpt lat="45.37452" lon="0.45914">
        <ele>158</ele>
        <time>2025-04-16T08:26:39Z</time>
      </trkpt>
      <trkpt lat="45.37458" lon="0.45947">
        <ele>158</ele>
        <time>2025-04-16T08:26:43Z</time>
      </trkpt>
      <trkpt lat="45.37466" lon="0.45978">
        <ele>159</ele>
        <time>2025-04-16T08:26:47Z</time>
      </trkpt>
      <trkpt lat="45.37483" lon="0.46016">
        <ele>159</ele>
        <time>2025-04-16T08:26:53Z</time>
      </trkpt>
      <trkpt lat="45.37503" lon="0.46046">
        <ele>159</ele>
        <time>2025-04-16T08:26:58Z</time>
      </trkpt>
      <trkpt lat="45.37532" lon="0.46077">
        <ele>160</ele>
        <time>2025-04-16T08:27:05Z</time>
      </trkpt>
      <trkpt lat="45.37562" lon="0.46104">
        <ele>159</ele>
        <time>2025-04-16T08:27:11Z</time>
      </trkpt>
      <trkpt lat="45.37582" lon="0.4613">
        <ele>158</ele>
        <time>2025-04-16T08:27:16Z</time>
      </trkpt>
      <trkpt lat="45.37595" lon="0.46158">
        <ele>158</ele>
        <time>2025-04-16T08:27:20Z</time>
      </trkpt>
      <trkpt lat="45.37613" lon="0.46207">
        <ele>159</ele>
        <time>2025-04-16T08:27:27Z</time>
      </trkpt>
      <trkpt lat="45.37747" lon="0.46592">
        <ele>160</ele>
        <time>2025-04-16T08:28:20Z</time>
      </trkpt>
      <trkpt lat="45.37755" lon="0.46623">
        <ele>162</ele>
        <time>2025-04-16T08:28:25Z</time>
      </trkpt>
      <trkpt lat="45.3776" lon="0.46651">
        <ele>164</ele>
        <time>2025-04-16T08:28:28Z</time>
      </trkpt>
      <trkpt lat="45.37776" lon="0.46796">
        <ele>168</ele>
        <time>2025-04-16T08:28:47Z</time>
      </trkpt>
      <trkpt lat="45.37783" lon="0.46832">
        <ele>168</ele>
        <time>2025-04-16T08:28:51Z</time>
      </trkpt>
      <trkpt lat="45.37793" lon="0.46859">
        <ele>168</ele>
        <time>2025-04-16T08:28:55Z</time>
      </trkpt>
      <trkpt lat="45.37817" lon="0.46896">
        <ele>165</ele>
        <time>2025-04-16T08:29:01Z</time>
      </trkpt>
      <trkpt lat="45.37826" lon="0.46921">
        <ele>165</ele>
        <time>2025-04-16T08:29:05Z</time>
      </trkpt>
      <trkpt lat="45.37837" lon="0.46953">
        <ele>166</ele>
        <time>2025-04-16T08:29:09Z</time>
      </trkpt>
      <trkpt lat="45.37859" lon="0.4705">
        <ele>173</ele>
        <time>2025-04-16T08:29:22Z</time>
      </trkpt>
      <trkpt lat="45.37862" lon="0.47068">
        <ele>173</ele>
        <time>2025-04-16T08:29:24Z</time>
      </trkpt>
      <trkpt lat="45.37863" lon="0.47089">
        <ele>174</ele>
        <time>2025-04-16T08:29:27Z</time>
      </trkpt>
      <trkpt lat="45.37864" lon="0.47132">
        <ele>176</ele>
        <time>2025-04-16T08:29:32Z</time>
      </trkpt>
      <trkpt lat="45.37868" lon="0.47153">
        <ele>176</ele>
        <time>2025-04-16T08:29:35Z</time>
      </trkpt>
      <trkpt lat="45.37873" lon="0.47172">
        <ele>176</ele>
        <time>2025-04-16T08:29:38Z</time>
      </trkpt>
      <trkpt lat="45.37902" lon="0.47215">
        <ele>174</ele>
        <time>2025-04-16T08:29:45Z</time>
      </trkpt>
      <trkpt lat="45.37912" lon="0.47231">
        <ele>173</ele>
        <time>2025-04-16T08:29:48Z</time>
      </trkpt>
      <trkpt lat="45.37915" lon="0.47241">
        <ele>173</ele>
        <time>2025-04-16T08:29:49Z</time>
      </trkpt>
      <trkpt lat="45.37915" lon="0.47346">
        <ele>177</ele>
        <time>2025-04-16T08:30:02Z</time>
      </trkpt>
      <trkpt lat="45.37918" lon="0.47381">
        <ele>177</ele>
        <time>2025-04-16T08:30:07Z</time>
      </trkpt>
      <trkpt lat="45.37977" lon="0.4761">
        <ele>181</ele>
        <time>2025-04-16T08:30:37Z</time>
      </trkpt>
      <trkpt lat="45.37983" lon="0.47669">
        <ele>181</ele>
        <time>2025-04-16T08:30:45Z</time>
      </trkpt>
      <trkpt lat="45.37987" lon="0.4769">
        <ele>181</ele>
        <time>2025-04-16T08:30:47Z</time>
      </trkpt>
      <trkpt lat="45.37998" lon="0.47711">
        <ele>180</ele>
        <time>2025-04-16T08:30:51Z</time>
      </trkpt>
      <trkpt lat="45.38082" lon="0.4782">
        <ele>178</ele>
        <time>2025-04-16T08:31:11Z</time>
      </trkpt>
      <trkpt lat="45.38111" lon="0.47858">
        <ele>179</ele>
        <time>2025-04-16T08:31:18Z</time>
      </trkpt>
      <trkpt lat="45.38144" lon="0.47895">
        <ele>179</ele>
        <time>2025-04-16T08:31:25Z</time>
      </trkpt>
      <trkpt lat="45.38196" lon="0.47948">
        <ele>180</ele>
        <time>2025-04-16T08:31:37Z</time>
      </trkpt>
      <trkpt lat="45.38223" lon="0.47999">
        <ele>183</ele>
        <time>2025-04-16T08:31:45Z</time>
      </trkpt>
      <trkpt lat="45.38257" lon="0.48089">
        <ele>188</ele>
        <time>2025-04-16T08:31:57Z</time>
      </trkpt>
      <trkpt lat="45.38271" lon="0.4812">
        <ele>190</ele>
        <time>2025-04-16T08:32:02Z</time>
      </trkpt>
      <trkpt lat="45.38293" lon="0.48154">
        <ele>191</ele>
        <time>2025-04-16T08:32:08Z</time>
      </trkpt>
      <trkpt lat="45.38337" lon="0.48207">
        <ele>189</ele>
        <time>2025-04-16T08:32:18Z</time>
      </trkpt>
      <trkpt lat="45.38354" lon="0.48229">
        <ele>189</ele>
        <time>2025-04-16T08:32:22Z</time>
      </trkpt>
      <trkpt lat="45.38365" lon="0.4825">
        <ele>188</ele>
        <time>2025-04-16T08:32:25Z</time>
      </trkpt>
      <trkpt lat="45.38376" lon="0.48273">
        <ele>188</ele>
        <time>2025-04-16T08:32:29Z</time>
      </trkpt>
      <trkpt lat="45.38385" lon="0.483">
        <ele>188</ele>
        <time>2025-04-16T08:32:33Z</time>
      </trkpt>
      <trkpt lat="45.38394" lon="0.48333">
        <ele>187</ele>
        <time>2025-04-16T08:32:37Z</time>
      </trkpt>
      <trkpt lat="45.38397" lon="0.48355">
        <ele>187</ele>
        <time>2025-04-16T08:32:40Z</time>
      </trkpt>
      <trkpt lat="45.38397" lon="0.48412">
        <ele>188</ele>
        <time>2025-04-16T08:32:47Z</time>
      </trkpt>
      <trkpt lat="45.38401" lon="0.48439">
        <ele>188</ele>
        <time>2025-04-16T08:32:50Z</time>
      </trkpt>
      <trkpt lat="45.38408" lon="0.48454">
        <ele>188</ele>
        <time>2025-04-16T08:32:53Z</time>
      </trkpt>
      <trkpt lat="45.38425" lon="0.48477">
        <ele>188</ele>
        <time>2025-04-16T08:32:57Z</time>
      </trkpt>
      <trkpt lat="45.38441" lon="0.48506">
        <ele>187</ele>
        <time>2025-04-16T08:33:01Z</time>
      </trkpt>
      <trkpt lat="45.38446" lon="0.48522">
        <ele>187</ele>
        <time>2025-04-16T08:33:04Z</time>
      </trkpt>
      <trkpt lat="45.3845" lon="0.48545">
        <ele>187</ele>
        <time>2025-04-16T08:33:07Z</time>
      </trkpt>
      <trkpt lat="45.3845" lon="0.48563">
        <ele>187</ele>
        <time>2025-04-16T08:33:09Z</time>
      </trkpt>
      <trkpt lat="45.38446" lon="0.48588">
        <ele>187</ele>
        <time>2025-04-16T08:33:12Z</time>
      </trkpt>
      <trkpt lat="45.38383" lon="0.48826">
        <ele>194</ele>
        <time>2025-04-16T08:33:44Z</time>
      </trkpt>
      <trkpt lat="45.38378" lon="0.48851">
        <ele>195</ele>
        <time>2025-04-16T08:33:47Z</time>
      </trkpt>
      <trkpt lat="45.38376" lon="0.48875">
        <ele>196</ele>
        <time>2025-04-16T08:33:50Z</time>
      </trkpt>
      <trkpt lat="45.38377" lon="0.48893">
        <ele>196</ele>
        <time>2025-04-16T08:33:52Z</time>
      </trkpt>
      <trkpt lat="45.38382" lon="0.48912">
        <ele>196</ele>
        <time>2025-04-16T08:33:55Z</time>
      </trkpt>
      <trkpt lat="45.38388" lon="0.48929">
        <ele>196</ele>
        <time>2025-04-16T08:33:57Z</time>
      </trkpt>
      <trkpt lat="45.38397" lon="0.48946">
        <ele>196</ele>
        <time>2025-04-16T08:34:00Z</time>
      </trkpt>
      <trkpt lat="45.38435" lon="0.49007">
        <ele>197</ele>
        <time>2025-04-16T08:34:10Z</time>
      </trkpt>
      <trkpt lat="45.38445" lon="0.49025">
        <ele>198</ele>
        <time>2025-04-16T08:34:13Z</time>
      </trkpt>
      <trkpt lat="45.38462" lon="0.49083">
        <ele>199</ele>
        <time>2025-04-16T08:34:21Z</time>
      </trkpt>
      <trkpt lat="45.38469" lon="0.49101">
        <ele>200</ele>
        <time>2025-04-16T08:34:23Z</time>
      </trkpt>
      <trkpt lat="45.38476" lon="0.49115">
        <ele>200</ele>
        <time>2025-04-16T08:34:26Z</time>
      </trkpt>
      <trkpt lat="45.38489" lon="0.49128">
        <ele>201</ele>
        <time>2025-04-16T08:34:28Z</time>
      </trkpt>
      <trkpt lat="45.38505" lon="0.49137">
        <ele>201</ele>
        <time>2025-04-16T08:34:31Z</time>
      </trkpt>
      <trkpt lat="45.38753" lon="0.49223">
        <ele>201</ele>
        <time>2025-04-16T08:35:17Z</time>
      </trkpt>
      <trkpt lat="45.38774" lon="0.49234">
        <ele>200</ele>
        <time>2025-04-16T08:35:21Z</time>
      </trkpt>
      <trkpt lat="45.38792" lon="0.49246">
        <ele>200</ele>
        <time>2025-04-16T08:35:24Z</time>
      </trkpt>
      <trkpt lat="45.38821" lon="0.49275">
        <ele>198</ele>
        <time>2025-04-16T08:35:31Z</time>
      </trkpt>
      <trkpt lat="45.38841" lon="0.49306">
        <ele>197</ele>
        <time>2025-04-16T08:35:36Z</time>
      </trkpt>
      <trkpt lat="45.38856" lon="0.49336">
        <ele>197</ele>
        <time>2025-04-16T08:35:41Z</time>
      </trkpt>
      <trkpt lat="45.38898" lon="0.49449">
        <ele>197</ele>
        <time>2025-04-16T08:35:57Z</time>
      </trkpt>
      <trkpt lat="45.38907" lon="0.49466">
        <ele>196</ele>
        <time>2025-04-16T08:35:59Z</time>
      </trkpt>
      <trkpt lat="45.38924" lon="0.49491">
        <ele>196</ele>
        <time>2025-04-16T08:36:04Z</time>
      </trkpt>
      <trkpt lat="45.38935" lon="0.49504">
        <ele>195</ele>
        <time>2025-04-16T08:36:06Z</time>
      </trkpt>
      <trkpt lat="45.39017" lon="0.49583">
        <ele>193</ele>
        <time>2025-04-16T08:36:24Z</time>
      </trkpt>
      <trkpt lat="45.39073" lon="0.49647">
        <ele>191</ele>
        <time>2025-04-16T08:36:36Z</time>
      </trkpt>
      <trkpt lat="45.39124" lon="0.49717">
        <ele>188</ele>
        <time>2025-04-16T08:36:49Z</time>
      </trkpt>
      <trkpt lat="45.39134" lon="0.49737">
        <ele>188</ele>
        <time>2025-04-16T08:36:52Z</time>
      </trkpt>
      <trkpt lat="45.3914" lon="0.49755">
        <ele>187</ele>
        <time>2025-04-16T08:36:55Z</time>
      </trkpt>
      <trkpt lat="45.39146" lon="0.49777">
        <ele>187</ele>
        <time>2025-04-16T08:36:58Z</time>
      </trkpt>
      <trkpt lat="45.39152" lon="0.49842">
        <ele>184</ele>
        <time>2025-04-16T08:37:06Z</time>
      </trkpt>
      <trkpt lat="45.39159" lon="0.49871">
        <ele>183</ele>
        <time>2025-04-16T08:37:10Z</time>
      </trkpt>
      <trkpt lat="45.39166" lon="0.4989">
        <ele>182</ele>
        <time>2025-04-16T08:37:12Z</time>
      </trkpt>
      <trkpt lat="45.39175" lon="0.49907">
        <ele>182</ele>
        <time>2025-04-16T08:37:15Z</time>
      </trkpt>
      <trkpt lat="45.39187" lon="0.49921">
        <ele>181</ele>
        <time>2025-04-16T08:37:18Z</time>
      </trkpt>
      <trkpt lat="45.39202" lon="0.49933">
        <ele>180</ele>
        <time>2025-04-16T08:37:21Z</time>
      </trkpt>
      <trkpt lat="45.39243" lon="0.49958">
        <ele>177</ele>
        <time>2025-04-16T08:37:29Z</time>
      </trkpt>
      <trkpt lat="45.39265" lon="0.49975">
        <ele>176</ele>
        <time>2025-04-16T08:37:33Z</time>
      </trkpt>
      <trkpt lat="45.39284" lon="0.49994">
        <ele>175</ele>
        <time>2025-04-16T08:37:37Z</time>
      </trkpt>
      <trkpt lat="45.3931" lon="0.50029">
        <ele>173</ele>
        <time>2025-04-16T08:37:44Z</time>
      </trkpt>
      <trkpt lat="45.3932" lon="0.50049">
        <ele>172</ele>
        <time>2025-04-16T08:37:47Z</time>
      </trkpt>
      <trkpt lat="45.39341" lon="0.50091">
        <ele>169</ele>
        <time>2025-04-16T08:37:53Z</time>
      </trkpt>
      <trkpt lat="45.39354" lon="0.50124">
        <ele>168</ele>
        <time>2025-04-16T08:37:58Z</time>
      </trkpt>
      <trkpt lat="45.39371" lon="0.5018">
        <ele>166</ele>
        <time>2025-04-16T08:38:06Z</time>
      </trkpt>
      <trkpt lat="45.39382" lon="0.50227">
        <ele>166</ele>
        <time>2025-04-16T08:38:12Z</time>
      </trkpt>
      <trkpt lat="45.39396" lon="0.50338">
        <ele>168</ele>
        <time>2025-04-16T08:38:26Z</time>
      </trkpt>
      <trkpt lat="45.39407" lon="0.50407">
        <ele>168</ele>
        <time>2025-04-16T08:38:35Z</time>
      </trkpt>
      <trkpt lat="45.39404" lon="0.5041">
        <ele>168</ele>
        <time>2025-04-16T08:38:35Z</time>
      </trkpt>
      <trkpt lat="45.39402" lon="0.50417">
        <ele>168</ele>
        <time>2025-04-16T08:38:36Z</time>
      </trkpt>
      <trkpt lat="45.39399" lon="0.50509">
        <ele>165</ele>
        <time>2025-04-16T08:38:48Z</time>
      </trkpt>
      <trkpt lat="45.39396" lon="0.50543">
        <ele>167</ele>
        <time>2025-04-16T08:38:52Z</time>
      </trkpt>
      <trkpt lat="45.39391" lon="0.50568">
        <ele>167</ele>
        <time>2025-04-16T08:38:55Z</time>
      </trkpt>
      <trkpt lat="45.39364" lon="0.50641">
        <ele>170</ele>
        <time>2025-04-16T08:39:06Z</time>
      </trkpt>
      <trkpt lat="45.39333" lon="0.50735">
        <ele>173</ele>
        <time>2025-04-16T08:39:19Z</time>
      </trkpt>
      <trkpt lat="45.39323" lon="0.50778">
        <ele>174</ele>
        <time>2025-04-16T08:39:24Z</time>
      </trkpt>
      <trkpt lat="45.393" lon="0.50964">
        <ele>171</ele>
        <time>2025-04-16T08:39:48Z</time>
      </trkpt>
      <trkpt lat="45.39288" lon="0.51047">
        <ele>169</ele>
        <time>2025-04-16T08:39:58Z</time>
      </trkpt>
      <trkpt lat="45.39266" lon="0.51034">
        <ele>168</ele>
        <time>2025-04-16T08:40:03Z</time>
      </trkpt>
      <trkpt lat="45.39256" lon="0.51034">
        <ele>167</ele>
        <time>2025-04-16T08:40:04Z</time>
      </trkpt>
      <trkpt lat="45.39266" lon="0.51034">
        <ele>168</ele>
        <time>2025-04-16T08:40:06Z</time>
      </trkpt>
      <trkpt lat="45.39288" lon="0.51047">
        <ele>169</ele>
        <time>2025-04-16T08:40:10Z</time>
      </trkpt>
      <trkpt lat="45.39287" lon="0.51056">
        <ele>169</ele>
        <time>2025-04-16T08:40:12Z</time>
      </trkpt>
      <trkpt lat="45.39275" lon="0.51129">
        <ele>170</ele>
        <time>2025-04-16T08:40:21Z</time>
      </trkpt>
      <trkpt lat="45.39273" lon="0.51134">
        <ele>170</ele>
        <time>2025-04-16T08:40:22Z</time>
      </trkpt>
      <trkpt lat="45.39267" lon="0.5115">
        <ele>171</ele>
        <time>2025-04-16T08:40:24Z</time>
      </trkpt>
      <trkpt lat="45.39247" lon="0.51167">
        <ele>172</ele>
        <time>2025-04-16T08:40:28Z</time>
      </trkpt>
      <trkpt lat="45.39207" lon="0.51197">
        <ele>175</ele>
        <time>2025-04-16T08:40:36Z</time>
      </trkpt>
      <trkpt lat="45.39179" lon="0.51233">
        <ele>178</ele>
        <time>2025-04-16T08:40:43Z</time>
      </trkpt>
      <trkpt lat="45.39176" lon="0.51273">
        <ele>182</ele>
        <time>2025-04-16T08:40:48Z</time>
      </trkpt>
      <trkpt lat="45.39184" lon="0.5131">
        <ele>184</ele>
        <time>2025-04-16T08:40:53Z</time>
      </trkpt>
      <trkpt lat="45.39197" lon="0.51333">
        <ele>186</ele>
        <time>2025-04-16T08:40:56Z</time>
      </trkpt>
      <trkpt lat="45.39206" lon="0.51349">
        <ele>187</ele>
        <time>2025-04-16T08:40:59Z</time>
      </trkpt>
      <trkpt lat="45.39172" lon="0.51392">
        <ele>188</ele>
        <time>2025-04-16T08:41:07Z</time>
      </trkpt>
      <trkpt lat="45.39155" lon="0.51408">
        <ele>187</ele>
        <time>2025-04-16T08:41:11Z</time>
      </trkpt>
      <trkpt lat="45.39122" lon="0.51431">
        <ele>183</ele>
        <time>2025-04-16T08:41:17Z</time>
      </trkpt>
      <trkpt lat="45.39103" lon="0.51456">
        <ele>180</ele>
        <time>2025-04-16T08:41:22Z</time>
      </trkpt>
      <trkpt lat="45.39096" lon="0.51463">
        <ele>179</ele>
        <time>2025-04-16T08:41:23Z</time>
      </trkpt>
      <trkpt lat="45.39092" lon="0.51466">
        <ele>178</ele>
        <time>2025-04-16T08:41:24Z</time>
      </trkpt>
      <trkpt lat="45.39076" lon="0.51471">
        <ele>176</ele>
        <time>2025-04-16T08:41:27Z</time>
      </trkpt>
      <trkpt lat="45.39047" lon="0.51466">
        <ele>173</ele>
        <time>2025-04-16T08:41:32Z</time>
      </trkpt>
      <trkpt lat="45.39025" lon="0.51455">
        <ele>172</ele>
        <time>2025-04-16T08:41:36Z</time>
      </trkpt>
      <trkpt lat="45.39004" lon="0.51436">
        <ele>170</ele>
        <time>2025-04-16T08:41:41Z</time>
      </trkpt>
      <trkpt lat="45.38967" lon="0.5137">
        <ele>166</ele>
        <time>2025-04-16T08:41:51Z</time>
      </trkpt>
      <trkpt lat="45.38952" lon="0.51356">
        <ele>165</ele>
        <time>2025-04-16T08:41:55Z</time>
      </trkpt>
      <trkpt lat="45.38929" lon="0.51348">
        <ele>162</ele>
        <time>2025-04-16T08:41:59Z</time>
      </trkpt>
      <trkpt lat="45.38916" lon="0.51347">
        <ele>161</ele>
        <time>2025-04-16T08:42:01Z</time>
      </trkpt>
      <trkpt lat="45.38831" lon="0.5135">
        <ele>157</ele>
        <time>2025-04-16T08:42:16Z</time>
      </trkpt>
      <trkpt lat="45.38808" lon="0.51357">
        <ele>156</ele>
        <time>2025-04-16T08:42:20Z</time>
      </trkpt>
      <trkpt lat="45.38741" lon="0.51399">
        <ele>157</ele>
        <time>2025-04-16T08:42:33Z</time>
      </trkpt>
      <trkpt lat="45.38687" lon="0.51425">
        <ele>157</ele>
        <time>2025-04-16T08:42:44Z</time>
      </trkpt>
      <trkpt lat="45.38602" lon="0.51425">
        <ele>158</ele>
        <time>2025-04-16T08:42:59Z</time>
      </trkpt>
      <trkpt lat="45.3856" lon="0.51399">
        <ele>159</ele>
        <time>2025-04-16T08:43:07Z</time>
      </trkpt>
      <trkpt lat="45.38536" lon="0.51382">
        <ele>159</ele>
        <time>2025-04-16T08:43:12Z</time>
      </trkpt>
      <trkpt lat="45.38482" lon="0.51366">
        <ele>157</ele>
        <time>2025-04-16T08:43:21Z</time>
      </trkpt>
      <trkpt lat="45.38462" lon="0.51363">
        <ele>157</ele>
        <time>2025-04-16T08:43:25Z</time>
      </trkpt>
      <trkpt lat="45.38454" lon="0.51362">
        <ele>157</ele>
        <time>2025-04-16T08:43:26Z</time>
      </trkpt>
      <trkpt lat="45.3842" lon="0.51364">
        <ele>156</ele>
        <time>2025-04-16T08:43:33Z</time>
      </trkpt>
      <trkpt lat="45.38382" lon="0.51374">
        <ele>158</ele>
        <time>2025-04-16T08:43:39Z</time>
      </trkpt>
      <trkpt lat="45.38341" lon="0.51389">
        <ele>158</ele>
        <time>2025-04-16T08:43:47Z</time>
      </trkpt>
      <trkpt lat="45.38301" lon="0.51414">
        <ele>159</ele>
        <time>2025-04-16T08:43:55Z</time>
      </trkpt>
      <trkpt lat="45.38269" lon="0.51483">
        <ele>161</ele>
        <time>2025-04-16T08:44:05Z</time>
      </trkpt>
      <trkpt lat="45.38233" lon="0.5157">
        <ele>154</ele>
        <time>2025-04-16T08:44:18Z</time>
      </trkpt>
      <trkpt lat="45.38216" lon="0.51603">
        <ele>152</ele>
        <time>2025-04-16T08:44:23Z</time>
      </trkpt>
      <trkpt lat="45.38193" lon="0.51616">
        <ele>152</ele>
        <time>2025-04-16T08:44:27Z</time>
      </trkpt>
      <trkpt lat="45.38132" lon="0.51613">
        <ele>152</ele>
        <time>2025-04-16T08:44:38Z</time>
      </trkpt>
      <trkpt lat="45.38069" lon="0.51589">
        <ele>151</ele>
        <time>2025-04-16T08:44:50Z</time>
      </trkpt>
      <trkpt lat="45.38022" lon="0.51569">
        <ele>149</ele>
        <time>2025-04-16T08:44:58Z</time>
      </trkpt>
      <trkpt lat="45.38009" lon="0.51567">
        <ele>149</ele>
        <time>2025-04-16T08:45:01Z</time>
      </trkpt>
      <trkpt lat="45.37987" lon="0.51563">
        <ele>148</ele>
        <time>2025-04-16T08:45:05Z</time>
      </trkpt>
      <trkpt lat="45.37934" lon="0.51571">
        <ele>148</ele>
        <time>2025-04-16T08:45:14Z</time>
      </trkpt>
      <trkpt lat="45.37859" lon="0.51589">
        <ele>145</ele>
        <time>2025-04-16T08:45:28Z</time>
      </trkpt>
      <trkpt lat="45.3782" lon="0.51594">
        <ele>145</ele>
        <time>2025-04-16T08:45:35Z</time>
      </trkpt>
      <trkpt lat="45.37815" lon="0.51593">
        <ele>145</ele>
        <time>2025-04-16T08:45:35Z</time>
      </trkpt>
      <trkpt lat="45.37795" lon="0.51589">
        <ele>144</ele>
        <time>2025-04-16T08:45:39Z</time>
      </trkpt>
      <trkpt lat="45.37764" lon="0.51549">
        <ele>145</ele>
        <time>2025-04-16T08:45:47Z</time>
      </trkpt>
      <trkpt lat="45.37742" lon="0.51504">
        <ele>144</ele>
        <time>2025-04-16T08:45:53Z</time>
      </trkpt>
      <trkpt lat="45.37714" lon="0.51463">
        <ele>143</ele>
        <time>2025-04-16T08:46:01Z</time>
      </trkpt>
      <trkpt lat="45.37668" lon="0.51425">
        <ele>139</ele>
        <time>2025-04-16T08:46:10Z</time>
      </trkpt>
      <trkpt lat="45.37632" lon="0.51391">
        <ele>141</ele>
        <time>2025-04-16T08:46:18Z</time>
      </trkpt>
      <trkpt lat="45.37602" lon="0.5138">
        <ele>140</ele>
        <time>2025-04-16T08:46:23Z</time>
      </trkpt>
      <trkpt lat="45.37554" lon="0.5138">
        <ele>140</ele>
        <time>2025-04-16T08:46:32Z</time>
      </trkpt>
      <trkpt lat="45.37524" lon="0.51368">
        <ele>141</ele>
        <time>2025-04-16T08:46:37Z</time>
      </trkpt>
      <trkpt lat="45.3748" lon="0.51348">
        <ele>143</ele>
        <time>2025-04-16T08:46:46Z</time>
      </trkpt>
      <trkpt lat="45.37436" lon="0.51344">
        <ele>144</ele>
        <time>2025-04-16T08:46:53Z</time>
      </trkpt>
      <trkpt lat="45.37425" lon="0.51349">
        <ele>144</ele>
        <time>2025-04-16T08:46:55Z</time>
      </trkpt>
      <trkpt lat="45.37392" lon="0.51363">
        <ele>142</ele>
        <time>2025-04-16T08:47:02Z</time>
      </trkpt>
      <trkpt lat="45.37368" lon="0.514">
        <ele>139</ele>
        <time>2025-04-16T08:47:08Z</time>
      </trkpt>
      <trkpt lat="45.37353" lon="0.51433">
        <ele>139</ele>
        <time>2025-04-16T08:47:13Z</time>
      </trkpt>
      <trkpt lat="45.37338" lon="0.5145">
        <ele>142</ele>
        <time>2025-04-16T08:47:16Z</time>
      </trkpt>
      <trkpt lat="45.37301" lon="0.51456">
        <ele>143</ele>
        <time>2025-04-16T08:47:23Z</time>
      </trkpt>
      <trkpt lat="45.37224" lon="0.51458">
        <ele>143</ele>
        <time>2025-04-16T08:47:36Z</time>
      </trkpt>
      <trkpt lat="45.37152" lon="0.51438">
        <ele>142</ele>
        <time>2025-04-16T08:47:50Z</time>
      </trkpt>
      <trkpt lat="45.37096" lon="0.51404">
        <ele>139</ele>
        <time>2025-04-16T08:48:00Z</time>
      </trkpt>
      <trkpt lat="45.37073" lon="0.51402">
        <ele>139</ele>
        <time>2025-04-16T08:48:04Z</time>
      </trkpt>
      <trkpt lat="45.36942" lon="0.51443">
        <ele>142</ele>
        <time>2025-04-16T08:48:28Z</time>
      </trkpt>
      <trkpt lat="45.3686" lon="0.51478">
        <ele>141</ele>
        <time>2025-04-16T08:48:44Z</time>
      </trkpt>
      <trkpt lat="45.36792" lon="0.51534">
        <ele>140</ele>
        <time>2025-04-16T08:48:58Z</time>
      </trkpt>
      <trkpt lat="45.36724" lon="0.51615">
        <ele>137</ele>
        <time>2025-04-16T08:49:13Z</time>
      </trkpt>
      <trkpt lat="45.36659" lon="0.51698">
        <ele>129</ele>
        <time>2025-04-16T08:49:29Z</time>
      </trkpt>
      <trkpt lat="45.36609" lon="0.5176">
        <ele>128</ele>
        <time>2025-04-16T08:49:41Z</time>
      </trkpt>
      <trkpt lat="45.36589" lon="0.51779">
        <ele>129</ele>
        <time>2025-04-16T08:49:45Z</time>
      </trkpt>
      <trkpt lat="45.36582" lon="0.51785">
        <ele>130</ele>
        <time>2025-04-16T08:49:46Z</time>
      </trkpt>
      <trkpt lat="45.36539" lon="0.51796">
        <ele>133</ele>
        <time>2025-04-16T08:49:54Z</time>
      </trkpt>
      <trkpt lat="45.36489" lon="0.51799">
        <ele>135</ele>
        <time>2025-04-16T08:50:03Z</time>
      </trkpt>
      <trkpt lat="45.36421" lon="0.51799">
        <ele>133</ele>
        <time>2025-04-16T08:50:15Z</time>
      </trkpt>
      <trkpt lat="45.36378" lon="0.51807">
        <ele>132</ele>
        <time>2025-04-16T08:50:23Z</time>
      </trkpt>
      <trkpt lat="45.36317" lon="0.51837">
        <ele>131</ele>
        <time>2025-04-16T08:50:34Z</time>
      </trkpt>
      <trkpt lat="45.36245" lon="0.51888">
        <ele>130</ele>
        <time>2025-04-16T08:50:49Z</time>
      </trkpt>
      <trkpt lat="45.36197" lon="0.51914">
        <ele>126</ele>
        <time>2025-04-16T08:50:58Z</time>
      </trkpt>
      <trkpt lat="45.36076" lon="0.51949">
        <ele>128</ele>
        <time>2025-04-16T08:51:20Z</time>
      </trkpt>
      <trkpt lat="45.35998" lon="0.51957">
        <ele>128</ele>
        <time>2025-04-16T08:51:34Z</time>
      </trkpt>
      <trkpt lat="45.35786" lon="0.52017">
        <ele>123</ele>
        <time>2025-04-16T08:52:12Z</time>
      </trkpt>
      <trkpt lat="45.35741" lon="0.52033">
        <ele>123</ele>
        <time>2025-04-16T08:52:20Z</time>
      </trkpt>
      <trkpt lat="45.35666" lon="0.5206">
        <ele>125</ele>
        <time>2025-04-16T08:52:34Z</time>
      </trkpt>
      <trkpt lat="45.35556" lon="0.52094">
        <ele>124</ele>
        <time>2025-04-16T08:52:54Z</time>
      </trkpt>
      <trkpt lat="45.35511" lon="0.52138">
        <ele>125</ele>
        <time>2025-04-16T08:53:04Z</time>
      </trkpt>
      <trkpt lat="45.35457" lon="0.52206">
        <ele>127</ele>
        <time>2025-04-16T08:53:17Z</time>
      </trkpt>
      <trkpt lat="45.35438" lon="0.52238">
        <ele>128</ele>
        <time>2025-04-16T08:53:22Z</time>
      </trkpt>
      <trkpt lat="45.35396" lon="0.5232">
        <ele>132</ele>
        <time>2025-04-16T08:53:35Z</time>
      </trkpt>
      <trkpt lat="45.35385" lon="0.52349">
        <ele>133</ele>
        <time>2025-04-16T08:53:39Z</time>
      </trkpt>
      <trkpt lat="45.35382" lon="0.52393">
        <ele>135</ele>
        <time>2025-04-16T08:53:44Z</time>
      </trkpt>
      <trkpt lat="45.35385" lon="0.52435">
        <ele>136</ele>
        <time>2025-04-16T08:53:50Z</time>
      </trkpt>
      <trkpt lat="45.35386" lon="0.52461">
        <ele>137</ele>
        <time>2025-04-16T08:53:53Z</time>
      </trkpt>
      <trkpt lat="45.35368" lon="0.52531">
        <ele>140</ele>
        <time>2025-04-16T08:54:02Z</time>
      </trkpt>
      <trkpt lat="45.3533" lon="0.52586">
        <ele>142</ele>
        <time>2025-04-16T08:54:12Z</time>
      </trkpt>
      <trkpt lat="45.3528" lon="0.52622">
        <ele>146</ele>
        <time>2025-04-16T08:54:22Z</time>
      </trkpt>
      <trkpt lat="45.35225" lon="0.52654">
        <ele>148</ele>
        <time>2025-04-16T08:54:32Z</time>
      </trkpt>
      <trkpt lat="45.35192" lon="0.52695">
        <ele>150</ele>
        <time>2025-04-16T08:54:40Z</time>
      </trkpt>
      <trkpt lat="45.3506" lon="0.52877">
        <ele>149</ele>
        <time>2025-04-16T08:55:13Z</time>
      </trkpt>
      <trkpt lat="45.35013" lon="0.52925">
        <ele>147</ele>
        <time>2025-04-16T08:55:23Z</time>
      </trkpt>
      <trkpt lat="45.34853" lon="0.53053">
        <ele>137</ele>
        <time>2025-04-16T08:55:56Z</time>
      </trkpt>
      <trkpt lat="45.34818" lon="0.53083">
        <ele>134</ele>
        <time>2025-04-16T08:56:03Z</time>
      </trkpt>
      <trkpt lat="45.34802" lon="0.53107">
        <ele>133</ele>
        <time>2025-04-16T08:56:07Z</time>
      </trkpt>
      <trkpt lat="45.34793" lon="0.53138">
        <ele>132</ele>
        <time>2025-04-16T08:56:11Z</time>
      </trkpt>
      <trkpt lat="45.34795" lon="0.53177">
        <ele>131</ele>
        <time>2025-04-16T08:56:16Z</time>
      </trkpt>
      <trkpt lat="45.34833" lon="0.53449">
        <ele>135</ele>
        <time>2025-04-16T08:56:51Z</time>
      </trkpt>
      <trkpt lat="45.34842" lon="0.53513">
        <ele>136</ele>
        <time>2025-04-16T08:56:59Z</time>
      </trkpt>
      <trkpt lat="45.34844" lon="0.53577">
        <ele>138</ele>
        <time>2025-04-16T08:57:07Z</time>
      </trkpt>
      <trkpt lat="45.34834" lon="0.53641">
        <ele>138</ele>
        <time>2025-04-16T08:57:15Z</time>
      </trkpt>
      <trkpt lat="45.3482" lon="0.53693">
        <ele>140</ele>
        <time>2025-04-16T08:57:22Z</time>
      </trkpt>
      <trkpt lat="45.34795" lon="0.53743">
        <ele>143</ele>
        <time>2025-04-16T08:57:30Z</time>
      </trkpt>
      <trkpt lat="45.34758" lon="0.5379">
        <ele>145</ele>
        <time>2025-04-16T08:57:39Z</time>
      </trkpt>
      <trkpt lat="45.34744" lon="0.53803">
        <ele>146</ele>
        <time>2025-04-16T08:57:42Z</time>
      </trkpt>
      <trkpt lat="45.34712" lon="0.5384">
        <ele>147</ele>
        <time>2025-04-16T08:57:49Z</time>
      </trkpt>
      <trkpt lat="45.34692" lon="0.53859">
        <ele>147</ele>
        <time>2025-04-16T08:57:53Z</time>
      </trkpt>
      <trkpt lat="45.34709" lon="0.53884">
        <ele>148</ele>
        <time>2025-04-16T08:57:58Z</time>
      </trkpt>
      <trkpt lat="45.34732" lon="0.53902">
        <ele>148</ele>
        <time>2025-04-16T08:58:02Z</time>
      </trkpt>
      <trkpt lat="45.34815" lon="0.53966">
        <ele>150</ele>
        <time>2025-04-16T08:58:19Z</time>
      </trkpt>
      <trkpt lat="45.34812" lon="0.53981">
        <ele>150</ele>
        <time>2025-04-16T08:58:21Z</time>
      </trkpt>
      <trkpt lat="45.34811" lon="0.54001">
        <ele>150</ele>
        <time>2025-04-16T08:58:24Z</time>
      </trkpt>
      <trkpt lat="45.34815" lon="0.54196">
        <ele>151</ele>
        <time>2025-04-16T08:58:48Z</time>
      </trkpt>
      <trkpt lat="45.34817" lon="0.54226">
        <ele>152</ele>
        <time>2025-04-16T08:58:52Z</time>
      </trkpt>
      <trkpt lat="45.34822" lon="0.54248">
        <ele>152</ele>
        <time>2025-04-16T08:58:55Z</time>
      </trkpt>
      <trkpt lat="45.34829" lon="0.5427">
        <ele>153</ele>
        <time>2025-04-16T08:58:58Z</time>
      </trkpt>
      <trkpt lat="45.34892" lon="0.54401">
        <ele>161</ele>
        <time>2025-04-16T08:59:18Z</time>
      </trkpt>
      <trkpt lat="45.34909" lon="0.54458">
        <ele>158</ele>
        <time>2025-04-16T08:59:25Z</time>
      </trkpt>
      <trkpt lat="45.34918" lon="0.54482">
        <ele>157</ele>
        <time>2025-04-16T08:59:29Z</time>
      </trkpt>
      <trkpt lat="45.34943" lon="0.54517">
        <ele>154</ele>
        <time>2025-04-16T08:59:35Z</time>
      </trkpt>
      <trkpt lat="45.3496" lon="0.54534">
        <ele>152</ele>
        <time>2025-04-16T08:59:39Z</time>
      </trkpt>
      <trkpt lat="45.34976" lon="0.54544">
        <ele>151</ele>
        <time>2025-04-16T08:59:42Z</time>
      </trkpt>
      <trkpt lat="45.35013" lon="0.54557">
        <ele>149</ele>
        <time>2025-04-16T08:59:49Z</time>
      </trkpt>
      <trkpt lat="45.35034" lon="0.54566">
        <ele>146</ele>
        <time>2025-04-16T08:59:52Z</time>
      </trkpt>
      <trkpt lat="45.3506" lon="0.54585">
        <ele>143</ele>
        <time>2025-04-16T08:59:58Z</time>
      </trkpt>
      <trkpt lat="45.35079" lon="0.54604">
        <ele>141</ele>
        <time>2025-04-16T09:00:02Z</time>
      </trkpt>
      <trkpt lat="45.35102" lon="0.54633">
        <ele>139</ele>
        <time>2025-04-16T09:00:07Z</time>
      </trkpt>
      <trkpt lat="45.35111" lon="0.5465">
        <ele>138</ele>
        <time>2025-04-16T09:00:10Z</time>
      </trkpt>
      <trkpt lat="45.35118" lon="0.54666">
        <ele>137</ele>
        <time>2025-04-16T09:00:12Z</time>
      </trkpt>
      <trkpt lat="45.35121" lon="0.54686">
        <ele>136</ele>
        <time>2025-04-16T09:00:15Z</time>
      </trkpt>
      <trkpt lat="45.35127" lon="0.54755">
        <ele>133</ele>
        <time>2025-04-16T09:00:24Z</time>
      </trkpt>
      <trkpt lat="45.35129" lon="0.54779">
        <ele>133</ele>
        <time>2025-04-16T09:00:27Z</time>
      </trkpt>
      <trkpt lat="45.35149" lon="0.54847">
        <ele>130</ele>
        <time>2025-04-16T09:00:36Z</time>
      </trkpt>
      <trkpt lat="45.35155" lon="0.5488">
        <ele>129</ele>
        <time>2025-04-16T09:00:40Z</time>
      </trkpt>
      <trkpt lat="45.35163" lon="0.55024">
        <ele>124</ele>
        <time>2025-04-16T09:00:58Z</time>
      </trkpt>
      <trkpt lat="45.35176" lon="0.55189">
        <ele>117</ele>
        <time>2025-04-16T09:01:19Z</time>
      </trkpt>
      <trkpt lat="45.35176" lon="0.55198">
        <ele>117</ele>
        <time>2025-04-16T09:01:20Z</time>
      </trkpt>
      <trkpt lat="45.35197" lon="0.55211">
        <ele>117</ele>
        <time>2025-04-16T09:01:24Z</time>
      </trkpt>
      <trkpt lat="45.35213" lon="0.55224">
        <ele>117</ele>
        <time>2025-04-16T09:01:27Z</time>
      </trkpt>
      <trkpt lat="45.35233" lon="0.55236">
        <ele>117</ele>
        <time>2025-04-16T09:01:31Z</time>
      </trkpt>
      <trkpt lat="45.35243" lon="0.55246">
        <ele>116</ele>
        <time>2025-04-16T09:01:33Z</time>
      </trkpt>
      <trkpt lat="45.35244" lon="0.55269">
        <ele>115</ele>
        <time>2025-04-16T09:01:36Z</time>
      </trkpt>
      <trkpt lat="45.35257" lon="0.55273">
        <ele>115</ele>
        <time>2025-04-16T09:01:39Z</time>
      </trkpt>
      <trkpt lat="45.35274" lon="0.55291">
        <ele>113</ele>
        <time>2025-04-16T09:01:42Z</time>
      </trkpt>
      <trkpt lat="45.35281" lon="0.55306">
        <ele>112</ele>
        <time>2025-04-16T09:01:45Z</time>
      </trkpt>
      <trkpt lat="45.35267" lon="0.55355">
        <ele>109</ele>
        <time>2025-04-16T09:01:51Z</time>
      </trkpt>
      <trkpt lat="45.35263" lon="0.55387">
        <ele>107</ele>
        <time>2025-04-16T09:01:55Z</time>
      </trkpt>
      <trkpt lat="45.35279" lon="0.55415">
        <ele>104</ele>
        <time>2025-04-16T09:02:00Z</time>
      </trkpt>
      <trkpt lat="45.35346" lon="0.55528">
        <ele>104</ele>
        <time>2025-04-16T09:02:18Z</time>
      </trkpt>
      <trkpt lat="45.3537" lon="0.55572">
        <ele>105</ele>
        <time>2025-04-16T09:02:25Z</time>
      </trkpt>
      <trkpt lat="45.35392" lon="0.55605">
        <ele>106</ele>
        <time>2025-04-16T09:02:31Z</time>
      </trkpt>
      <trkpt lat="45.35405" lon="0.55619">
        <ele>106</ele>
        <time>2025-04-16T09:02:34Z</time>
      </trkpt>
      <trkpt lat="45.35609" lon="0.55795">
        <ele>109</ele>
        <time>2025-04-16T09:03:16Z</time>
      </trkpt>
      <trkpt lat="45.35661" lon="0.55831">
        <ele>107</ele>
        <time>2025-04-16T09:03:27Z</time>
      </trkpt>
      <trkpt lat="45.35767" lon="0.55879">
        <ele>113</ele>
        <time>2025-04-16T09:03:46Z</time>
      </trkpt>
      <trkpt lat="45.35782" lon="0.5589">
        <ele>111</ele>
        <time>2025-04-16T09:03:49Z</time>
      </trkpt>
      <trkpt lat="45.35796" lon="0.55923">
        <ele>107</ele>
        <time>2025-04-16T09:03:54Z</time>
      </trkpt>
      <trkpt lat="45.35798" lon="0.55941">
        <ele>106</ele>
        <time>2025-04-16T09:03:57Z</time>
      </trkpt>
      <trkpt lat="45.35807" lon="0.56016">
        <ele>105</ele>
        <time>2025-04-16T09:04:06Z</time>
      </trkpt>
      <trkpt lat="45.35829" lon="0.56172">
        <ele>107</ele>
        <time>2025-04-16T09:04:26Z</time>
      </trkpt>
      <trkpt lat="45.3583" lon="0.56181">
        <ele>108</ele>
        <time>2025-04-16T09:04:27Z</time>
      </trkpt>
      <trkpt lat="45.35837" lon="0.56234">
        <ele>115</ele>
        <time>2025-04-16T09:04:34Z</time>
      </trkpt>
      <trkpt lat="45.3584" lon="0.5631">
        <ele>121</ele>
        <time>2025-04-16T09:04:43Z</time>
      </trkpt>
      <trkpt lat="45.35827" lon="0.56414">
        <ele>126</ele>
        <time>2025-04-16T09:04:57Z</time>
      </trkpt>
      <trkpt lat="45.35827" lon="0.56469">
        <ele>126</ele>
        <time>2025-04-16T09:05:03Z</time>
      </trkpt>
      <trkpt lat="45.35835" lon="0.5652">
        <ele>125</ele>
        <time>2025-04-16T09:05:10Z</time>
      </trkpt>
      <trkpt lat="45.35835" lon="0.56562">
        <ele>123</ele>
        <time>2025-04-16T09:05:15Z</time>
      </trkpt>
      <trkpt lat="45.35824" lon="0.56617">
        <ele>124</ele>
        <time>2025-04-16T09:05:22Z</time>
      </trkpt>
      <trkpt lat="45.35796" lon="0.56701">
        <ele>129</ele>
        <time>2025-04-16T09:05:34Z</time>
      </trkpt>
      <trkpt lat="45.3576" lon="0.5676">
        <ele>131</ele>
        <time>2025-04-16T09:05:44Z</time>
      </trkpt>
      <trkpt lat="45.35739" lon="0.56817">
        <ele>131</ele>
        <time>2025-04-16T09:05:52Z</time>
      </trkpt>
      <trkpt lat="45.35744" lon="0.56873">
        <ele>131</ele>
        <time>2025-04-16T09:05:59Z</time>
      </trkpt>
      <trkpt lat="45.35745" lon="0.56936">
        <ele>133</ele>
        <time>2025-04-16T09:06:07Z</time>
      </trkpt>
      <trkpt lat="45.35737" lon="0.5701">
        <ele>138</ele>
        <time>2025-04-16T09:06:16Z</time>
      </trkpt>
      <trkpt lat="45.35735" lon="0.57048">
        <ele>139</ele>
        <time>2025-04-16T09:06:21Z</time>
      </trkpt>
      <trkpt lat="45.35746" lon="0.57142">
        <ele>138</ele>
        <time>2025-04-16T09:06:33Z</time>
      </trkpt>
      <trkpt lat="45.35736" lon="0.57223">
        <ele>140</ele>
        <time>2025-04-16T09:06:43Z</time>
      </trkpt>
      <trkpt lat="45.35745" lon="0.5728">
        <ele>140</ele>
        <time>2025-04-16T09:06:50Z</time>
      </trkpt>
      <trkpt lat="45.35751" lon="0.57335">
        <ele>142</ele>
        <time>2025-04-16T09:06:57Z</time>
      </trkpt>
      <trkpt lat="45.35743" lon="0.57407">
        <ele>144</ele>
        <time>2025-04-16T09:07:06Z</time>
      </trkpt>
      <trkpt lat="45.35751" lon="0.57473">
        <ele>143</ele>
        <time>2025-04-16T09:07:15Z</time>
      </trkpt>
      <trkpt lat="45.35769" lon="0.5753">
        <ele>144</ele>
        <time>2025-04-16T09:07:23Z</time>
      </trkpt>
      <trkpt lat="45.35801" lon="0.57546">
        <ele>146</ele>
        <time>2025-04-16T09:07:29Z</time>
      </trkpt>
      <trkpt lat="45.35834" lon="0.57553">
        <ele>147</ele>
        <time>2025-04-16T09:07:35Z</time>
      </trkpt>
      <trkpt lat="45.35858" lon="0.57579">
        <ele>147</ele>
        <time>2025-04-16T09:07:40Z</time>
      </trkpt>
      <trkpt lat="45.35862" lon="0.57583">
        <ele>147</ele>
        <time>2025-04-16T09:07:41Z</time>
      </trkpt>
      <trkpt lat="45.35882" lon="0.57634">
        <ele>150</ele>
        <time>2025-04-16T09:07:48Z</time>
      </trkpt>
      <trkpt lat="45.35968" lon="0.57667">
        <ele>152</ele>
        <time>2025-04-16T09:08:04Z</time>
      </trkpt>
      <trkpt lat="45.35999" lon="0.57697">
        <ele>153</ele>
        <time>2025-04-16T09:08:11Z</time>
      </trkpt>
      <trkpt lat="45.36019" lon="0.57732">
        <ele>155</ele>
        <time>2025-04-16T09:08:16Z</time>
      </trkpt>
      <trkpt lat="45.36043" lon="0.57793">
        <ele>157</ele>
        <time>2025-04-16T09:08:25Z</time>
      </trkpt>
      <trkpt lat="45.36103" lon="0.58004">
        <ele>159</ele>
        <time>2025-04-16T09:08:53Z</time>
      </trkpt>
      <trkpt lat="45.36128" lon="0.58107">
        <ele>161</ele>
        <time>2025-04-16T09:09:07Z</time>
      </trkpt>
      <trkpt lat="45.3613" lon="0.58156">
        <ele>163</ele>
        <time>2025-04-16T09:09:13Z</time>
      </trkpt>
      <trkpt lat="45.36114" lon="0.58289">
        <ele>165</ele>
        <time>2025-04-16T09:09:30Z</time>
      </trkpt>
      <trkpt lat="45.36112" lon="0.58305">
        <ele>165</ele>
        <time>2025-04-16T09:09:32Z</time>
      </trkpt>
      <trkpt lat="45.36081" lon="0.58561">
        <ele>169</ele>
        <time>2025-04-16T09:10:05Z</time>
      </trkpt>
      <trkpt lat="45.36063" lon="0.58556">
        <ele>169</ele>
        <time>2025-04-16T09:10:08Z</time>
      </trkpt>
      <trkpt lat="45.36081" lon="0.58561">
        <ele>169</ele>
        <time>2025-04-16T09:10:11Z</time>
      </trkpt>
      <trkpt lat="45.36011" lon="0.58873">
        <ele>177</ele>
        <time>2025-04-16T09:10:52Z</time>
      </trkpt>
      <trkpt lat="45.3601" lon="0.58894">
        <ele>178</ele>
        <time>2025-04-16T09:10:55Z</time>
      </trkpt>
      <trkpt lat="45.36017" lon="0.58907">
        <ele>178</ele>
        <time>2025-04-16T09:10:57Z</time>
      </trkpt>
      <trkpt lat="45.36029" lon="0.58921">
        <ele>179</ele>
        <time>2025-04-16T09:11:00Z</time>
      </trkpt>
      <trkpt lat="45.36072" lon="0.58959">
        <ele>180</ele>
        <time>2025-04-16T09:11:09Z</time>
      </trkpt>
      <trkpt lat="45.36086" lon="0.58968">
        <ele>180</ele>
        <time>2025-04-16T09:11:11Z</time>
      </trkpt>
      <trkpt lat="45.36162" lon="0.59005">
        <ele>183</ele>
        <time>2025-04-16T09:11:26Z</time>
      </trkpt>
      <trkpt lat="45.36173" lon="0.59019">
        <ele>183</ele>
        <time>2025-04-16T09:11:28Z</time>
      </trkpt>
      <trkpt lat="45.36175" lon="0.59029">
        <ele>183</ele>
        <time>2025-04-16T09:11:29Z</time>
      </trkpt>
      <trkpt lat="45.36171" lon="0.59039">
        <ele>184</ele>
        <time>2025-04-16T09:11:31Z</time>
      </trkpt>
      <trkpt lat="45.36164" lon="0.5905">
        <ele>184</ele>
        <time>2025-04-16T09:11:33Z</time>
      </trkpt>
      <trkpt lat="45.36153" lon="0.59062">
        <ele>184</ele>
        <time>2025-04-16T09:11:35Z</time>
      </trkpt>
      <trkpt lat="45.36143" lon="0.59082">
        <ele>184</ele>
        <time>2025-04-16T09:11:38Z</time>
      </trkpt>
      <trkpt lat="45.36126" lon="0.5915">
        <ele>183</ele>
        <time>2025-04-16T09:11:47Z</time>
      </trkpt>
      <trkpt lat="45.36116" lon="0.59214">
        <ele>183</ele>
        <time>2025-04-16T09:11:56Z</time>
      </trkpt>
      <trkpt lat="45.36097" lon="0.59261">
        <ele>184</ele>
        <time>2025-04-16T09:12:02Z</time>
      </trkpt>
      <trkpt lat="45.3609" lon="0.59285">
        <ele>185</ele>
        <time>2025-04-16T09:12:06Z</time>
      </trkpt>
      <trkpt lat="45.36086" lon="0.59321">
        <ele>186</ele>
        <time>2025-04-16T09:12:10Z</time>
      </trkpt>
      <trkpt lat="45.36086" lon="0.59339">
        <ele>186</ele>
        <time>2025-04-16T09:12:12Z</time>
      </trkpt>
      <trkpt lat="45.36092" lon="0.59389">
        <ele>186</ele>
        <time>2025-04-16T09:12:19Z</time>
      </trkpt>
      <trkpt lat="45.36092" lon="0.59414">
        <ele>186</ele>
        <time>2025-04-16T09:12:22Z</time>
      </trkpt>
      <trkpt lat="45.36092" lon="0.59422">
        <ele>186</ele>
        <time>2025-04-16T09:12:23Z</time>
      </trkpt>
      <trkpt lat="45.36079" lon="0.59489">
        <ele>186</ele>
        <time>2025-04-16T09:12:32Z</time>
      </trkpt>
      <trkpt lat="45.36078" lon="0.59509">
        <ele>186</ele>
        <time>2025-04-16T09:12:34Z</time>
      </trkpt>
      <trkpt lat="45.36081" lon="0.59531">
        <ele>186</ele>
        <time>2025-04-16T09:12:37Z</time>
      </trkpt>
      <trkpt lat="45.36085" lon="0.59539">
        <ele>186</ele>
        <time>2025-04-16T09:12:38Z</time>
      </trkpt>
      <trkpt lat="45.36106" lon="0.5957">
        <ele>187</ele>
        <time>2025-04-16T09:12:43Z</time>
      </trkpt>
      <trkpt lat="45.36154" lon="0.59623">
        <ele>189</ele>
        <time>2025-04-16T09:12:54Z</time>
      </trkpt>
      <trkpt lat="45.36191" lon="0.59666">
        <ele>189</ele>
        <time>2025-04-16T09:13:03Z</time>
      </trkpt>
      <trkpt lat="45.36215" lon="0.59699">
        <ele>189</ele>
        <time>2025-04-16T09:13:09Z</time>
      </trkpt>
      <trkpt lat="45.36224" lon="0.59711">
        <ele>189</ele>
        <time>2025-04-16T09:13:11Z</time>
      </trkpt>
      <trkpt lat="45.36256" lon="0.59767">
        <ele>187</ele>
        <time>2025-04-16T09:13:20Z</time>
      </trkpt>
      <trkpt lat="45.36269" lon="0.59796">
        <ele>188</ele>
        <time>2025-04-16T09:13:24Z</time>
      </trkpt>
      <trkpt lat="45.36293" lon="0.59837">
        <ele>188</ele>
        <time>2025-04-16T09:13:31Z</time>
      </trkpt>
      <trkpt lat="45.36329" lon="0.59935">
        <ele>187</ele>
        <time>2025-04-16T09:13:45Z</time>
      </trkpt>
      <trkpt lat="45.36357" lon="0.59981">
        <ele>188</ele>
        <time>2025-04-16T09:13:52Z</time>
      </trkpt>
      <trkpt lat="45.36438" lon="0.60085">
        <ele>194</ele>
        <time>2025-04-16T09:14:12Z</time>
      </trkpt>
      <trkpt lat="45.36466" lon="0.60129">
        <ele>196</ele>
        <time>2025-04-16T09:14:19Z</time>
      </trkpt>
      <trkpt lat="45.36471" lon="0.60143">
        <ele>196</ele>
        <time>2025-04-16T09:14:21Z</time>
      </trkpt>
      <trkpt lat="45.3648" lon="0.60169">
        <ele>197</ele>
        <time>2025-04-16T09:14:25Z</time>
      </trkpt>
      <trkpt lat="45.36495" lon="0.60231">
        <ele>198</ele>
        <time>2025-04-16T09:14:33Z</time>
      </trkpt>
      <trkpt lat="45.36506" lon="0.60286">
        <ele>199</ele>
        <time>2025-04-16T09:14:40Z</time>
      </trkpt>
      <trkpt lat="45.3652" lon="0.6033">
        <ele>199</ele>
        <time>2025-04-16T09:14:46Z</time>
      </trkpt>
      <trkpt lat="45.36547" lon="0.6037">
        <ele>199</ele>
        <time>2025-04-16T09:14:53Z</time>
      </trkpt>
      <trkpt lat="45.36783" lon="0.60635">
        <ele>191</ele>
        <time>2025-04-16T09:15:47Z</time>
      </trkpt>
      <trkpt lat="45.36806" lon="0.60666">
        <ele>192</ele>
        <time>2025-04-16T09:15:52Z</time>
      </trkpt>
      <trkpt lat="45.36888" lon="0.60758">
        <ele>191</ele>
        <time>2025-04-16T09:16:11Z</time>
      </trkpt>
      <trkpt lat="45.36929" lon="0.60808">
        <ele>191</ele>
        <time>2025-04-16T09:16:20Z</time>
      </trkpt>
      <trkpt lat="45.36946" lon="0.60823">
        <ele>191</ele>
        <time>2025-04-16T09:16:24Z</time>
      </trkpt>
      <trkpt lat="45.36972" lon="0.60841">
        <ele>192</ele>
        <time>2025-04-16T09:16:29Z</time>
      </trkpt>
      <trkpt lat="45.37004" lon="0.60849">
        <ele>192</ele>
        <time>2025-04-16T09:16:35Z</time>
      </trkpt>
      <trkpt lat="45.37149" lon="0.60872">
        <ele>192</ele>
        <time>2025-04-16T09:17:01Z</time>
      </trkpt>
      <trkpt lat="45.37198" lon="0.60882">
        <ele>192</ele>
        <time>2025-04-16T09:17:10Z</time>
      </trkpt>
      <trkpt lat="45.37264" lon="0.60904">
        <ele>191</ele>
        <time>2025-04-16T09:17:22Z</time>
      </trkpt>
      <trkpt lat="45.37287" lon="0.60916">
        <ele>191</ele>
        <time>2025-04-16T09:17:26Z</time>
      </trkpt>
      <trkpt lat="45.37293" lon="0.60919">
        <ele>191</ele>
        <time>2025-04-16T09:17:27Z</time>
      </trkpt>
      <trkpt lat="45.37325" lon="0.60953">
        <ele>190</ele>
        <time>2025-04-16T09:17:34Z</time>
      </trkpt>
      <trkpt lat="45.37338" lon="0.6098">
        <ele>189</ele>
        <time>2025-04-16T09:17:38Z</time>
      </trkpt>
      <trkpt lat="45.37347" lon="0.61013">
        <ele>188</ele>
        <time>2025-04-16T09:17:43Z</time>
      </trkpt>
      <trkpt lat="45.37347" lon="0.61051">
        <ele>187</ele>
        <time>2025-04-16T09:17:48Z</time>
      </trkpt>
      <trkpt lat="45.37331" lon="0.61157">
        <ele>183</ele>
        <time>2025-04-16T09:18:01Z</time>
      </trkpt>
      <trkpt lat="45.37333" lon="0.61187">
        <ele>182</ele>
        <time>2025-04-16T09:18:05Z</time>
      </trkpt>
      <trkpt lat="45.37358" lon="0.61285">
        <ele>180</ele>
        <time>2025-04-16T09:18:18Z</time>
      </trkpt>
      <trkpt lat="45.37357" lon="0.6132">
        <ele>178</ele>
        <time>2025-04-16T09:18:22Z</time>
      </trkpt>
      <trkpt lat="45.37338" lon="0.614">
        <ele>176</ele>
        <time>2025-04-16T09:18:33Z</time>
      </trkpt>
      <trkpt lat="45.37335" lon="0.61449">
        <ele>175</ele>
        <time>2025-04-16T09:18:39Z</time>
      </trkpt>
      <trkpt lat="45.37364" lon="0.61646">
        <ele>177</ele>
        <time>2025-04-16T09:19:04Z</time>
      </trkpt>
      <trkpt lat="45.37382" lon="0.61738">
        <ele>181</ele>
        <time>2025-04-16T09:19:16Z</time>
      </trkpt>
      <trkpt lat="45.37397" lon="0.61768">
        <ele>181</ele>
        <time>2025-04-16T09:19:21Z</time>
      </trkpt>
      <trkpt lat="45.37444" lon="0.61832">
        <ele>181</ele>
        <time>2025-04-16T09:19:32Z</time>
      </trkpt>
      <trkpt lat="45.37526" lon="0.61939">
        <ele>181</ele>
        <time>2025-04-16T09:19:52Z</time>
      </trkpt>
      <trkpt lat="45.37552" lon="0.61978">
        <ele>182</ele>
        <time>2025-04-16T09:19:59Z</time>
      </trkpt>
      <trkpt lat="45.37583" lon="0.62046">
        <ele>185</ele>
        <time>2025-04-16T09:20:09Z</time>
      </trkpt>
      <trkpt lat="45.37598" lon="0.62099">
        <ele>186</ele>
        <time>2025-04-16T09:20:16Z</time>
      </trkpt>
      <trkpt lat="45.37606" lon="0.62149">
        <ele>186</ele>
        <time>2025-04-16T09:20:22Z</time>
      </trkpt>
      <trkpt lat="45.37606" lon="0.62202">
        <ele>186</ele>
        <time>2025-04-16T09:20:29Z</time>
      </trkpt>
      <trkpt lat="45.37541" lon="0.62304">
        <ele>186</ele>
        <time>2025-04-16T09:20:46Z</time>
      </trkpt>
      <trkpt lat="45.37532" lon="0.62327">
        <ele>187</ele>
        <time>2025-04-16T09:20:50Z</time>
      </trkpt>
      <trkpt lat="45.37533" lon="0.62383">
        <ele>187</ele>
        <time>2025-04-16T09:20:57Z</time>
      </trkpt>
      <trkpt lat="45.37669" lon="0.62572">
        <ele>187</ele>
        <time>2025-04-16T09:21:30Z</time>
      </trkpt>
      <trkpt lat="45.37785" lon="0.62729">
        <ele>187</ele>
        <time>2025-04-16T09:21:59Z</time>
      </trkpt>
      <trkpt lat="45.37943" lon="0.62905">
        <ele>185</ele>
        <time>2025-04-16T09:22:35Z</time>
      </trkpt>
      <trkpt lat="45.37963" lon="0.62948">
        <ele>185</ele>
        <time>2025-04-16T09:22:41Z</time>
      </trkpt>
      <trkpt lat="45.37984" lon="0.63009">
        <ele>185</ele>
        <time>2025-04-16T09:22:49Z</time>
      </trkpt>
      <trkpt lat="45.38054" lon="0.63213">
        <ele>185</ele>
        <time>2025-04-16T09:23:18Z</time>
      </trkpt>
      <trkpt lat="45.38079" lon="0.63262">
        <ele>185</ele>
        <time>2025-04-16T09:23:25Z</time>
      </trkpt>
      <trkpt lat="45.38149" lon="0.63337">
        <ele>183</ele>
        <time>2025-04-16T09:23:41Z</time>
      </trkpt>
      <trkpt lat="45.38185" lon="0.63378">
        <ele>180</ele>
        <time>2025-04-16T09:23:49Z</time>
      </trkpt>
      <trkpt lat="45.38218" lon="0.63413">
        <ele>176</ele>
        <time>2025-04-16T09:23:57Z</time>
      </trkpt>
      <trkpt lat="45.38244" lon="0.63454">
        <ele>172</ele>
        <time>2025-04-16T09:24:03Z</time>
      </trkpt>
      <trkpt lat="45.38285" lon="0.63496">
        <ele>168</ele>
        <time>2025-04-16T09:24:12Z</time>
      </trkpt>
      <trkpt lat="45.38362" lon="0.63565">
        <ele>164</ele>
        <time>2025-04-16T09:24:29Z</time>
      </trkpt>
      <trkpt lat="45.38414" lon="0.6362">
        <ele>159</ele>
        <time>2025-04-16T09:24:40Z</time>
      </trkpt>
      <trkpt lat="45.38442" lon="0.63663">
        <ele>156</ele>
        <time>2025-04-16T09:24:47Z</time>
      </trkpt>
      <trkpt lat="45.38446" lon="0.63688">
        <ele>155</ele>
        <time>2025-04-16T09:24:51Z</time>
      </trkpt>
      <trkpt lat="45.38437" lon="0.63718">
        <ele>155</ele>
        <time>2025-04-16T09:24:55Z</time>
      </trkpt>
      <trkpt lat="45.38405" lon="0.63807">
        <ele>154</ele>
        <time>2025-04-16T09:25:07Z</time>
      </trkpt>
      <trkpt lat="45.38376" lon="0.63878">
        <ele>152</ele>
        <time>2025-04-16T09:25:17Z</time>
      </trkpt>
      <trkpt lat="45.38368" lon="0.63907">
        <ele>152</ele>
        <time>2025-04-16T09:25:21Z</time>
      </trkpt>
      <trkpt lat="45.38363" lon="0.63946">
        <ele>151</ele>
        <time>2025-04-16T09:25:26Z</time>
      </trkpt>
      <trkpt lat="45.38364" lon="0.63966">
        <ele>151</ele>
        <time>2025-04-16T09:25:29Z</time>
      </trkpt>
      <trkpt lat="45.38351" lon="0.64015">
        <ele>151</ele>
        <time>2025-04-16T09:25:35Z</time>
      </trkpt>
      <trkpt lat="45.38332" lon="0.64067">
        <ele>150</ele>
        <time>2025-04-16T09:25:43Z</time>
      </trkpt>
      <trkpt lat="45.383" lon="0.64131">
        <ele>150</ele>
        <time>2025-04-16T09:25:53Z</time>
      </trkpt>
      <trkpt lat="45.38292" lon="0.64145">
        <ele>149</ele>
        <time>2025-04-16T09:25:55Z</time>
      </trkpt>
      <trkpt lat="45.38271" lon="0.64184">
        <ele>148</ele>
        <time>2025-04-16T09:26:01Z</time>
      </trkpt>
      <trkpt lat="45.38247" lon="0.6422">
        <ele>147</ele>
        <time>2025-04-16T09:26:07Z</time>
      </trkpt>
      <trkpt lat="45.38172" lon="0.64295">
        <ele>145</ele>
        <time>2025-04-16T09:26:23Z</time>
      </trkpt>
      <trkpt lat="45.38139" lon="0.64335">
        <ele>143</ele>
        <time>2025-04-16T09:26:31Z</time>
      </trkpt>
      <trkpt lat="45.38104" lon="0.64387">
        <ele>143</ele>
        <time>2025-04-16T09:26:40Z</time>
      </trkpt>
      <trkpt lat="45.3809" lon="0.64402">
        <ele>143</ele>
        <time>2025-04-16T09:26:43Z</time>
      </trkpt>
      <trkpt lat="45.38088" lon="0.64404">
        <ele>143</ele>
        <time>2025-04-16T09:26:44Z</time>
      </trkpt>
      <trkpt lat="45.38073" lon="0.64409">
        <ele>143</ele>
        <time>2025-04-16T09:26:46Z</time>
      </trkpt>
      <trkpt lat="45.38013" lon="0.64401">
        <ele>142</ele>
        <time>2025-04-16T09:26:57Z</time>
      </trkpt>
      <trkpt lat="45.38" lon="0.64406">
        <ele>141</ele>
        <time>2025-04-16T09:27:00Z</time>
      </trkpt>
      <trkpt lat="45.37992" lon="0.6442">
        <ele>141</ele>
        <time>2025-04-16T09:27:02Z</time>
      </trkpt>
      <trkpt lat="45.37933" lon="0.64374">
        <ele>142</ele>
        <time>2025-04-16T09:27:14Z</time>
      </trkpt>
      <trkpt lat="45.37909" lon="0.64354">
        <ele>143</ele>
        <time>2025-04-16T09:27:19Z</time>
      </trkpt>
      <trkpt lat="45.37887" lon="0.64332">
        <ele>144</ele>
        <time>2025-04-16T09:27:24Z</time>
      </trkpt>
      <trkpt lat="45.37878" lon="0.64321">
        <ele>144</ele>
        <time>2025-04-16T09:27:26Z</time>
      </trkpt>
      <trkpt lat="45.37862" lon="0.64293">
        <ele>146</ele>
        <time>2025-04-16T09:27:30Z</time>
      </trkpt>
      <trkpt lat="45.37843" lon="0.64268">
        <ele>146</ele>
        <time>2025-04-16T09:27:35Z</time>
      </trkpt>
      <trkpt lat="45.37833" lon="0.64247">
        <ele>147</ele>
        <time>2025-04-16T09:27:38Z</time>
      </trkpt>
      <trkpt lat="45.37832" lon="0.64232">
        <ele>147</ele>
        <time>2025-04-16T09:27:40Z</time>
      </trkpt>
      <trkpt lat="45.37829" lon="0.64218">
        <ele>148</ele>
        <time>2025-04-16T09:27:42Z</time>
      </trkpt>
      <trkpt lat="45.37822" lon="0.64205">
        <ele>148</ele>
        <time>2025-04-16T09:27:44Z</time>
      </trkpt>
      <trkpt lat="45.37814" lon="0.64197">
        <ele>147</ele>
        <time>2025-04-16T09:27:45Z</time>
      </trkpt>
      <trkpt lat="45.37805" lon="0.64192">
        <ele>147</ele>
        <time>2025-04-16T09:27:47Z</time>
      </trkpt>
      <trkpt lat="45.3779" lon="0.64191">
        <ele>146</ele>
        <time>2025-04-16T09:27:50Z</time>
      </trkpt>
      <trkpt lat="45.37776" lon="0.642">
        <ele>146</ele>
        <time>2025-04-16T09:27:53Z</time>
      </trkpt>
      <trkpt lat="45.3777" lon="0.64208">
        <ele>145</ele>
        <time>2025-04-16T09:27:54Z</time>
      </trkpt>
      <trkpt lat="45.37765" lon="0.64217">
        <ele>145</ele>
        <time>2025-04-16T09:27:55Z</time>
      </trkpt>
      <trkpt lat="45.37762" lon="0.64228">
        <ele>145</ele>
        <time>2025-04-16T09:27:57Z</time>
      </trkpt>
      <trkpt lat="45.37761" lon="0.64242">
        <ele>145</ele>
        <time>2025-04-16T09:27:59Z</time>
      </trkpt>
      <trkpt lat="45.37762" lon="0.64256">
        <ele>144</ele>
        <time>2025-04-16T09:28:00Z</time>
      </trkpt>
      <trkpt lat="45.37766" lon="0.64269">
        <ele>144</ele>
        <time>2025-04-16T09:28:02Z</time>
      </trkpt>
      <trkpt lat="45.37772" lon="0.6428">
        <ele>144</ele>
        <time>2025-04-16T09:28:04Z</time>
      </trkpt>
      <trkpt lat="45.3777" lon="0.64299">
        <ele>143</ele>
        <time>2025-04-16T09:28:06Z</time>
      </trkpt>
      <trkpt lat="45.37757" lon="0.64338">
        <ele>141</ele>
        <time>2025-04-16T09:28:12Z</time>
      </trkpt>
      <trkpt lat="45.37751" lon="0.64346">
        <ele>141</ele>
        <time>2025-04-16T09:28:13Z</time>
      </trkpt>
      <trkpt lat="45.37738" lon="0.64363">
        <ele>141</ele>
        <time>2025-04-16T09:28:16Z</time>
      </trkpt>
      <trkpt lat="45.37659" lon="0.64448">
        <ele>140</ele>
        <time>2025-04-16T09:28:34Z</time>
      </trkpt>
      <trkpt lat="45.37629" lon="0.64477">
        <ele>140</ele>
        <time>2025-04-16T09:28:40Z</time>
      </trkpt>
      <trkpt lat="45.37603" lon="0.64495">
        <ele>139</ele>
        <time>2025-04-16T09:28:46Z</time>
      </trkpt>
      <trkpt lat="45.37562" lon="0.64518">
        <ele>139</ele>
        <time>2025-04-16T09:28:53Z</time>
      </trkpt>
      <trkpt lat="45.3752" lon="0.64536">
        <ele>139</ele>
        <time>2025-04-16T09:29:01Z</time>
      </trkpt>
      <trkpt lat="45.37495" lon="0.64542">
        <ele>139</ele>
        <time>2025-04-16T09:29:06Z</time>
      </trkpt>
      <trkpt lat="45.37392" lon="0.64565">
        <ele>135</ele>
        <time>2025-04-16T09:29:24Z</time>
      </trkpt>
      <trkpt lat="45.37375" lon="0.64567">
        <ele>134</ele>
        <time>2025-04-16T09:29:27Z</time>
      </trkpt>
      <trkpt lat="45.37347" lon="0.64557">
        <ele>134</ele>
        <time>2025-04-16T09:29:32Z</time>
      </trkpt>
      <trkpt lat="45.3729" lon="0.64523">
        <ele>135</ele>
        <time>2025-04-16T09:29:43Z</time>
      </trkpt>
      <trkpt lat="45.37286" lon="0.64521">
        <ele>135</ele>
        <time>2025-04-16T09:29:44Z</time>
      </trkpt>
      <trkpt lat="45.3728" lon="0.6452">
        <ele>135</ele>
        <time>2025-04-16T09:29:45Z</time>
      </trkpt>
      <trkpt lat="45.37261" lon="0.64519">
        <ele>135</ele>
        <time>2025-04-16T09:29:49Z</time>
      </trkpt>
      <trkpt lat="45.37195" lon="0.64535">
        <ele>131</ele>
        <time>2025-04-16T09:30:01Z</time>
      </trkpt>
      <trkpt lat="45.3718" lon="0.64536">
        <ele>131</ele>
        <time>2025-04-16T09:30:03Z</time>
      </trkpt>
      <trkpt lat="45.37167" lon="0.64536">
        <ele>130</ele>
        <time>2025-04-16T09:30:06Z</time>
      </trkpt>
      <trkpt lat="45.37104" lon="0.64524">
        <ele>129</ele>
        <time>2025-04-16T09:30:17Z</time>
      </trkpt>
      <trkpt lat="45.37085" lon="0.64525">
        <ele>129</ele>
        <time>2025-04-16T09:30:20Z</time>
      </trkpt>
      <trkpt lat="45.3706" lon="0.64533">
        <ele>128</ele>
        <time>2025-04-16T09:30:25Z</time>
      </trkpt>
      <trkpt lat="45.37038" lon="0.64542">
        <ele>127</ele>
        <time>2025-04-16T09:30:29Z</time>
      </trkpt>
      <trkpt lat="45.37023" lon="0.6455">
        <ele>127</ele>
        <time>2025-04-16T09:30:32Z</time>
      </trkpt>
      <trkpt lat="45.37011" lon="0.64559">
        <ele>126</ele>
        <time>2025-04-16T09:30:34Z</time>
      </trkpt>
      <trkpt lat="45.36995" lon="0.64583">
        <ele>124</ele>
        <time>2025-04-16T09:30:38Z</time>
      </trkpt>
      <trkpt lat="45.36941" lon="0.64696">
        <ele>123</ele>
        <time>2025-04-16T09:30:55Z</time>
      </trkpt>
      <trkpt lat="45.36931" lon="0.64713">
        <ele>123</ele>
        <time>2025-04-16T09:30:58Z</time>
      </trkpt>
      <trkpt lat="45.36919" lon="0.6473">
        <ele>122</ele>
        <time>2025-04-16T09:31:01Z</time>
      </trkpt>
      <trkpt lat="45.36896" lon="0.64754">
        <ele>122</ele>
        <time>2025-04-16T09:31:06Z</time>
      </trkpt>
      <trkpt lat="45.36867" lon="0.64781">
        <ele>123</ele>
        <time>2025-04-16T09:31:12Z</time>
      </trkpt>
      <trkpt lat="45.36846" lon="0.64802">
        <ele>122</ele>
        <time>2025-04-16T09:31:17Z</time>
      </trkpt>
      <trkpt lat="45.36805" lon="0.64841">
        <ele>121</ele>
        <time>2025-04-16T09:31:26Z</time>
      </trkpt>
      <trkpt lat="45.36776" lon="0.64868">
        <ele>121</ele>
        <time>2025-04-16T09:31:32Z</time>
      </trkpt>
      <trkpt lat="45.36764" lon="0.64883">
        <ele>120</ele>
        <time>2025-04-16T09:31:35Z</time>
      </trkpt>
      <trkpt lat="45.36754" lon="0.64899">
        <ele>119</ele>
        <time>2025-04-16T09:31:37Z</time>
      </trkpt>
      <trkpt lat="45.36745" lon="0.64916">
        <ele>117</ele>
        <time>2025-04-16T09:31:40Z</time>
      </trkpt>
      <trkpt lat="45.36742" lon="0.64912">
        <ele>118</ele>
        <time>2025-04-16T09:31:41Z</time>
      </trkpt>
      <trkpt lat="45.36737" lon="0.64912">
        <ele>118</ele>
        <time>2025-04-16T09:31:42Z</time>
      </trkpt>
      <trkpt lat="45.36731" lon="0.64915">
        <ele>118</ele>
        <time>2025-04-16T09:31:43Z</time>
      </trkpt>
      <trkpt lat="45.36675" lon="0.64974">
        <ele>119</ele>
        <time>2025-04-16T09:31:55Z</time>
      </trkpt>
      <trkpt lat="45.36658" lon="0.64995">
        <ele>116</ele>
        <time>2025-04-16T09:31:59Z</time>
      </trkpt>
      <trkpt lat="45.3664" lon="0.65013">
        <ele>114</ele>
        <time>2025-04-16T09:32:03Z</time>
      </trkpt>
      <trkpt lat="45.36628" lon="0.65022">
        <ele>113</ele>
        <time>2025-04-16T09:32:06Z</time>
      </trkpt>
      <trkpt lat="45.36617" lon="0.65027">
        <ele>112</ele>
        <time>2025-04-16T09:32:08Z</time>
      </trkpt>
      <trkpt lat="45.36599" lon="0.65031">
        <ele>110</ele>
        <time>2025-04-16T09:32:11Z</time>
      </trkpt>
      <trkpt lat="45.36596" lon="0.65038">
        <ele>110</ele>
        <time>2025-04-16T09:32:12Z</time>
      </trkpt>
      <trkpt lat="45.36584" lon="0.65032">
        <ele>109</ele>
        <time>2025-04-16T09:32:14Z</time>
      </trkpt>
      <trkpt lat="45.36575" lon="0.65028">
        <ele>109</ele>
        <time>2025-04-16T09:32:16Z</time>
      </trkpt>
      <trkpt lat="45.36561" lon="0.6502">
        <ele>108</ele>
        <time>2025-04-16T09:32:18Z</time>
      </trkpt>
      <trkpt lat="45.36552" lon="0.65016">
        <ele>108</ele>
        <time>2025-04-16T09:32:20Z</time>
      </trkpt>
      <trkpt lat="45.36524" lon="0.65002">
        <ele>107</ele>
        <time>2025-04-16T09:32:25Z</time>
      </trkpt>
      <trkpt lat="45.36521" lon="0.65001">
        <ele>106</ele>
        <time>2025-04-16T09:32:26Z</time>
      </trkpt>
      <trkpt lat="45.36512" lon="0.64993">
        <ele>106</ele>
        <time>2025-04-16T09:32:28Z</time>
      </trkpt>
      <trkpt lat="45.36495" lon="0.64968">
        <ele>106</ele>
        <time>2025-04-16T09:32:32Z</time>
      </trkpt>
      <trkpt lat="45.36486" lon="0.64959">
        <ele>106</ele>
        <time>2025-04-16T09:32:34Z</time>
      </trkpt>
      <trkpt lat="45.36468" lon="0.64961">
        <ele>106</ele>
        <time>2025-04-16T09:32:37Z</time>
      </trkpt>
      <trkpt lat="45.36439" lon="0.64967">
        <ele>107</ele>
        <time>2025-04-16T09:32:43Z</time>
      </trkpt>
      <trkpt lat="45.36419" lon="0.64971">
        <ele>107</ele>
        <time>2025-04-16T09:32:46Z</time>
      </trkpt>
      <trkpt lat="45.36382" lon="0.64969">
        <ele>107</ele>
        <time>2025-04-16T09:32:53Z</time>
      </trkpt>
      <trkpt lat="45.36375" lon="0.64966">
        <ele>107</ele>
        <time>2025-04-16T09:32:54Z</time>
      </trkpt>
      <trkpt lat="45.36332" lon="0.64918">
        <ele>107</ele>
        <time>2025-04-16T09:33:04Z</time>
      </trkpt>
      <trkpt lat="45.36321" lon="0.64906">
        <ele>107</ele>
        <time>2025-04-16T09:33:06Z</time>
      </trkpt>
      <trkpt lat="45.36309" lon="0.64892">
        <ele>106</ele>
        <time>2025-04-16T09:33:09Z</time>
      </trkpt>
      <trkpt lat="45.36297" lon="0.64884">
        <ele>106</ele>
        <time>2025-04-16T09:33:11Z</time>
      </trkpt>
      <trkpt lat="45.36295" lon="0.64883">
        <ele>106</ele>
        <time>2025-04-16T09:33:12Z</time>
      </trkpt>
      <trkpt lat="45.36261" lon="0.64867">
        <ele>105</ele>
        <time>2025-04-16T09:33:18Z</time>
      </trkpt>
      <trkpt lat="45.36245" lon="0.64864">
        <ele>105</ele>
        <time>2025-04-16T09:33:21Z</time>
      </trkpt>
      <trkpt lat="45.36236" lon="0.64867">
        <ele>105</ele>
        <time>2025-04-16T09:33:23Z</time>
      </trkpt>
      <trkpt lat="45.36225" lon="0.64873">
        <ele>105</ele>
        <time>2025-04-16T09:33:25Z</time>
      </trkpt>
      <trkpt lat="45.36173" lon="0.64924">
        <ele>107</ele>
        <time>2025-04-16T09:33:36Z</time>
      </trkpt>
      <trkpt lat="45.36147" lon="0.64951">
        <ele>108</ele>
        <time>2025-04-16T09:33:42Z</time>
      </trkpt>
      <trkpt lat="45.36138" lon="0.6496">
        <ele>108</ele>
        <time>2025-04-16T09:33:44Z</time>
      </trkpt>
      <trkpt lat="45.36113" lon="0.64988">
        <ele>109</ele>
        <time>2025-04-16T09:33:49Z</time>
      </trkpt>
      <trkpt lat="45.3604" lon="0.65068">
        <ele>111</ele>
        <time>2025-04-16T09:34:06Z</time>
      </trkpt>
      <trkpt lat="45.35971" lon="0.65138">
        <ele>111</ele>
        <time>2025-04-16T09:34:21Z</time>
      </trkpt>
      <trkpt lat="45.3593" lon="0.65179">
        <ele>112</ele>
        <time>2025-04-16T09:34:30Z</time>
      </trkpt>
      <trkpt lat="45.35904" lon="0.65206">
        <ele>113</ele>
        <time>2025-04-16T09:34:35Z</time>
      </trkpt>
      <trkpt lat="45.35893" lon="0.65212">
        <ele>113</ele>
        <time>2025-04-16T09:34:38Z</time>
      </trkpt>
      <trkpt lat="45.35869" lon="0.65218">
        <ele>112</ele>
        <time>2025-04-16T09:34:42Z</time>
      </trkpt>
      <trkpt lat="45.35821" lon="0.65208">
        <ele>110</ele>
        <time>2025-04-16T09:34:51Z</time>
      </trkpt>
      <trkpt lat="45.35779" lon="0.652">
        <ele>109</ele>
        <time>2025-04-16T09:34:58Z</time>
      </trkpt>
      <trkpt lat="45.35746" lon="0.65198">
        <ele>108</ele>
        <time>2025-04-16T09:35:04Z</time>
      </trkpt>
      <trkpt lat="45.35717" lon="0.6521">
        <ele>108</ele>
        <time>2025-04-16T09:35:09Z</time>
      </trkpt>
      <trkpt lat="45.35474" lon="0.65343">
        <ele>111</ele>
        <time>2025-04-16T09:35:56Z</time>
      </trkpt>
      <trkpt lat="45.35455" lon="0.65354">
        <ele>112</ele>
        <time>2025-04-16T09:35:59Z</time>
      </trkpt>
      <trkpt lat="45.35442" lon="0.65356">
        <ele>112</ele>
        <time>2025-04-16T09:36:02Z</time>
      </trkpt>
      <trkpt lat="45.35432" lon="0.65351">
        <ele>111</ele>
        <time>2025-04-16T09:36:03Z</time>
      </trkpt>
      <trkpt lat="45.35425" lon="0.65341">
        <ele>111</ele>
        <time>2025-04-16T09:36:05Z</time>
      </trkpt>
      <trkpt lat="45.35424" lon="0.65329">
        <ele>110</ele>
        <time>2025-04-16T09:36:07Z</time>
      </trkpt>
      <trkpt lat="45.35421" lon="0.65317">
        <ele>109</ele>
        <time>2025-04-16T09:36:08Z</time>
      </trkpt>
      <trkpt lat="45.35416" lon="0.65306">
        <ele>108</ele>
        <time>2025-04-16T09:36:10Z</time>
      </trkpt>
      <trkpt lat="45.35409" lon="0.65298">
        <ele>107</ele>
        <time>2025-04-16T09:36:12Z</time>
      </trkpt>
      <trkpt lat="45.35402" lon="0.65292">
        <ele>106</ele>
        <time>2025-04-16T09:36:13Z</time>
      </trkpt>
      <trkpt lat="45.35392" lon="0.65288">
        <ele>106</ele>
        <time>2025-04-16T09:36:15Z</time>
      </trkpt>
      <trkpt lat="45.35382" lon="0.65289">
        <ele>106</ele>
        <time>2025-04-16T09:36:17Z</time>
      </trkpt>
      <trkpt lat="45.35372" lon="0.65293">
        <ele>106</ele>
        <time>2025-04-16T09:36:19Z</time>
      </trkpt>
      <trkpt lat="45.35364" lon="0.65301">
        <ele>107</ele>
        <time>2025-04-16T09:36:20Z</time>
      </trkpt>
      <trkpt lat="45.35357" lon="0.65311">
        <ele>108</ele>
        <time>2025-04-16T09:36:22Z</time>
      </trkpt>
      <trkpt lat="45.35353" lon="0.65324">
        <ele>109</ele>
        <time>2025-04-16T09:36:24Z</time>
      </trkpt>
      <trkpt lat="45.35336" lon="0.65333">
        <ele>109</ele>
        <time>2025-04-16T09:36:27Z</time>
      </trkpt>
      <trkpt lat="45.35327" lon="0.65333">
        <ele>109</ele>
        <time>2025-04-16T09:36:29Z</time>
      </trkpt>
      <trkpt lat="45.35305" lon="0.65322">
        <ele>108</ele>
        <time>2025-04-16T09:36:33Z</time>
      </trkpt>
      <trkpt lat="45.353" lon="0.6532">
        <ele>108</ele>
        <time>2025-04-16T09:36:34Z</time>
      </trkpt>
      <trkpt lat="45.35293" lon="0.65317">
        <ele>108</ele>
        <time>2025-04-16T09:36:35Z</time>
      </trkpt>
      <trkpt lat="45.35217" lon="0.65303">
        <ele>107</ele>
        <time>2025-04-16T09:36:49Z</time>
      </trkpt>
      <trkpt lat="45.35158" lon="0.65292">
        <ele>108</ele>
        <time>2025-04-16T09:36:59Z</time>
      </trkpt>
      <trkpt lat="45.35131" lon="0.65274">
        <ele>110</ele>
        <time>2025-04-16T09:37:05Z</time>
      </trkpt>
      <trkpt lat="45.35024" lon="0.65158">
        <ele>114</ele>
        <time>2025-04-16T09:37:28Z</time>
      </trkpt>
      <trkpt lat="45.35012" lon="0.65145">
        <ele>114</ele>
        <time>2025-04-16T09:37:31Z</time>
      </trkpt>
      <trkpt lat="45.34992" lon="0.65131">
        <ele>116</ele>
        <time>2025-04-16T09:37:35Z</time>
      </trkpt>
      <trkpt lat="45.34962" lon="0.65104">
        <ele>119</ele>
        <time>2025-04-16T09:37:41Z</time>
      </trkpt>
      <trkpt lat="45.34946" lon="0.65065">
        <ele>120</ele>
        <time>2025-04-16T09:37:47Z</time>
      </trkpt>
      <trkpt lat="45.34941" lon="0.65037">
        <ele>121</ele>
        <time>2025-04-16T09:37:51Z</time>
      </trkpt>
      <trkpt lat="45.3494" lon="0.65009">
        <ele>122</ele>
        <time>2025-04-16T09:37:54Z</time>
      </trkpt>
      <trkpt lat="45.34941" lon="0.64862">
        <ele>126</ele>
        <time>2025-04-16T09:38:13Z</time>
      </trkpt>
      <trkpt lat="45.34941" lon="0.64648">
        <ele>133</ele>
        <time>2025-04-16T09:38:39Z</time>
      </trkpt>
      <trkpt lat="45.34985" lon="0.6453">
        <ele>125</ele>
        <time>2025-04-16T09:38:56Z</time>
      </trkpt>
      <trkpt lat="45.35062" lon="0.64334">
        <ele>115</ele>
        <time>2025-04-16T09:39:24Z</time>
      </trkpt>
      <trkpt lat="45.3509" lon="0.64234">
        <ele>115</ele>
        <time>2025-04-16T09:39:38Z</time>
      </trkpt>
      <trkpt lat="45.35111" lon="0.64173">
        <ele>116</ele>
        <time>2025-04-16T09:39:46Z</time>
      </trkpt>
      <trkpt lat="45.35148" lon="0.64007">
        <ele>113</ele>
        <time>2025-04-16T09:40:08Z</time>
      </trkpt>
      <trkpt lat="45.35157" lon="0.63867">
        <ele>114</ele>
        <time>2025-04-16T09:40:25Z</time>
      </trkpt>
      <trkpt lat="45.35172" lon="0.63788">
        <ele>114</ele>
        <time>2025-04-16T09:40:36Z</time>
      </trkpt>
      <trkpt lat="45.35193" lon="0.63721">
        <ele>115</ele>
        <time>2025-04-16T09:40:45Z</time>
      </trkpt>
      <trkpt lat="45.35241" lon="0.63571">
        <ele>119</ele>
        <time>2025-04-16T09:41:05Z</time>
      </trkpt>
      <trkpt lat="45.35268" lon="0.63525">
        <ele>117</ele>
        <time>2025-04-16T09:41:13Z</time>
      </trkpt>
      <trkpt lat="45.35288" lon="0.63483">
        <ele>115</ele>
        <time>2025-04-16T09:41:19Z</time>
      </trkpt>
      <trkpt lat="45.35302" lon="0.63438">
        <ele>114</ele>
        <time>2025-04-16T09:41:25Z</time>
      </trkpt>
      <trkpt lat="45.3531" lon="0.63392">
        <ele>115</ele>
        <time>2025-04-16T09:41:31Z</time>
      </trkpt>
      <trkpt lat="45.35315" lon="0.63356">
        <ele>115</ele>
        <time>2025-04-16T09:41:36Z</time>
      </trkpt>
      <trkpt lat="45.35312" lon="0.63312">
        <ele>115</ele>
        <time>2025-04-16T09:41:41Z</time>
      </trkpt>
      <trkpt lat="45.35318" lon="0.63267">
        <ele>112</ele>
        <time>2025-04-16T09:41:47Z</time>
      </trkpt>
      <trkpt lat="45.35321" lon="0.63171">
        <ele>107</ele>
        <time>2025-04-16T09:41:59Z</time>
      </trkpt>
      <trkpt lat="45.35316" lon="0.63167">
        <ele>107</ele>
        <time>2025-04-16T09:42:00Z</time>
      </trkpt>
      <trkpt lat="45.35298" lon="0.63159">
        <ele>109</ele>
        <time>2025-04-16T09:42:04Z</time>
      </trkpt>
      <trkpt lat="45.35266" lon="0.63161">
        <ele>111</ele>
        <time>2025-04-16T09:42:09Z</time>
      </trkpt>
      <trkpt lat="45.35254" lon="0.63156">
        <ele>112</ele>
        <time>2025-04-16T09:42:12Z</time>
      </trkpt>
      <trkpt lat="45.35244" lon="0.63137">
        <ele>112</ele>
        <time>2025-04-16T09:42:15Z</time>
      </trkpt>
      <trkpt lat="45.35235" lon="0.63068">
        <ele>110</ele>
        <time>2025-04-16T09:42:23Z</time>
      </trkpt>
      <trkpt lat="45.35228" lon="0.63044">
        <ele>109</ele>
        <time>2025-04-16T09:42:27Z</time>
      </trkpt>
      <trkpt lat="45.35194" lon="0.62995">
        <ele>109</ele>
        <time>2025-04-16T09:42:35Z</time>
      </trkpt>
      <trkpt lat="45.35162" lon="0.62962">
        <ele>107</ele>
        <time>2025-04-16T09:42:42Z</time>
      </trkpt>
      <trkpt lat="45.35132" lon="0.62934">
        <ele>108</ele>
        <time>2025-04-16T09:42:49Z</time>
      </trkpt>
      <trkpt lat="45.35116" lon="0.62917">
        <ele>108</ele>
        <time>2025-04-16T09:42:52Z</time>
      </trkpt>
      <trkpt lat="45.35003" lon="0.62853">
        <ele>106</ele>
        <time>2025-04-16T09:43:14Z</time>
      </trkpt>
      <trkpt lat="45.34962" lon="0.62833">
        <ele>104</ele>
        <time>2025-04-16T09:43:21Z</time>
      </trkpt>
      <trkpt lat="45.34924" lon="0.62807">
        <ele>103</ele>
        <time>2025-04-16T09:43:29Z</time>
      </trkpt>
      <trkpt lat="45.3491" lon="0.62798">
        <ele>102</ele>
        <time>2025-04-16T09:43:32Z</time>
      </trkpt>
      <trkpt lat="45.3489" lon="0.62792">
        <ele>101</ele>
        <time>2025-04-16T09:43:35Z</time>
      </trkpt>
      <trkpt lat="45.3483" lon="0.62792">
        <ele>101</ele>
        <time>2025-04-16T09:43:46Z</time>
      </trkpt>
      <trkpt lat="45.34815" lon="0.628">
        <ele>101</ele>
        <time>2025-04-16T09:43:49Z</time>
      </trkpt>
      <trkpt lat="45.3481" lon="0.62806">
        <ele>101</ele>
        <time>2025-04-16T09:43:50Z</time>
      </trkpt>
      <trkpt lat="45.34806" lon="0.62813">
        <ele>101</ele>
        <time>2025-04-16T09:43:51Z</time>
      </trkpt>
      <trkpt lat="45.34796" lon="0.62845">
        <ele>102</ele>
        <time>2025-04-16T09:43:56Z</time>
      </trkpt>
      <trkpt lat="45.34793" lon="0.62852">
        <ele>102</ele>
        <time>2025-04-16T09:43:57Z</time>
      </trkpt>
      <trkpt lat="45.34788" lon="0.62858">
        <ele>102</ele>
        <time>2025-04-16T09:43:58Z</time>
      </trkpt>
      <trkpt lat="45.34781" lon="0.62861">
        <ele>101</ele>
        <time>2025-04-16T09:43:59Z</time>
      </trkpt>
      <trkpt lat="45.34752" lon="0.62866">
        <ele>100</ele>
        <time>2025-04-16T09:44:04Z</time>
      </trkpt>
      <trkpt lat="45.34752" lon="0.62866">
        <ele>100</ele>
        <time>2025-04-16T09:44:04Z</time>
      </trkpt>
      <trkpt lat="45.34739" lon="0.62864">
        <ele>101</ele>
        <time>2025-04-16T09:44:07Z</time>
      </trkpt>
      <trkpt lat="45.34728" lon="0.62859">
        <ele>102</ele>
        <time>2025-04-16T09:44:09Z</time>
      </trkpt>
      <trkpt lat="45.34691" lon="0.62797">
        <ele>102</ele>
        <time>2025-04-16T09:44:19Z</time>
      </trkpt>
      <trkpt lat="45.34668" lon="0.62787">
        <ele>103</ele>
        <time>2025-04-16T09:44:23Z</time>
      </trkpt>
      <trkpt lat="45.34644" lon="0.6278">
        <ele>102</ele>
        <time>2025-04-16T09:44:27Z</time>
      </trkpt>
      <trkpt lat="45.34597" lon="0.62787">
        <ele>103</ele>
        <time>2025-04-16T09:44:36Z</time>
      </trkpt>
      <trkpt lat="45.34383" lon="0.62918">
        <ele>110</ele>
        <time>2025-04-16T09:45:17Z</time>
      </trkpt>
      <trkpt lat="45.34349" lon="0.62942">
        <ele>112</ele>
        <time>2025-04-16T09:45:24Z</time>
      </trkpt>
      <trkpt lat="45.34331" lon="0.62949">
        <ele>113</ele>
        <time>2025-04-16T09:45:27Z</time>
      </trkpt>
      <trkpt lat="45.34311" lon="0.62952">
        <ele>113</ele>
        <time>2025-04-16T09:45:31Z</time>
      </trkpt>
      <trkpt lat="45.34233" lon="0.62942">
        <ele>110</ele>
        <time>2025-04-16T09:45:45Z</time>
      </trkpt>
      <trkpt lat="45.34161" lon="0.62939">
        <ele>109</ele>
        <time>2025-04-16T09:45:58Z</time>
      </trkpt>
      <trkpt lat="45.34112" lon="0.62926">
        <ele>109</ele>
        <time>2025-04-16T09:46:07Z</time>
      </trkpt>
      <trkpt lat="45.34083" lon="0.62919">
        <ele>108</ele>
        <time>2025-04-16T09:46:12Z</time>
      </trkpt>
      <trkpt lat="45.3404" lon="0.629">
        <ele>110</ele>
        <time>2025-04-16T09:46:20Z</time>
      </trkpt>
      <trkpt lat="45.33926" lon="0.62852">
        <ele>110</ele>
        <time>2025-04-16T09:46:41Z</time>
      </trkpt>
      <trkpt lat="45.33775" lon="0.62779">
        <ele>112</ele>
        <time>2025-04-16T09:47:09Z</time>
      </trkpt>
      <trkpt lat="45.33717" lon="0.62726">
        <ele>109</ele>
        <time>2025-04-16T09:47:22Z</time>
      </trkpt>
      <trkpt lat="45.33641" lon="0.62663">
        <ele>104</ele>
        <time>2025-04-16T09:47:37Z</time>
      </trkpt>
      <trkpt lat="45.336" lon="0.6263">
        <ele>103</ele>
        <time>2025-04-16T09:47:46Z</time>
      </trkpt>
      <trkpt lat="45.33562" lon="0.6262">
        <ele>105</ele>
        <time>2025-04-16T09:47:52Z</time>
      </trkpt>
      <trkpt lat="45.33529" lon="0.62615">
        <ele>108</ele>
        <time>2025-04-16T09:47:58Z</time>
      </trkpt>
      <trkpt lat="45.33482" lon="0.62619">
        <ele>113</ele>
        <time>2025-04-16T09:48:07Z</time>
      </trkpt>
      <trkpt lat="45.3346" lon="0.62635">
        <ele>115</ele>
        <time>2025-04-16T09:48:11Z</time>
      </trkpt>
      <trkpt lat="45.33434" lon="0.62681">
        <ele>115</ele>
        <time>2025-04-16T09:48:19Z</time>
      </trkpt>
      <trkpt lat="45.33416" lon="0.62654">
        <ele>115</ele>
        <time>2025-04-16T09:48:23Z</time>
      </trkpt>
      <trkpt lat="45.33411" lon="0.62622">
        <ele>117</ele>
        <time>2025-04-16T09:48:27Z</time>
      </trkpt>
      <trkpt lat="45.33417" lon="0.62596">
        <ele>118</ele>
        <time>2025-04-16T09:48:31Z</time>
      </trkpt>
      <trkpt lat="45.33462" lon="0.62557">
        <ele>117</ele>
        <time>2025-04-16T09:48:40Z</time>
      </trkpt>
      <trkpt lat="45.3347" lon="0.6253">
        <ele>119</ele>
        <time>2025-04-16T09:48:44Z</time>
      </trkpt>
      <trkpt lat="45.33466" lon="0.6251">
        <ele>121</ele>
        <time>2025-04-16T09:48:46Z</time>
      </trkpt>
      <trkpt lat="45.33414" lon="0.6239">
        <ele>130</ele>
        <time>2025-04-16T09:49:04Z</time>
      </trkpt>
      <trkpt lat="45.33358" lon="0.62254">
        <ele>124</ele>
        <time>2025-04-16T09:49:24Z</time>
      </trkpt>
      <trkpt lat="45.33353" lon="0.62237">
        <ele>123</ele>
        <time>2025-04-16T09:49:26Z</time>
      </trkpt>
      <trkpt lat="45.3335" lon="0.62225">
        <ele>123</ele>
        <time>2025-04-16T09:49:28Z</time>
      </trkpt>
      <trkpt lat="45.33344" lon="0.62181">
        <ele>121</ele>
        <time>2025-04-16T09:49:33Z</time>
      </trkpt>
      <trkpt lat="45.33344" lon="0.62141">
        <ele>118</ele>
        <time>2025-04-16T09:49:38Z</time>
      </trkpt>
      <trkpt lat="45.33352" lon="0.62079">
        <ele>113</ele>
        <time>2025-04-16T09:49:46Z</time>
      </trkpt>
      <trkpt lat="45.3335" lon="0.62055">
        <ele>112</ele>
        <time>2025-04-16T09:49:49Z</time>
      </trkpt>
      <trkpt lat="45.33343" lon="0.6202">
        <ele>111</ele>
        <time>2025-04-16T09:49:54Z</time>
      </trkpt>
      <trkpt lat="45.3333" lon="0.61886">
        <ele>112</ele>
        <time>2025-04-16T09:50:11Z</time>
      </trkpt>
      <trkpt lat="45.33328" lon="0.61843">
        <ele>111</ele>
        <time>2025-04-16T09:50:16Z</time>
      </trkpt>
      <trkpt lat="45.33326" lon="0.61822">
        <ele>111</ele>
        <time>2025-04-16T09:50:19Z</time>
      </trkpt>
      <trkpt lat="45.33321" lon="0.61807">
        <ele>111</ele>
        <time>2025-04-16T09:50:21Z</time>
      </trkpt>
      <trkpt lat="45.33311" lon="0.61794">
        <ele>111</ele>
        <time>2025-04-16T09:50:23Z</time>
      </trkpt>
      <trkpt lat="45.3331" lon="0.61787">
        <ele>111</ele>
        <time>2025-04-16T09:50:24Z</time>
      </trkpt>
      <trkpt lat="45.33307" lon="0.61785">
        <ele>111</ele>
        <time>2025-04-16T09:50:25Z</time>
      </trkpt>
      <trkpt lat="45.33308" lon="0.61747">
        <ele>110</ele>
        <time>2025-04-16T09:50:29Z</time>
      </trkpt>
      <trkpt lat="45.33309" lon="0.61719">
        <ele>109</ele>
        <time>2025-04-16T09:50:33Z</time>
      </trkpt>
      <trkpt lat="45.3332" lon="0.61685">
        <ele>107</ele>
        <time>2025-04-16T09:50:38Z</time>
      </trkpt>
      <trkpt lat="45.33342" lon="0.61655">
        <ele>105</ele>
        <time>2025-04-16T09:50:43Z</time>
      </trkpt>
      <trkpt lat="45.33344" lon="0.61653">
        <ele>105</ele>
        <time>2025-04-16T09:50:43Z</time>
      </trkpt>
      <trkpt lat="45.33357" lon="0.61637">
        <ele>103</ele>
        <time>2025-04-16T09:50:46Z</time>
      </trkpt>
      <trkpt lat="45.33372" lon="0.61617">
        <ele>102</ele>
        <time>2025-04-16T09:50:50Z</time>
      </trkpt>
      <trkpt lat="45.3338" lon="0.61631">
        <ele>101</ele>
        <time>2025-04-16T09:50:52Z</time>
      </trkpt>
      <trkpt lat="45.3339" lon="0.61642">
        <ele>100</ele>
        <time>2025-04-16T09:50:55Z</time>
      </trkpt>
      <trkpt lat="45.33415" lon="0.61657">
        <ele>98</ele>
        <time>2025-04-16T09:50:59Z</time>
      </trkpt>
      <trkpt lat="45.33473" lon="0.61679">
        <ele>97</ele>
        <time>2025-04-16T09:51:10Z</time>
      </trkpt>
      <trkpt lat="45.33505" lon="0.61696">
        <ele>98</ele>
        <time>2025-04-16T09:51:16Z</time>
      </trkpt>
      <trkpt lat="45.33526" lon="0.61712">
        <ele>100</ele>
        <time>2025-04-16T09:51:20Z</time>
      </trkpt>
      <trkpt lat="45.3354" lon="0.61727">
        <ele>101</ele>
        <time>2025-04-16T09:51:24Z</time>
      </trkpt>
      <trkpt lat="45.33552" lon="0.61745">
        <ele>102</ele>
        <time>2025-04-16T09:51:27Z</time>
      </trkpt>
      <trkpt lat="45.33561" lon="0.61759">
        <ele>102</ele>
        <time>2025-04-16T09:51:29Z</time>
      </trkpt>
      <trkpt lat="45.33568" lon="0.61776">
        <ele>102</ele>
        <time>2025-04-16T09:51:32Z</time>
      </trkpt>
      <trkpt lat="45.33577" lon="0.61765">
        <ele>103</ele>
        <time>2025-04-16T09:51:34Z</time>
      </trkpt>
      <trkpt lat="45.33578" lon="0.61755">
        <ele>103</ele>
        <time>2025-04-16T09:51:35Z</time>
      </trkpt>
      <trkpt lat="45.33573" lon="0.61663">
        <ele>105</ele>
        <time>2025-04-16T09:51:46Z</time>
      </trkpt>
      <trkpt lat="45.33534" lon="0.61413">
        <ele>102</ele>
        <time>2025-04-16T09:52:18Z</time>
      </trkpt>
      <trkpt lat="45.33526" lon="0.61348">
        <ele>103</ele>
        <time>2025-04-16T09:52:27Z</time>
      </trkpt>
      <trkpt lat="45.33519" lon="0.61268">
        <ele>104</ele>
        <time>2025-04-16T09:52:37Z</time>
      </trkpt>
      <trkpt lat="45.33512" lon="0.6121">
        <ele>104</ele>
        <time>2025-04-16T09:52:44Z</time>
      </trkpt>
      <trkpt lat="45.33473" lon="0.61036">
        <ele>105</ele>
        <time>2025-04-16T09:53:07Z</time>
      </trkpt>
      <trkpt lat="45.33409" lon="0.60854">
        <ele>101</ele>
        <time>2025-04-16T09:53:32Z</time>
      </trkpt>
      <trkpt lat="45.33349" lon="0.60639">
        <ele>102</ele>
        <time>2025-04-16T09:54:01Z</time>
      </trkpt>
      <trkpt lat="45.33304" lon="0.60439">
        <ele>100</ele>
        <time>2025-04-16T09:54:28Z</time>
      </trkpt>
      <trkpt lat="45.33303" lon="0.60408">
        <ele>100</ele>
        <time>2025-04-16T09:54:32Z</time>
      </trkpt>
      <trkpt lat="45.33302" lon="0.6033">
        <ele>100</ele>
        <time>2025-04-16T09:54:41Z</time>
      </trkpt>
      <trkpt lat="45.33315" lon="0.60201">
        <ele>100</ele>
        <time>2025-04-16T09:54:58Z</time>
      </trkpt>
      <trkpt lat="45.33343" lon="0.59943">
        <ele>100</ele>
        <time>2025-04-16T09:55:30Z</time>
      </trkpt>
      <trkpt lat="45.33349" lon="0.5987">
        <ele>98</ele>
        <time>2025-04-16T09:55:39Z</time>
      </trkpt>
      <trkpt lat="45.33352" lon="0.59714">
        <ele>98</ele>
        <time>2025-04-16T09:55:59Z</time>
      </trkpt>
      <trkpt lat="45.33362" lon="0.59637">
        <ele>99</ele>
        <time>2025-04-16T09:56:09Z</time>
      </trkpt>
      <trkpt lat="45.33411" lon="0.59506">
        <ele>101</ele>
        <time>2025-04-16T09:56:27Z</time>
      </trkpt>
      <trkpt lat="45.3343" lon="0.5945">
        <ele>103</ele>
        <time>2025-04-16T09:56:35Z</time>
      </trkpt>
      <trkpt lat="45.3344" lon="0.59391">
        <ele>104</ele>
        <time>2025-04-16T09:56:43Z</time>
      </trkpt>
      <trkpt lat="45.33443" lon="0.59339">
        <ele>106</ele>
        <time>2025-04-16T09:56:49Z</time>
      </trkpt>
      <trkpt lat="45.33438" lon="0.59307">
        <ele>109</ele>
        <time>2025-04-16T09:56:53Z</time>
      </trkpt>
      <trkpt lat="45.33427" lon="0.59275">
        <ele>112</ele>
        <time>2025-04-16T09:56:58Z</time>
      </trkpt>
      <trkpt lat="45.33385" lon="0.59196">
        <ele>121</ele>
        <time>2025-04-16T09:57:10Z</time>
      </trkpt>
      <trkpt lat="45.33375" lon="0.59188">
        <ele>121</ele>
        <time>2025-04-16T09:57:12Z</time>
      </trkpt>
      <trkpt lat="45.3332" lon="0.59144">
        <ele>121</ele>
        <time>2025-04-16T09:57:23Z</time>
      </trkpt>
      <trkpt lat="45.33268" lon="0.59124">
        <ele>119</ele>
        <time>2025-04-16T09:57:33Z</time>
      </trkpt>
      <trkpt lat="45.33238" lon="0.5912">
        <ele>117</ele>
        <time>2025-04-16T09:57:38Z</time>
      </trkpt>
      <trkpt lat="45.33107" lon="0.59127">
        <ele>106</ele>
        <time>2025-04-16T09:58:02Z</time>
      </trkpt>
      <trkpt lat="45.33081" lon="0.59121">
        <ele>106</ele>
        <time>2025-04-16T09:58:06Z</time>
      </trkpt>
      <trkpt lat="45.33056" lon="0.59102">
        <ele>107</ele>
        <time>2025-04-16T09:58:11Z</time>
      </trkpt>
      <trkpt lat="45.33023" lon="0.59064">
        <ele>109</ele>
        <time>2025-04-16T09:58:19Z</time>
      </trkpt>
      <trkpt lat="45.32991" lon="0.59041">
        <ele>110</ele>
        <time>2025-04-16T09:58:25Z</time>
      </trkpt>
      <trkpt lat="45.32895" lon="0.58992">
        <ele>104</ele>
        <time>2025-04-16T09:58:44Z</time>
      </trkpt>
      <trkpt lat="45.32863" lon="0.58966">
        <ele>101</ele>
        <time>2025-04-16T09:58:50Z</time>
      </trkpt>
      <trkpt lat="45.3284" lon="0.58958">
        <ele>98</ele>
        <time>2025-04-16T09:58:54Z</time>
      </trkpt>
      <trkpt lat="45.32809" lon="0.58962">
        <ele>98</ele>
        <time>2025-04-16T09:59:00Z</time>
      </trkpt>
      <trkpt lat="45.3278" lon="0.58969">
        <ele>98</ele>
        <time>2025-04-16T09:59:05Z</time>
      </trkpt>
      <trkpt lat="45.32751" lon="0.58968">
        <ele>98</ele>
        <time>2025-04-16T09:59:10Z</time>
      </trkpt>
      <trkpt lat="45.32712" lon="0.58961">
        <ele>98</ele>
        <time>2025-04-16T09:59:17Z</time>
      </trkpt>
      <trkpt lat="45.32674" lon="0.58964">
        <ele>97</ele>
        <time>2025-04-16T09:59:24Z</time>
      </trkpt>
      <trkpt lat="45.32647" lon="0.5897">
        <ele>96</ele>
        <time>2025-04-16T09:59:29Z</time>
      </trkpt>
      <trkpt lat="45.32636" lon="0.58973">
        <ele>96</ele>
        <time>2025-04-16T09:59:31Z</time>
      </trkpt>
      <trkpt lat="45.32566" lon="0.58977">
        <ele>93</ele>
        <time>2025-04-16T09:59:43Z</time>
      </trkpt>
      <trkpt lat="45.3253" lon="0.5897">
        <ele>93</ele>
        <time>2025-04-16T09:59:50Z</time>
      </trkpt>
      <trkpt lat="45.32504" lon="0.58951">
        <ele>93</ele>
        <time>2025-04-16T09:59:55Z</time>
      </trkpt>
      <trkpt lat="45.32479" lon="0.58913">
        <ele>92</ele>
        <time>2025-04-16T10:00:01Z</time>
      </trkpt>
      <trkpt lat="45.3246" lon="0.58871">
        <ele>92</ele>
        <time>2025-04-16T10:00:08Z</time>
      </trkpt>
      <trkpt lat="45.32441" lon="0.58806">
        <ele>92</ele>
        <time>2025-04-16T10:00:17Z</time>
      </trkpt>
      <trkpt lat="45.32432" lon="0.58753">
        <ele>94</ele>
        <time>2025-04-16T10:00:23Z</time>
      </trkpt>
      <trkpt lat="45.32432" lon="0.58747">
        <ele>94</ele>
        <time>2025-04-16T10:00:24Z</time>
      </trkpt>
      <trkpt lat="45.32427" lon="0.58679">
        <ele>96</ele>
        <time>2025-04-16T10:00:33Z</time>
      </trkpt>
      <trkpt lat="45.32425" lon="0.58648">
        <ele>95</ele>
        <time>2025-04-16T10:00:37Z</time>
      </trkpt>
      <trkpt lat="45.32424" lon="0.58626">
        <ele>95</ele>
        <time>2025-04-16T10:00:39Z</time>
      </trkpt>
      <trkpt lat="45.32426" lon="0.586">
        <ele>94</ele>
        <time>2025-04-16T10:00:43Z</time>
      </trkpt>
      <trkpt lat="45.32434" lon="0.58503">
        <ele>94</ele>
        <time>2025-04-16T10:00:55Z</time>
      </trkpt>
      <trkpt lat="45.32435" lon="0.5845">
        <ele>94</ele>
        <time>2025-04-16T10:01:01Z</time>
      </trkpt>
      <trkpt lat="45.3243" lon="0.58404">
        <ele>94</ele>
        <time>2025-04-16T10:01:07Z</time>
      </trkpt>
      <trkpt lat="45.32416" lon="0.58292">
        <ele>94</ele>
        <time>2025-04-16T10:01:21Z</time>
      </trkpt>
      <trkpt lat="45.32418" lon="0.58262">
        <ele>95</ele>
        <time>2025-04-16T10:01:25Z</time>
      </trkpt>
      <trkpt lat="45.32421" lon="0.58219">
        <ele>96</ele>
        <time>2025-04-16T10:01:31Z</time>
      </trkpt>
      <trkpt lat="45.32431" lon="0.5818">
        <ele>98</ele>
        <time>2025-04-16T10:01:36Z</time>
      </trkpt>
      <trkpt lat="45.32443" lon="0.58158">
        <ele>99</ele>
        <time>2025-04-16T10:01:39Z</time>
      </trkpt>
      <trkpt lat="45.32448" lon="0.58145">
        <ele>99</ele>
        <time>2025-04-16T10:01:41Z</time>
      </trkpt>
      <trkpt lat="45.32452" lon="0.58119">
        <ele>100</ele>
        <time>2025-04-16T10:01:45Z</time>
      </trkpt>
      <trkpt lat="45.32453" lon="0.58077">
        <ele>99</ele>
        <time>2025-04-16T10:01:50Z</time>
      </trkpt>
      <trkpt lat="45.32454" lon="0.58043">
        <ele>99</ele>
        <time>2025-04-16T10:01:54Z</time>
      </trkpt>
      <trkpt lat="45.32459" lon="0.57884">
        <ele>96</ele>
        <time>2025-04-16T10:02:14Z</time>
      </trkpt>
      <trkpt lat="45.32458" lon="0.57807">
        <ele>95</ele>
        <time>2025-04-16T10:02:24Z</time>
      </trkpt>
      <trkpt lat="45.3246" lon="0.5777">
        <ele>94</ele>
        <time>2025-04-16T10:02:28Z</time>
      </trkpt>
      <trkpt lat="45.32464" lon="0.57732">
        <ele>94</ele>
        <time>2025-04-16T10:02:33Z</time>
      </trkpt>
      <trkpt lat="45.32494" lon="0.57579">
        <ele>97</ele>
        <time>2025-04-16T10:02:53Z</time>
      </trkpt>
      <trkpt lat="45.32498" lon="0.57548">
        <ele>97</ele>
        <time>2025-04-16T10:02:57Z</time>
      </trkpt>
      <trkpt lat="45.325" lon="0.57499">
        <ele>98</ele>
        <time>2025-04-16T10:03:03Z</time>
      </trkpt>
      <trkpt lat="45.32494" lon="0.57324">
        <ele>99</ele>
        <time>2025-04-16T10:03:25Z</time>
      </trkpt>
      <trkpt lat="45.3247" lon="0.57056">
        <ele>100</ele>
        <time>2025-04-16T10:03:59Z</time>
      </trkpt>
      <trkpt lat="45.32462" lon="0.5701">
        <ele>100</ele>
        <time>2025-04-16T10:04:05Z</time>
      </trkpt>
      <trkpt lat="45.32444" lon="0.56948">
        <ele>102</ele>
        <time>2025-04-16T10:04:13Z</time>
      </trkpt>
      <trkpt lat="45.32421" lon="0.56883">
        <ele>103</ele>
        <time>2025-04-16T10:04:22Z</time>
      </trkpt>
      <trkpt lat="45.32352" lon="0.56705">
        <ele>106</ele>
        <time>2025-04-16T10:04:48Z</time>
      </trkpt>
      <trkpt lat="45.3231" lon="0.56646">
        <ele>108</ele>
        <time>2025-04-16T10:04:58Z</time>
      </trkpt>
      <trkpt lat="45.3216" lon="0.56482">
        <ele>108</ele>
        <time>2025-04-16T10:05:32Z</time>
      </trkpt>
      <trkpt lat="45.32064" lon="0.56336">
        <ele>105</ele>
        <time>2025-04-16T10:05:57Z</time>
      </trkpt>
      <trkpt lat="45.32048" lon="0.56287">
        <ele>102</ele>
        <time>2025-04-16T10:06:03Z</time>
      </trkpt>
      <trkpt lat="45.32044" lon="0.56259">
        <ele>101</ele>
        <time>2025-04-16T10:06:07Z</time>
      </trkpt>
      <trkpt lat="45.32052" lon="0.56239">
        <ele>101</ele>
        <time>2025-04-16T10:06:10Z</time>
      </trkpt>
      <trkpt lat="45.32095" lon="0.56174">
        <ele>105</ele>
        <time>2025-04-16T10:06:21Z</time>
      </trkpt>
      <trkpt lat="45.32111" lon="0.56141">
        <ele>105</ele>
        <time>2025-04-16T10:06:26Z</time>
      </trkpt>
      <trkpt lat="45.32113" lon="0.56105">
        <ele>102</ele>
        <time>2025-04-16T10:06:31Z</time>
      </trkpt>
      <trkpt lat="45.32103" lon="0.56074">
        <ele>98</ele>
        <time>2025-04-16T10:06:35Z</time>
      </trkpt>
      <trkpt lat="45.32086" lon="0.56065">
        <ele>96</ele>
        <time>2025-04-16T10:06:38Z</time>
      </trkpt>
      <trkpt lat="45.32049" lon="0.5607">
        <ele>98</ele>
        <time>2025-04-16T10:06:45Z</time>
      </trkpt>
      <trkpt lat="45.3203" lon="0.56069">
        <ele>99</ele>
        <time>2025-04-16T10:06:48Z</time>
      </trkpt>
      <trkpt lat="45.32008" lon="0.56065">
        <ele>100</ele>
        <time>2025-04-16T10:06:52Z</time>
      </trkpt>
      <trkpt lat="45.31976" lon="0.5605">
        <ele>104</ele>
        <time>2025-04-16T10:06:58Z</time>
      </trkpt>
      <trkpt lat="45.31934" lon="0.56003">
        <ele>110</ele>
        <time>2025-04-16T10:07:08Z</time>
      </trkpt>
      <trkpt lat="45.31912" lon="0.55961">
        <ele>114</ele>
        <time>2025-04-16T10:07:14Z</time>
      </trkpt>
      <trkpt lat="45.3189" lon="0.55915">
        <ele>117</ele>
        <time>2025-04-16T10:07:21Z</time>
      </trkpt>
      <trkpt lat="45.31883" lon="0.55892">
        <ele>118</ele>
        <time>2025-04-16T10:07:24Z</time>
      </trkpt>
      <trkpt lat="45.31878" lon="0.55895">
        <ele>118</ele>
        <time>2025-04-16T10:07:25Z</time>
      </trkpt>
      <trkpt lat="45.31864" lon="0.55895">
        <ele>118</ele>
        <time>2025-04-16T10:07:28Z</time>
      </trkpt>
      <trkpt lat="45.31849" lon="0.55901">
        <ele>118</ele>
        <time>2025-04-16T10:07:30Z</time>
      </trkpt>
      <trkpt lat="45.31841" lon="0.55912">
        <ele>118</ele>
        <time>2025-04-16T10:07:32Z</time>
      </trkpt>
      <trkpt lat="45.31822" lon="0.55946">
        <ele>118</ele>
        <time>2025-04-16T10:07:38Z</time>
      </trkpt>
      <trkpt lat="45.31816" lon="0.55955">
        <ele>118</ele>
        <time>2025-04-16T10:07:39Z</time>
      </trkpt>
      <trkpt lat="45.31805" lon="0.55964">
        <ele>119</ele>
        <time>2025-04-16T10:07:42Z</time>
      </trkpt>
      <trkpt lat="45.3179" lon="0.5597">
        <ele>120</ele>
        <time>2025-04-16T10:07:44Z</time>
      </trkpt>
      <trkpt lat="45.31757" lon="0.55967">
        <ele>123</ele>
        <time>2025-04-16T10:07:50Z</time>
      </trkpt>
      <trkpt lat="45.31718" lon="0.55946">
        <ele>125</ele>
        <time>2025-04-16T10:07:58Z</time>
      </trkpt>
      <trkpt lat="45.31633" lon="0.55857">
        <ele>132</ele>
        <time>2025-04-16T10:08:17Z</time>
      </trkpt>
      <trkpt lat="45.3157" lon="0.55848">
        <ele>131</ele>
        <time>2025-04-16T10:08:28Z</time>
      </trkpt>
      <trkpt lat="45.31545" lon="0.55847">
        <ele>131</ele>
        <time>2025-04-16T10:08:32Z</time>
      </trkpt>
      <trkpt lat="45.31512" lon="0.55846">
        <ele>131</ele>
        <time>2025-04-16T10:08:38Z</time>
      </trkpt>
      <trkpt lat="45.31457" lon="0.55854">
        <ele>129</ele>
        <time>2025-04-16T10:08:48Z</time>
      </trkpt>
      <trkpt lat="45.31365" lon="0.55889">
        <ele>127</ele>
        <time>2025-04-16T10:09:05Z</time>
      </trkpt>
      <trkpt lat="45.31325" lon="0.55903">
        <ele>126</ele>
        <time>2025-04-16T10:09:12Z</time>
      </trkpt>
      <trkpt lat="45.31284" lon="0.55902">
        <ele>124</ele>
        <time>2025-04-16T10:09:20Z</time>
      </trkpt>
      <trkpt lat="45.31217" lon="0.55859">
        <ele>121</ele>
        <time>2025-04-16T10:09:33Z</time>
      </trkpt>
      <trkpt lat="45.3119" lon="0.5583">
        <ele>121</ele>
        <time>2025-04-16T10:09:39Z</time>
      </trkpt>
      <trkpt lat="45.31137" lon="0.55688">
        <ele>115</ele>
        <time>2025-04-16T10:09:59Z</time>
      </trkpt>
      <trkpt lat="45.31108" lon="0.55642">
        <ele>115</ele>
        <time>2025-04-16T10:10:06Z</time>
      </trkpt>
      <trkpt lat="45.31078" lon="0.55607">
        <ele>116</ele>
        <time>2025-04-16T10:10:13Z</time>
      </trkpt>
      <trkpt lat="45.31051" lon="0.55561">
        <ele>113</ele>
        <time>2025-04-16T10:10:21Z</time>
      </trkpt>
      <trkpt lat="45.31031" lon="0.55508">
        <ele>108</ele>
        <time>2025-04-16T10:10:28Z</time>
      </trkpt>
      <trkpt lat="45.31002" lon="0.55442">
        <ele>105</ele>
        <time>2025-04-16T10:10:38Z</time>
      </trkpt>
      <trkpt lat="45.30961" lon="0.55389">
        <ele>104</ele>
        <time>2025-04-16T10:10:48Z</time>
      </trkpt>
      <trkpt lat="45.30911" lon="0.55328">
        <ele>96</ele>
        <time>2025-04-16T10:11:00Z</time>
      </trkpt>
      <trkpt lat="45.30837" lon="0.55264">
        <ele>91</ele>
        <time>2025-04-16T10:11:15Z</time>
      </trkpt>
      <trkpt lat="45.30814" lon="0.55253">
        <ele>90</ele>
        <time>2025-04-16T10:11:19Z</time>
      </trkpt>
      <trkpt lat="45.30786" lon="0.55245">
        <ele>91</ele>
        <time>2025-04-16T10:11:25Z</time>
      </trkpt>
      <trkpt lat="45.30761" lon="0.55233">
        <ele>91</ele>
        <time>2025-04-16T10:11:29Z</time>
      </trkpt>
      <trkpt lat="45.30745" lon="0.55219">
        <ele>91</ele>
        <time>2025-04-16T10:11:33Z</time>
      </trkpt>
      <trkpt lat="45.30741" lon="0.55206">
        <ele>91</ele>
        <time>2025-04-16T10:11:34Z</time>
      </trkpt>
      <trkpt lat="45.3074" lon="0.55193">
        <ele>91</ele>
        <time>2025-04-16T10:11:36Z</time>
      </trkpt>
      <trkpt lat="45.30743" lon="0.55181">
        <ele>91</ele>
        <time>2025-04-16T10:11:38Z</time>
      </trkpt>
      <trkpt lat="45.30767" lon="0.55119">
        <ele>91</ele>
        <time>2025-04-16T10:11:46Z</time>
      </trkpt>
      <trkpt lat="45.30769" lon="0.55107">
        <ele>91</ele>
        <time>2025-04-16T10:11:48Z</time>
      </trkpt>
      <trkpt lat="45.30764" lon="0.55084">
        <ele>91</ele>
        <time>2025-04-16T10:11:51Z</time>
      </trkpt>
      <trkpt lat="45.30745" lon="0.55028">
        <ele>91</ele>
        <time>2025-04-16T10:11:59Z</time>
      </trkpt>
      <trkpt lat="45.30738" lon="0.54993">
        <ele>91</ele>
        <time>2025-04-16T10:12:03Z</time>
      </trkpt>
      <trkpt lat="45.30732" lon="0.54919">
        <ele>92</ele>
        <time>2025-04-16T10:12:13Z</time>
      </trkpt>
      <trkpt lat="45.30731" lon="0.54914">
        <ele>92</ele>
        <time>2025-04-16T10:12:13Z</time>
      </trkpt>
      <trkpt lat="45.3073" lon="0.54859">
        <ele>91</ele>
        <time>2025-04-16T10:12:20Z</time>
      </trkpt>
      <trkpt lat="45.30751" lon="0.54646">
        <ele>95</ele>
        <time>2025-04-16T10:12:47Z</time>
      </trkpt>
      <trkpt lat="45.30751" lon="0.54628">
        <ele>97</ele>
        <time>2025-04-16T10:12:49Z</time>
      </trkpt>
      <trkpt lat="45.30746" lon="0.54604">
        <ele>99</ele>
        <time>2025-04-16T10:12:52Z</time>
      </trkpt>
      <trkpt lat="45.30741" lon="0.54593">
        <ele>100</ele>
        <time>2025-04-16T10:12:54Z</time>
      </trkpt>
      <trkpt lat="45.30732" lon="0.5458">
        <ele>100</ele>
        <time>2025-04-16T10:12:56Z</time>
      </trkpt>
      <trkpt lat="45.30718" lon="0.54566">
        <ele>100</ele>
        <time>2025-04-16T10:12:59Z</time>
      </trkpt>
      <trkpt lat="45.30693" lon="0.54545">
        <ele>100</ele>
        <time>2025-04-16T10:13:05Z</time>
      </trkpt>
      <trkpt lat="45.30582" lon="0.54464">
        <ele>103</ele>
        <time>2025-04-16T10:13:27Z</time>
      </trkpt>
      <trkpt lat="45.30574" lon="0.54456">
        <ele>103</ele>
        <time>2025-04-16T10:13:29Z</time>
      </trkpt>
      <trkpt lat="45.30571" lon="0.54451">
        <ele>103</ele>
        <time>2025-04-16T10:13:29Z</time>
      </trkpt>
      <trkpt lat="45.30519" lon="0.54454">
        <ele>101</ele>
        <time>2025-04-16T10:13:39Z</time>
      </trkpt>
      <trkpt lat="45.30512" lon="0.54454">
        <ele>101</ele>
        <time>2025-04-16T10:13:40Z</time>
      </trkpt>
      <trkpt lat="45.30379" lon="0.54461">
        <ele>98</ele>
        <time>2025-04-16T10:14:04Z</time>
      </trkpt>
      <trkpt lat="45.30353" lon="0.54454">
        <ele>98</ele>
        <time>2025-04-16T10:14:08Z</time>
      </trkpt>
      <trkpt lat="45.30346" lon="0.54452">
        <ele>98</ele>
        <time>2025-04-16T10:14:10Z</time>
      </trkpt>
      <trkpt lat="45.30261" lon="0.54398">
        <ele>95</ele>
        <time>2025-04-16T10:14:26Z</time>
      </trkpt>
      <trkpt lat="45.30243" lon="0.54376">
        <ele>95</ele>
        <time>2025-04-16T10:14:30Z</time>
      </trkpt>
      <trkpt lat="45.30238" lon="0.54344">
        <ele>95</ele>
        <time>2025-04-16T10:14:34Z</time>
      </trkpt>
      <trkpt lat="45.30217" lon="0.54038">
        <ele>92</ele>
        <time>2025-04-16T10:15:13Z</time>
      </trkpt>
      <trkpt lat="45.3021" lon="0.53893">
        <ele>89</ele>
        <time>2025-04-16T10:15:31Z</time>
      </trkpt>
      <trkpt lat="45.30211" lon="0.53885">
        <ele>89</ele>
        <time>2025-04-16T10:15:32Z</time>
      </trkpt>
      <trkpt lat="45.30256" lon="0.53898">
        <ele>90</ele>
        <time>2025-04-16T10:15:40Z</time>
      </trkpt>
      <trkpt lat="45.30258" lon="0.53893">
        <ele>90</ele>
        <time>2025-04-16T10:15:41Z</time>
      </trkpt>
      <trkpt lat="45.30279" lon="0.53873">
        <ele>89</ele>
        <time>2025-04-16T10:15:45Z</time>
      </trkpt>
      <trkpt lat="45.30281" lon="0.5386">
        <ele>89</ele>
        <time>2025-04-16T10:15:47Z</time>
      </trkpt>
      <trkpt lat="45.30278" lon="0.53851">
        <ele>88</ele>
        <time>2025-04-16T10:15:48Z</time>
      </trkpt>
      <trkpt lat="45.30251" lon="0.53801">
        <ele>87</ele>
        <time>2025-04-16T10:15:56Z</time>
      </trkpt>
      <trkpt lat="45.30241" lon="0.5378">
        <ele>87</ele>
        <time>2025-04-16T10:15:59Z</time>
      </trkpt>
      <trkpt lat="45.30236" lon="0.53761">
        <ele>87</ele>
        <time>2025-04-16T10:16:02Z</time>
      </trkpt>
      <trkpt lat="45.30235" lon="0.5375">
        <ele>87</ele>
        <time>2025-04-16T10:16:03Z</time>
      </trkpt>
      <trkpt lat="45.30236" lon="0.53742">
        <ele>88</ele>
        <time>2025-04-16T10:16:04Z</time>
      </trkpt>
      <trkpt lat="45.30242" lon="0.53706">
        <ele>90</ele>
        <time>2025-04-16T10:16:09Z</time>
      </trkpt>
      <trkpt lat="45.30243" lon="0.53702">
        <ele>91</ele>
        <time>2025-04-16T10:16:10Z</time>
      </trkpt>
      <trkpt lat="45.30244" lon="0.53698">
        <ele>91</ele>
        <time>2025-04-16T10:16:10Z</time>
      </trkpt>
      <trkpt lat="45.30243" lon="0.53688">
        <ele>92</ele>
        <time>2025-04-16T10:16:11Z</time>
      </trkpt>
      <trkpt lat="45.30216" lon="0.53613">
        <ele>96</ele>
        <time>2025-04-16T10:16:22Z</time>
      </trkpt>
      <trkpt lat="45.30195" lon="0.5353">
        <ele>96</ele>
        <time>2025-04-16T10:16:33Z</time>
      </trkpt>
      <trkpt lat="45.30171" lon="0.53465">
        <ele>97</ele>
        <time>2025-04-16T10:16:42Z</time>
      </trkpt>
      <trkpt lat="45.30133" lon="0.53385">
        <ele>98</ele>
        <time>2025-04-16T10:16:54Z</time>
      </trkpt>
      <trkpt lat="45.30096" lon="0.53293">
        <ele>96</ele>
        <time>2025-04-16T10:17:07Z</time>
      </trkpt>
      <trkpt lat="45.30083" lon="0.53253">
        <ele>95</ele>
        <time>2025-04-16T10:17:13Z</time>
      </trkpt>
      <trkpt lat="45.30077" lon="0.53215">
        <ele>97</ele>
        <time>2025-04-16T10:17:18Z</time>
      </trkpt>
      <trkpt lat="45.30066" lon="0.53183">
        <ele>98</ele>
        <time>2025-04-16T10:17:22Z</time>
      </trkpt>
      <trkpt lat="45.30037" lon="0.53116">
        <ele>99</ele>
        <time>2025-04-16T10:17:32Z</time>
      </trkpt>
      <trkpt lat="45.30003" lon="0.5305">
        <ele>96</ele>
        <time>2025-04-16T10:17:42Z</time>
      </trkpt>
      <trkpt lat="45.29983" lon="0.53011">
        <ele>95</ele>
        <time>2025-04-16T10:17:48Z</time>
      </trkpt>
      <trkpt lat="45.29958" lon="0.52926">
        <ele>97</ele>
        <time>2025-04-16T10:18:00Z</time>
      </trkpt>
      <trkpt lat="45.2995" lon="0.52911">
        <ele>97</ele>
        <time>2025-04-16T10:18:02Z</time>
      </trkpt>
      <trkpt lat="45.29936" lon="0.529">
        <ele>96</ele>
        <time>2025-04-16T10:18:05Z</time>
      </trkpt>
      <trkpt lat="45.29896" lon="0.52875">
        <ele>95</ele>
        <time>2025-04-16T10:18:13Z</time>
      </trkpt>
      <trkpt lat="45.29853" lon="0.52837">
        <ele>94</ele>
        <time>2025-04-16T10:18:22Z</time>
      </trkpt>
      <trkpt lat="45.29828" lon="0.52803">
        <ele>94</ele>
        <time>2025-04-16T10:18:28Z</time>
      </trkpt>
      <trkpt lat="45.29803" lon="0.52774">
        <ele>96</ele>
        <time>2025-04-16T10:18:34Z</time>
      </trkpt>
      <trkpt lat="45.29769" lon="0.52747">
        <ele>96</ele>
        <time>2025-04-16T10:18:41Z</time>
      </trkpt>
      <trkpt lat="45.29717" lon="0.52718">
        <ele>96</ele>
        <time>2025-04-16T10:18:51Z</time>
      </trkpt>
      <trkpt lat="45.29689" lon="0.52675">
        <ele>98</ele>
        <time>2025-04-16T10:18:58Z</time>
      </trkpt>
      <trkpt lat="45.29672" lon="0.5265">
        <ele>99</ele>
        <time>2025-04-16T10:19:02Z</time>
      </trkpt>
      <trkpt lat="45.29672" lon="0.52649">
        <ele>99</ele>
        <time>2025-04-16T10:19:03Z</time>
      </trkpt>
      <trkpt lat="45.29594" lon="0.5256">
        <ele>101</ele>
        <time>2025-04-16T10:19:20Z</time>
      </trkpt>
      <trkpt lat="45.29539" lon="0.52492">
        <ele>102</ele>
        <time>2025-04-16T10:19:33Z</time>
      </trkpt>
      <trkpt lat="45.29531" lon="0.52479">
        <ele>101</ele>
        <time>2025-04-16T10:19:35Z</time>
      </trkpt>
      <trkpt lat="45.29507" lon="0.52426">
        <ele>100</ele>
        <time>2025-04-16T10:19:43Z</time>
      </trkpt>
      <trkpt lat="45.29484" lon="0.52388">
        <ele>99</ele>
        <time>2025-04-16T10:19:50Z</time>
      </trkpt>
      <trkpt lat="45.29464" lon="0.52362">
        <ele>99</ele>
        <time>2025-04-16T10:19:54Z</time>
      </trkpt>
      <trkpt lat="45.29453" lon="0.52353">
        <ele>99</ele>
        <time>2025-04-16T10:19:57Z</time>
      </trkpt>
      <trkpt lat="45.2944" lon="0.52347">
        <ele>99</ele>
        <time>2025-04-16T10:19:59Z</time>
      </trkpt>
      <trkpt lat="45.29434" lon="0.52346">
        <ele>99</ele>
        <time>2025-04-16T10:20:00Z</time>
      </trkpt>
      <trkpt lat="45.29424" lon="0.5235">
        <ele>99</ele>
        <time>2025-04-16T10:20:02Z</time>
      </trkpt>
      <trkpt lat="45.29366" lon="0.52413">
        <ele>99</ele>
        <time>2025-04-16T10:20:15Z</time>
      </trkpt>
      <trkpt lat="45.29349" lon="0.52429">
        <ele>99</ele>
        <time>2025-04-16T10:20:19Z</time>
      </trkpt>
      <trkpt lat="45.29323" lon="0.52442">
        <ele>99</ele>
        <time>2025-04-16T10:20:24Z</time>
      </trkpt>
      <trkpt lat="45.29293" lon="0.52451">
        <ele>100</ele>
        <time>2025-04-16T10:20:29Z</time>
      </trkpt>
      <trkpt lat="45.29281" lon="0.52455">
        <ele>100</ele>
        <time>2025-04-16T10:20:31Z</time>
      </trkpt>
      <trkpt lat="45.29278" lon="0.52457">
        <ele>100</ele>
        <time>2025-04-16T10:20:32Z</time>
      </trkpt>
      <trkpt lat="45.29248" lon="0.52472">
        <ele>99</ele>
        <time>2025-04-16T10:20:37Z</time>
      </trkpt>
      <trkpt lat="45.29207" lon="0.52484">
        <ele>99</ele>
        <time>2025-04-16T10:20:45Z</time>
      </trkpt>
      <trkpt lat="45.2916" lon="0.52482">
        <ele>101</ele>
        <time>2025-04-16T10:20:53Z</time>
      </trkpt>
      <trkpt lat="45.29095" lon="0.5248">
        <ele>101</ele>
        <time>2025-04-16T10:21:05Z</time>
      </trkpt>
      <trkpt lat="45.29086" lon="0.52492">
        <ele>100</ele>
        <time>2025-04-16T10:21:07Z</time>
      </trkpt>
      <trkpt lat="45.29075" lon="0.52498">
        <ele>100</ele>
        <time>2025-04-16T10:21:09Z</time>
      </trkpt>
      <trkpt lat="45.29047" lon="0.52502">
        <ele>100</ele>
        <time>2025-04-16T10:21:14Z</time>
      </trkpt>
      <trkpt lat="45.29005" lon="0.52517">
        <ele>100</ele>
        <time>2025-04-16T10:21:22Z</time>
      </trkpt>
      <trkpt lat="45.2891" lon="0.52576">
        <ele>102</ele>
        <time>2025-04-16T10:21:40Z</time>
      </trkpt>
      <trkpt lat="45.28886" lon="0.52598">
        <ele>101</ele>
        <time>2025-04-16T10:21:45Z</time>
      </trkpt>
      <trkpt lat="45.28807" lon="0.52689">
        <ele>97</ele>
        <time>2025-04-16T10:22:03Z</time>
      </trkpt>
      <trkpt lat="45.28776" lon="0.5272">
        <ele>96</ele>
        <time>2025-04-16T10:22:10Z</time>
      </trkpt>
      <trkpt lat="45.28747" lon="0.52732">
        <ele>98</ele>
        <time>2025-04-16T10:22:16Z</time>
      </trkpt>
      <trkpt lat="45.28721" lon="0.52738">
        <ele>101</ele>
        <time>2025-04-16T10:22:20Z</time>
      </trkpt>
      <trkpt lat="45.28625" lon="0.52801">
        <ele>106</ele>
        <time>2025-04-16T10:22:39Z</time>
      </trkpt>
      <trkpt lat="45.28597" lon="0.52837">
        <ele>104</ele>
        <time>2025-04-16T10:22:46Z</time>
      </trkpt>
      <trkpt lat="45.28546" lon="0.52918">
        <ele>102</ele>
        <time>2025-04-16T10:22:59Z</time>
      </trkpt>
      <trkpt lat="45.28512" lon="0.52958">
        <ele>106</ele>
        <time>2025-04-16T10:23:07Z</time>
      </trkpt>
      <trkpt lat="45.28476" lon="0.52998">
        <ele>110</ele>
        <time>2025-04-16T10:23:15Z</time>
      </trkpt>
      <trkpt lat="45.2843" lon="0.53069">
        <ele>110</ele>
        <time>2025-04-16T10:23:28Z</time>
      </trkpt>
      <trkpt lat="45.28414" lon="0.53095">
        <ele>111</ele>
        <time>2025-04-16T10:23:32Z</time>
      </trkpt>
      <trkpt lat="45.28407" lon="0.53103">
        <ele>112</ele>
        <time>2025-04-16T10:23:33Z</time>
      </trkpt>
      <trkpt lat="45.28403" lon="0.53104">
        <ele>114</ele>
        <time>2025-04-16T10:23:34Z</time>
      </trkpt>
      <trkpt lat="45.28361" lon="0.53221">
        <ele>109</ele>
        <time>2025-04-16T10:23:51Z</time>
      </trkpt>
      <trkpt lat="45.28341" lon="0.53277">
        <ele>105</ele>
        <time>2025-04-16T10:23:58Z</time>
      </trkpt>
      <trkpt lat="45.28294" lon="0.53417">
        <ele>99</ele>
        <time>2025-04-16T10:24:18Z</time>
      </trkpt>
      <trkpt lat="45.28232" lon="0.53545">
        <ele>95</ele>
        <time>2025-04-16T10:24:37Z</time>
      </trkpt>
      <trkpt lat="45.28217" lon="0.53574">
        <ele>93</ele>
        <time>2025-04-16T10:24:42Z</time>
      </trkpt>
      <trkpt lat="45.28183" lon="0.53627">
        <ele>91</ele>
        <time>2025-04-16T10:24:51Z</time>
      </trkpt>
      <trkpt lat="45.28149" lon="0.5367">
        <ele>91</ele>
        <time>2025-04-16T10:24:59Z</time>
      </trkpt>
      <trkpt lat="45.28064" lon="0.53756">
        <ele>92</ele>
        <time>2025-04-16T10:25:17Z</time>
      </trkpt>
      <trkpt lat="45.28034" lon="0.53792">
        <ele>89</ele>
        <time>2025-04-16T10:25:24Z</time>
      </trkpt>
      <trkpt lat="45.28019" lon="0.53816">
        <ele>87</ele>
        <time>2025-04-16T10:25:28Z</time>
      </trkpt>
      <trkpt lat="45.2802" lon="0.53819">
        <ele>87</ele>
        <time>2025-04-16T10:25:29Z</time>
      </trkpt>
      <trkpt lat="45.28031" lon="0.53847">
        <ele>85</ele>
        <time>2025-04-16T10:25:33Z</time>
      </trkpt>
      <trkpt lat="45.28067" lon="0.53932">
        <ele>82</ele>
        <time>2025-04-16T10:25:45Z</time>
      </trkpt>
      <trkpt lat="45.2814" lon="0.54101">
        <ele>83</ele>
        <time>2025-04-16T10:26:10Z</time>
      </trkpt>
      <trkpt lat="45.28241" lon="0.54331">
        <ele>83</ele>
        <time>2025-04-16T10:26:44Z</time>
      </trkpt>
      <trkpt lat="45.28108" lon="0.5451">
        <ele>82</ele>
        <time>2025-04-16T10:27:17Z</time>
      </trkpt>
      <trkpt lat="45.28081" lon="0.54545">
        <ele>82</ele>
        <time>2025-04-16T10:27:23Z</time>
      </trkpt>
      <trkpt lat="45.28034" lon="0.54607">
        <ele>83</ele>
        <time>2025-04-16T10:27:35Z</time>
      </trkpt>
      <trkpt lat="45.28015" lon="0.54627">
        <ele>84</ele>
        <time>2025-04-16T10:27:39Z</time>
      </trkpt>
      <trkpt lat="45.27977" lon="0.54658">
        <ele>85</ele>
        <time>2025-04-16T10:27:47Z</time>
      </trkpt>
      <trkpt lat="45.27971" lon="0.54663">
        <ele>85</ele>
        <time>2025-04-16T10:27:48Z</time>
      </trkpt>
      <trkpt lat="45.2795" lon="0.54679">
        <ele>85</ele>
        <time>2025-04-16T10:27:52Z</time>
      </trkpt>
      <trkpt lat="45.27931" lon="0.54695">
        <ele>86</ele>
        <time>2025-04-16T10:27:56Z</time>
      </trkpt>
      <trkpt lat="45.27929" lon="0.54697">
        <ele>86</ele>
        <time>2025-04-16T10:27:56Z</time>
      </trkpt>
      <trkpt lat="45.27911" lon="0.54711">
        <ele>86</ele>
        <time>2025-04-16T10:28:00Z</time>
      </trkpt>
      <trkpt lat="45.27896" lon="0.54725">
        <ele>86</ele>
        <time>2025-04-16T10:28:03Z</time>
      </trkpt>
      <trkpt lat="45.27882" lon="0.54747">
        <ele>87</ele>
        <time>2025-04-16T10:28:07Z</time>
      </trkpt>
      <trkpt lat="45.2786" lon="0.54782">
        <ele>87</ele>
        <time>2025-04-16T10:28:13Z</time>
      </trkpt>
      <trkpt lat="45.27849" lon="0.54798">
        <ele>87</ele>
        <time>2025-04-16T10:28:16Z</time>
      </trkpt>
      <trkpt lat="45.27847" lon="0.548">
        <ele>87</ele>
        <time>2025-04-16T10:28:16Z</time>
      </trkpt>
      <trkpt lat="45.27828" lon="0.54814">
        <ele>87</ele>
        <time>2025-04-16T10:28:20Z</time>
      </trkpt>
      <trkpt lat="45.27815" lon="0.54825">
        <ele>86</ele>
        <time>2025-04-16T10:28:23Z</time>
      </trkpt>
      <trkpt lat="45.27803" lon="0.54832">
        <ele>86</ele>
        <time>2025-04-16T10:28:25Z</time>
      </trkpt>
      <trkpt lat="45.27774" lon="0.54854">
        <ele>86</ele>
        <time>2025-04-16T10:28:31Z</time>
      </trkpt>
      <trkpt lat="45.27761" lon="0.54864">
        <ele>87</ele>
        <time>2025-04-16T10:28:33Z</time>
      </trkpt>
      <trkpt lat="45.27735" lon="0.54881">
        <ele>87</ele>
        <time>2025-04-16T10:28:39Z</time>
      </trkpt>
      <trkpt lat="45.27735" lon="0.54889">
        <ele>87</ele>
        <time>2025-04-16T10:28:40Z</time>
      </trkpt>
      <trkpt lat="45.27714" lon="0.54907">
        <ele>88</ele>
        <time>2025-04-16T10:28:44Z</time>
      </trkpt>
      <trkpt lat="45.27641" lon="0.54971">
        <ele>91</ele>
        <time>2025-04-16T10:28:59Z</time>
      </trkpt>
      <trkpt lat="45.27564" lon="0.55037">
        <ele>96</ele>
        <time>2025-04-16T10:29:15Z</time>
      </trkpt>
      <trkpt lat="45.27555" lon="0.55043">
        <ele>97</ele>
        <time>2025-04-16T10:29:17Z</time>
      </trkpt>
      <trkpt lat="45.27538" lon="0.5505">
        <ele>98</ele>
        <time>2025-04-16T10:29:20Z</time>
      </trkpt>
      <trkpt lat="45.27511" lon="0.55057">
        <ele>98</ele>
        <time>2025-04-16T10:29:25Z</time>
      </trkpt>
      <trkpt lat="45.2747" lon="0.55063">
        <ele>100</ele>
        <time>2025-04-16T10:29:32Z</time>
      </trkpt>
      <trkpt lat="45.27412" lon="0.55071">
        <ele>104</ele>
        <time>2025-04-16T10:29:43Z</time>
      </trkpt>
      <trkpt lat="45.27407" lon="0.55071">
        <ele>104</ele>
        <time>2025-04-16T10:29:44Z</time>
      </trkpt>
      <trkpt lat="45.27397" lon="0.55072">
        <ele>105</ele>
        <time>2025-04-16T10:29:45Z</time>
      </trkpt>
      <trkpt lat="45.27357" lon="0.55076">
        <ele>108</ele>
        <time>2025-04-16T10:29:52Z</time>
      </trkpt>
      <trkpt lat="45.27328" lon="0.55073">
        <ele>110</ele>
        <time>2025-04-16T10:29:58Z</time>
      </trkpt>
      <trkpt lat="45.27308" lon="0.55066">
        <ele>111</ele>
        <time>2025-04-16T10:30:01Z</time>
      </trkpt>
      <trkpt lat="45.27294" lon="0.55061">
        <ele>111</ele>
        <time>2025-04-16T10:30:04Z</time>
      </trkpt>
      <trkpt lat="45.27272" lon="0.55059">
        <ele>113</ele>
        <time>2025-04-16T10:30:08Z</time>
      </trkpt>
      <trkpt lat="45.27235" lon="0.55052">
        <ele>115</ele>
        <time>2025-04-16T10:30:14Z</time>
      </trkpt>
      <trkpt lat="45.27224" lon="0.55045">
        <ele>115</ele>
        <time>2025-04-16T10:30:17Z</time>
      </trkpt>
      <trkpt lat="45.27195" lon="0.55023">
        <ele>115</ele>
        <time>2025-04-16T10:30:22Z</time>
      </trkpt>
      <trkpt lat="45.27182" lon="0.55019">
        <ele>116</ele>
        <time>2025-04-16T10:30:25Z</time>
      </trkpt>
      <trkpt lat="45.27175" lon="0.5502">
        <ele>117</ele>
        <time>2025-04-16T10:30:26Z</time>
      </trkpt>
      <trkpt lat="45.27164" lon="0.55026">
        <ele>118</ele>
        <time>2025-04-16T10:30:28Z</time>
      </trkpt>
      <trkpt lat="45.27158" lon="0.55032">
        <ele>118</ele>
        <time>2025-04-16T10:30:29Z</time>
      </trkpt>
      <trkpt lat="45.27107" lon="0.55114">
        <ele>122</ele>
        <time>2025-04-16T10:30:43Z</time>
      </trkpt>
      <trkpt lat="45.27068" lon="0.55177">
        <ele>124</ele>
        <time>2025-04-16T10:30:54Z</time>
      </trkpt>
      <trkpt lat="45.27057" lon="0.55199">
        <ele>125</ele>
        <time>2025-04-16T10:30:57Z</time>
      </trkpt>
      <trkpt lat="45.27041" lon="0.55235">
        <ele>126</ele>
        <time>2025-04-16T10:31:02Z</time>
      </trkpt>
      <trkpt lat="45.27031" lon="0.55266">
        <ele>127</ele>
        <time>2025-04-16T10:31:07Z</time>
      </trkpt>
      <trkpt lat="45.27012" lon="0.55339">
        <ele>130</ele>
        <time>2025-04-16T10:31:16Z</time>
      </trkpt>
      <trkpt lat="45.26993" lon="0.55425">
        <ele>138</ele>
        <time>2025-04-16T10:31:28Z</time>
      </trkpt>
      <trkpt lat="45.26985" lon="0.55466">
        <ele>138</ele>
        <time>2025-04-16T10:31:33Z</time>
      </trkpt>
      <trkpt lat="45.26982" lon="0.55493">
        <ele>139</ele>
        <time>2025-04-16T10:31:36Z</time>
      </trkpt>
      <trkpt lat="45.26978" lon="0.55546">
        <ele>140</ele>
        <time>2025-04-16T10:31:43Z</time>
      </trkpt>
      <trkpt lat="45.26972" lon="0.55604">
        <ele>141</ele>
        <time>2025-04-16T10:31:50Z</time>
      </trkpt>
      <trkpt lat="45.26965" lon="0.55643">
        <ele>142</ele>
        <time>2025-04-16T10:31:55Z</time>
      </trkpt>
      <trkpt lat="45.26953" lon="0.55709">
        <ele>144</ele>
        <time>2025-04-16T10:32:04Z</time>
      </trkpt>
      <trkpt lat="45.26928" lon="0.55785">
        <ele>146</ele>
        <time>2025-04-16T10:32:14Z</time>
      </trkpt>
      <trkpt lat="45.26922" lon="0.55811">
        <ele>147</ele>
        <time>2025-04-16T10:32:18Z</time>
      </trkpt>
      <trkpt lat="45.26919" lon="0.55836">
        <ele>150</ele>
        <time>2025-04-16T10:32:21Z</time>
      </trkpt>
      <trkpt lat="45.26916" lon="0.55863">
        <ele>152</ele>
        <time>2025-04-16T10:32:25Z</time>
      </trkpt>
      <trkpt lat="45.26905" lon="0.55903">
        <ele>153</ele>
        <time>2025-04-16T10:32:30Z</time>
      </trkpt>
      <trkpt lat="45.26864" lon="0.55994">
        <ele>155</ele>
        <time>2025-04-16T10:32:43Z</time>
      </trkpt>
      <trkpt lat="45.26854" lon="0.56026">
        <ele>156</ele>
        <time>2025-04-16T10:32:48Z</time>
      </trkpt>
      <trkpt lat="45.26845" lon="0.5606">
        <ele>157</ele>
        <time>2025-04-16T10:32:52Z</time>
      </trkpt>
      <trkpt lat="45.26828" lon="0.56148">
        <ele>161</ele>
        <time>2025-04-16T10:33:04Z</time>
      </trkpt>
      <trkpt lat="45.2682" lon="0.56185">
        <ele>162</ele>
        <time>2025-04-16T10:33:09Z</time>
      </trkpt>
      <trkpt lat="45.26778" lon="0.5632">
        <ele>166</ele>
        <time>2025-04-16T10:33:27Z</time>
      </trkpt>
      <trkpt lat="45.2677" lon="0.56344">
        <ele>167</ele>
        <time>2025-04-16T10:33:30Z</time>
      </trkpt>
      <trkpt lat="45.2675" lon="0.5639">
        <ele>169</ele>
        <time>2025-04-16T10:33:37Z</time>
      </trkpt>
      <trkpt lat="45.26711" lon="0.56457">
        <ele>171</ele>
        <time>2025-04-16T10:33:48Z</time>
      </trkpt>
      <trkpt lat="45.26687" lon="0.56497">
        <ele>172</ele>
        <time>2025-04-16T10:33:55Z</time>
      </trkpt>
      <trkpt lat="45.26643" lon="0.5656">
        <ele>174</ele>
        <time>2025-04-16T10:34:06Z</time>
      </trkpt>
      <trkpt lat="45.26618" lon="0.56587">
        <ele>175</ele>
        <time>2025-04-16T10:34:11Z</time>
      </trkpt>
      <trkpt lat="45.26598" lon="0.56601">
        <ele>175</ele>
        <time>2025-04-16T10:34:15Z</time>
      </trkpt>
      <trkpt lat="45.26404" lon="0.56693">
        <ele>186</ele>
        <time>2025-04-16T10:34:52Z</time>
      </trkpt>
      <trkpt lat="45.26378" lon="0.56703">
        <ele>187</ele>
        <time>2025-04-16T10:34:57Z</time>
      </trkpt>
      <trkpt lat="45.26363" lon="0.56707">
        <ele>187</ele>
        <time>2025-04-16T10:34:59Z</time>
      </trkpt>
      <trkpt lat="45.26318" lon="0.5671">
        <ele>188</ele>
        <time>2025-04-16T10:35:07Z</time>
      </trkpt>
      <trkpt lat="45.26249" lon="0.56712">
        <ele>193</ele>
        <time>2025-04-16T10:35:20Z</time>
      </trkpt>
      <trkpt lat="45.26213" lon="0.56707">
        <ele>196</ele>
        <time>2025-04-16T10:35:26Z</time>
      </trkpt>
      <trkpt lat="45.26186" lon="0.56698">
        <ele>197</ele>
        <time>2025-04-16T10:35:31Z</time>
      </trkpt>
      <trkpt lat="45.26156" lon="0.56679">
        <ele>198</ele>
        <time>2025-04-16T10:35:37Z</time>
      </trkpt>
      <trkpt lat="45.26096" lon="0.56624">
        <ele>202</ele>
        <time>2025-04-16T10:35:49Z</time>
      </trkpt>
      <trkpt lat="45.26073" lon="0.56599">
        <ele>204</ele>
        <time>2025-04-16T10:35:55Z</time>
      </trkpt>
      <trkpt lat="45.26027" lon="0.5656">
        <ele>204</ele>
        <time>2025-04-16T10:36:04Z</time>
      </trkpt>
      <trkpt lat="45.26001" lon="0.56552">
        <ele>204</ele>
        <time>2025-04-16T10:36:09Z</time>
      </trkpt>
      <trkpt lat="45.25965" lon="0.56562">
        <ele>204</ele>
        <time>2025-04-16T10:36:15Z</time>
      </trkpt>
      <trkpt lat="45.25917" lon="0.56606">
        <ele>205</ele>
        <time>2025-04-16T10:36:26Z</time>
      </trkpt>
      <trkpt lat="45.25848" lon="0.56653">
        <ele>204</ele>
        <time>2025-04-16T10:36:39Z</time>
      </trkpt>
      <trkpt lat="45.25821" lon="0.56678">
        <ele>204</ele>
        <time>2025-04-16T10:36:45Z</time>
      </trkpt>
      <trkpt lat="45.25517" lon="0.56948">
        <ele>199</ele>
        <time>2025-04-16T10:37:49Z</time>
      </trkpt>
      <trkpt lat="45.25487" lon="0.56975">
        <ele>198</ele>
        <time>2025-04-16T10:37:55Z</time>
      </trkpt>
      <trkpt lat="45.2543" lon="0.57021">
        <ele>198</ele>
        <time>2025-04-16T10:38:07Z</time>
      </trkpt>
      <trkpt lat="45.25338" lon="0.57094">
        <ele>194</ele>
        <time>2025-04-16T10:38:25Z</time>
      </trkpt>
      <trkpt lat="45.25316" lon="0.57119">
        <ele>193</ele>
        <time>2025-04-16T10:38:30Z</time>
      </trkpt>
      <trkpt lat="45.25307" lon="0.57138">
        <ele>193</ele>
        <time>2025-04-16T10:38:33Z</time>
      </trkpt>
      <trkpt lat="45.25295" lon="0.57119">
        <ele>194</ele>
        <time>2025-04-16T10:38:37Z</time>
      </trkpt>
      <trkpt lat="45.25285" lon="0.57061">
        <ele>197</ele>
        <time>2025-04-16T10:38:44Z</time>
      </trkpt>
      <trkpt lat="45.25263" lon="0.56954">
        <ele>201</ele>
        <time>2025-04-16T10:38:58Z</time>
      </trkpt>
      <trkpt lat="45.25248" lon="0.56879">
        <ele>201</ele>
        <time>2025-04-16T10:39:08Z</time>
      </trkpt>
      <trkpt lat="45.2523" lon="0.56791">
        <ele>200</ele>
        <time>2025-04-16T10:39:19Z</time>
      </trkpt>
      <trkpt lat="45.2522" lon="0.56691">
        <ele>199</ele>
        <time>2025-04-16T10:39:32Z</time>
      </trkpt>
      <trkpt lat="45.25134" lon="0.55842">
        <ele>182</ele>
        <time>2025-04-16T10:41:19Z</time>
      </trkpt>
      <trkpt lat="45.25133" lon="0.55832">
        <ele>182</ele>
        <time>2025-04-16T10:41:21Z</time>
      </trkpt>
      <trkpt lat="45.25109" lon="0.55555">
        <ele>175</ele>
        <time>2025-04-16T10:41:56Z</time>
      </trkpt>
      <trkpt lat="45.25106" lon="0.55479">
        <ele>174</ele>
        <time>2025-04-16T10:42:05Z</time>
      </trkpt>
      <trkpt lat="45.25113" lon="0.55415">
        <ele>173</ele>
        <time>2025-04-16T10:42:13Z</time>
      </trkpt>
      <trkpt lat="45.25116" lon="0.55391">
        <ele>174</ele>
        <time>2025-04-16T10:42:16Z</time>
      </trkpt>
      <trkpt lat="45.25134" lon="0.55313">
        <ele>175</ele>
        <time>2025-04-16T10:42:27Z</time>
      </trkpt>
      <trkpt lat="45.2516" lon="0.55186">
        <ele>176</ele>
        <time>2025-04-16T10:42:43Z</time>
      </trkpt>
      <trkpt lat="45.25179" lon="0.5508">
        <ele>174</ele>
        <time>2025-04-16T10:42:57Z</time>
      </trkpt>
      <trkpt lat="45.25205" lon="0.54899">
        <ele>173</ele>
        <time>2025-04-16T10:43:20Z</time>
      </trkpt>
      <trkpt lat="45.25217" lon="0.54762">
        <ele>170</ele>
        <time>2025-04-16T10:43:37Z</time>
      </trkpt>
      <trkpt lat="45.25224" lon="0.5464">
        <ele>170</ele>
        <time>2025-04-16T10:43:53Z</time>
      </trkpt>
      <trkpt lat="45.25217" lon="0.54599">
        <ele>170</ele>
        <time>2025-04-16T10:43:58Z</time>
      </trkpt>
      <trkpt lat="45.25192" lon="0.54501">
        <ele>168</ele>
        <time>2025-04-16T10:44:11Z</time>
      </trkpt>
      <trkpt lat="45.25184" lon="0.544">
        <ele>166</ele>
        <time>2025-04-16T10:44:24Z</time>
      </trkpt>
      <trkpt lat="45.25188" lon="0.54283">
        <ele>162</ele>
        <time>2025-04-16T10:44:38Z</time>
      </trkpt>
      <trkpt lat="45.25199" lon="0.54125">
        <ele>159</ele>
        <time>2025-04-16T10:44:58Z</time>
      </trkpt>
      <trkpt lat="45.25201" lon="0.53962">
        <ele>157</ele>
        <time>2025-04-16T10:45:19Z</time>
      </trkpt>
      <trkpt lat="45.2521" lon="0.53892">
        <ele>157</ele>
        <time>2025-04-16T10:45:28Z</time>
      </trkpt>
      <trkpt lat="45.25215" lon="0.53826">
        <ele>156</ele>
        <time>2025-04-16T10:45:36Z</time>
      </trkpt>
      <trkpt lat="45.25219" lon="0.53787">
        <ele>156</ele>
        <time>2025-04-16T10:45:41Z</time>
      </trkpt>
      <trkpt lat="45.25231" lon="0.53747">
        <ele>157</ele>
        <time>2025-04-16T10:45:46Z</time>
      </trkpt>
      <trkpt lat="45.25264" lon="0.53658">
        <ele>155</ele>
        <time>2025-04-16T10:45:59Z</time>
      </trkpt>
      <trkpt lat="45.25279" lon="0.53627">
        <ele>153</ele>
        <time>2025-04-16T10:46:04Z</time>
      </trkpt>
      <trkpt lat="45.25295" lon="0.53593">
        <ele>151</ele>
        <time>2025-04-16T10:46:09Z</time>
      </trkpt>
      <trkpt lat="45.25318" lon="0.5356">
        <ele>150</ele>
        <time>2025-04-16T10:46:14Z</time>
      </trkpt>
      <trkpt lat="45.25344" lon="0.53525">
        <ele>149</ele>
        <time>2025-04-16T10:46:21Z</time>
      </trkpt>
      <trkpt lat="45.25457" lon="0.53355">
        <ele>144</ele>
        <time>2025-04-16T10:46:50Z</time>
      </trkpt>
      <trkpt lat="45.25474" lon="0.53334">
        <ele>143</ele>
        <time>2025-04-16T10:46:54Z</time>
      </trkpt>
      <trkpt lat="45.25498" lon="0.53317">
        <ele>144</ele>
        <time>2025-04-16T10:46:59Z</time>
      </trkpt>
      <trkpt lat="45.25525" lon="0.53295">
        <ele>144</ele>
        <time>2025-04-16T10:47:04Z</time>
      </trkpt>
      <trkpt lat="45.25549" lon="0.53268">
        <ele>145</ele>
        <time>2025-04-16T10:47:10Z</time>
      </trkpt>
      <trkpt lat="45.25651" lon="0.53064">
        <ele>142</ele>
        <time>2025-04-16T10:47:41Z</time>
      </trkpt>
      <trkpt lat="45.25665" lon="0.53033">
        <ele>141</ele>
        <time>2025-04-16T10:47:46Z</time>
      </trkpt>
      <trkpt lat="45.25684" lon="0.52993">
        <ele>140</ele>
        <time>2025-04-16T10:47:52Z</time>
      </trkpt>
      <trkpt lat="45.25709" lon="0.52902">
        <ele>137</ele>
        <time>2025-04-16T10:48:04Z</time>
      </trkpt>
      <trkpt lat="45.25727" lon="0.52817">
        <ele>135</ele>
        <time>2025-04-16T10:48:15Z</time>
      </trkpt>
      <trkpt lat="45.25739" lon="0.52731">
        <ele>134</ele>
        <time>2025-04-16T10:48:26Z</time>
      </trkpt>
      <trkpt lat="45.2574" lon="0.52672">
        <ele>134</ele>
        <time>2025-04-16T10:48:34Z</time>
      </trkpt>
      <trkpt lat="45.25741" lon="0.52642">
        <ele>133</ele>
        <time>2025-04-16T10:48:37Z</time>
      </trkpt>
      <trkpt lat="45.25768" lon="0.52545">
        <ele>132</ele>
        <time>2025-04-16T10:48:50Z</time>
      </trkpt>
      <trkpt lat="45.2586" lon="0.52324">
        <ele>126</ele>
        <time>2025-04-16T10:49:23Z</time>
      </trkpt>
      <trkpt lat="45.25905" lon="0.52218">
        <ele>119</ele>
        <time>2025-04-16T10:49:38Z</time>
      </trkpt>
      <trkpt lat="45.2593" lon="0.52161">
        <ele>117</ele>
        <time>2025-04-16T10:49:47Z</time>
      </trkpt>
      <trkpt lat="45.25955" lon="0.52104">
        <ele>115</ele>
        <time>2025-04-16T10:49:55Z</time>
      </trkpt>
      <trkpt lat="45.25988" lon="0.52054">
        <ele>113</ele>
        <time>2025-04-16T10:50:04Z</time>
      </trkpt>
      <trkpt lat="45.26001" lon="0.52038">
        <ele>112</ele>
        <time>2025-04-16T10:50:07Z</time>
      </trkpt>
      <trkpt lat="45.26085" lon="0.51953">
        <ele>106</ele>
        <time>2025-04-16T10:50:25Z</time>
      </trkpt>
      <trkpt lat="45.26104" lon="0.51927">
        <ele>105</ele>
        <time>2025-04-16T10:50:30Z</time>
      </trkpt>
      <trkpt lat="45.26135" lon="0.51857">
        <ele>103</ele>
        <time>2025-04-16T10:50:40Z</time>
      </trkpt>
      <trkpt lat="45.26154" lon="0.51803">
        <ele>100</ele>
        <time>2025-04-16T10:50:48Z</time>
      </trkpt>
      <trkpt lat="45.26201" lon="0.51692">
        <ele>96</ele>
        <time>2025-04-16T10:51:04Z</time>
      </trkpt>
      <trkpt lat="45.26214" lon="0.51667">
        <ele>95</ele>
        <time>2025-04-16T10:51:08Z</time>
      </trkpt>
      <trkpt lat="45.26241" lon="0.51618">
        <ele>92</ele>
        <time>2025-04-16T10:51:15Z</time>
      </trkpt>
      <trkpt lat="45.26257" lon="0.51575">
        <ele>89</ele>
        <time>2025-04-16T10:51:22Z</time>
      </trkpt>
      <trkpt lat="45.26273" lon="0.51505">
        <ele>87</ele>
        <time>2025-04-16T10:51:31Z</time>
      </trkpt>
      <trkpt lat="45.26281" lon="0.51478">
        <ele>87</ele>
        <time>2025-04-16T10:51:34Z</time>
      </trkpt>
      <trkpt lat="45.26276" lon="0.5146">
        <ele>87</ele>
        <time>2025-04-16T10:51:37Z</time>
      </trkpt>
      <trkpt lat="45.26265" lon="0.51434">
        <ele>87</ele>
        <time>2025-04-16T10:51:41Z</time>
      </trkpt>
      <trkpt lat="45.26228" lon="0.5136">
        <ele>86</ele>
        <time>2025-04-16T10:51:52Z</time>
      </trkpt>
      <trkpt lat="45.26222" lon="0.51342">
        <ele>86</ele>
        <time>2025-04-16T10:51:55Z</time>
      </trkpt>
      <trkpt lat="45.26239" lon="0.51163">
        <ele>82</ele>
        <time>2025-04-16T10:52:17Z</time>
      </trkpt>
      <trkpt lat="45.26215" lon="0.51151">
        <ele>81</ele>
        <time>2025-04-16T10:52:22Z</time>
      </trkpt>
      <trkpt lat="45.26188" lon="0.51133">
        <ele>80</ele>
        <time>2025-04-16T10:52:27Z</time>
      </trkpt>
      <trkpt lat="45.26165" lon="0.51112">
        <ele>80</ele>
        <time>2025-04-16T10:52:32Z</time>
      </trkpt>
      <trkpt lat="45.26134" lon="0.51075">
        <ele>78</ele>
        <time>2025-04-16T10:52:39Z</time>
      </trkpt>
      <trkpt lat="45.26057" lon="0.50971">
        <ele>77</ele>
        <time>2025-04-16T10:52:58Z</time>
      </trkpt>
      <trkpt lat="45.2575" lon="0.50557">
        <ele>79</ele>
        <time>2025-04-16T10:54:13Z</time>
      </trkpt>
      <trkpt lat="45.2574" lon="0.50542">
        <ele>79</ele>
        <time>2025-04-16T10:54:16Z</time>
      </trkpt>
      <trkpt lat="45.25737" lon="0.50533">
        <ele>79</ele>
        <time>2025-04-16T10:54:17Z</time>
      </trkpt>
      <trkpt lat="45.25735" lon="0.50517">
        <ele>79</ele>
        <time>2025-04-16T10:54:19Z</time>
      </trkpt>
      <trkpt lat="45.25737" lon="0.50491">
        <ele>78</ele>
        <time>2025-04-16T10:54:22Z</time>
      </trkpt>
      <trkpt lat="45.25735" lon="0.50483">
        <ele>78</ele>
        <time>2025-04-16T10:54:23Z</time>
      </trkpt>
      <trkpt lat="45.25731" lon="0.50475">
        <ele>78</ele>
        <time>2025-04-16T10:54:25Z</time>
      </trkpt>
      <trkpt lat="45.25718" lon="0.50453">
        <ele>78</ele>
        <time>2025-04-16T10:54:28Z</time>
      </trkpt>
      <trkpt lat="45.25715" lon="0.5044">
        <ele>78</ele>
        <time>2025-04-16T10:54:30Z</time>
      </trkpt>
      <trkpt lat="45.25712" lon="0.50435">
        <ele>78</ele>
        <time>2025-04-16T10:54:31Z</time>
      </trkpt>
      <trkpt lat="45.25708" lon="0.50431">
        <ele>79</ele>
        <time>2025-04-16T10:54:32Z</time>
      </trkpt>
      <trkpt lat="45.25698" lon="0.50427">
        <ele>79</ele>
        <time>2025-04-16T10:54:34Z</time>
      </trkpt>
      <trkpt lat="45.25693" lon="0.50428">
        <ele>79</ele>
        <time>2025-04-16T10:54:34Z</time>
      </trkpt>
      <trkpt lat="45.25687" lon="0.50432">
        <ele>79</ele>
        <time>2025-04-16T10:54:36Z</time>
      </trkpt>
      <trkpt lat="45.25671" lon="0.50434">
        <ele>80</ele>
        <time>2025-04-16T10:54:38Z</time>
      </trkpt>
      <trkpt lat="45.25662" lon="0.50429">
        <ele>80</ele>
        <time>2025-04-16T10:54:40Z</time>
      </trkpt>
      <trkpt lat="45.25656" lon="0.50422">
        <ele>81</ele>
        <time>2025-04-16T10:54:42Z</time>
      </trkpt>
      <trkpt lat="45.25565" lon="0.50234">
        <ele>79</ele>
        <time>2025-04-16T10:55:10Z</time>
      </trkpt>
      <trkpt lat="45.25559" lon="0.50214">
        <ele>79</ele>
        <time>2025-04-16T10:55:13Z</time>
      </trkpt>
      <trkpt lat="45.25557" lon="0.50196">
        <ele>79</ele>
        <time>2025-04-16T10:55:15Z</time>
      </trkpt>
      <trkpt lat="45.25558" lon="0.50077">
        <ele>78</ele>
        <time>2025-04-16T10:55:30Z</time>
      </trkpt>
      <trkpt lat="45.25557" lon="0.5004">
        <ele>78</ele>
        <time>2025-04-16T10:55:35Z</time>
      </trkpt>
      <trkpt lat="45.2555" lon="0.5">
        <ele>79</ele>
        <time>2025-04-16T10:55:40Z</time>
      </trkpt>
      <trkpt lat="45.25539" lon="0.49945">
        <ele>79</ele>
        <time>2025-04-16T10:55:47Z</time>
      </trkpt>
      <trkpt lat="45.25534" lon="0.49907">
        <ele>78</ele>
        <time>2025-04-16T10:55:52Z</time>
      </trkpt>
      <trkpt lat="45.25533" lon="0.49898">
        <ele>78</ele>
        <time>2025-04-16T10:55:53Z</time>
      </trkpt>
      <trkpt lat="45.25533" lon="0.49881">
        <ele>78</ele>
        <time>2025-04-16T10:55:55Z</time>
      </trkpt>
      <trkpt lat="45.25516" lon="0.49746">
        <ele>78</ele>
        <time>2025-04-16T10:56:12Z</time>
      </trkpt>
      <trkpt lat="45.25512" lon="0.49734">
        <ele>78</ele>
        <time>2025-04-16T10:56:14Z</time>
      </trkpt>
      <trkpt lat="45.2551" lon="0.49716">
        <ele>77</ele>
        <time>2025-04-16T10:56:16Z</time>
      </trkpt>
      <trkpt lat="45.25496" lon="0.49606">
        <ele>78</ele>
        <time>2025-04-16T10:56:30Z</time>
      </trkpt>
      <trkpt lat="45.25493" lon="0.49605">
        <ele>78</ele>
        <time>2025-04-16T10:56:31Z</time>
      </trkpt>
      <trkpt lat="45.25491" lon="0.49601">
        <ele>78</ele>
        <time>2025-04-16T10:56:31Z</time>
      </trkpt>
      <trkpt lat="45.25492" lon="0.49597">
        <ele>78</ele>
        <time>2025-04-16T10:56:32Z</time>
      </trkpt>
      <trkpt lat="45.25494" lon="0.49594">
        <ele>78</ele>
        <time>2025-04-16T10:56:32Z</time>
      </trkpt>
      <trkpt lat="45.25498" lon="0.49596">
        <ele>78</ele>
        <time>2025-04-16T10:56:33Z</time>
      </trkpt>
      <trkpt lat="45.25499" lon="0.49599">
        <ele>78</ele>
        <time>2025-04-16T10:56:34Z</time>
      </trkpt>
      <trkpt lat="45.25518" lon="0.49594">
        <ele>77</ele>
        <time>2025-04-16T10:56:37Z</time>
      </trkpt>
      <trkpt lat="45.25584" lon="0.49571">
        <ele>75</ele>
        <time>2025-04-16T10:56:49Z</time>
      </trkpt>
      <trkpt lat="45.25606" lon="0.49558">
        <ele>75</ele>
        <time>2025-04-16T10:56:53Z</time>
      </trkpt>
      <trkpt lat="45.25627" lon="0.49541">
        <ele>75</ele>
        <time>2025-04-16T10:56:58Z</time>
      </trkpt>
      <trkpt lat="45.25642" lon="0.49521">
        <ele>74</ele>
        <time>2025-04-16T10:57:01Z</time>
      </trkpt>
      <trkpt lat="45.25665" lon="0.49491">
        <ele>74</ele>
        <time>2025-04-16T10:57:07Z</time>
      </trkpt>
      <trkpt lat="45.25674" lon="0.49478">
        <ele>75</ele>
        <time>2025-04-16T10:57:09Z</time>
      </trkpt>
      <trkpt lat="45.25699" lon="0.4944">
        <ele>76</ele>
        <time>2025-04-16T10:57:16Z</time>
      </trkpt>
      <trkpt lat="45.25717" lon="0.49413">
        <ele>77</ele>
        <time>2025-04-16T10:57:20Z</time>
      </trkpt>
      <trkpt lat="45.25845" lon="0.49201">
        <ele>78</ele>
        <time>2025-04-16T10:57:55Z</time>
      </trkpt>
      <trkpt lat="45.25849" lon="0.49195">
        <ele>78</ele>
        <time>2025-04-16T10:57:56Z</time>
      </trkpt>
      <trkpt lat="45.25873" lon="0.49167">
        <ele>78</ele>
        <time>2025-04-16T10:58:02Z</time>
      </trkpt>
      <trkpt lat="45.25888" lon="0.49156">
        <ele>77</ele>
        <time>2025-04-16T10:58:05Z</time>
      </trkpt>
      <trkpt lat="45.25895" lon="0.49152">
        <ele>77</ele>
        <time>2025-04-16T10:58:06Z</time>
      </trkpt>
      <trkpt lat="45.25908" lon="0.49143">
        <ele>77</ele>
        <time>2025-04-16T10:58:09Z</time>
      </trkpt>
      <trkpt lat="45.25925" lon="0.49144">
        <ele>77</ele>
        <time>2025-04-16T10:58:12Z</time>
      </trkpt>
      <trkpt lat="45.25956" lon="0.49149">
        <ele>76</ele>
        <time>2025-04-16T10:58:17Z</time>
      </trkpt>
      <trkpt lat="45.25993" lon="0.49154">
        <ele>76</ele>
        <time>2025-04-16T10:58:24Z</time>
      </trkpt>
      <trkpt lat="45.26006" lon="0.49155">
        <ele>76</ele>
        <time>2025-04-16T10:58:26Z</time>
      </trkpt>
      <trkpt lat="45.26036" lon="0.49155">
        <ele>76</ele>
        <time>2025-04-16T10:58:32Z</time>
      </trkpt>
      <trkpt lat="45.26057" lon="0.49145">
        <ele>76</ele>
        <time>2025-04-16T10:58:36Z</time>
      </trkpt>
      <trkpt lat="45.261" lon="0.49114">
        <ele>76</ele>
        <time>2025-04-16T10:58:44Z</time>
      </trkpt>
      <trkpt lat="45.2626" lon="0.48987">
        <ele>78</ele>
        <time>2025-04-16T10:59:17Z</time>
      </trkpt>
      <trkpt lat="45.26458" lon="0.48839">
        <ele>84</ele>
        <time>2025-04-16T10:59:57Z</time>
      </trkpt>
      <trkpt lat="45.26502" lon="0.48793">
        <ele>85</ele>
        <time>2025-04-16T11:00:06Z</time>
      </trkpt>
      <trkpt lat="45.26515" lon="0.48775">
        <ele>85</ele>
        <time>2025-04-16T11:00:10Z</time>
      </trkpt>
      <trkpt lat="45.26539" lon="0.48737">
        <ele>86</ele>
        <time>2025-04-16T11:00:16Z</time>
      </trkpt>
      <trkpt lat="45.26608" lon="0.48624">
        <ele>92</ele>
        <time>2025-04-16T11:00:35Z</time>
      </trkpt>
      <trkpt lat="45.26614" lon="0.48608">
        <ele>93</ele>
        <time>2025-04-16T11:00:37Z</time>
      </trkpt>
      <trkpt lat="45.26619" lon="0.48577">
        <ele>94</ele>
        <time>2025-04-16T11:00:41Z</time>
      </trkpt>
      <trkpt lat="45.26618" lon="0.48553">
        <ele>94</ele>
        <time>2025-04-16T11:00:44Z</time>
      </trkpt>
      <trkpt lat="45.26608" lon="0.4844">
        <ele>98</ele>
        <time>2025-04-16T11:00:58Z</time>
      </trkpt>
      <trkpt lat="45.26608" lon="0.48412">
        <ele>99</ele>
        <time>2025-04-16T11:01:02Z</time>
      </trkpt>
      <trkpt lat="45.26615" lon="0.48332">
        <ele>100</ele>
        <time>2025-04-16T11:01:12Z</time>
      </trkpt>
      <trkpt lat="45.26628" lon="0.48216">
        <ele>107</ele>
        <time>2025-04-16T11:01:27Z</time>
      </trkpt>
      <trkpt lat="45.26626" lon="0.48182">
        <ele>110</ele>
        <time>2025-04-16T11:01:31Z</time>
      </trkpt>
      <trkpt lat="45.26625" lon="0.48162">
        <ele>111</ele>
        <time>2025-04-16T11:01:33Z</time>
      </trkpt>
      <trkpt lat="45.26597" lon="0.48003">
        <ele>117</ele>
        <time>2025-04-16T11:01:54Z</time>
      </trkpt>
      <trkpt lat="45.26594" lon="0.47954">
        <ele>118</ele>
        <time>2025-04-16T11:02:00Z</time>
      </trkpt>
      <trkpt lat="45.26598" lon="0.47927">
        <ele>119</ele>
        <time>2025-04-16T11:02:03Z</time>
      </trkpt>
      <trkpt lat="45.26608" lon="0.47913">
        <ele>121</ele>
        <time>2025-04-16T11:02:06Z</time>
      </trkpt>
      <trkpt lat="45.26625" lon="0.479">
        <ele>122</ele>
        <time>2025-04-16T11:02:09Z</time>
      </trkpt>
      <trkpt lat="45.26777" lon="0.47833">
        <ele>133</ele>
        <time>2025-04-16T11:02:38Z</time>
      </trkpt>
      <trkpt lat="45.2681" lon="0.47816">
        <ele>134</ele>
        <time>2025-04-16T11:02:44Z</time>
      </trkpt>
      <trkpt lat="45.26897" lon="0.47775">
        <ele>139</ele>
        <time>2025-04-16T11:03:00Z</time>
      </trkpt>
      <trkpt lat="45.26926" lon="0.47762">
        <ele>142</ele>
        <time>2025-04-16T11:03:06Z</time>
      </trkpt>
      <trkpt lat="45.2699" lon="0.47734">
        <ele>147</ele>
        <time>2025-04-16T11:03:18Z</time>
      </trkpt>
      <trkpt lat="45.27027" lon="0.47712">
        <ele>147</ele>
        <time>2025-04-16T11:03:25Z</time>
      </trkpt>
      <trkpt lat="45.27039" lon="0.47705">
        <ele>147</ele>
        <time>2025-04-16T11:03:27Z</time>
      </trkpt>
      <trkpt lat="45.2707" lon="0.47683">
        <ele>147</ele>
        <time>2025-04-16T11:03:33Z</time>
      </trkpt>
      <trkpt lat="45.27088" lon="0.47665">
        <ele>147</ele>
        <time>2025-04-16T11:03:37Z</time>
      </trkpt>
      <trkpt lat="45.27096" lon="0.47657">
        <ele>146</ele>
        <time>2025-04-16T11:03:39Z</time>
      </trkpt>
      <trkpt lat="45.27122" lon="0.47646">
        <ele>144</ele>
        <time>2025-04-16T11:03:44Z</time>
      </trkpt>
      <trkpt lat="45.27141" lon="0.47637">
        <ele>143</ele>
        <time>2025-04-16T11:03:47Z</time>
      </trkpt>
      <trkpt lat="45.27157" lon="0.47631">
        <ele>142</ele>
        <time>2025-04-16T11:03:50Z</time>
      </trkpt>
      <trkpt lat="45.27237" lon="0.47575">
        <ele>147</ele>
        <time>2025-04-16T11:04:06Z</time>
      </trkpt>
      <trkpt lat="45.27251" lon="0.47527">
        <ele>149</ele>
        <time>2025-04-16T11:04:13Z</time>
      </trkpt>
      <trkpt lat="45.27269" lon="0.47454">
        <ele>153</ele>
        <time>2025-04-16T11:04:22Z</time>
      </trkpt>
      <trkpt lat="45.27273" lon="0.47422">
        <ele>154</ele>
        <time>2025-04-16T11:04:26Z</time>
      </trkpt>
      <trkpt lat="45.27273" lon="0.47398">
        <ele>155</ele>
        <time>2025-04-16T11:04:29Z</time>
      </trkpt>
      <trkpt lat="45.2726" lon="0.47301">
        <ele>154</ele>
        <time>2025-04-16T11:04:42Z</time>
      </trkpt>
      <trkpt lat="45.27262" lon="0.47254">
        <ele>156</ele>
        <time>2025-04-16T11:04:48Z</time>
      </trkpt>
      <trkpt lat="45.27274" lon="0.47207">
        <ele>159</ele>
        <time>2025-04-16T11:04:54Z</time>
      </trkpt>
      <trkpt lat="45.27279" lon="0.47175">
        <ele>161</ele>
        <time>2025-04-16T11:04:58Z</time>
      </trkpt>
      <trkpt lat="45.27273" lon="0.47131">
        <ele>163</ele>
        <time>2025-04-16T11:05:04Z</time>
      </trkpt>
      <trkpt lat="45.27258" lon="0.47099">
        <ele>163</ele>
        <time>2025-04-16T11:05:08Z</time>
      </trkpt>
      <trkpt lat="45.27214" lon="0.47037">
        <ele>162</ele>
        <time>2025-04-16T11:05:19Z</time>
      </trkpt>
      <trkpt lat="45.27163" lon="0.46973">
        <ele>166</ele>
        <time>2025-04-16T11:05:32Z</time>
      </trkpt>
      <trkpt lat="45.27139" lon="0.46947">
        <ele>166</ele>
        <time>2025-04-16T11:05:37Z</time>
      </trkpt>
      <trkpt lat="45.27133" lon="0.46942">
        <ele>166</ele>
        <time>2025-04-16T11:05:38Z</time>
      </trkpt>
      <trkpt lat="45.27039" lon="0.46879">
        <ele>165</ele>
        <time>2025-04-16T11:05:57Z</time>
      </trkpt>
      <trkpt lat="45.27019" lon="0.4686">
        <ele>165</ele>
        <time>2025-04-16T11:06:01Z</time>
      </trkpt>
      <trkpt lat="45.26937" lon="0.46739">
        <ele>162</ele>
        <time>2025-04-16T11:06:22Z</time>
      </trkpt>
      <trkpt lat="45.2689" lon="0.46671">
        <ele>164</ele>
        <time>2025-04-16T11:06:34Z</time>
      </trkpt>
      <trkpt lat="45.26882" lon="0.4666">
        <ele>164</ele>
        <time>2025-04-16T11:06:36Z</time>
      </trkpt>
      <trkpt lat="45.26814" lon="0.46559">
        <ele>167</ele>
        <time>2025-04-16T11:06:53Z</time>
      </trkpt>
      <trkpt lat="45.26799" lon="0.46533">
        <ele>166</ele>
        <time>2025-04-16T11:06:58Z</time>
      </trkpt>
      <trkpt lat="45.26791" lon="0.465">
        <ele>165</ele>
        <time>2025-04-16T11:07:02Z</time>
      </trkpt>
      <trkpt lat="45.2679" lon="0.46487">
        <ele>165</ele>
        <time>2025-04-16T11:07:04Z</time>
      </trkpt>
      <trkpt lat="45.26789" lon="0.46469">
        <ele>164</ele>
        <time>2025-04-16T11:07:06Z</time>
      </trkpt>
      <trkpt lat="45.26803" lon="0.46301">
        <ele>166</ele>
        <time>2025-04-16T11:07:27Z</time>
      </trkpt>
      <trkpt lat="45.26816" lon="0.46213">
        <ele>168</ele>
        <time>2025-04-16T11:07:38Z</time>
      </trkpt>
      <trkpt lat="45.26842" lon="0.46063">
        <ele>171</ele>
        <time>2025-04-16T11:07:58Z</time>
      </trkpt>
      <trkpt lat="45.26845" lon="0.46019">
        <ele>171</ele>
        <time>2025-04-16T11:08:03Z</time>
      </trkpt>
      <trkpt lat="45.26839" lon="0.4598">
        <ele>171</ele>
        <time>2025-04-16T11:08:08Z</time>
      </trkpt>
      <trkpt lat="45.26834" lon="0.45965">
        <ele>170</ele>
        <time>2025-04-16T11:08:10Z</time>
      </trkpt>
      <trkpt lat="45.26822" lon="0.4593">
        <ele>169</ele>
        <time>2025-04-16T11:08:15Z</time>
      </trkpt>
      <trkpt lat="45.26793" lon="0.45883">
        <ele>167</ele>
        <time>2025-04-16T11:08:23Z</time>
      </trkpt>
      <trkpt lat="45.26767" lon="0.45855">
        <ele>166</ele>
        <time>2025-04-16T11:08:29Z</time>
      </trkpt>
      <trkpt lat="45.26738" lon="0.4583">
        <ele>166</ele>
        <time>2025-04-16T11:08:35Z</time>
      </trkpt>
      <trkpt lat="45.26698" lon="0.45807">
        <ele>164</ele>
        <time>2025-04-16T11:08:42Z</time>
      </trkpt>
      <trkpt lat="45.26638" lon="0.45792">
        <ele>161</ele>
        <time>2025-04-16T11:08:53Z</time>
      </trkpt>
      <trkpt lat="45.26591" lon="0.45785">
        <ele>161</ele>
        <time>2025-04-16T11:09:02Z</time>
      </trkpt>
      <trkpt lat="45.26562" lon="0.45771">
        <ele>161</ele>
        <time>2025-04-16T11:09:07Z</time>
      </trkpt>
      <trkpt lat="45.26538" lon="0.4575">
        <ele>162</ele>
        <time>2025-04-16T11:09:12Z</time>
      </trkpt>
      <trkpt lat="45.26517" lon="0.45718">
        <ele>163</ele>
        <time>2025-04-16T11:09:18Z</time>
      </trkpt>
      <trkpt lat="45.26512" lon="0.45707">
        <ele>163</ele>
        <time>2025-04-16T11:09:19Z</time>
      </trkpt>
      <trkpt lat="45.265" lon="0.4568">
        <ele>165</ele>
        <time>2025-04-16T11:09:23Z</time>
      </trkpt>
      <trkpt lat="45.26487" lon="0.45631">
        <ele>165</ele>
        <time>2025-04-16T11:09:30Z</time>
      </trkpt>
      <trkpt lat="45.26485" lon="0.45588">
        <ele>165</ele>
        <time>2025-04-16T11:09:35Z</time>
      </trkpt>
      <trkpt lat="45.26486" lon="0.45522">
        <ele>165</ele>
        <time>2025-04-16T11:09:44Z</time>
      </trkpt>
      <trkpt lat="45.26477" lon="0.45454">
        <ele>162</ele>
        <time>2025-04-16T11:09:52Z</time>
      </trkpt>
      <trkpt lat="45.2645" lon="0.45309">
        <ele>153</ele>
        <time>2025-04-16T11:10:11Z</time>
      </trkpt>
      <trkpt lat="45.2641" lon="0.45104">
        <ele>147</ele>
        <time>2025-04-16T11:10:38Z</time>
      </trkpt>
      <trkpt lat="45.26395" lon="0.44996">
        <ele>144</ele>
        <time>2025-04-16T11:10:51Z</time>
      </trkpt>
      <trkpt lat="45.2639" lon="0.44952">
        <ele>143</ele>
        <time>2025-04-16T11:10:57Z</time>
      </trkpt>
      <trkpt lat="45.2639" lon="0.44943">
        <ele>143</ele>
        <time>2025-04-16T11:10:58Z</time>
      </trkpt>
      <trkpt lat="45.2639" lon="0.44876">
        <ele>142</ele>
        <time>2025-04-16T11:11:06Z</time>
      </trkpt>
      <trkpt lat="45.26392" lon="0.44841">
        <ele>142</ele>
        <time>2025-04-16T11:11:11Z</time>
      </trkpt>
      <trkpt lat="45.26397" lon="0.44808">
        <ele>142</ele>
        <time>2025-04-16T11:11:15Z</time>
      </trkpt>
      <trkpt lat="45.26413" lon="0.44717">
        <ele>141</ele>
        <time>2025-04-16T11:11:27Z</time>
      </trkpt>
      <trkpt lat="45.26434" lon="0.44631">
        <ele>139</ele>
        <time>2025-04-16T11:11:38Z</time>
      </trkpt>
      <trkpt lat="45.26437" lon="0.44613">
        <ele>139</ele>
        <time>2025-04-16T11:11:41Z</time>
      </trkpt>
      <trkpt lat="45.26452" lon="0.4454">
        <ele>137</ele>
        <time>2025-04-16T11:11:50Z</time>
      </trkpt>
      <trkpt lat="45.26457" lon="0.44496">
        <ele>136</ele>
        <time>2025-04-16T11:11:56Z</time>
      </trkpt>
      <trkpt lat="45.26455" lon="0.44438">
        <ele>136</ele>
        <time>2025-04-16T11:12:03Z</time>
      </trkpt>
      <trkpt lat="45.26451" lon="0.44398">
        <ele>136</ele>
        <time>2025-04-16T11:12:08Z</time>
      </trkpt>
      <trkpt lat="45.26443" lon="0.44348">
        <ele>136</ele>
        <time>2025-04-16T11:12:14Z</time>
      </trkpt>
      <trkpt lat="45.26404" lon="0.44206">
        <ele>137</ele>
        <time>2025-04-16T11:12:34Z</time>
      </trkpt>
      <trkpt lat="45.2639" lon="0.44151">
        <ele>137</ele>
        <time>2025-04-16T11:12:41Z</time>
      </trkpt>
      <trkpt lat="45.26369" lon="0.44057">
        <ele>136</ele>
        <time>2025-04-16T11:12:53Z</time>
      </trkpt>
      <trkpt lat="45.26349" lon="0.43953">
        <ele>137</ele>
        <time>2025-04-16T11:13:07Z</time>
      </trkpt>
      <trkpt lat="45.2634" lon="0.43932">
        <ele>137</ele>
        <time>2025-04-16T11:13:10Z</time>
      </trkpt>
      <trkpt lat="45.26339" lon="0.43928">
        <ele>137</ele>
        <time>2025-04-16T11:13:10Z</time>
      </trkpt>
      <trkpt lat="45.26333" lon="0.43915">
        <ele>137</ele>
        <time>2025-04-16T11:13:12Z</time>
      </trkpt>
      <trkpt lat="45.26302" lon="0.43867">
        <ele>133</ele>
        <time>2025-04-16T11:13:20Z</time>
      </trkpt>
      <trkpt lat="45.26289" lon="0.43842">
        <ele>131</ele>
        <time>2025-04-16T11:13:24Z</time>
      </trkpt>
      <trkpt lat="45.26278" lon="0.43819">
        <ele>130</ele>
        <time>2025-04-16T11:13:28Z</time>
      </trkpt>
      <trkpt lat="45.26258" lon="0.43761">
        <ele>127</ele>
        <time>2025-04-16T11:13:36Z</time>
      </trkpt>
      <trkpt lat="45.26239" lon="0.43722">
        <ele>125</ele>
        <time>2025-04-16T11:13:42Z</time>
      </trkpt>
      <trkpt lat="45.26221" lon="0.43702">
        <ele>123</ele>
        <time>2025-04-16T11:13:46Z</time>
      </trkpt>
      <trkpt lat="45.26206" lon="0.43685">
        <ele>122</ele>
        <time>2025-04-16T11:13:49Z</time>
      </trkpt>
      <trkpt lat="45.26176" lon="0.43664">
        <ele>121</ele>
        <time>2025-04-16T11:13:55Z</time>
      </trkpt>
      <trkpt lat="45.26144" lon="0.43653">
        <ele>119</ele>
        <time>2025-04-16T11:14:01Z</time>
      </trkpt>
      <trkpt lat="45.26113" lon="0.43653">
        <ele>117</ele>
        <time>2025-04-16T11:14:07Z</time>
      </trkpt>
      <trkpt lat="45.26085" lon="0.43644">
        <ele>115</ele>
        <time>2025-04-16T11:14:12Z</time>
      </trkpt>
      <trkpt lat="45.26062" lon="0.43619">
        <ele>112</ele>
        <time>2025-04-16T11:14:17Z</time>
      </trkpt>
      <trkpt lat="45.26057" lon="0.43611">
        <ele>111</ele>
        <time>2025-04-16T11:14:18Z</time>
      </trkpt>
      <trkpt lat="45.26044" lon="0.43588">
        <ele>109</ele>
        <time>2025-04-16T11:14:22Z</time>
      </trkpt>
      <trkpt lat="45.25994" lon="0.43415">
        <ele>99</ele>
        <time>2025-04-16T11:14:45Z</time>
      </trkpt>
      <trkpt lat="45.25985" lon="0.43328">
        <ele>97</ele>
        <time>2025-04-16T11:14:56Z</time>
      </trkpt>
      <trkpt lat="45.25973" lon="0.43251">
        <ele>94</ele>
        <time>2025-04-16T11:15:06Z</time>
      </trkpt>
      <trkpt lat="45.25947" lon="0.43139">
        <ele>89</ele>
        <time>2025-04-16T11:15:21Z</time>
      </trkpt>
      <trkpt lat="45.2591" lon="0.43029">
        <ele>82</ele>
        <time>2025-04-16T11:15:36Z</time>
      </trkpt>
      <trkpt lat="45.25872" lon="0.42898">
        <ele>77</ele>
        <time>2025-04-16T11:15:54Z</time>
      </trkpt>
      <trkpt lat="45.25867" lon="0.42865">
        <ele>75</ele>
        <time>2025-04-16T11:15:58Z</time>
      </trkpt>
      <trkpt lat="45.25872" lon="0.42805">
        <ele>73</ele>
        <time>2025-04-16T11:16:06Z</time>
      </trkpt>
      <trkpt lat="45.2587" lon="0.42756">
        <ele>70</ele>
        <time>2025-04-16T11:16:12Z</time>
      </trkpt>
      <trkpt lat="45.25865" lon="0.42659">
        <ele>69</ele>
        <time>2025-04-16T11:16:24Z</time>
      </trkpt>
      <trkpt lat="45.25864" lon="0.42621">
        <ele>69</ele>
        <time>2025-04-16T11:16:29Z</time>
      </trkpt>
      <trkpt lat="45.25858" lon="0.42555">
        <ele>69</ele>
        <time>2025-04-16T11:16:37Z</time>
      </trkpt>
      <trkpt lat="45.25856" lon="0.42543">
        <ele>70</ele>
        <time>2025-04-16T11:16:39Z</time>
      </trkpt>
      <trkpt lat="45.2581" lon="0.42413">
        <ele>71</ele>
        <time>2025-04-16T11:16:57Z</time>
      </trkpt>
      <trkpt lat="45.25782" lon="0.42278">
        <ele>73</ele>
        <time>2025-04-16T11:17:15Z</time>
      </trkpt>
      <trkpt lat="45.25758" lon="0.42148">
        <ele>76</ele>
        <time>2025-04-16T11:17:31Z</time>
      </trkpt>
      <trkpt lat="45.25756" lon="0.42011">
        <ele>75</ele>
        <time>2025-04-16T11:17:49Z</time>
      </trkpt>
      <trkpt lat="45.2576" lon="0.41983">
        <ele>75</ele>
        <time>2025-04-16T11:17:52Z</time>
      </trkpt>
      <trkpt lat="45.25797" lon="0.41921">
        <ele>79</ele>
        <time>2025-04-16T11:18:02Z</time>
      </trkpt>
      <trkpt lat="45.25804" lon="0.41894">
        <ele>80</ele>
        <time>2025-04-16T11:18:06Z</time>
      </trkpt>
      <trkpt lat="45.25808" lon="0.41861">
        <ele>82</ele>
        <time>2025-04-16T11:18:10Z</time>
      </trkpt>
      <trkpt lat="45.25813" lon="0.41811">
        <ele>84</ele>
        <time>2025-04-16T11:18:17Z</time>
      </trkpt>
      <trkpt lat="45.25831" lon="0.4171">
        <ele>88</ele>
        <time>2025-04-16T11:18:30Z</time>
      </trkpt>
      <trkpt lat="45.25838" lon="0.4167">
        <ele>88</ele>
        <time>2025-04-16T11:18:35Z</time>
      </trkpt>
      <trkpt lat="45.25911" lon="0.41421">
        <ele>82</ele>
        <time>2025-04-16T11:19:08Z</time>
      </trkpt>
      <trkpt lat="45.25919" lon="0.41374">
        <ele>83</ele>
        <time>2025-04-16T11:19:15Z</time>
      </trkpt>
      <trkpt lat="45.25925" lon="0.41291">
        <ele>82</ele>
        <time>2025-04-16T11:19:25Z</time>
      </trkpt>
      <trkpt lat="45.25934" lon="0.41086">
        <ele>80</ele>
        <time>2025-04-16T11:19:51Z</time>
      </trkpt>
      <trkpt lat="45.2593" lon="0.41063">
        <ele>79</ele>
        <time>2025-04-16T11:19:54Z</time>
      </trkpt>
      <trkpt lat="45.25928" lon="0.41058">
        <ele>79</ele>
        <time>2025-04-16T11:19:54Z</time>
      </trkpt>
      <trkpt lat="45.25933" lon="0.41044">
        <ele>79</ele>
        <time>2025-04-16T11:19:56Z</time>
      </trkpt>
      <trkpt lat="45.25937" lon="0.41026">
        <ele>78</ele>
        <time>2025-04-16T11:19:59Z</time>
      </trkpt>
      <trkpt lat="45.25944" lon="0.40932">
        <ele>76</ele>
        <time>2025-04-16T11:20:11Z</time>
      </trkpt>
      <trkpt lat="45.25947" lon="0.40837">
        <ele>75</ele>
        <time>2025-04-16T11:20:22Z</time>
      </trkpt>
      <trkpt lat="45.25951" lon="0.40773">
        <ele>74</ele>
        <time>2025-04-16T11:20:31Z</time>
      </trkpt>
      <trkpt lat="45.25957" lon="0.40735">
        <ele>74</ele>
        <time>2025-04-16T11:20:35Z</time>
      </trkpt>
      <trkpt lat="45.25968" lon="0.40686">
        <ele>72</ele>
        <time>2025-04-16T11:20:42Z</time>
      </trkpt>
      <trkpt lat="45.25988" lon="0.40623">
        <ele>71</ele>
        <time>2025-04-16T11:20:51Z</time>
      </trkpt>
      <trkpt lat="45.2605" lon="0.40421">
        <ele>70</ele>
        <time>2025-04-16T11:21:18Z</time>
      </trkpt>
      <trkpt lat="45.26102" lon="0.4028">
        <ele>70</ele>
        <time>2025-04-16T11:21:38Z</time>
      </trkpt>
      <trkpt lat="45.26149" lon="0.4019">
        <ele>71</ele>
        <time>2025-04-16T11:21:52Z</time>
      </trkpt>
      <trkpt lat="45.26331" lon="0.39838">
        <ele>73</ele>
        <time>2025-04-16T11:22:47Z</time>
      </trkpt>
      <trkpt lat="45.2636" lon="0.39772">
        <ele>74</ele>
        <time>2025-04-16T11:22:57Z</time>
      </trkpt>
      <trkpt lat="45.26371" lon="0.39738">
        <ele>75</ele>
        <time>2025-04-16T11:23:01Z</time>
      </trkpt>
      <trkpt lat="45.26373" lon="0.39727">
        <ele>75</ele>
        <time>2025-04-16T11:23:03Z</time>
      </trkpt>
      <trkpt lat="45.26374" lon="0.39722">
        <ele>76</ele>
        <time>2025-04-16T11:23:03Z</time>
      </trkpt>
      <trkpt lat="45.26378" lon="0.39696">
        <ele>76</ele>
        <time>2025-04-16T11:23:07Z</time>
      </trkpt>
      <trkpt lat="45.26378" lon="0.39652">
        <ele>76</ele>
        <time>2025-04-16T11:23:12Z</time>
      </trkpt>
      <trkpt lat="45.26366" lon="0.39463">
        <ele>74</ele>
        <time>2025-04-16T11:23:36Z</time>
      </trkpt>
      <trkpt lat="45.26361" lon="0.39375">
        <ele>71</ele>
        <time>2025-04-16T11:23:47Z</time>
      </trkpt>
      <trkpt lat="45.26347" lon="0.39157">
        <ele>67</ele>
        <time>2025-04-16T11:24:14Z</time>
      </trkpt>
      <trkpt lat="45.26349" lon="0.39121">
        <ele>67</ele>
        <time>2025-04-16T11:24:19Z</time>
      </trkpt>
      <trkpt lat="45.26351" lon="0.39108">
        <ele>67</ele>
        <time>2025-04-16T11:24:21Z</time>
      </trkpt>
      <trkpt lat="45.26355" lon="0.39087">
        <ele>67</ele>
        <time>2025-04-16T11:24:23Z</time>
      </trkpt>
      <trkpt lat="45.26357" lon="0.39081">
        <ele>67</ele>
        <time>2025-04-16T11:24:24Z</time>
      </trkpt>
      <trkpt lat="45.26355" lon="0.39069">
        <ele>67</ele>
        <time>2025-04-16T11:24:26Z</time>
      </trkpt>
      <trkpt lat="45.26355" lon="0.39054">
        <ele>68</ele>
        <time>2025-04-16T11:24:28Z</time>
      </trkpt>
      <trkpt lat="45.26366" lon="0.38959">
        <ele>69</ele>
        <time>2025-04-16T11:24:40Z</time>
      </trkpt>
      <trkpt lat="45.26368" lon="0.3894">
        <ele>69</ele>
        <time>2025-04-16T11:24:42Z</time>
      </trkpt>
      <trkpt lat="45.26366" lon="0.38926">
        <ele>69</ele>
        <time>2025-04-16T11:24:44Z</time>
      </trkpt>
      <trkpt lat="45.26357" lon="0.38898">
        <ele>70</ele>
        <time>2025-04-16T11:24:48Z</time>
      </trkpt>
      <trkpt lat="45.26329" lon="0.38843">
        <ele>70</ele>
        <time>2025-04-16T11:24:56Z</time>
      </trkpt>
      <trkpt lat="45.26312" lon="0.38807">
        <ele>71</ele>
        <time>2025-04-16T11:25:02Z</time>
      </trkpt>
      <trkpt lat="45.26306" lon="0.38785">
        <ele>71</ele>
        <time>2025-04-16T11:25:05Z</time>
      </trkpt>
      <trkpt lat="45.26304" lon="0.38759">
        <ele>72</ele>
        <time>2025-04-16T11:25:08Z</time>
      </trkpt>
      <trkpt lat="45.26306" lon="0.38595">
        <ele>77</ele>
        <time>2025-04-16T11:25:28Z</time>
      </trkpt>
      <trkpt lat="45.26306" lon="0.38562">
        <ele>77</ele>
        <time>2025-04-16T11:25:32Z</time>
      </trkpt>
      <trkpt lat="45.26307" lon="0.38519">
        <ele>78</ele>
        <time>2025-04-16T11:25:38Z</time>
      </trkpt>
      <trkpt lat="45.26305" lon="0.38475">
        <ele>78</ele>
        <time>2025-04-16T11:25:43Z</time>
      </trkpt>
      <trkpt lat="45.2629" lon="0.38307">
        <ele>78</ele>
        <time>2025-04-16T11:26:05Z</time>
      </trkpt>
      <trkpt lat="45.26285" lon="0.38233">
        <ele>78</ele>
        <time>2025-04-16T11:26:14Z</time>
      </trkpt>
      <trkpt lat="45.26284" lon="0.38172">
        <ele>78</ele>
        <time>2025-04-16T11:26:22Z</time>
      </trkpt>
      <trkpt lat="45.26288" lon="0.38084">
        <ele>78</ele>
        <time>2025-04-16T11:26:33Z</time>
      </trkpt>
      <trkpt lat="45.26293" lon="0.38053">
        <ele>77</ele>
        <time>2025-04-16T11:26:37Z</time>
      </trkpt>
      <trkpt lat="45.26297" lon="0.38032">
        <ele>77</ele>
        <time>2025-04-16T11:26:39Z</time>
      </trkpt>
      <trkpt lat="45.2631" lon="0.3799">
        <ele>77</ele>
        <time>2025-04-16T11:26:45Z</time>
      </trkpt>
      <trkpt lat="45.26335" lon="0.37922">
        <ele>77</ele>
        <time>2025-04-16T11:26:55Z</time>
      </trkpt>
      <trkpt lat="45.26341" lon="0.37884">
        <ele>78</ele>
        <time>2025-04-16T11:27:00Z</time>
      </trkpt>
      <trkpt lat="45.26342" lon="0.37856">
        <ele>78</ele>
        <time>2025-04-16T11:27:03Z</time>
      </trkpt>
      <trkpt lat="45.2634" lon="0.37826">
        <ele>79</ele>
        <time>2025-04-16T11:27:07Z</time>
      </trkpt>
      <trkpt lat="45.26335" lon="0.37798">
        <ele>79</ele>
        <time>2025-04-16T11:27:10Z</time>
      </trkpt>
      <trkpt lat="45.2632" lon="0.37749">
        <ele>78</ele>
        <time>2025-04-16T11:27:17Z</time>
      </trkpt>
      <trkpt lat="45.26312" lon="0.3771">
        <ele>78</ele>
        <time>2025-04-16T11:27:22Z</time>
      </trkpt>
      <trkpt lat="45.26307" lon="0.37659">
        <ele>77</ele>
        <time>2025-04-16T11:27:29Z</time>
      </trkpt>
      <trkpt lat="45.26304" lon="0.37557">
        <ele>75</ele>
        <time>2025-04-16T11:27:41Z</time>
      </trkpt>
      <trkpt lat="45.26294" lon="0.37473">
        <ele>74</ele>
        <time>2025-04-16T11:27:52Z</time>
      </trkpt>
      <trkpt lat="45.26291" lon="0.37435">
        <ele>74</ele>
        <time>2025-04-16T11:27:57Z</time>
      </trkpt>
      <trkpt lat="45.2629" lon="0.37407">
        <ele>74</ele>
        <time>2025-04-16T11:28:00Z</time>
      </trkpt>
      <trkpt lat="45.26295" lon="0.37243">
        <ele>68</ele>
        <time>2025-04-16T11:28:21Z</time>
      </trkpt>
      <trkpt lat="45.26295" lon="0.37219">
        <ele>67</ele>
        <time>2025-04-16T11:28:24Z</time>
      </trkpt>
      <trkpt lat="45.26299" lon="0.37017">
        <ele>67</ele>
        <time>2025-04-16T11:28:49Z</time>
      </trkpt>
      <trkpt lat="45.26268" lon="0.36602">
        <ele>72</ele>
        <time>2025-04-16T11:29:42Z</time>
      </trkpt>
      <trkpt lat="45.26264" lon="0.36545">
        <ele>71</ele>
        <time>2025-04-16T11:29:49Z</time>
      </trkpt>
      <trkpt lat="45.2626" lon="0.36454">
        <ele>71</ele>
        <time>2025-04-16T11:30:00Z</time>
      </trkpt>
      <trkpt lat="45.26238" lon="0.36376">
        <ele>69</ele>
        <time>2025-04-16T11:30:11Z</time>
      </trkpt>
      <trkpt lat="45.2623" lon="0.36336">
        <ele>69</ele>
        <time>2025-04-16T11:30:16Z</time>
      </trkpt>
      <trkpt lat="45.26227" lon="0.36312">
        <ele>69</ele>
        <time>2025-04-16T11:30:19Z</time>
      </trkpt>
      <trkpt lat="45.26225" lon="0.36273">
        <ele>69</ele>
        <time>2025-04-16T11:30:24Z</time>
      </trkpt>
      <trkpt lat="45.26225" lon="0.36143">
        <ele>68</ele>
        <time>2025-04-16T11:30:40Z</time>
      </trkpt>
      <trkpt lat="45.26222" lon="0.36124">
        <ele>67</ele>
        <time>2025-04-16T11:30:43Z</time>
      </trkpt>
      <trkpt lat="45.26216" lon="0.36088">
        <ele>67</ele>
        <time>2025-04-16T11:30:47Z</time>
      </trkpt>
      <trkpt lat="45.26214" lon="0.36082">
        <ele>67</ele>
        <time>2025-04-16T11:30:48Z</time>
      </trkpt>
      <trkpt lat="45.26212" lon="0.36074">
        <ele>67</ele>
        <time>2025-04-16T11:30:49Z</time>
      </trkpt>
      <trkpt lat="45.26199" lon="0.36014">
        <ele>66</ele>
        <time>2025-04-16T11:30:57Z</time>
      </trkpt>
      <trkpt lat="45.26194" lon="0.35955">
        <ele>65</ele>
        <time>2025-04-16T11:31:04Z</time>
      </trkpt>
      <trkpt lat="45.26191" lon="0.35837">
        <ele>64</ele>
        <time>2025-04-16T11:31:19Z</time>
      </trkpt>
      <trkpt lat="45.26186" lon="0.35739">
        <ele>66</ele>
        <time>2025-04-16T11:31:31Z</time>
      </trkpt>
      <trkpt lat="45.26159" lon="0.35533">
        <ele>65</ele>
        <time>2025-04-16T11:31:58Z</time>
      </trkpt>
      <trkpt lat="45.26148" lon="0.35455">
        <ele>65</ele>
        <time>2025-04-16T11:32:08Z</time>
      </trkpt>
      <trkpt lat="45.26146" lon="0.35406">
        <ele>65</ele>
        <time>2025-04-16T11:32:14Z</time>
      </trkpt>
      <trkpt lat="45.26148" lon="0.35373">
        <ele>65</ele>
        <time>2025-04-16T11:32:18Z</time>
      </trkpt>
      <trkpt lat="45.26154" lon="0.35333">
        <ele>65</ele>
        <time>2025-04-16T11:32:23Z</time>
      </trkpt>
      <trkpt lat="45.2618" lon="0.35175">
        <ele>64</ele>
        <time>2025-04-16T11:32:43Z</time>
      </trkpt>
      <trkpt lat="45.26201" lon="0.35053">
        <ele>64</ele>
        <time>2025-04-16T11:32:59Z</time>
      </trkpt>
      <trkpt lat="45.2625" lon="0.3476">
        <ele>64</ele>
        <time>2025-04-16T11:33:37Z</time>
      </trkpt>
      <trkpt lat="45.26254" lon="0.34733">
        <ele>64</ele>
        <time>2025-04-16T11:33:40Z</time>
      </trkpt>
      <trkpt lat="45.26254" lon="0.34713">
        <ele>64</ele>
        <time>2025-04-16T11:33:43Z</time>
      </trkpt>
      <trkpt lat="45.26249" lon="0.34681">
        <ele>63</ele>
        <time>2025-04-16T11:33:47Z</time>
      </trkpt>
      <trkpt lat="45.26167" lon="0.34427">
        <ele>62</ele>
        <time>2025-04-16T11:34:22Z</time>
      </trkpt>
      <trkpt lat="45.26135" lon="0.34322">
        <ele>61</ele>
        <time>2025-04-16T11:34:36Z</time>
      </trkpt>
      <trkpt lat="45.26131" lon="0.34298">
        <ele>61</ele>
        <time>2025-04-16T11:34:39Z</time>
      </trkpt>
      <trkpt lat="45.26132" lon="0.34295">
        <ele>61</ele>
        <time>2025-04-16T11:34:40Z</time>
      </trkpt>
      <trkpt lat="45.26133" lon="0.34285">
        <ele>61</ele>
        <time>2025-04-16T11:34:41Z</time>
      </trkpt>
      <trkpt lat="45.26128" lon="0.34278">
        <ele>61</ele>
        <time>2025-04-16T11:34:42Z</time>
      </trkpt>
      <trkpt lat="45.26122" lon="0.34276">
        <ele>61</ele>
        <time>2025-04-16T11:34:43Z</time>
      </trkpt>
      <trkpt lat="45.2612" lon="0.34278">
        <ele>61</ele>
        <time>2025-04-16T11:34:44Z</time>
      </trkpt>
      <trkpt lat="45.26115" lon="0.34285">
        <ele>61</ele>
        <time>2025-04-16T11:34:45Z</time>
      </trkpt>
      <trkpt lat="45.26108" lon="0.34286">
        <ele>61</ele>
        <time>2025-04-16T11:34:46Z</time>
      </trkpt>
      <trkpt lat="45.26101" lon="0.34287">
        <ele>61</ele>
        <time>2025-04-16T11:34:48Z</time>
      </trkpt>
      <trkpt lat="45.26056" lon="0.34284">
        <ele>61</ele>
        <time>2025-04-16T11:34:56Z</time>
      </trkpt>
      <trkpt lat="45.25963" lon="0.34288">
        <ele>61</ele>
        <time>2025-04-16T11:35:12Z</time>
      </trkpt>
      <trkpt lat="45.25925" lon="0.34288">
        <ele>61</ele>
        <time>2025-04-16T11:35:19Z</time>
      </trkpt>
      <trkpt lat="45.25797" lon="0.3429">
        <ele>63</ele>
        <time>2025-04-16T11:35:42Z</time>
      </trkpt>
      <trkpt lat="45.25768" lon="0.34291">
        <ele>62</ele>
        <time>2025-04-16T11:35:47Z</time>
      </trkpt>
      <trkpt lat="45.25715" lon="0.34292">
        <ele>62</ele>
        <time>2025-04-16T11:35:56Z</time>
      </trkpt>
      <trkpt lat="45.25693" lon="0.3429">
        <ele>61</ele>
        <time>2025-04-16T11:36:00Z</time>
      </trkpt>
      <trkpt lat="45.25678" lon="0.34286">
        <ele>61</ele>
        <time>2025-04-16T11:36:03Z</time>
      </trkpt>
      <trkpt lat="45.2566" lon="0.34276">
        <ele>61</ele>
        <time>2025-04-16T11:36:06Z</time>
      </trkpt>
      <trkpt lat="45.25619" lon="0.34246">
        <ele>63</ele>
        <time>2025-04-16T11:36:15Z</time>
      </trkpt>
      <trkpt lat="45.25604" lon="0.34233">
        <ele>63</ele>
        <time>2025-04-16T11:36:18Z</time>
      </trkpt>
      <trkpt lat="45.25516" lon="0.34169">
        <ele>65</ele>
        <time>2025-04-16T11:36:35Z</time>
      </trkpt>
      <trkpt lat="45.25505" lon="0.34162">
        <ele>65</ele>
        <time>2025-04-16T11:36:37Z</time>
      </trkpt>
      <trkpt lat="45.25472" lon="0.34135">
        <ele>67</ele>
        <time>2025-04-16T11:36:44Z</time>
      </trkpt>
      <trkpt lat="45.25463" lon="0.34113">
        <ele>67</ele>
        <time>2025-04-16T11:36:47Z</time>
      </trkpt>
      <trkpt lat="45.25463" lon="0.34104">
        <ele>67</ele>
        <time>2025-04-16T11:36:48Z</time>
      </trkpt>
      <trkpt lat="45.25462" lon="0.34099">
        <ele>67</ele>
        <time>2025-04-16T11:36:49Z</time>
      </trkpt>
      <trkpt lat="45.25471" lon="0.34081">
        <ele>66</ele>
        <time>2025-04-16T11:36:52Z</time>
      </trkpt>
      <trkpt lat="45.25484" lon="0.34069">
        <ele>66</ele>
        <time>2025-04-16T11:36:55Z</time>
      </trkpt>
      <trkpt lat="45.2549" lon="0.34061">
        <ele>65</ele>
        <time>2025-04-16T11:36:56Z</time>
      </trkpt>
      <trkpt lat="45.255" lon="0.34039">
        <ele>64</ele>
        <time>2025-04-16T11:36:59Z</time>
      </trkpt>
      <trkpt lat="45.25507" lon="0.3401">
        <ele>64</ele>
        <time>2025-04-16T11:37:03Z</time>
      </trkpt>
      <trkpt lat="45.25513" lon="0.33978">
        <ele>64</ele>
        <time>2025-04-16T11:37:07Z</time>
      </trkpt>
      <trkpt lat="45.25514" lon="0.33974">
        <ele>64</ele>
        <time>2025-04-16T11:37:08Z</time>
      </trkpt>
      <trkpt lat="45.25547" lon="0.33806">
        <ele>67</ele>
        <time>2025-04-16T11:37:30Z</time>
      </trkpt>
      <trkpt lat="45.25549" lon="0.33787">
        <ele>67</ele>
        <time>2025-04-16T11:37:32Z</time>
      </trkpt>
      <trkpt lat="45.2555" lon="0.33766">
        <ele>68</ele>
        <time>2025-04-16T11:37:35Z</time>
      </trkpt>
      <trkpt lat="45.25547" lon="0.33741">
        <ele>68</ele>
        <time>2025-04-16T11:37:38Z</time>
      </trkpt>
      <trkpt lat="45.25541" lon="0.33708">
        <ele>69</ele>
        <time>2025-04-16T11:37:42Z</time>
      </trkpt>
      <trkpt lat="45.25539" lon="0.33679">
        <ele>69</ele>
        <time>2025-04-16T11:37:46Z</time>
      </trkpt>
      <trkpt lat="45.25536" lon="0.33672">
        <ele>70</ele>
        <time>2025-04-16T11:37:47Z</time>
      </trkpt>
      <trkpt lat="45.2553" lon="0.33667">
        <ele>70</ele>
        <time>2025-04-16T11:37:48Z</time>
      </trkpt>
      <trkpt lat="45.25452" lon="0.33655">
        <ele>70</ele>
        <time>2025-04-16T11:38:02Z</time>
      </trkpt>
      <trkpt lat="45.25437" lon="0.3365">
        <ele>69</ele>
        <time>2025-04-16T11:38:05Z</time>
      </trkpt>
      <trkpt lat="45.25316" lon="0.3363">
        <ele>71</ele>
        <time>2025-04-16T11:38:27Z</time>
      </trkpt>
      <trkpt lat="45.25296" lon="0.33628">
        <ele>72</ele>
        <time>2025-04-16T11:38:30Z</time>
      </trkpt>
      <trkpt lat="45.25271" lon="0.33624">
        <ele>72</ele>
        <time>2025-04-16T11:38:35Z</time>
      </trkpt>
      <trkpt lat="45.25248" lon="0.33621">
        <ele>72</ele>
        <time>2025-04-16T11:38:39Z</time>
      </trkpt>
      <trkpt lat="45.2516" lon="0.33606">
        <ele>72</ele>
        <time>2025-04-16T11:38:54Z</time>
      </trkpt>
      <trkpt lat="45.25116" lon="0.33599">
        <ele>72</ele>
        <time>2025-04-16T11:39:02Z</time>
      </trkpt>
      <trkpt lat="45.25076" lon="0.33593">
        <ele>72</ele>
        <time>2025-04-16T11:39:10Z</time>
      </trkpt>
      <trkpt lat="45.25073" lon="0.33623">
        <ele>71</ele>
        <time>2025-04-16T11:39:13Z</time>
      </trkpt>
      <trkpt lat="45.25077" lon="0.33681">
        <ele>70</ele>
        <time>2025-04-16T11:39:21Z</time>
      </trkpt>
      <trkpt lat="45.25052" lon="0.33686">
        <ele>71</ele>
        <time>2025-04-16T11:39:25Z</time>
      </trkpt>
      <trkpt lat="45.25043" lon="0.33688">
        <ele>71</ele>
        <time>2025-04-16T11:39:27Z</time>
      </trkpt>
      <trkpt lat="45.2503" lon="0.33691">
        <ele>71</ele>
        <time>2025-04-16T11:39:29Z</time>
      </trkpt>
      <trkpt lat="45.25015" lon="0.33694">
        <ele>71</ele>
        <time>2025-04-16T11:39:32Z</time>
      </trkpt>
      <trkpt lat="45.25001" lon="0.33696">
        <ele>72</ele>
        <time>2025-04-16T11:39:34Z</time>
      </trkpt>
      <trkpt lat="45.24984" lon="0.337">
        <ele>72</ele>
        <time>2025-04-16T11:39:37Z</time>
      </trkpt>
      <trkpt lat="45.24959" lon="0.33705">
        <ele>72</ele>
        <time>2025-04-16T11:39:42Z</time>
      </trkpt>
      <trkpt lat="45.24959" lon="0.33699">
        <ele>72</ele>
        <time>2025-04-16T11:39:43Z</time>
      </trkpt>
      <trkpt lat="45.24959" lon="0.33697">
        <ele>73</ele>
        <time>2025-04-16T11:39:43Z</time>
      </trkpt>
      <trkpt lat="45.24964" lon="0.33696">
        <ele>72</ele>
        <time>2025-04-16T11:39:44Z</time>
      </trkpt>
    </trkseg>
  </trk>
</gpx>